# Wetter Temperatur Luftdruck Luftfeuchtigkeit Sichtweite Windgeschwindigkeit Windrichtung Zeit
1 Clouds 12 1013 92 10000 4.12 250 07:41 02.10.2022
2 Clouds 12 1012 88 10000 5.14 250 02:55 02.10.2022
3 Clouds 11 1011 90 10000 3.09 250 00:50 02.10.2022
4 Clear 11 1011 90 10000 4.12 260 00:22 02.10.2022
5 Clear 11 1009 89 10000 4.63 250 22:53 01.10.2022
6 Clouds 12 1008 88 10000 4.63 260 20:54 01.10.2022
7 Clear 13 1005 88 10000 4.63 260 18:51 01.10.2022
8 Rain 14 1004 76 10000 5.66 270 16:42 01.10.2022
9 Clouds 16 1002 78 10000 7.72 250 14:42 01.10.2022
10 Clouds 14 1002 85 10000 6.17 240 13:32 01.10.2022
11 Clouds 13 1001 89 10000 5.66 230 12:33 01.10.2022
12 Clouds 11 1002 91 7000 5.66 210 11:21 01.10.2022
13 Clouds 11 1001 91 10000 5.66 200 10:32 01.10.2022
14 Drizzle 10 1001 92 10000 5.66 190 09:55 01.10.2022
15 Rain 10 1002 90 10000 7.72 190 08:58 01.10.2022
16 Rain 11 1004 77 10000 4.63 170 05:47 01.10.2022
17 Clear 11 1006 78 10000 2.06 150 03:34 01.10.2022
18 Clear 11 1007 79 10000 4.12 190 01:21 01.10.2022
19 Clear 10 1009 78 10000 3.09 180 22:55 30.09.2022
20 Clear 11 1009 78 10000 2.06 160 21:31 30.09.2022
21 Clear 11 1009 82 10000 2.06 180 20:44 30.09.2022
22 Clear 12 1009 82 10000 2.06 190 20:18 30.09.2022
23 Clear 16 1009 54 10000 3.6 210 17:38 30.09.2022
24 Clouds 17 1009 53 10000 3.09 230 16:25 30.09.2022
25 Clouds 15 1010 59 10000 4.63 240 13:40 30.09.2022
26 Clear 14 1010 67 10000 2.57 220 11:59 30.09.2022
27 Clear 13 1010 71 10000 2.57 210 11:31 30.09.2022
28 Clear 7 1009 91 10000 0 0 08:37 30.09.2022
29 Fog 6 1008 92 7000 0.51 0 06:27 30.09.2022
30 Clouds 8 1007 89 10000 1.03 0 02:42 30.09.2022
31 Clouds 9 1006 84 10000 0.51 220 23:47 29.09.2022
32 Clear 10 1005 78 10000 0.51 360 21:29 29.09.2022
33 Clear 9 1004 87 10000 0.51 140 20:59 29.09.2022
34 Clear 13 1003 74 10000 1.54 260 18:45 29.09.2022
35 Clouds 15 1002 61 10000 2.57 270 17:32 29.09.2022
36 Clear 15 1002 61 10000 2.57 270 16:28 29.09.2022
37 Clear 15 1002 68 10000 2.57 240 15:36 29.09.2022
38 Clear 14 1002 65 10000 2.06 240 14:35 29.09.2022
39 Clouds 12 1002 79 10000 3.09 250 11:48 29.09.2022
40 Fog 6 1000 93 7000 1.03 0 07:26 29.09.2022
41 Fog 7 999 90 1100 0 0 02:52 29.09.2022
42 Clear 8 999 94 10000 0.51 210 23:56 28.09.2022
43 Clear 8 999 94 10000 0.51 210 23:56 28.09.2022
44 Clear 7 999 97 10000 0.51 0 22:58 28.09.2022
45 Clouds 8 999 95 10000 0.51 240 21:30 28.09.2022
46 Clouds 8 999 95 10000 0.51 240 21:30 28.09.2022
47 Fog 8 998 94 10000 1.03 220 20:25 28.09.2022
48 Clouds 10 997 87 10000 1.54 280 18:42 28.09.2022
49 Clouds 10 996 88 10000 2.06 260 15:32 28.09.2022
50 Clouds 9 995 90 10000 2.06 270 13:27 28.09.2022
51 Mist 9 995 93 3700 2.57 310 11:18 28.09.2022
52 Rain 8 994 94 7000 2.57 340 09:18 28.09.2022
53 Rain 8 994 94 7000 2.06 70 07:20 28.09.2022
54 Drizzle 8 994 92 10000 1.03 170 04:34 28.09.2022
55 Clouds 8 996 94 10000 1.54 190 01:36 28.09.2022
56 Clouds 8 996 93 10000 1.03 0 23:27 27.09.2022
57 Clear 9 996 94 10000 2.06 220 21:47 27.09.2022
58 Clouds 9 996 94 10000 3.09 240 20:44 27.09.2022
59 Rain 9 996 94 10000 2.06 220 19:48 27.09.2022
60 Rain 9 996 94 10000 2.06 240 18:45 27.09.2022
61 Rain 10 995 91 10000 3.09 240 17:45 27.09.2022
62 Rain 11 995 85 10000 4.63 250 15:58 27.09.2022
63 Rain 11 995 79 10000 5.14 250 14:58 27.09.2022
64 Rain 12 995 84 10000 5.66 270 12:53 27.09.2022
65 Clouds 12 994 83 10000 7.2 260 12:21 27.09.2022
66 Clouds 10 993 93 10000 4.63 270 09:34 27.09.2022
67 Rain 10 992 95 10000 3.6 270 06:56 27.09.2022
68 Clouds 10 993 93 10000 3.09 190 02:41 27.09.2022
69 Rain 10 993 90 10000 3.6 190 01:35 27.09.2022
70 Rain 11 994 86 10000 3.09 190 23:35 26.09.2022
71 Rain 11 995 86 10000 3.6 190 22:40 26.09.2022
72 Drizzle 12 996 78 10000 4.63 200 20:46 26.09.2022
73 Clouds 12 996 78 10000 4.63 200 19:32 26.09.2022
74 Drizzle 12 997 83 10000 4.63 190 18:32 26.09.2022
75 Rain 13 999 78 10000 4.12 200 16:36 26.09.2022
76 Drizzle 13 1000 77 10000 5.14 220 14:37 26.09.2022
77 Rain 15 1002 71 10000 4.63 220 11:30 26.09.2022
78 Clouds 13 1002 71 10000 5.14 220 10:39 26.09.2022
79 Clear 13 1002 71 10000 4.63 210 10:20 26.09.2022
80 Clear 12 1003 80 10000 4.12 200 09:55 26.09.2022
81 Clouds 12 1003 78 10000 3.09 200 09:24 26.09.2022
82 Clear 11 1003 78 10000 3.6 200 08:57 26.09.2022
83 Clear 9 1008 88 10000 1.03 0 02:57 26.09.2022
84 Clear 10 1010 88 10000 1.03 190 23:57 25.09.2022
85 Clouds 11 1010 85 10000 1.03 0 22:45 25.09.2022
86 Clouds 11 1010 93 10000 0.51 0 21:35 25.09.2022
87 Clear 11 1010 89 10000 0.51 230 20:48 25.09.2022
88 Clear 13 1011 86 10000 1.54 290 19:43 25.09.2022
89 Clear 14 1011 86 10000 3.09 300 18:43 25.09.2022
90 Clear 15 1010 80 10000 2.57 300 18:20 25.09.2022
91 Clouds 16 1011 75 10000 5.14 300 16:45 25.09.2022
92 Clouds 16 1012 63 10000 3.09 330 15:45 25.09.2022
93 Clouds 15 1011 75 10000 3.6 310 14:29 25.09.2022
94 Drizzle 14 1012 89 10000 3.6 290 12:57 25.09.2022
95 Clouds 12 1012 92 10000 3.6 280 10:36 25.09.2022
96 Clouds 12 1012 96 10000 2.57 270 08:24 25.09.2022
97 Drizzle 12 1012 96 4000 3.6 280 05:47 25.09.2022
98 Mist 12 1012 96 2100 2.57 260 02:57 25.09.2022
99 Rain 13 1012 92 10000 1.54 230 22:35 24.09.2022
100 Rain 13 1012 94 10000 2.06 200 20:55 24.09.2022
101 Rain 14 1012 91 9000 2.06 200 19:23 24.09.2022
102 Rain 14 1012 93 10000 3.09 200 17:49 24.09.2022
103 Drizzle 15 1012 89 10000 3.09 220 16:25 24.09.2022
104 Rain 15 1012 86 10000 3.09 220 15:20 24.09.2022
105 Rain 15 1013 77 10000 2.06 170 13:25 24.09.2022
106 Rain 14 1013 82 10000 2.06 160 12:50 24.09.2022
107 Rain 13 1012 86 10000 1.03 0 10:54 24.09.2022
108 Clouds 12 1012 93 10000 0.51 0 09:40 24.09.2022
109 Rain 12 1012 88 10000 1.03 0 08:43 24.09.2022
110 Rain 12 1012 88 10000 1.03 0 08:43 24.09.2022
111 Rain 12 1011 89 10000 0.51 0 07:24 24.09.2022
112 Rain 13 1012 84 10000 1.03 0 04:40 24.09.2022
113 Clear 13 1012 80 10000 0.51 240 02:19 24.09.2022
114 Rain 14 1013 79 10000 0.51 0 22:28 23.09.2022
115 Rain 14 1014 78 10000 0.51 90 21:28 23.09.2022
116 Rain 15 1014 78 10000 0.51 80 20:56 23.09.2022
117 Rain 16 1014 68 10000 1.54 160 20:20 23.09.2022
118 Clear 17 1014 61 10000 1.03 0 18:27 23.09.2022
119 Clear 19 1015 48 10000 3.09 190 13:45 23.09.2022
120 Clear 14 1017 69 10000 2.57 160 10:27 23.09.2022
121 Clear 11 1017 78 10000 1.54 140 09:29 23.09.2022
122 Clear 9 1018 78 10000 2.57 160 04:59 23.09.2022
123 Clear 10 1020 81 10000 1.54 110 23:31 22.09.2022
124 Clear 11 1020 79 10000 1.54 100 22:41 22.09.2022
125 Clear 11 1020 78 10000 2.06 110 22:19 22.09.2022
126 Clear 13 1020 76 10000 1.54 120 20:45 22.09.2022
127 Clear 15 1020 64 10000 1.54 150 19:23 22.09.2022
128 Clear 18 1021 48 10000 3.6 190 16:53 22.09.2022
129 Clear 15 1024 72 10000 1.54 120 11:36 22.09.2022
130 Clear 12 1024 86 10000 1.03 0 10:20 22.09.2022
131 Clear 8 1024 92 10000 0.51 0 08:39 22.09.2022
132 Clear 6 1023 86 10000 0 0 06:27 22.09.2022
133 Mist 7 1025 83 10000 0.51 30 02:39 22.09.2022
134 Clear 10 1025 82 10000 0 0 22:32 21.09.2022
135 Clear 10 1025 91 10000 0 0 21:38 21.09.2022
136 Clear 14 1025 77 10000 0.51 360 19:36 21.09.2022
137 Clear 16 1025 54 10000 1.54 290 17:46 21.09.2022
138 Clouds 18 1025 45 10000 2.57 300 16:22 21.09.2022
139 Clear 16 1027 52 10000 1.54 0 13:57 21.09.2022
140 Clear 14 1027 67 10000 2.06 280 12:19 21.09.2022
141 Clear 13 1027 79 10000 1.54 270 11:28 21.09.2022
142 Clear 9 1027 91 10000 1.54 260 09:47 21.09.2022
143 Fog 7 1026 91 250 0.51 260 08:53 21.09.2022
144 Fog 6 1026 92 500 1.03 0 06:20 21.09.2022
145 Fog 7 1025 91 500 1.03 0 02:44 21.09.2022
146 Fog 8 1025 91 450 1.03 250 02:20 21.09.2022
147 Mist 9 1025 90 10000 1.03 280 00:26 21.09.2022
148 Clear 10 1024 91 10000 0.51 0 22:30 20.09.2022
149 Clear 11 1023 90 10000 1.54 240 20:37 20.09.2022
150 Clouds 13 1022 82 10000 3.09 280 19:24 20.09.2022
151 Clouds 14 1022 66 10000 5.14 300 15:58 20.09.2022
152 Clouds 15 1021 72 10000 3.6 300 14:34 20.09.2022
153 Clouds 14 1021 84 10000 3.09 280 12:45 20.09.2022
154 Clouds 10 1020 96 10000 2.57 270 08:51 20.09.2022
155 Clouds 9 1020 94 10000 3.6 280 08:25 20.09.2022
156 Clouds 9 1018 94 10000 4.12 280 04:44 20.09.2022
157 Clouds 9 1018 91 10000 2.06 260 02:37 20.09.2022
158 Clouds 10 1018 93 10000 2.57 260 22:50 19.09.2022
159 Clear 10 1018 91 10000 3.6 270 21:38 19.09.2022
160 Clear 11 1017 93 10000 4.12 270 20:45 19.09.2022
161 Clouds 12 1017 90 10000 2.06 250 19:27 19.09.2022
162 Rain 13 1016 87 10000 2.06 270 17:39 19.09.2022
163 Clouds 16 1015 79 10000 5.14 270 13:56 19.09.2022
164 Rain 16 1015 79 10000 4.12 290 12:48 19.09.2022
165 Clouds 13 1015 84 10000 4.63 270 10:31 19.09.2022
166 Clouds 10 1013 92 10000 4.12 280 08:42 19.09.2022
167 Clouds 10 1011 92 10000 4.63 280 04:39 19.09.2022
168 Clouds 10 1010 92 10000 4.63 300 01:53 19.09.2022
169 Clouds 10 1008 89 10000 5.66 280 23:22 18.09.2022
170 Rain 10 1008 89 10000 5.14 270 21:32 18.09.2022
171 Clouds 11 1007 84 10000 5.66 290 19:58 18.09.2022
172 Rain 11 1008 83 10000 3.6 260 17:53 18.09.2022
173 Rain 11 1008 75 10000 9.26 310 16:59 18.09.2022
174 Clouds 12 1008 79 10000 8.23 280 14:52 18.09.2022
175 Clouds 13 1009 76 10000 8.23 270 13:46 18.09.2022
176 Clouds 13 1009 77 10000 7.2 270 12:33 18.09.2022
177 Rain 12 1009 77 10000 6.69 270 10:44 18.09.2022
178 Clouds 10 1010 86 10000 5.14 270 03:37 18.09.2022
179 Clear 9 1009 89 10000 3.6 270 01:23 18.09.2022
180 Drizzle 10 1009 85 10000 6.69 280 23:59 17.09.2022
181 Drizzle 11 1009 90 10000 4.63 280 21:35 17.09.2022
182 Rain 11 1008 89 10000 6.69 290 19:40 17.09.2022
183 Rain 11 1007 87 10000 7.2 290 18:46 17.09.2022
184 Rain 11 1008 88 10000 4.12 280 15:51 17.09.2022
185 Rain 15 1008 53 10000 9.77 290 13:38 17.09.2022
186 Clear 13 1008 68 10000 6.17 270 10:56 17.09.2022
187 Clear 11 1008 89 10000 5.66 270 08:34 17.09.2022
188 Clouds 11 1007 91 10000 4.63 270 06:24 17.09.2022
189 Rain 11 1006 92 10000 6.17 270 23:57 16.09.2022
190 Rain 11 1005 92 10000 6.69 270 22:51 16.09.2022
191 Rain 12 1005 88 10000 7.2 270 20:54 16.09.2022
192 Rain 13 1005 78 10000 10.8 290 19:50 16.09.2022
193 Clear 16 1005 67 10000 8.23 260 16:30 16.09.2022
194 Rain 17 1005 52 10000 7.72 270 14:53 16.09.2022
195 Clouds 17 1006 61 10000 7.2 280 13:42 16.09.2022
196 Clouds 15 1006 66 10000 6.69 270 10:46 16.09.2022
197 Clouds 12 1006 85 10000 4.63 270 08:19 16.09.2022
198 Clouds 11 1006 94 10000 5.14 250 06:48 16.09.2022
199 Clouds 12 1006 88 10000 4.63 260 05:58 16.09.2022
200 Clear 11 1007 88 10000 4.63 260 02:35 16.09.2022
201 Clouds 13 1006 84 10000 5.14 270 22:20 15.09.2022
202 Clouds 14 1006 80 10000 4.63 270 20:39 15.09.2022
203 Clouds 15 1005 72 10000 3.6 270 19:45 15.09.2022
204 Clouds 17 1005 63 10000 5.14 290 18:26 15.09.2022
205 Clear 18 1005 58 10000 6.17 280 17:29 15.09.2022
206 Clouds 18 1005 62 10000 6.69 280 15:49 15.09.2022
207 Clouds 18 1005 63 10000 5.66 280 12:51 15.09.2022
208 Clouds 16 1005 71 10000 6.17 260 11:48 15.09.2022
209 Clouds 14 1004 87 10000 3.09 260 09:46 15.09.2022
210 Clouds 13 1004 89 10000 2.57 260 07:45 15.09.2022
211 Clear 12 1004 92 10000 2.57 260 03:48 15.09.2022
212 Clouds 14 1004 88 10000 2.06 260 23:30 14.09.2022
213 Clear 15 1003 83 10000 0 0 20:47 14.09.2022
214 Clear 17 1003 77 10000 1.03 0 19:33 14.09.2022
215 Clear 18 1003 68 10000 1.03 0 17:48 14.09.2022
216 Clear 18 1004 66 10000 1.54 300 16:37 14.09.2022
217 Rain 19 1004 66 10000 2.06 300 15:27 14.09.2022
218 Clouds 19 1005 68 10000 1.54 280 12:50 14.09.2022
219 Clear 15 1005 78 10000 1.03 0 09:53 14.09.2022
220 Clear 13 1006 89 10000 0.51 0 08:38 14.09.2022
221 Clear 13 1006 89 10000 0.51 0 08:38 14.09.2022
222 Clear 11 1006 92 10000 0.51 0 06:50 14.09.2022
223 Clear 12 1006 88 10000 0.51 360 06:29 14.09.2022
224 Clear 12 1007 92 10000 0.51 0 02:58 14.09.2022
225 Clear 13 1008 92 10000 0.51 190 01:36 14.09.2022
226 Clear 13 1008 86 10000 0.51 200 00:53 14.09.2022
227 Clear 14 1008 87 10000 0.51 240 23:55 13.09.2022
228 Clear 14 1008 87 10000 0.51 240 23:36 13.09.2022
229 Clouds 14 1008 90 10000 1.79 330 23:18 13.09.2022
230 Clear 16 1008 81 10000 0.51 0 22:28 13.09.2022
231 Clear 16 1008 84 10000 1.54 330 21:38 13.09.2022
232 Clouds 20 1007 75 10000 3.6 300 18:56 13.09.2022
233 Clear 21 1007 71 10000 4.63 270 16:39 13.09.2022
234 Clouds 20 1008 79 10000 3.6 290 15:19 13.09.2022
235 Clouds 20 1008 81 10000 3.09 280 13:40 13.09.2022
236 Clouds 18 1008 84 10000 2.57 280 10:30 13.09.2022
237 Clouds 16 1008 87 10000 0.51 0 07:56 13.09.2022
238 Clear 16 1009 76 10000 2.57 170 02:22 13.09.2022
239 Clear 17 1011 74 10000 1.54 160 23:22 12.09.2022
240 Clear 17 1011 77 10000 0.51 0 22:40 12.09.2022
241 Clear 18 1012 77 10000 1.54 120 21:21 12.09.2022
242 Clear 20 1012 75 10000 1.54 150 19:58 12.09.2022
243 Clear 22 1013 56 10000 2.57 220 18:24 12.09.2022
244 Clouds 23 1014 49 10000 2.57 160 15:50 12.09.2022
245 Clear 21 1016 64 10000 2.06 190 12:30 12.09.2022
246 Clear 18 1017 83 10000 1.03 0 10:30 12.09.2022
247 Fog 12 1017 88 1300 0.51 100 07:33 12.09.2022
248 Fog 12 1017 86 450 0.51 0 04:36 12.09.2022
249 Fog 13 1018 86 1600 0.51 0 02:24 12.09.2022
250 Clear 15 1018 90 10000 1.03 0 22:46 11.09.2022
251 Clear 16 1017 79 10000 0.51 210 21:27 11.09.2022
252 Clouds 17 1017 80 10000 0 0 20:44 11.09.2022
253 Clear 18 1017 80 10000 1.54 230 19:39 11.09.2022
254 Clouds 19 1017 76 10000 1.54 230 19:18 11.09.2022
255 Clouds 21 1017 64 10000 4.12 300 17:28 11.09.2022
256 Clouds 20 1018 71 10000 3.6 290 15:51 11.09.2022
257 Clouds 18 1019 82 10000 3.6 280 13:26 11.09.2022
258 Clouds 17 1018 88 10000 2.06 330 11:25 11.09.2022
259 Mist 14 1017 95 5000 2.06 330 08:25 11.09.2022
260 Fog 14 1016 96 600 2.06 330 05:30 11.09.2022
261 Clear 15 1013 93 10000 0.51 0 23:51 10.09.2022
262 Clouds 17 1013 91 10000 1.03 0 22:22 10.09.2022
263 Clouds 18 1012 89 10000 0.51 330 20:33 10.09.2022
264 Clouds 19 1012 68 10000 0.51 0 19:43 10.09.2022
265 Clear 19 1011 74 10000 1.03 0 19:25 10.09.2022
266 Clouds 20 1011 63 10000 1.54 240 17:27 10.09.2022
267 Clouds 20 1011 60 10000 2.57 190 15:35 10.09.2022
268 Clouds 20 1011 68 10000 2.06 210 13:36 10.09.2022
269 Clouds 20 1011 72 10000 3.09 200 12:30 10.09.2022
270 Clouds 18 1011 75 10000 2.57 200 10:31 10.09.2022
271 Clouds 15 1010 90 10000 2.06 190 08:41 10.09.2022
272 Clouds 15 1010 92 10000 2.06 190 08:20 10.09.2022
273 Clear 14 1010 93 10000 0.51 0 03:48 10.09.2022
274 Clouds 15 1010 91 10000 1.03 0 23:36 09.09.2022
275 Clouds 15 1010 90 10000 1.03 0 22:36 09.09.2022
276 Clouds 17 1009 89 10000 1.54 120 20:57 09.09.2022
277 Mist 18 1009 87 5000 2.57 180 20:19 09.09.2022
278 Clear 20 1008 78 10000 3.09 90 19:22 09.09.2022
279 Clouds 21 1008 77 10000 1.54 150 17:19 09.09.2022
280 Clouds 19 1010 66 10000 3.09 190 14:47 09.09.2022
281 Rain 20 1008 67 10000 3.6 210 13:19 09.09.2022
282 Clear 19 1009 80 10000 4.12 200 10:41 09.09.2022
283 Clear 14 1008 91 10000 2.06 160 07:25 09.09.2022
284 Clear 14 1008 90 10000 1.54 150 03:34 09.09.2022
285 Clouds 16 1008 92 10000 1.54 140 22:34 08.09.2022
286 Rain 16 1008 93 10000 1.54 150 21:51 08.09.2022
287 Mist 16 1008 92 7000 1.03 0 20:46 08.09.2022
288 Clear 16 1008 90 10000 1.54 150 20:24 08.09.2022
289 Clouds 18 1008 89 10000 1.54 320 18:34 08.09.2022
290 Rain 17 1008 94 10000 3.09 300 16:49 08.09.2022
291 Rain 17 1007 94 10000 2.57 270 14:50 08.09.2022
292 Rain 18 1007 93 10000 2.57 280 13:27 08.09.2022
293 Rain 18 1007 90 10000 4.12 260 12:35 08.09.2022
294 Rain 18 1007 89 9000 2.57 110 10:59 08.09.2022
295 Rain 16 1007 95 8000 2.57 100 09:26 08.09.2022
296 Clouds 15 1007 95 7000 2.06 60 06:43 08.09.2022
297 Mist 16 1009 95 10000 1.54 90 03:18 08.09.2022
298 Clear 16 1010 93 10000 0.51 0 02:36 08.09.2022
299 Clear 17 1010 90 10000 0.51 0 02:18 08.09.2022
300 Clouds 19 1011 84 10000 2.57 80 22:55 07.09.2022
301 Clear 21 1011 87 10000 1.54 90 21:43 07.09.2022
302 Clear 21 1011 87 10000 2.57 340 21:20 07.09.2022
303 Clear 22 1011 79 10000 2.06 310 20:19 07.09.2022
304 Clear 26 1010 55 10000 3.09 300 18:40 07.09.2022
305 Clouds 27 1011 49 10000 2.06 0 15:21 07.09.2022
306 Clouds 21 1013 83 10000 2.06 160 10:51 07.09.2022
307 Clear 20 1013 85 10000 1.54 180 10:30 07.09.2022
308 Rain 17 1013 89 9000 1.03 0 07:43 07.09.2022
309 Clear 17 1012 85 10000 3.09 100 04:46 07.09.2022
310 Clear 17 1013 83 10000 3.09 100 00:26 07.09.2022
311 Clear 19 1014 78 10000 4.12 80 21:47 06.09.2022
312 Clear 19 1014 76 10000 4.12 80 21:27 06.09.2022
313 Clear 23 1014 61 10000 5.66 70 19:22 06.09.2022
314 Clear 25 1014 53 10000 5.66 70 18:27 06.09.2022
315 Clear 25 1015 51 10000 5.66 80 17:23 06.09.2022
316 Clear 24 1016 50 10000 5.14 80 16:40 06.09.2022
317 Clear 23 1016 57 10000 4.12 90 15:23 06.09.2022
318 Clear 23 1016 57 10000 4.12 90 15:23 06.09.2022
319 Clear 21 1017 59 10000 5.66 100 13:46 06.09.2022
320 Clouds 20 1016 63 10000 5.66 90 13:25 06.09.2022
321 Clouds 19 1017 66 10000 6.17 100 12:37 06.09.2022
322 Clouds 17 1018 80 10000 4.12 110 10:46 06.09.2022
323 Clouds 17 1018 77 10000 3.09 120 08:54 06.09.2022
324 Clear 17 1017 78 10000 6.17 100 07:51 06.09.2022
325 Rain 18 1017 82 10000 6.17 100 04:48 06.09.2022
326 Clear 20 1019 70 10000 4.63 90 23:42 05.09.2022
327 Clear 22 1019 61 10000 5.66 100 22:30 05.09.2022
328 Clear 24 1019 46 10000 6.17 90 20:52 05.09.2022
329 Clear 26 1019 41 10000 7.2 90 19:50 05.09.2022
330 Clear 27 1019 39 10000 6.69 90 18:49 05.09.2022
331 Clear 27 1019 46 10000 4.63 100 18:22 05.09.2022
332 Clear 28 1019 44 10000 5.14 100 16:53 05.09.2022
333 Clear 28 1019 43 10000 4.12 120 15:50 05.09.2022
334 Clear 26 1020 48 10000 4.63 110 13:26 05.09.2022
335 Clear 24 1021 52 10000 3.6 130 12:28 05.09.2022
336 Clear 20 1022 65 10000 3.6 100 10:18 05.09.2022
337 Clear 17 1021 71 10000 3.6 100 06:42 05.09.2022
338 Clear 18 1021 65 10000 3.6 90 02:42 05.09.2022
339 Clear 20 1020 60 10000 3.6 100 23:26 04.09.2022
340 Clear 21 1020 59 10000 3.6 80 22:27 04.09.2022
341 Clear 21 1020 58 10000 3.09 80 21:32 04.09.2022
342 Clear 25 1019 48 10000 4.63 90 19:38 04.09.2022
343 Clear 26 1019 43 10000 3.6 80 18:20 04.09.2022
344 Clear 27 1019 41 10000 2.57 110 16:56 04.09.2022
345 Clear 26 1018 40 10000 4.12 100 14:33 04.09.2022
346 Clear 25 1019 43 10000 5.14 90 13:49 04.09.2022
347 Clear 21 1019 53 10000 4.12 90 11:54 04.09.2022
348 Clear 20 1019 56 10000 4.63 100 10:47 04.09.2022
349 Clear 14 1018 70 10000 3.09 90 08:20 04.09.2022
350 Clear 13 1017 72 10000 3.6 90 05:35 04.09.2022
351 Clear 16 1016 62 10000 3.6 90 00:50 04.09.2022
352 Clear 18 1015 52 10000 3.09 70 22:24 03.09.2022
353 Clear 19 1015 46 10000 3.6 80 21:23 03.09.2022
354 Clear 22 1013 39 10000 5.66 100 19:42 03.09.2022
355 Clear 24 1013 35 10000 5.14 100 17:28 03.09.2022
356 Clear 25 1013 34 10000 5.66 100 16:31 03.09.2022
357 Clear 24 1014 35 10000 6.69 100 14:45 03.09.2022
358 Clear 24 1014 35 10000 5.66 120 14:22 03.09.2022
359 Clear 22 1014 39 10000 7.72 100 12:32 03.09.2022
360 Clear 19 1015 51 10000 6.17 90 10:49 03.09.2022
361 Clear 15 1015 61 10000 4.63 90 08:29 03.09.2022
362 Clear 15 1015 61 10000 4.63 90 08:29 03.09.2022
363 Clear 13 1015 78 10000 3.6 90 06:58 03.09.2022
364 Clear 14 1015 71 10000 3.6 100 04:34 03.09.2022
365 Clear 16 1016 58 10000 2.57 100 00:32 03.09.2022
366 Clear 17 1016 52 10000 3.09 110 23:20 02.09.2022
367 Clear 20 1015 45 10000 5.14 100 20:59 02.09.2022
368 Clear 20 1015 44 10000 5.14 100 20:39 02.09.2022
369 Clear 22 1015 39 10000 6.69 90 19:30 02.09.2022
370 Clear 23 1015 38 10000 6.69 100 18:36 02.09.2022
371 Clear 23 1015 37 10000 8.75 90 17:53 02.09.2022
372 Clear 24 1016 37 10000 4.63 120 16:48 02.09.2022
373 Clear 24 1017 36 10000 5.14 110 14:33 02.09.2022
374 Clear 22 1018 40 10000 6.69 100 12:39 02.09.2022
375 Clear 19 1019 61 10000 4.12 90 10:22 02.09.2022
376 Clear 18 1019 65 10000 4.12 100 09:40 02.09.2022
377 Clear 12 1019 87 10000 3.09 90 07:32 02.09.2022
378 Clear 11 1019 85 10000 3.09 90 06:38 02.09.2022
379 Clear 13 1020 83 10000 1.54 70 02:52 02.09.2022
380 Clear 16 1020 62 10000 2.57 60 22:30 01.09.2022
381 Clouds 17 1020 63 10000 3.31 93 21:43 01.09.2022
382 Clear 18 1020 54 10000 3.09 90 21:25 01.09.2022
383 Clear 19 1020 49 10000 3.09 90 20:43 01.09.2022
384 Clear 22 1020 38 10000 3.09 110 18:54 01.09.2022
385 Clear 23 1020 37 10000 5.14 50 17:22 01.09.2022
386 Clear 23 1021 39 10000 2.57 120 15:56 01.09.2022
387 Clear 23 1022 36 10000 5.14 80 14:22 01.09.2022
388 Clear 22 1022 39 10000 5.14 100 12:58 01.09.2022
389 Clear 20 1023 46 10000 4.12 90 11:52 01.09.2022
390 Clear 20 1023 48 10000 4.63 90 11:31 01.09.2022
391 Clear 18 1023 59 10000 4.63 100 10:19 01.09.2022
392 Clear 13 1022 80 10000 2.57 90 07:51 01.09.2022
393 Clear 12 1022 82 10000 2.57 80 06:22 01.09.2022
394 Clear 14 1022 80 10000 2.06 70 01:32 01.09.2022
395 Clear 16 1022 65 10000 2.57 60 23:29 31.08.2022
396 Clear 18 1022 54 10000 1.54 70 21:30 31.08.2022
397 Clear 21 1021 44 10000 4.12 70 19:46 31.08.2022
398 Clear 22 1021 42 10000 5.14 80 18:18 31.08.2022
399 Clear 23 1022 38 10000 4.63 90 15:45 31.08.2022
400 Clouds 22 1023 43 10000 5.66 80 13:57 31.08.2022
401 Clouds 20 1023 56 10000 6.17 80 12:20 31.08.2022
402 Clear 18 1023 72 10000 5.14 60 10:52 31.08.2022
403 Clouds 14 1023 82 10000 4.12 80 08:34 31.08.2022
404 Clear 14 1022 81 10000 3.6 60 04:26 31.08.2022
405 Clear 18 1021 73 10000 4.63 60 22:58 30.08.2022
406 Clear 19 1021 73 10000 4.12 50 21:33 30.08.2022
407 Clouds 20 1021 73 10000 4.63 60 20:47 30.08.2022
408 Clear 24 1020 47 10000 1.54 360 17:25 30.08.2022
409 Clear 23 1021 61 10000 2.06 0 14:41 30.08.2022
410 Clouds 19 1023 70 10000 3.09 90 12:54 30.08.2022
411 Clouds 17 1022 81 10000 2.06 70 11:21 30.08.2022
412 Clouds 17 1023 81 10000 1.54 120 10:35 30.08.2022
413 Mist 14 1021 92 1700 1.03 70 06:49 30.08.2022
414 Clear 15 1021 87 10000 1.03 0 01:45 30.08.2022
415 Clear 15 1021 87 10000 1.03 0 01:45 30.08.2022
416 Clear 18 1020 78 10000 4.12 50 22:47 29.08.2022
417 Clear 18 1020 77 10000 3.09 40 22:18 29.08.2022
418 Clear 19 1020 69 10000 2.57 10 21:23 29.08.2022
419 Clear 23 1019 53 10000 3.09 360 19:42 29.08.2022
420 Clear 24 1019 50 10000 3.6 340 17:42 29.08.2022
421 Clouds 24 1019 51 10000 3.6 350 17:24 29.08.2022
422 Clouds 24 1021 53 10000 3.09 300 15:41 29.08.2022
423 Clouds 23 1020 59 10000 3.6 270 14:18 29.08.2022
424 Clouds 20 1021 69 10000 3.09 260 12:34 29.08.2022
425 Clouds 17 1021 85 10000 3.6 270 10:49 29.08.2022
426 Clouds 16 1020 80 10000 3.6 270 09:30 29.08.2022
427 Clouds 15 1020 81 10000 3.09 260 07:35 29.08.2022
428 Clouds 13 1020 82 10000 1.54 240 02:34 29.08.2022
429 Clear 15 1020 76 10000 1.54 270 23:37 28.08.2022
430 Clear 16 1019 82 10000 3.6 340 21:57 28.08.2022
431 Clear 17 1019 67 10000 3.09 330 21:31 28.08.2022
432 Clear 19 1018 55 10000 4.12 320 20:24 28.08.2022
433 Clear 22 1017 43 10000 6.17 320 18:37 28.08.2022
434 Clear 23 1018 43 10000 7.2 320 18:18 28.08.2022
435 Clear 23 1017 42 10000 6.17 330 16:52 28.08.2022
436 Clear 24 1018 41 10000 5.66 310 15:37 28.08.2022
437 Clouds 22 1018 47 10000 6.17 310 13:34 28.08.2022
438 Clouds 21 1018 52 10000 4.63 310 12:19 28.08.2022
439 Clouds 18 1018 67 10000 4.12 280 10:27 28.08.2022
440 Clouds 17 1018 73 10000 2.57 300 09:34 28.08.2022
441 Clouds 15 1018 82 10000 3.6 280 08:28 28.08.2022
442 Clouds 14 1017 88 10000 2.06 260 07:27 28.08.2022
443 Clear 16 1017 81 10000 2.06 280 00:45 28.08.2022
444 Clear 17 1017 77 10000 3.6 320 23:28 27.08.2022
445 Clouds 19 1016 74 10000 5.14 320 22:27 27.08.2022
446 Clouds 20 1015 69 10000 4.63 320 20:35 27.08.2022
447 Clouds 22 1015 66 10000 4.63 310 19:26 27.08.2022
448 Clouds 22 1015 71 10000 5.14 320 16:30 27.08.2022
449 Clouds 22 1015 71 10000 3.6 320 15:31 27.08.2022
450 Clouds 21 1014 69 10000 6.17 330 13:30 27.08.2022
451 Clouds 20 1014 75 10000 5.14 310 12:20 27.08.2022
452 Clouds 19 1014 85 10000 4.63 290 10:30 27.08.2022
453 Clouds 19 1014 85 10000 4.12 290 09:36 27.08.2022
454 Clouds 19 1014 88 10000 4.12 310 06:54 27.08.2022
455 Clouds 20 1013 90 10000 4.12 310 01:21 27.08.2022
456 Clouds 20 1014 90 10000 5.14 310 23:46 26.08.2022
457 Thunderstorm 22 1013 88 10000 4.63 320 21:49 26.08.2022
458 Clear 23 1012 89 10000 5.66 330 20:20 26.08.2022
459 Clouds 27 1012 48 10000 5.14 310 17:59 26.08.2022
460 Rain 27 1012 62 10000 3.09 10 16:32 26.08.2022
461 Clouds 30 1011 47 10000 1.54 0 15:24 26.08.2022
462 Clear 29 1012 55 10000 2.57 0 13:18 26.08.2022
463 Clouds 27 1013 74 10000 2.57 120 11:48 26.08.2022
464 Clear 26 1013 76 10000 2.57 90 11:22 26.08.2022
465 Clear 23 1013 84 10000 2.57 70 09:45 26.08.2022
466 Clear 21 1013 85 10000 3.6 90 03:59 26.08.2022
467 Clear 23 1014 77 10000 3.09 80 00:39 26.08.2022
468 Clear 25 1014 70 10000 3.6 90 22:44 25.08.2022
469 Clear 26 1014 64 10000 3.6 90 20:55 25.08.2022
470 Clear 28 1014 57 10000 5.14 100 19:35 25.08.2022
471 Clear 29 1014 54 10000 5.14 110 18:35 25.08.2022
472 Clear 29 1014 50 10000 4.63 90 17:32 25.08.2022
473 Clear 29 1015 51 10000 6.17 90 16:45 25.08.2022
474 Clouds 29 1015 51 10000 5.66 100 15:30 25.08.2022
475 Clouds 29 1016 55 10000 5.14 100 13:58 25.08.2022
476 Clear 26 1018 69 10000 4.63 90 11:21 25.08.2022
477 Clear 25 1018 73 10000 3.6 90 10:42 25.08.2022
478 Clear 19 1019 84 10000 2.06 90 07:35 25.08.2022
479 Clear 18 1019 79 10000 3.09 90 03:44 25.08.2022
480 Clear 22 1019 60 10000 3.09 90 23:37 24.08.2022
481 Clear 24 1019 55 10000 4.12 90 22:56 24.08.2022
482 Clear 25 1019 48 10000 3.6 90 21:55 24.08.2022
483 Clear 25 1019 46 10000 3.6 80 21:28 24.08.2022
484 Clear 28 1018 38 10000 4.63 90 19:56 24.08.2022
485 Clear 31 1018 32 10000 4.12 90 17:28 24.08.2022
486 Clear 31 1018 33 10000 4.63 100 15:54 24.08.2022
487 Clear 31 1018 34 10000 3.09 120 15:28 24.08.2022
488 Clear 29 1019 39 10000 3.09 120 12:51 24.08.2022
489 Clear 27 1019 47 10000 3.09 120 11:19 24.08.2022
490 Clear 21 1019 69 10000 2.57 110 08:45 24.08.2022
491 Clear 17 1018 80 10000 2.06 100 06:23 24.08.2022
492 Clear 21 1017 57 10000 2.06 120 00:55 24.08.2022
493 Clear 23 1017 48 10000 2.06 100 22:41 23.08.2022
494 Clear 24 1017 45 10000 2.57 100 21:55 23.08.2022
495 Clear 26 1016 41 10000 3.6 100 20:47 23.08.2022
496 Clear 28 1015 36 10000 4.63 100 19:18 23.08.2022
497 Clear 29 1015 35 10000 4.12 100 17:59 23.08.2022
498 Clear 30 1015 33 10000 3.6 130 17:28 23.08.2022
499 Clear 30 1016 33 10000 4.12 110 16:24 23.08.2022
500 Clear 28 1016 36 10000 4.12 140 14:30 23.08.2022
501 Clear 27 1016 39 10000 4.12 110 12:46 23.08.2022
502 Clear 24 1017 49 10000 3.6 140 10:58 23.08.2022
503 Clear 24 1017 52 10000 3.6 140 10:33 23.08.2022
504 Clear 22 1016 61 10000 3.09 110 09:32 23.08.2022
505 Clear 20 1017 68 10000 2.57 110 08:46 23.08.2022
506 Clear 19 1016 72 10000 2.57 110 08:18 23.08.2022
507 Clear 18 1016 74 10000 2.57 100 07:31 23.08.2022
508 Clear 18 1016 75 10000 3.09 90 06:22 23.08.2022
509 Clear 20 1015 66 10000 3.6 120 01:45 23.08.2022
510 Clear 21 1015 63 10000 3.09 120 00:27 23.08.2022
511 Clear 22 1015 55 10000 2.57 110 23:32 22.08.2022
512 Clear 22 1015 49 10000 2.57 110 22:24 22.08.2022
513 Clear 25 1014 39 10000 2.57 80 20:29 22.08.2022
514 Clear 26 1013 36 10000 3.09 80 19:41 22.08.2022
515 Clear 27 1013 33 10000 3.09 60 18:37 22.08.2022
516 Clear 28 1014 33 10000 2.57 0 15:46 22.08.2022
517 Clear 28 1015 33 10000 3.09 0 15:18 22.08.2022
518 Clear 24 1016 52 10000 2.06 0 11:45 22.08.2022
519 Clear 18 1017 73 10000 2.57 80 09:24 22.08.2022
520 Mist 13 1015 96 9000 1.03 270 05:51 22.08.2022
521 Clear 16 1015 84 10000 1.03 0 00:57 22.08.2022
522 Clear 16 1015 84 10000 1.03 0 00:36 22.08.2022
523 Clear 17 1015 78 10000 0.51 0 23:21 21.08.2022
524 Clear 20 1015 67 10000 1.03 250 21:55 21.08.2022
525 Clear 21 1015 61 10000 1.03 0 21:19 21.08.2022
526 Clear 24 1014 47 10000 3.09 280 19:58 21.08.2022
527 Clear 26 1014 42 10000 3.6 270 18:36 21.08.2022
528 Clear 26 1014 40 10000 4.63 270 16:48 21.08.2022
529 Clear 26 1014 40 10000 3.6 290 15:52 21.08.2022
530 Clear 27 1014 40 10000 4.63 260 14:41 21.08.2022
531 Clear 25 1015 41 10000 3.6 0 13:48 21.08.2022
532 Clouds 24 1015 48 10000 3.6 290 12:55 21.08.2022
533 Clear 21 1016 54 10000 5.66 290 10:36 21.08.2022
534 Clouds 17 1016 79 10000 1.03 0 08:57 21.08.2022
535 Clouds 17 1016 80 10000 1.03 0 08:39 21.08.2022
536 Clear 16 1016 85 10000 0.51 0 07:53 21.08.2022
537 Clear 15 1015 86 10000 1.03 0 06:33 21.08.2022
538 Clear 16 1016 83 10000 1.03 0 01:47 21.08.2022
539 Clear 18 1016 82 10000 1.54 40 23:32 20.08.2022
540 Clear 21 1016 67 10000 2.57 330 21:51 20.08.2022
541 Clear 23 1016 59 10000 2.06 320 20:50 20.08.2022
542 Clear 23 1015 61 10000 2.57 320 19:42 20.08.2022
543 Clear 25 1015 59 10000 3.09 330 18:48 20.08.2022
544 Clouds 25 1014 60 10000 3.6 320 18:25 20.08.2022
545 Clouds 25 1014 60 10000 3.6 330 17:20 20.08.2022
546 Clear 24 1015 73 10000 2.57 330 15:52 20.08.2022
547 Clouds 22 1015 87 10000 2.06 310 14:20 20.08.2022
548 Clouds 22 1015 79 10000 1.54 310 11:56 20.08.2022
549 Clouds 21 1015 78 10000 1.54 310 11:36 20.08.2022
550 Clouds 20 1014 78 10000 1.54 290 09:20 20.08.2022
551 Clouds 19 1014 81 10000 1.03 0 07:18 20.08.2022
552 Clouds 19 1013 73 10000 1.03 0 04:42 20.08.2022
553 Clouds 20 1012 70 10000 0.7 149 00:55 20.08.2022
554 Clear 20 1013 65 10000 0 0 23:25 19.08.2022
555 Clear 21 1013 64 10000 0.51 0 22:36 19.08.2022
556 Clear 25 1011 46 10000 2.57 340 20:41 19.08.2022
557 Clear 27 1011 42 10000 3.6 340 18:55 19.08.2022
558 Clear 27 1011 44 10000 4.12 340 15:55 19.08.2022
559 Clear 27 1011 44 10000 4.12 340 15:55 19.08.2022
560 Clear 27 1011 43 10000 4.12 340 15:55 19.08.2022
561 Clear 26 1012 50 10000 4.12 280 13:41 19.08.2022
562 Clouds 23 1013 66 10000 4.12 290 11:40 19.08.2022
563 Clouds 20 1013 81 10000 3.09 310 10:30 19.08.2022
564 Clouds 17 1012 91 10000 2.06 260 07:25 19.08.2022
565 Clouds 19 1011 89 10000 0.89 270 03:19 19.08.2022
566 Clear 20 1012 87 10000 2.57 330 00:36 19.08.2022
567 Clear 21 1012 85 10000 3.09 340 23:48 18.08.2022
568 Clouds 21 1012 84 10000 4.12 340 22:53 18.08.2022
569 Clouds 22 1011 84 10000 4.63 340 22:18 18.08.2022
570 Rain 22 1011 83 10000 3.09 340 21:40 18.08.2022
571 Rain 24 1011 79 10000 3.09 320 20:32 18.08.2022
572 Rain 25 1011 68 10000 1.54 330 19:32 18.08.2022
573 Rain 25 1010 59 10000 2.57 360 18:19 18.08.2022
574 Rain 26 1011 58 10000 2.57 310 17:19 18.08.2022
575 Clouds 27 1011 55 10000 4.12 310 15:20 18.08.2022
576 Clouds 26 1011 57 10000 4.12 300 14:20 18.08.2022
577 Clouds 26 1012 59 10000 4.12 300 13:36 18.08.2022
578 Clouds 24 1012 66 10000 3.6 280 12:26 18.08.2022
579 Clouds 21 1012 82 6000 3.09 260 10:22 18.08.2022
580 Clouds 21 1012 84 6000 3.09 270 09:42 18.08.2022
581 Mist 18 1011 92 3000 1.54 260 07:24 18.08.2022
582 Clear 19 1011 88 10000 3.09 260 04:38 18.08.2022
583 Clear 20 1010 83 10000 0.51 180 23:37 17.08.2022
584 Clear 21 1009 87 10000 1.03 340 21:53 17.08.2022
585 Clear 24 1009 78 10000 2.06 80 20:20 17.08.2022
586 Clear 25 1009 72 10000 1.54 340 19:31 17.08.2022
587 Rain 27 1011 51 10000 6.17 190 17:37 17.08.2022
588 Clouds 31 1009 42 10000 2.06 60 16:39 17.08.2022
589 Clear 31 1009 39 10000 2.06 110 15:28 17.08.2022
590 Clear 31 1010 40 10000 4.12 100 13:30 17.08.2022
591 Clear 28 1011 52 10000 2.06 90 11:38 17.08.2022
592 Clear 24 1010 69 10000 2.06 90 09:31 17.08.2022
593 Clear 20 1010 79 10000 2.06 80 08:24 17.08.2022
594 Clear 19 1010 79 10000 0.51 0 03:36 17.08.2022
595 Clear 21 1010 74 10000 1.03 100 00:19 17.08.2022
596 Clear 23 1009 71 10000 1.54 100 22:41 16.08.2022
597 Clear 26 1008 54 10000 1.03 0 20:58 16.08.2022
598 Clear 29 1008 39 10000 1.54 300 19:54 16.08.2022
599 Clear 29 1007 41 10000 2.06 60 18:43 16.08.2022
600 Clear 30 1007 39 10000 1.54 0 17:43 16.08.2022
601 Clear 29 1008 44 10000 0.51 0 15:52 16.08.2022
602 Clear 30 1008 43 10000 2.57 270 14:55 16.08.2022
603 Clear 29 1008 42 10000 2.57 270 14:37 16.08.2022
604 Clouds 28 1007 49 10000 1.54 180 12:58 16.08.2022
605 Clear 26 1008 59 10000 2.06 210 10:59 16.08.2022
606 Clear 24 1007 63 10000 2.57 230 09:50 16.08.2022
607 Clear 22 1007 75 10000 1.03 0 08:47 16.08.2022
608 Clear 19 1006 81 10000 0.51 0 07:33 16.08.2022
609 Clear 20 1005 85 10000 1.54 220 02:50 16.08.2022
610 Clear 21 1005 87 10000 1.54 160 22:31 15.08.2022
611 Clear 21 1004 91 10000 1.54 80 21:55 15.08.2022
612 Clear 21 1004 91 10000 1.54 80 21:34 15.08.2022
613 Clear 23 1004 86 10000 0.51 0 20:19 15.08.2022
614 Clouds 22 1003 81 10000 1.03 0 18:42 15.08.2022
615 Rain 22 1004 82 10000 1.03 0 17:36 15.08.2022
616 Rain 25 1004 69 10000 5.66 60 16:22 15.08.2022
617 Clouds 32 1002 39 10000 2.57 0 13:57 15.08.2022
618 Clear 31 1003 44 10000 3.6 170 12:37 15.08.2022
619 Clouds 24 1004 57 10000 2.06 120 10:18 15.08.2022
620 Rain 22 1004 61 10000 1.54 100 08:42 15.08.2022
621 Clear 20 1003 83 10000 2.57 90 06:33 15.08.2022
622 Clear 21 1004 77 10000 2.06 80 02:57 15.08.2022
623 Clear 25 1005 60 10000 2.06 90 23:22 14.08.2022
624 Clear 26 1006 47 10000 2.57 90 21:42 14.08.2022
625 Clear 30 1005 41 10000 3.6 100 20:29 14.08.2022
626 Clear 30 1005 40 10000 6.69 90 19:32 14.08.2022
627 Clear 31 1006 38 10000 3.6 110 18:20 14.08.2022
628 Clear 31 1007 39 10000 4.12 130 17:22 14.08.2022
629 Clear 32 1008 41 10000 4.63 120 15:51 14.08.2022
630 Clear 31 1009 44 10000 4.12 120 14:38 14.08.2022
631 Clear 30 1009 46 10000 4.12 100 13:50 14.08.2022
632 Clear 30 1009 45 10000 5.14 110 13:24 14.08.2022
633 Clouds 29 1010 50 10000 4.12 110 12:34 14.08.2022
634 Clouds 27 1011 58 10000 3.6 140 11:18 14.08.2022
635 Clear 24 1012 69 10000 3.6 90 08:53 14.08.2022
636 Clear 18 1012 83 10000 1.54 100 06:23 14.08.2022
637 Clear 19 1013 78 10000 2.06 60 03:48 14.08.2022
638 Clear 21 1015 78 10000 1.03 0 00:39 14.08.2022
639 Clear 23 1015 71 10000 1.54 120 22:56 13.08.2022
640 Clear 25 1015 59 10000 3.09 100 21:47 13.08.2022
641 Clear 26 1014 54 10000 4.12 110 20:47 13.08.2022
642 Clear 27 1014 50 10000 2.57 120 19:46 13.08.2022
643 Clear 29 1015 45 10000 6.69 100 18:19 13.08.2022
644 Clear 30 1016 41 10000 5.14 90 15:57 13.08.2022
645 Clear 30 1016 40 10000 5.14 90 14:40 13.08.2022
646 Clear 30 1017 39 10000 6.69 80 13:46 13.08.2022
647 Clear 28 1018 42 10000 4.12 100 11:59 13.08.2022
648 Clear 25 1018 45 10000 2.06 80 10:33 13.08.2022
649 Clear 23 1018 50 10000 2.57 90 09:22 13.08.2022
650 Clear 16 1018 74 10000 1.03 50 05:59 13.08.2022
651 Clear 20 1018 56 10000 2.06 90 00:36 13.08.2022
652 Clear 23 1018 46 10000 2.06 90 22:26 12.08.2022
653 Clear 24 1018 41 10000 2.06 90 21:35 12.08.2022
654 Clear 29 1017 30 10000 4.12 120 19:46 12.08.2022
655 Clear 29 1017 29 10000 3.09 110 19:21 12.08.2022
656 Clear 30 1018 28 10000 5.66 70 17:58 12.08.2022
657 Clear 31 1018 26 10000 5.66 90 16:25 12.08.2022
658 Clear 31 1019 28 10000 4.12 120 14:50 12.08.2022
659 Clear 30 1020 28 10000 4.12 160 12:59 12.08.2022
660 Clear 29 1020 31 10000 3.09 120 11:39 12.08.2022
661 Clear 21 1020 56 10000 2.57 100 08:47 12.08.2022
662 Clear 18 1020 65 10000 2.57 80 07:44 12.08.2022
663 Clear 17 1020 69 10000 1.54 70 03:41 12.08.2022
664 Clear 20 1020 55 10000 2.57 70 00:31 12.08.2022
665 Clear 22 1020 50 10000 2.57 60 23:42 11.08.2022
666 Clear 23 1020 44 10000 2.06 70 22:37 11.08.2022
667 Clear 24 1021 38 10000 1.03 60 21:47 11.08.2022
668 Clear 26 1020 37 10000 2.57 60 21:22 11.08.2022
669 Clear 28 1019 32 10000 4.12 70 20:29 11.08.2022
670 Clear 29 1019 29 10000 4.12 70 19:33 11.08.2022
671 Clear 30 1019 28 10000 2.57 90 18:39 11.08.2022
672 Clear 32 1020 25 10000 2.06 50 16:38 11.08.2022
673 Clear 31 1021 27 10000 3.09 50 15:37 11.08.2022
674 Clear 30 1022 29 10000 3.6 120 13:51 11.08.2022
675 Clear 27 1023 41 10000 1.54 0 11:26 11.08.2022
676 Clear 18 1024 65 10000 1.54 90 07:56 11.08.2022
677 Clear 16 1023 71 10000 2.57 80 04:44 11.08.2022
678 Clear 17 1023 70 10000 1.54 80 01:54 11.08.2022
679 Clear 21 1024 56 10000 1.54 80 22:54 10.08.2022
680 Clear 23 1023 48 10000 1.54 90 21:44 10.08.2022
681 Clear 25 1023 43 10000 2.57 70 20:56 10.08.2022
682 Clear 27 1023 37 10000 3.6 60 19:44 10.08.2022
683 Clear 28 1024 35 10000 2.57 90 18:45 10.08.2022
684 Clear 29 1024 32 10000 3.6 80 17:20 10.08.2022
685 Clear 27 1026 37 10000 3.09 50 13:36 10.08.2022
686 Clear 27 1026 39 10000 3.09 0 12:48 10.08.2022
687 Clear 22 1027 57 10000 2.57 100 09:56 10.08.2022
688 Clear 19 1027 67 10000 3.09 90 08:35 10.08.2022
689 Clear 15 1027 75 10000 0.51 0 07:21 10.08.2022
690 Clear 16 1027 84 10000 1.03 0 03:35 10.08.2022
691 Clear 19 1027 63 10000 0.51 0 23:58 09.08.2022
692 Clear 20 1026 57 10000 0.51 0 23:25 09.08.2022
693 Clear 22 1026 48 10000 2.06 50 21:37 09.08.2022
694 Clear 24 1026 44 10000 2.57 40 20:40 09.08.2022
695 Clear 27 1025 36 10000 3.6 40 18:45 09.08.2022
696 Clear 28 1026 35 10000 4.12 40 17:31 09.08.2022
697 Clear 28 1026 35 10000 2.57 0 16:42 09.08.2022
698 Clear 28 1026 36 10000 1.54 0 15:59 09.08.2022
699 Clear 27 1027 39 10000 2.57 340 14:29 09.08.2022
700 Clear 22 1027 54 10000 2.57 60 10:39 09.08.2022
701 Clear 19 1027 68 10000 1.03 0 08:51 09.08.2022
702 Clear 16 1027 78 10000 0.51 0 07:54 09.08.2022
703 Clear 15 1026 85 10000 0.51 0 04:31 09.08.2022
704 Clear 18 1026 80 10000 3.09 20 23:46 08.08.2022
705 Clear 19 1026 72 10000 3.09 10 22:57 08.08.2022
706 Clear 19 1026 71 10000 3.09 10 22:35 08.08.2022
707 Clear 21 1025 56 10000 3.6 340 21:30 08.08.2022
708 Clear 24 1024 45 10000 4.63 330 19:57 08.08.2022
709 Clear 25 1023 43 10000 4.12 10 19:22 08.08.2022
710 Clear 26 1023 39 10000 6.17 350 17:34 08.08.2022
711 Clear 27 1024 36 10000 3.09 330 15:46 08.08.2022
712 Clear 26 1024 36 10000 3.09 340 14:45 08.08.2022
713 Clear 24 1025 38 10000 2.57 80 12:29 08.08.2022
714 Clear 20 1025 54 10000 1.54 360 10:23 08.08.2022
715 Clear 13 1023 78 10000 0.51 0 06:56 08.08.2022
716 Clear 13 1023 84 10000 1.03 0 03:34 08.08.2022
717 Clear 18 1023 57 10000 3.09 20 22:44 07.08.2022
718 Clear 20 1022 51 10000 2.06 350 21:40 07.08.2022
719 Clear 22 1022 44 10000 2.57 330 20:42 07.08.2022
720 Clear 23 1022 40 10000 2.57 300 20:18 07.08.2022
721 Clear 24 1022 37 10000 2.57 300 19:41 07.08.2022
722 Clear 25 1022 35 10000 3.6 280 18:36 07.08.2022
723 Clear 24 1022 37 10000 2.57 20 16:55 07.08.2022
724 Clear 24 1022 37 10000 2.57 20 16:35 07.08.2022
725 Clear 25 1023 37 10000 2.57 10 15:24 07.08.2022
726 Clear 24 1024 37 10000 2.57 330 13:37 07.08.2022
727 Clear 22 1025 42 10000 2.06 0 12:18 07.08.2022
728 Clear 20 1025 54 10000 1.54 0 10:35 07.08.2022
729 Clear 13 1025 81 10000 1.03 0 07:59 07.08.2022
730 Clear 11 1026 85 10000 0.51 0 03:32 07.08.2022
731 Clear 13 1026 82 10000 0.51 0 01:45 07.08.2022
732 Clear 16 1026 68 10000 0.51 330 22:25 06.08.2022
733 Clear 18 1026 58 10000 1.03 340 21:18 06.08.2022
734 Clear 21 1025 49 10000 3.09 330 19:41 06.08.2022
735 Clear 22 1025 43 10000 2.06 270 18:30 06.08.2022
736 Clear 23 1025 39 10000 3.6 280 17:33 06.08.2022
737 Clear 22 1026 41 10000 2.06 0 14:48 06.08.2022
738 Clear 22 1026 43 10000 3.6 280 13:49 06.08.2022
739 Clouds 19 1027 54 10000 4.12 300 11:59 06.08.2022
740 Clouds 18 1027 61 10000 4.12 310 10:33 06.08.2022
741 Clear 15 1025 76 10000 2.06 270 08:40 06.08.2022
742 Clear 11 1024 87 10000 1.54 300 03:54 06.08.2022
743 Clear 14 1022 78 10000 1.03 360 23:54 05.08.2022
744 Clear 16 1021 66 10000 2.06 310 22:33 05.08.2022
745 Clouds 21 1019 53 10000 6.69 320 19:59 05.08.2022
746 Clouds 21 1018 76 10000 4.12 260 18:46 05.08.2022
747 Clouds 20 1017 69 10000 3.6 250 18:25 05.08.2022
748 Clouds 20 1017 77 10000 3.6 280 16:49 05.08.2022
749 Clouds 19 1017 87 10000 3.09 310 15:22 05.08.2022
750 Clouds 18 1017 88 10000 5.14 320 14:31 05.08.2022
751 Mist 18 1016 90 4200 3.6 280 13:24 05.08.2022
752 Clouds 19 1015 75 10000 2.57 320 12:30 05.08.2022
753 Clouds 19 1014 88 10000 3.6 360 10:53 05.08.2022
754 Rain 18 1014 90 10000 4.12 320 08:30 05.08.2022
755 Clouds 18 1013 96 10000 3.6 310 06:56 05.08.2022
756 Clouds 18 1013 96 10000 3.6 310 06:56 05.08.2022
757 Clear 21 1013 80 10000 3.09 330 01:28 05.08.2022
758 Clouds 24 1013 87 10000 3.6 330 22:32 04.08.2022
759 Clouds 26 1012 66 10000 3.09 300 21:27 04.08.2022
760 Clear 26 1012 55 10000 1.54 320 20:44 04.08.2022
761 Clear 27 1011 55 10000 3.09 350 19:48 04.08.2022
762 Clear 28 1011 47 10000 8.23 330 18:42 04.08.2022
763 Clear 30 1011 48 10000 7.72 310 18:23 04.08.2022
764 Clear 36 1010 28 10000 3.09 230 14:39 04.08.2022
765 Clear 36 1010 28 10000 2.57 0 13:22 04.08.2022
766 Clear 33 1011 34 10000 3.6 160 11:33 04.08.2022
767 Clear 22 1012 80 10000 1.54 80 07:55 04.08.2022
768 Clear 20 1013 82 10000 1.03 0 06:42 04.08.2022
769 Clear 21 1013 79 10000 0.51 0 02:38 04.08.2022
770 Clear 24 1013 73 10000 0.51 80 23:49 03.08.2022
771 Clear 24 1013 71 10000 0 0 23:27 03.08.2022
772 Clear 30 1013 46 10000 2.06 300 20:57 03.08.2022
773 Clear 32 1013 39 10000 3.6 290 19:54 03.08.2022
774 Clear 32 1012 38 10000 3.6 300 18:37 03.08.2022
775 Clear 33 1013 34 10000 3.6 220 16:26 03.08.2022
776 Clear 33 1014 35 10000 2.57 0 15:47 03.08.2022
777 Clear 32 1015 39 10000 4.12 210 13:24 03.08.2022
778 Clear 27 1015 51 10000 2.06 0 09:51 03.08.2022
779 Clear 19 1014 81 10000 1.03 0 06:29 03.08.2022
780 Clear 19 1015 80 10000 0.51 0 04:21 03.08.2022
781 Clear 20 1015 81 10000 0 0 02:25 03.08.2022
782 Clear 22 1015 72 10000 0.51 0 23:54 02.08.2022
783 Clear 24 1015 57 10000 0.51 210 21:59 02.08.2022
784 Clear 24 1015 55 10000 0.51 210 21:40 02.08.2022
785 Clear 27 1014 48 10000 3.09 250 20:20 02.08.2022
786 Clear 28 1015 44 10000 3.09 250 16:49 02.08.2022
787 Clear 26 1017 45 10000 3.6 240 13:40 02.08.2022
788 Clear 21 1018 63 10000 1.54 0 10:34 02.08.2022
789 Clouds 16 1018 84 10000 2.06 100 08:27 02.08.2022
790 Clouds 14 1018 90 10000 2.06 90 07:50 02.08.2022
791 Clear 11 1018 94 10000 0.51 60 04:56 02.08.2022
792 Clouds 13 1018 89 10000 0.42 329 01:58 02.08.2022
793 Clear 16 1019 85 10000 2.57 350 23:21 01.08.2022
794 Clouds 20 1017 72 10000 3.09 340 21:19 01.08.2022
795 Clouds 22 1017 60 10000 4.63 330 19:45 01.08.2022
796 Clouds 23 1016 58 10000 4.63 330 18:53 01.08.2022
797 Clouds 23 1016 60 10000 3.6 320 16:55 01.08.2022
798 Clouds 23 1016 60 10000 3.6 320 16:55 01.08.2022
799 Clouds 23 1016 60 10000 3.6 320 16:55 01.08.2022
800 Clouds 23 1016 61 10000 3.6 320 16:29 01.08.2022
801 Clouds 22 1016 63 10000 3.6 310 15:34 01.08.2022
802 Clouds 22 1016 66 10000 3.09 310 14:44 01.08.2022
803 Clouds 21 1016 76 10000 5.66 330 13:29 01.08.2022
804 Clouds 20 1016 90 10000 4.12 300 10:47 01.08.2022
805 Clouds 18 1015 95 10000 4.63 310 08:53 01.08.2022
806 Clouds 18 1014 95 10000 3.6 290 06:51 01.08.2022
807 Clouds 19 1012 94 6000 5.66 270 04:31 01.08.2022
808 Clouds 19 1013 95 10000 3.09 250 00:58 01.08.2022
809 Clouds 18 1013 96 10000 1.03 0 22:44 31.07.2022
810 Rain 19 1013 93 10000 1.03 0 22:18 31.07.2022
811 Clouds 19 1013 91 10000 1.03 0 20:28 31.07.2022
812 Rain 20 1014 79 10000 5.66 260 18:39 31.07.2022
813 Clear 27 1013 47 10000 4.63 270 16:26 31.07.2022
814 Clear 27 1013 42 10000 3.6 230 14:33 31.07.2022
815 Clear 26 1015 52 10000 2.57 170 12:55 31.07.2022
816 Clear 23 1016 72 10000 2.06 210 10:53 31.07.2022
817 Clear 18 1017 92 10000 1.54 150 08:29 31.07.2022
818 Clear 16 1017 92 10000 1.03 270 04:46 31.07.2022
819 Clear 17 1018 92 10000 2.57 280 01:20 31.07.2022
820 Clouds 20 1017 84 10000 2.57 270 22:40 30.07.2022
821 Rain 20 1017 80 10000 3.6 230 21:50 30.07.2022
822 Rain 21 1017 74 10000 3.6 230 21:32 30.07.2022
823 Clear 23 1017 69 10000 2.06 300 20:28 30.07.2022
824 Clear 25 1016 60 10000 3.09 290 19:42 30.07.2022
825 Clouds 25 1016 61 10000 2.57 260 17:52 30.07.2022
826 Clear 27 1016 47 10000 4.12 280 16:38 30.07.2022
827 Clouds 26 1017 49 10000 2.57 0 15:30 30.07.2022
828 Clear 24 1017 57 10000 4.12 290 13:23 30.07.2022
829 Clear 23 1017 59 10000 3.6 280 12:22 30.07.2022
830 Clear 20 1016 78 10000 2.57 270 10:45 30.07.2022
831 Clouds 18 1016 86 10000 1.54 200 09:59 30.07.2022
832 Rain 17 1016 94 10000 1.54 280 08:49 30.07.2022
833 Rain 16 1017 93 10000 1.54 210 06:55 30.07.2022
834 Clouds 17 1015 91 10000 5.66 290 02:33 30.07.2022
835 Rain 20 1015 61 10000 4.63 320 23:30 29.07.2022
836 Clear 22 1015 50 10000 4.63 320 21:36 29.07.2022
837 Clear 24 1015 36 10000 2.57 40 20:50 29.07.2022
838 Clear 26 1014 38 10000 4.12 60 19:45 29.07.2022
839 Clear 27 1015 37 10000 4.63 80 16:59 29.07.2022
840 Clear 25 1016 45 10000 4.63 80 14:38 29.07.2022
841 Clear 23 1016 51 10000 3.09 60 12:41 29.07.2022
842 Clear 18 1017 62 10000 4.63 90 08:52 29.07.2022
843 Clear 16 1017 63 10000 4.12 100 08:22 29.07.2022
844 Clear 15 1017 69 10000 3.09 90 04:39 29.07.2022
845 Clear 17 1018 57 10000 2.57 70 23:46 28.07.2022
846 Clear 19 1017 49 10000 3.09 60 21:38 28.07.2022
847 Clear 21 1017 45 10000 3.6 60 20:50 28.07.2022
848 Clear 22 1017 44 10000 3.6 60 20:18 28.07.2022
849 Clear 23 1017 41 10000 2.06 50 19:40 28.07.2022
850 Clear 24 1017 36 10000 2.06 350 17:46 28.07.2022
851 Clear 24 1017 36 10000 3.6 90 17:23 28.07.2022
852 Clear 24 1017 37 10000 4.63 100 16:40 28.07.2022
853 Clouds 23 1019 40 10000 1.54 0 13:56 28.07.2022
854 Clouds 21 1020 43 10000 2.57 0 12:39 28.07.2022
855 Clear 12 1020 82 10000 0.51 10 07:46 28.07.2022
856 Clear 9 1020 83 10000 0.51 250 05:39 28.07.2022
857 Clear 9 1020 89 10000 0.51 310 05:20 28.07.2022
858 Clear 15 1019 72 10000 2.57 350 23:20 27.07.2022
859 Clear 18 1018 59 10000 3.09 330 21:30 27.07.2022
860 Clear 20 1017 50 10000 2.57 320 19:48 27.07.2022
861 Clouds 20 1018 50 10000 3.6 330 19:19 27.07.2022
862 Clear 21 1018 42 10000 5.66 290 16:31 27.07.2022
863 Clouds 21 1018 44 10000 4.12 300 15:51 27.07.2022
864 Clear 21 1018 43 10000 6.69 320 14:41 27.07.2022
865 Clear 20 1018 45 10000 4.12 310 13:34 27.07.2022
866 Clear 17 1018 59 10000 4.12 280 09:29 27.07.2022
867 Clear 14 1018 77 10000 2.57 260 07:47 27.07.2022
868 Clear 12 1017 92 10000 0.51 0 04:53 27.07.2022
869 Clear 16 1017 71 10000 1.54 340 23:21 26.07.2022
870 Clear 18 1016 62 10000 2.57 310 21:49 26.07.2022
871 Clouds 19 1016 58 10000 4.63 320 20:49 26.07.2022
872 Clouds 20 1015 55 10000 5.14 300 19:22 26.07.2022
873 Clouds 21 1015 55 10000 4.12 300 18:40 26.07.2022
874 Clouds 21 1015 54 10000 5.14 320 17:47 26.07.2022
875 Clouds 21 1014 61 10000 5.66 340 15:43 26.07.2022
876 Clouds 21 1015 67 10000 3.09 320 14:38 26.07.2022
877 Clouds 19 1014 85 10000 3.6 250 12:25 26.07.2022
878 Clouds 22 1011 62 10000 6.17 260 09:59 26.07.2022
879 Clouds 20 1011 72 10000 5.14 250 08:23 26.07.2022
880 Clear 19 1011 82 10000 2.57 260 01:52 26.07.2022
881 Clear 21 1011 66 10000 3.09 280 00:19 26.07.2022
882 Clouds 23 1010 58 10000 3.6 270 22:40 25.07.2022
883 Clouds 23 1009 66 10000 6.17 290 21:43 25.07.2022
884 Clouds 24 1008 60 10000 6.69 290 20:43 25.07.2022
885 Clouds 25 1008 62 10000 6.17 310 20:23 25.07.2022
886 Clear 26 1008 56 10000 6.17 310 19:24 25.07.2022
887 Clear 29 1006 35 10000 7.72 250 17:37 25.07.2022
888 Clear 32 1006 34 10000 5.66 240 16:40 25.07.2022
889 Clear 34 1006 31 10000 5.14 240 13:22 25.07.2022
890 Clear 31 1007 37 10000 4.12 0 10:48 25.07.2022
891 Clear 22 1009 56 10000 1.54 120 07:32 25.07.2022
892 Clear 22 1013 70 10000 2.06 90 00:38 25.07.2022
893 Clear 23 1014 67 10000 1.03 0 23:45 24.07.2022
894 Clear 24 1014 63 10000 0.51 0 22:43 24.07.2022
895 Clear 27 1014 48 10000 0.51 90 21:33 24.07.2022
896 Clear 28 1014 44 10000 2.06 250 20:58 24.07.2022
897 Clear 29 1014 40 10000 2.06 250 20:35 24.07.2022
898 Clear 30 1014 37 10000 4.12 240 18:59 24.07.2022
899 Clear 31 1015 34 10000 3.6 220 16:54 24.07.2022
900 Clear 31 1016 32 10000 2.57 0 15:54 24.07.2022
901 Clear 30 1017 35 10000 3.6 250 14:41 24.07.2022
902 Clear 28 1018 36 10000 3.6 190 13:47 24.07.2022
903 Clear 27 1019 39 10000 2.57 0 12:19 24.07.2022
904 Clear 26 1018 44 10000 3.09 170 11:29 24.07.2022
905 Clear 21 1019 59 10000 2.57 150 09:33 24.07.2022
906 Clear 17 1019 79 10000 1.54 140 07:53 24.07.2022
907 Clear 14 1019 84 10000 1.03 0 06:55 24.07.2022
908 Clear 13 1020 88 10000 1.03 0 02:41 24.07.2022
909 Clear 17 1020 74 10000 0.51 280 22:45 23.07.2022
910 Clear 21 1018 52 10000 4.63 310 20:47 23.07.2022
911 Clear 24 1018 44 10000 6.17 300 18:59 23.07.2022
912 Clear 24 1018 44 10000 7.2 300 17:58 23.07.2022
913 Clear 24 1018 44 10000 5.66 290 17:25 23.07.2022
914 Clouds 25 1018 42 10000 6.69 300 16:21 23.07.2022
915 Clouds 24 1018 44 10000 5.66 290 15:21 23.07.2022
916 Clouds 24 1018 45 10000 5.14 270 14:50 23.07.2022
917 Clouds 23 1018 47 10000 5.66 280 13:58 23.07.2022
918 Clouds 21 1018 58 10000 4.12 280 11:48 23.07.2022
919 Clouds 20 1018 65 10000 3.09 0 10:36 23.07.2022
920 Clouds 19 1017 73 10000 2.57 310 09:28 23.07.2022
921 Clear 14 1017 92 10000 1.03 0 06:40 23.07.2022
922 Fog 14 1017 93 10000 0 0 03:37 23.07.2022
923 Clear 16 1018 87 10000 0.51 200 23:59 22.07.2022
924 Clouds 19 1018 75 10000 2.06 300 21:28 22.07.2022
925 Clouds 20 1018 71 10000 2.06 320 19:58 22.07.2022
926 Clouds 20 1018 71 10000 2.7 280 18:41 22.07.2022
927 Clouds 20 1019 69 10000 3.6 280 17:38 22.07.2022
928 Clouds 20 1019 67 10000 3.6 320 15:35 22.07.2022
929 Clouds 19 1019 71 10000 4.12 300 12:41 22.07.2022
930 Clouds 17 1019 86 10000 2.57 300 09:52 22.07.2022
931 Clouds 17 1019 88 10000 3.09 270 09:20 22.07.2022
932 Clouds 17 1019 90 10000 3.6 270 07:51 22.07.2022
933 Mist 18 1018 92 4000 4.12 260 04:22 22.07.2022
934 Clouds 19 1017 85 10000 3.6 250 23:29 21.07.2022
935 Clouds 20 1017 89 10000 3.09 250 21:39 21.07.2022
936 Clouds 23 1016 76 10000 3.09 210 19:41 21.07.2022
937 Clouds 24 1016 67 10000 3.6 220 18:29 21.07.2022
938 Clear 23 1017 75 10000 3.09 220 17:20 21.07.2022
939 Clouds 24 1016 71 10000 5.9 238 15:49 21.07.2022
940 Rain 25 1017 63 10000 4.12 250 14:46 21.07.2022
941 Clouds 24 1018 61 10000 3.6 0 13:22 21.07.2022
942 Clouds 22 1017 73 10000 4.63 250 11:43 21.07.2022
943 Clouds 20 1017 92 10000 3.6 240 09:44 21.07.2022
944 Clouds 21 1017 84 10000 3.6 240 08:53 21.07.2022
945 Clear 21 1016 85 10000 3.09 240 07:50 21.07.2022
946 Clear 20 1015 89 10000 4.12 350 06:26 21.07.2022
947 Clear 23 1016 63 10000 6.17 250 02:23 21.07.2022
948 Clear 27 1014 45 10000 6.17 350 22:24 20.07.2022
949 Clear 28 1015 42 10000 5.14 350 21:49 20.07.2022
950 Clear 31 1013 49 10000 7.72 350 20:46 20.07.2022
951 Clear 35 1012 26 10000 6.17 320 19:46 20.07.2022
952 Clear 37 1012 24 10000 4.63 310 18:53 20.07.2022
953 Clear 38 1012 21 10000 1.54 260 18:30 20.07.2022
954 Clear 39 1013 18 10000 2.57 220 16:49 20.07.2022
955 Clear 39 1013 17 10000 4.12 140 15:32 20.07.2022
956 Clear 38 1014 19 10000 4.12 160 14:35 20.07.2022
957 Clear 37 1015 21 10000 4.12 150 12:51 20.07.2022
958 Clear 34 1015 28 10000 3.6 160 10:29 20.07.2022
959 Clear 20 1015 54 10000 2.06 110 05:52 20.07.2022
960 Clear 24 1016 42 10000 2.57 90 00:58 20.07.2022
961 Clear 25 1015 41 10000 2.57 90 00:40 20.07.2022
962 Clear 27 1016 34 10000 3.09 90 22:35 19.07.2022
963 Clear 29 1016 26 10000 3.6 90 21:54 19.07.2022
964 Clear 32 1016 20 10000 4.12 90 20:49 19.07.2022
965 Clear 36 1015 20 10000 5.14 80 19:22 19.07.2022
966 Clear 36 1015 19 10000 4.63 70 18:35 19.07.2022
967 Clear 36 1016 18 10000 2.57 0 17:53 19.07.2022
968 Clear 37 1017 19 10000 2.06 0 15:26 19.07.2022
969 Clear 34 1018 24 10000 2.57 160 12:44 19.07.2022
970 Clear 32 1019 29 10000 2.06 120 11:32 19.07.2022
971 Clear 28 1019 41 10000 1.54 100 09:51 19.07.2022
972 Clear 24 1019 54 10000 1.54 90 08:46 19.07.2022
973 Clear 18 1019 69 10000 1.03 80 07:19 19.07.2022
974 Clear 15 1019 84 10000 0.51 0 06:27 19.07.2022
975 Clear 15 1019 86 10000 0.51 0 05:18 19.07.2022
976 Clear 17 1019 76 10000 0.51 0 02:38 19.07.2022
977 Clear 21 1019 60 10000 0.51 140 23:54 18.07.2022
978 Clouds 22 1019 58 10000 0.72 49 23:20 18.07.2022
979 Clear 24 1019 50 10000 0.51 70 22:26 18.07.2022
980 Clear 28 1019 39 10000 1.03 80 21:20 18.07.2022
981 Clear 30 1019 30 10000 2.57 290 20:22 18.07.2022
982 Clear 32 1019 24 10000 2.57 220 18:29 18.07.2022
983 Clear 32 1021 23 10000 5.66 290 16:34 18.07.2022
984 Clear 31 1022 23 10000 2.06 0 15:28 18.07.2022
985 Clear 29 1023 28 10000 3.6 160 13:32 18.07.2022
986 Clear 27 1023 33 10000 2.06 0 11:43 18.07.2022
987 Clear 22 1023 48 10000 2.57 140 09:55 18.07.2022
988 Clear 22 1023 48 10000 2.57 140 09:55 18.07.2022
989 Clear 17 1024 68 10000 1.03 0 07:58 18.07.2022
990 Clear 13 1024 87 10000 0.51 0 05:25 18.07.2022
991 Clear 18 1025 62 10000 0.51 340 22:57 17.07.2022
992 Clear 18 1026 59 10000 0.51 340 22:31 17.07.2022
993 Clear 21 1025 46 10000 1.03 20 21:39 17.07.2022
994 Clear 22 1025 43 10000 2.57 20 20:46 17.07.2022
995 Clear 24 1024 41 10000 3.09 10 19:50 17.07.2022
996 Clear 25 1024 37 10000 2.57 350 19:24 17.07.2022
997 Clear 25 1025 34 10000 3.6 310 17:54 17.07.2022
998 Clear 25 1025 34 10000 3.6 310 17:36 17.07.2022
999 Clear 25 1025 32 10000 3.6 310 16:33 17.07.2022
1000 Clear 25 1026 34 10000 3.6 320 15:50 17.07.2022
1001 Clear 23 1026 42 10000 3.09 0 13:51 17.07.2022
1002 Clear 21 1027 48 10000 4.63 340 12:43 17.07.2022
1003 Clouds 17 1028 62 10000 3.09 270 10:20 17.07.2022
1004 Clear 11 1027 88 10000 1.03 240 06:59 17.07.2022
1005 Clear 11 1026 87 10000 0.51 0 02:35 17.07.2022
1006 Clear 14 1025 81 10000 0.51 0 23:26 16.07.2022
1007 Clear 14 1026 67 10000 1.03 350 22:33 16.07.2022
1008 Clear 18 1024 48 10000 4.63 330 20:40 16.07.2022
1009 Clear 20 1023 45 10000 7.2 320 18:58 16.07.2022
1010 Clear 21 1022 42 10000 7.2 300 17:47 16.07.2022
1011 Clear 22 1022 41 10000 7.2 320 15:54 16.07.2022
1012 Clouds 20 1020 47 10000 8.23 300 12:37 16.07.2022
1013 Clouds 18 1020 70 10000 7.72 300 10:28 16.07.2022
1014 Clouds 17 1019 81 10000 5.14 280 09:25 16.07.2022
1015 Clouds 16 1019 91 10000 5.66 270 08:41 16.07.2022
1016 Drizzle 15 1018 88 10000 5.66 270 07:23 16.07.2022
1017 Clouds 16 1018 78 10000 4.12 260 03:35 16.07.2022
1018 Clear 15 1019 79 10000 2.06 200 00:45 16.07.2022
1019 Clear 15 1020 79 10000 0.51 180 22:56 15.07.2022
1020 Clear 16 1020 73 10000 0 0 22:24 15.07.2022
1021 Clear 18 1021 58 10000 3.09 320 20:41 15.07.2022
1022 Clear 18 1020 58 10000 3.09 320 19:34 15.07.2022
1023 Clouds 19 1020 56 10000 4.63 330 18:23 15.07.2022
1024 Clear 19 1020 55 10000 6.17 280 17:19 15.07.2022
1025 Clouds 19 1021 49 10000 4.63 280 14:19 15.07.2022
1026 Clouds 18 1021 58 10000 5.14 300 12:37 15.07.2022
1027 Clouds 18 1020 55 10000 3.6 290 10:52 15.07.2022
1028 Clouds 14 1020 83 10000 3.09 260 07:48 15.07.2022
1029 Clear 12 1019 92 10000 2.06 270 03:41 15.07.2022
1030 Clear 13 1019 89 10000 1.03 290 00:40 15.07.2022
1031 Clouds 14 1019 88 10000 2.57 290 23:24 14.07.2022
1032 Clear 16 1019 73 10000 2.57 300 22:24 14.07.2022
1033 Clear 17 1019 66 10000 4.12 310 21:40 14.07.2022
1034 Clear 17 1018 63 10000 5.66 330 21:21 14.07.2022
1035 Clear 18 1018 56 10000 4.63 320 20:43 14.07.2022
1036 Clear 18 1018 57 10000 3.6 310 20:18 14.07.2022
1037 Clear 22 1017 45 10000 7.2 320 18:24 14.07.2022
1038 Clear 23 1017 42 10000 6.69 300 16:19 14.07.2022
1039 Clear 23 1017 41 10000 6.17 310 14:56 14.07.2022
1040 Clouds 23 1017 41 10000 4.63 310 13:51 14.07.2022
1041 Clouds 22 1017 47 10000 2.06 0 12:34 14.07.2022
1042 Clouds 20 1019 54 10000 2.57 0 11:26 14.07.2022
1043 Clouds 19 1019 56 10000 5.14 300 10:51 14.07.2022
1044 Clouds 17 1020 67 10000 1.54 350 08:52 14.07.2022
1045 Clouds 13 1020 95 10000 1.74 308 04:44 14.07.2022
1046 Clear 16 1019 89 10000 4.12 330 01:19 14.07.2022
1047 Clear 16 1019 89 10000 4.12 320 00:51 14.07.2022
1048 Clear 20 1018 77 10000 4.63 340 22:31 13.07.2022
1049 Clear 22 1018 56 10000 4.12 330 21:42 13.07.2022
1050 Clear 24 1017 57 10000 6.69 330 20:38 13.07.2022
1051 Clear 28 1016 44 10000 5.66 320 18:36 13.07.2022
1052 Clear 29 1016 41 10000 7.2 300 17:31 13.07.2022
1053 Clear 29 1016 41 10000 7.2 300 17:31 13.07.2022
1054 Clear 30 1016 35 10000 7.2 280 16:19 13.07.2022
1055 Clear 30 1016 38 10000 5.66 250 14:46 13.07.2022
1056 Clear 27 1018 36 10000 4.63 250 11:36 13.07.2022
1057 Clear 26 1018 41 10000 4.12 240 10:44 13.07.2022
1058 Clear 25 1018 47 10000 2.57 230 09:49 13.07.2022
1059 Clear 24 1019 51 10000 2.57 230 09:20 13.07.2022
1060 Rain 19 1019 77 10000 0.51 0 05:21 13.07.2022
1061 Clear 18 1022 83 10000 0.51 0 00:49 13.07.2022
1062 Clouds 19 1022 80 10000 1.6 306 23:21 12.07.2022
1063 Clear 22 1023 60 10000 1.54 310 21:49 12.07.2022
1064 Clear 24 1022 53 10000 1.54 330 20:54 12.07.2022
1065 Clear 25 1022 51 10000 1.54 330 20:36 12.07.2022
1066 Clear 27 1022 44 10000 3.09 340 18:53 12.07.2022
1067 Clear 28 1022 38 10000 4.12 320 17:29 12.07.2022
1068 Clear 27 1023 36 10000 3.09 270 15:35 12.07.2022
1069 Clear 25 1024 47 10000 3.6 290 13:43 12.07.2022
1070 Clear 22 1024 57 10000 2.57 0 11:59 12.07.2022
1071 Clear 21 1024 63 10000 2.06 0 10:46 12.07.2022
1072 Clouds 18 1024 73 10000 2.06 0 09:18 12.07.2022
1073 Clouds 16 1024 82 10000 1.54 320 07:55 12.07.2022
1074 Clouds 14 1024 94 10000 1.03 0 05:53 12.07.2022
1075 Clouds 14 1024 94 10000 1.03 0 05:34 12.07.2022
1076 Fog 14 1024 94 10000 0.51 190 01:32 12.07.2022
1077 Clouds 17 1023 90 10000 2.06 330 22:49 11.07.2022
1078 Clouds 18 1022 88 10000 2.17 297 21:37 11.07.2022
1079 Clouds 19 1022 84 10000 3.6 300 20:33 11.07.2022
1080 Clouds 19 1022 87 10000 3.09 310 19:28 11.07.2022
1081 Clouds 20 1022 86 10000 3.6 280 18:30 11.07.2022
1082 Clouds 18 1022 87 10000 3.6 300 16:34 11.07.2022
1083 Clouds 18 1022 85 10000 3.09 310 15:33 11.07.2022
1084 Clouds 19 1022 70 10000 4.12 290 13:27 11.07.2022
1085 Clouds 18 1022 75 10000 4.63 290 11:24 11.07.2022
1086 Clouds 17 1022 78 10000 4.12 300 10:18 11.07.2022
1087 Clouds 17 1022 79 10000 3.6 310 09:40 11.07.2022
1088 Clouds 16 1022 81 10000 2.57 270 08:32 11.07.2022
1089 Clouds 14 1022 94 10000 3.09 280 01:54 11.07.2022
1090 Clouds 15 1022 89 10000 3.09 310 23:55 10.07.2022
1091 Clouds 15 1022 86 10000 2.06 280 22:48 10.07.2022
1092 Clouds 17 1021 72 10000 5.14 310 20:56 10.07.2022
1093 Clouds 17 1021 71 10000 5.14 310 20:37 10.07.2022
1094 Clouds 18 1021 68 10000 5.66 310 19:38 10.07.2022
1095 Clear 18 1021 67 10000 6.69 300 18:43 10.07.2022
1096 Drizzle 18 1022 65 10000 5.14 300 17:35 10.07.2022
1097 Clouds 18 1022 64 10000 6.17 280 16:24 10.07.2022
1098 Clouds 18 1022 62 10000 7.2 300 15:20 10.07.2022
1099 Clouds 19 1022 49 10000 7.2 300 13:40 10.07.2022
1100 Clouds 18 1022 56 10000 7.72 290 12:26 10.07.2022
1101 Clouds 16 1022 66 10000 6.69 300 09:57 10.07.2022
1102 Clouds 15 1022 78 10000 5.66 290 08:44 10.07.2022
1103 Clear 14 1022 82 10000 5.14 280 07:29 10.07.2022
1104 Clouds 15 1023 76 10000 5.14 300 01:23 10.07.2022
1105 Clouds 16 1024 66 10000 4.63 300 22:27 09.07.2022
1106 Clouds 16 1024 64 10000 4.12 320 21:56 09.07.2022
1107 Clouds 18 1023 59 10000 7.2 320 20:23 09.07.2022
1108 Clouds 20 1022 61 10000 7.72 330 18:35 09.07.2022
1109 Clouds 21 1022 61 10000 9.26 330 17:33 09.07.2022
1110 Clouds 21 1022 71 10000 4.63 320 16:44 09.07.2022
1111 Clouds 19 1022 91 10000 3.09 310 15:40 09.07.2022
1112 Clouds 22 1023 55 10000 6.17 260 14:27 09.07.2022
1113 Clouds 22 1023 57 10000 6.17 290 13:49 09.07.2022
1114 Clouds 21 1023 63 10000 6.17 290 12:43 09.07.2022
1115 Clouds 19 1024 75 10000 5.14 300 11:19 09.07.2022
1116 Clouds 19 1025 77 10000 4.63 280 10:22 09.07.2022
1117 Clouds 16 1024 89 10000 2.06 260 07:45 09.07.2022
1118 Clouds 14 1025 94 10000 1.03 240 04:53 09.07.2022
1119 Clear 14 1026 92 10000 1.54 280 01:50 09.07.2022
1120 Clouds 17 1027 91 10000 1.54 310 22:53 08.07.2022
1121 Clouds 20 1026 83 10000 3.09 310 21:34 08.07.2022
1122 Clouds 21 1026 75 10000 5.66 280 20:40 08.07.2022
1123 Clouds 21 1026 68 10000 3.6 280 19:52 08.07.2022
1124 Clouds 20 1027 70 10000 5.66 300 18:23 08.07.2022
1125 Clouds 20 1028 72 10000 5.14 290 16:40 08.07.2022
1126 Clouds 19 1028 62 10000 5.66 290 14:51 08.07.2022
1127 Clouds 19 1028 62 10000 5.66 290 14:51 08.07.2022
1128 Clouds 20 1028 62 10000 5.14 290 13:26 08.07.2022
1129 Clouds 19 1028 62 10000 5.66 290 11:28 08.07.2022
1130 Clouds 17 1028 65 10000 5.66 280 10:27 08.07.2022
1131 Clouds 15 1028 81 10000 5.14 280 08:27 08.07.2022
1132 Clouds 14 1027 86 10000 4.12 280 06:49 08.07.2022
1133 Clouds 15 1026 79 10000 6.69 300 01:23 08.07.2022
1134 Clouds 15 1024 77 10000 7.72 300 22:57 07.07.2022
1135 Clouds 16 1024 76 10000 7.72 300 22:28 07.07.2022
1136 Clouds 17 1022 70 10000 6.69 310 20:22 07.07.2022
1137 Clouds 18 1021 70 10000 8.75 330 18:20 07.07.2022
1138 Clouds 18 1020 81 10000 7.2 320 16:46 07.07.2022
1139 Clouds 18 1018 88 10000 5.66 290 14:32 07.07.2022
1140 Clouds 17 1017 94 10000 6.17 300 13:18 07.07.2022
1141 Rain 17 1017 93 10000 6.17 280 12:24 07.07.2022
1142 Rain 17 1017 93 10000 6.17 280 12:24 07.07.2022
1143 Clouds 17 1016 93 10000 5.14 290 11:44 07.07.2022
1144 Drizzle 17 1015 90 9000 7.2 290 11:24 07.07.2022
1145 Drizzle 17 1015 92 10000 6.17 290 10:40 07.07.2022
1146 Clouds 17 1015 94 10000 4.12 270 10:22 07.07.2022
1147 Rain 15 1015 96 9000 4.12 240 06:40 07.07.2022
1148 Rain 16 1019 84 10000 3.63 237 00:32 07.07.2022
1149 Rain 17 1019 83 10000 2.72 256 23:36 06.07.2022
1150 Rain 17 1020 71 10000 5.14 280 23:18 06.07.2022
1151 Rain 18 1020 66 10000 5.14 280 22:52 06.07.2022
1152 Rain 18 1020 58 10000 5.14 280 22:34 06.07.2022
1153 Clear 20 1020 49 10000 4.63 290 20:30 06.07.2022
1154 Clear 20 1020 49 10000 4.63 290 20:30 06.07.2022
1155 Clear 20 1020 47 10000 4.63 280 19:33 06.07.2022
1156 Clear 21 1021 45 10000 5.14 260 17:22 06.07.2022
1157 Clouds 20 1022 45 10000 4.63 270 15:58 06.07.2022
1158 Clouds 19 1023 51 10000 5.14 270 12:57 06.07.2022
1159 Clouds 18 1023 52 10000 5.14 250 12:21 06.07.2022
1160 Clouds 18 1023 59 10000 5.14 280 10:55 06.07.2022
1161 Clear 16 1023 72 10000 3.6 280 09:27 06.07.2022
1162 Clear 16 1023 72 10000 3.6 280 09:27 06.07.2022
1163 Clear 15 1022 75 10000 3.09 270 07:44 06.07.2022
1164 Clear 15 1022 75 10000 3.09 270 07:44 06.07.2022
1165 Clear 14 1023 82 10000 2.57 280 06:49 06.07.2022
1166 Clear 14 1023 76 10000 2.06 300 00:38 06.07.2022
1167 Clear 17 1022 63 10000 2.57 330 22:43 05.07.2022
1168 Clear 20 1021 49 10000 5.14 320 20:49 05.07.2022
1169 Clear 22 1020 49 10000 5.14 340 20:31 05.07.2022
1170 Clear 22 1019 47 10000 4.12 330 19:38 05.07.2022
1171 Clear 23 1020 38 10000 2.57 0 17:51 05.07.2022
1172 Clear 24 1020 38 10000 6.17 310 17:19 05.07.2022
1173 Clear 24 1020 38 10000 5.66 310 16:25 05.07.2022
1174 Clear 24 1020 36 10000 5.66 270 14:54 05.07.2022
1175 Clear 23 1020 40 10000 6.17 300 13:36 05.07.2022
1176 Clear 22 1020 42 10000 6.17 270 12:24 05.07.2022
1177 Clear 21 1020 46 10000 4.12 260 10:46 05.07.2022
1178 Clear 20 1021 54 10000 4.12 280 09:57 05.07.2022
1179 Clear 17 1020 75 10000 1.54 260 08:21 05.07.2022
1180 Clouds 15 1020 89 10000 1.03 0 06:51 05.07.2022
1181 Clear 13 1020 92 10000 0.51 0 04:35 05.07.2022
1182 Clear 15 1019 94 10000 0.51 320 01:33 05.07.2022
1183 Clear 17 1020 72 10000 2.57 340 23:37 04.07.2022
1184 Clear 19 1019 55 10000 3.09 310 22:56 04.07.2022
1185 Clear 20 1018 61 10000 2.57 310 22:18 04.07.2022
1186 Clear 23 1017 50 10000 3.09 280 20:56 04.07.2022
1187 Clouds 23 1017 49 10000 0.45 248 20:36 04.07.2022
1188 Clear 24 1017 44 10000 4.63 280 19:56 04.07.2022
1189 Clear 24 1017 43 10000 4.63 280 19:37 04.07.2022
1190 Clear 25 1017 40 10000 5.14 260 18:35 04.07.2022
1191 Clear 25 1017 37 10000 5.66 250 16:51 04.07.2022
1192 Clear 25 1018 40 10000 4.12 260 15:35 04.07.2022
1193 Clear 23 1019 42 10000 4.63 260 13:44 04.07.2022
1194 Clouds 23 1018 44 10000 4.63 290 12:38 04.07.2022
1195 Clouds 20 1020 58 10000 3.6 270 10:39 04.07.2022
1196 Clouds 20 1019 60 10000 4.12 280 10:20 04.07.2022
1197 Clouds 17 1019 70 10000 2.57 290 08:33 04.07.2022
1198 Clear 13 1019 94 10000 2.06 250 05:57 04.07.2022
1199 Clear 17 1018 80 10000 1.54 310 00:44 04.07.2022
1200 Clear 17 1018 80 10000 1.54 310 00:44 04.07.2022
1201 Clear 17 1018 82 10000 2.06 320 23:38 03.07.2022
1202 Clouds 19 1017 82 10000 5.14 310 22:28 03.07.2022
1203 Clear 24 1015 46 10000 5.14 300 20:45 03.07.2022
1204 Clear 26 1015 41 10000 6.69 300 19:42 03.07.2022
1205 Clear 27 1015 36 10000 5.66 280 19:23 03.07.2022
1206 Clear 28 1015 30 10000 6.17 250 17:46 03.07.2022
1207 Clear 29 1014 31 10000 5.14 280 17:18 03.07.2022
1208 Clear 29 1016 33 10000 5.14 280 15:26 03.07.2022
1209 Clear 29 1015 35 10000 4.12 280 14:49 03.07.2022
1210 Clear 27 1016 36 10000 5.14 280 13:49 03.07.2022
1211 Clear 27 1016 36 10000 3.09 290 12:42 03.07.2022
1212 Clear 26 1017 40 10000 3.6 0 11:46 03.07.2022
1213 Clear 25 1017 44 10000 3.6 290 10:40 03.07.2022
1214 Clear 24 1017 43 10000 4.63 260 10:20 03.07.2022
1215 Clear 20 1015 61 10000 2.06 180 07:37 03.07.2022
1216 Clear 17 1016 74 10000 1.03 0 05:26 03.07.2022
1217 Clear 19 1017 71 10000 2.57 90 00:26 03.07.2022
1218 Clear 21 1017 55 10000 2.06 90 22:37 02.07.2022
1219 Clear 22 1017 51 10000 2.57 90 22:18 02.07.2022
1220 Clear 26 1017 38 10000 2.06 180 20:21 02.07.2022
1221 Clear 26 1018 36 10000 3.6 180 19:49 02.07.2022
1222 Clear 27 1019 35 10000 4.63 0 17:59 02.07.2022
1223 Clear 27 1019 34 10000 4.63 0 17:37 02.07.2022
1224 Clear 27 1020 36 10000 2.57 0 15:37 02.07.2022
1225 Clear 24 1022 42 10000 4.12 260 12:49 02.07.2022
1226 Clear 23 1023 45 10000 3.6 260 11:28 02.07.2022
1227 Clear 22 1023 48 10000 3.6 260 10:48 02.07.2022
1228 Clear 21 1023 49 10000 2.06 0 09:49 02.07.2022
1229 Clear 19 1022 62 10000 2.06 220 08:37 02.07.2022
1230 Clear 17 1022 66 10000 1.54 210 08:18 02.07.2022
1231 Clear 12 1021 88 10000 1.03 260 02:53 02.07.2022
1232 Clear 14 1021 86 10000 0 0 00:27 02.07.2022
1233 Clear 15 1020 82 10000 0.51 0 22:59 01.07.2022
1234 Clear 17 1019 80 10000 0.51 0 22:26 01.07.2022
1235 Clear 19 1019 59 10000 1.03 220 21:37 01.07.2022
1236 Clear 19 1018 73 10000 1.54 280 20:58 01.07.2022
1237 Clouds 20 1018 52 10000 2.57 280 19:48 01.07.2022
1238 Clouds 20 1018 52 10000 3.09 290 19:22 01.07.2022
1239 Clouds 19 1017 61 10000 6.17 260 16:38 01.07.2022
1240 Rain 17 1017 72 10000 4.12 270 14:21 01.07.2022
1241 Clouds 16 1017 82 10000 4.12 270 13:23 01.07.2022
1242 Clouds 16 1016 90 10000 3.09 260 10:53 01.07.2022
1243 Rain 16 1016 91 10000 3.6 250 10:19 01.07.2022
1244 Clouds 16 1014 90 10000 3.6 260 06:20 01.07.2022
1245 Clear 19 1011 91 10000 4.12 270 01:57 01.07.2022
1246 Clear 22 1008 85 10000 2.57 90 23:34 30.06.2022
1247 Clear 23 1009 64 10000 1.03 70 22:47 30.06.2022
1248 Clear 24 1008 81 10000 1.54 80 22:27 30.06.2022
1249 Clear 25 1009 57 10000 1.54 100 21:51 30.06.2022
1250 Clear 28 1008 64 10000 2.06 120 20:45 30.06.2022
1251 Clear 28 1008 63 10000 2.06 110 20:18 30.06.2022
1252 Clear 28 1008 57 10000 2.57 120 19:47 30.06.2022
1253 Clear 28 1009 60 10000 3.6 170 18:49 30.06.2022
1254 Rain 27 1009 66 10000 1.03 0 17:49 30.06.2022
1255 Clear 29 1009 46 10000 2.57 0 16:56 30.06.2022
1256 Clear 30 1010 43 10000 1.54 0 15:52 30.06.2022
1257 Clouds 30 1010 48 10000 2.06 0 13:51 30.06.2022
1258 Clouds 29 1011 50 10000 2.57 100 13:18 30.06.2022
1259 Clouds 28 1011 53 10000 3.09 130 12:32 30.06.2022
1260 Clear 25 1012 61 10000 3.6 100 10:19 30.06.2022
1261 Clear 24 1012 63 10000 3.6 100 09:40 30.06.2022
1262 Clear 21 1012 66 10000 3.09 110 08:26 30.06.2022
1263 Clear 18 1012 68 10000 3.09 110 07:40 30.06.2022
1264 Clear 16 1012 82 10000 1.54 70 03:35 30.06.2022
1265 Clear 20 1013 65 10000 2.06 80 23:39 29.06.2022
1266 Clear 21 1013 67 10000 3.09 90 22:41 29.06.2022
1267 Clear 22 1013 63 10000 2.57 110 22:19 29.06.2022
1268 Clear 24 1013 54 10000 3.09 110 20:35 29.06.2022
1269 Clear 25 1013 51 10000 4.12 100 19:56 29.06.2022
1270 Clear 26 1013 44 10000 5.66 100 17:55 29.06.2022
1271 Clear 26 1014 45 10000 5.66 100 17:32 29.06.2022
1272 Clear 27 1014 44 10000 5.66 110 16:23 29.06.2022
1273 Clouds 26 1015 51 10000 5.66 110 13:45 29.06.2022
1274 Clouds 26 1015 49 10000 5.14 130 12:38 29.06.2022
1275 Clear 23 1016 58 10000 4.12 110 09:50 29.06.2022
1276 Clear 22 1016 59 10000 4.12 110 09:26 29.06.2022
1277 Clear 15 1016 77 10000 1.54 80 06:29 29.06.2022
1278 Clear 14 1017 85 10000 1.03 90 04:44 29.06.2022
1279 Clear 16 1018 74 10000 0.51 80 00:53 29.06.2022
1280 Clear 17 1018 74 10000 0.51 80 00:34 29.06.2022
1281 Clear 19 1018 58 10000 1.03 80 22:52 28.06.2022
1282 Clear 21 1019 49 10000 1.03 0 21:59 28.06.2022
1283 Clear 21 1019 49 10000 1.03 0 21:40 28.06.2022
1284 Clear 22 1018 48 10000 1.03 0 21:22 28.06.2022
1285 Clear 24 1018 41 10000 2.06 0 19:54 28.06.2022
1286 Clear 25 1018 40 10000 2.06 240 19:30 28.06.2022
1287 Clear 25 1018 37 10000 1.54 0 18:40 28.06.2022
1288 Clear 26 1019 36 10000 2.06 0 16:58 28.06.2022
1289 Clear 26 1020 35 10000 2.06 0 15:55 28.06.2022
1290 Clear 25 1020 38 10000 3.09 280 14:52 28.06.2022
1291 Clear 24 1021 40 10000 2.57 0 14:19 28.06.2022
1292 Clouds 24 1022 42 10000 2.57 0 13:45 28.06.2022
1293 Clouds 23 1021 46 10000 3.09 240 12:30 28.06.2022
1294 Clear 20 1022 56 10000 3.6 300 10:23 28.06.2022
1295 Clear 18 1022 71 10000 3.6 280 08:55 28.06.2022
1296 Clear 18 1021 72 10000 3.6 280 08:33 28.06.2022
1297 Clouds 16 1021 85 10000 3.6 270 07:20 28.06.2022
1298 Clouds 15 1020 94 10000 4.63 260 03:55 28.06.2022
1299 Clouds 17 1018 97 10000 1.54 280 23:51 27.06.2022
1300 Clouds 17 1018 92 10000 1.03 200 23:26 27.06.2022
1301 Clouds 18 1018 89 10000 2.06 270 21:53 27.06.2022
1302 Clouds 19 1018 89 10000 2.57 270 21:22 27.06.2022
1303 Clouds 19 1016 83 10000 3.09 290 20:21 27.06.2022
1304 Mist 19 1016 89 4800 5.14 280 18:51 27.06.2022
1305 Clouds 20 1015 86 10000 5.66 290 17:38 27.06.2022
1306 Clouds 22 1015 73 10000 6.17 290 15:50 27.06.2022
1307 Clouds 24 1014 65 10000 5.14 280 14:18 27.06.2022
1308 Clouds 24 1014 64 10000 3.09 300 12:58 27.06.2022
1309 Clouds 23 1014 68 10000 3.6 310 11:40 27.06.2022
1310 Clear 21 1012 76 10000 2.06 320 09:45 27.06.2022
1311 Clear 20 1013 84 10000 2.06 260 08:43 27.06.2022
1312 Clear 19 1013 89 10000 1.03 0 07:39 27.06.2022
1313 Clouds 19 1013 89 10000 1.03 0 05:50 27.06.2022
1314 Clear 21 1013 78 10000 2.57 50 01:24 27.06.2022
1315 Clear 22 1015 64 10000 2.06 320 22:59 26.06.2022
1316 Clear 23 1014 56 10000 2.57 340 21:38 26.06.2022
1317 Clear 25 1014 53 10000 4.12 320 20:28 26.06.2022
1318 Clear 26 1014 50 10000 3.09 290 18:33 26.06.2022
1319 Clear 27 1015 47 10000 2.57 320 17:47 26.06.2022
1320 Clouds 27 1014 52 10000 4.63 300 15:37 26.06.2022
1321 Clouds 27 1014 52 10000 5.14 270 14:23 26.06.2022
1322 Clouds 28 1014 48 10000 4.63 270 13:24 26.06.2022
1323 Clear 26 1015 50 10000 3.6 290 11:41 26.06.2022
1324 Clear 26 1013 53 10000 3.09 260 10:42 26.06.2022
1325 Clear 25 1014 54 10000 4.12 270 10:19 26.06.2022
1326 Clear 23 1012 60 10000 3.09 260 08:27 26.06.2022
1327 Clear 18 1012 81 10000 1.03 0 06:19 26.06.2022
1328 Clear 21 1011 78 10000 1.03 0 00:37 26.06.2022
1329 Clear 22 1011 76 10000 1.03 80 00:19 26.06.2022
1330 Clear 22 1011 71 10000 1.03 0 23:31 25.06.2022
1331 Clear 23 1011 77 10000 1.03 0 22:46 25.06.2022
1332 Clouds 23 1011 92 10000 1.38 80 22:24 25.06.2022
1333 Clear 26 1011 58 10000 1.03 0 21:21 25.06.2022
1334 Clear 28 1011 39 10000 1.54 150 20:39 25.06.2022
1335 Clear 28 1011 37 10000 2.06 180 19:59 25.06.2022
1336 Clear 29 1010 41 10000 2.57 170 18:23 25.06.2022
1337 Clear 28 1010 43 10000 1.54 0 17:27 25.06.2022
1338 Clear 29 1012 37 10000 1.54 0 16:27 25.06.2022
1339 Clear 27 1012 45 10000 3.6 260 14:31 25.06.2022
1340 Clouds 26 1012 49 10000 2.57 270 12:46 25.06.2022
1341 Clouds 26 1012 51 10000 4.12 270 12:27 25.06.2022
1342 Clear 22 1012 68 10000 3.6 260 09:24 25.06.2022
1343 Clear 22 1012 68 10000 3.6 260 09:24 25.06.2022
1344 Clear 22 1011 70 10000 3.09 260 08:49 25.06.2022
1345 Clear 21 1012 73 10000 2.57 250 08:20 25.06.2022
1346 Clear 17 1011 96 10000 1.54 260 06:34 25.06.2022
1347 Clear 18 1009 95 10000 1.03 140 00:44 25.06.2022
1348 Clear 19 1008 93 10000 1.54 130 23:46 24.06.2022
1349 Clear 20 1007 94 10000 1.55 253 22:22 24.06.2022
1350 Clear 22 1006 86 10000 2.64 255 21:22 24.06.2022
1351 Clear 23 1007 83 10000 2.06 260 20:23 24.06.2022
1352 Clear 24 1006 81 10000 2.57 280 19:24 24.06.2022
1353 Clouds 24 1005 74 10000 4.09 245 18:51 24.06.2022
1354 Clouds 23 1005 72 10000 7.72 260 18:31 24.06.2022
1355 Clouds 25 1005 72 10000 3.6 170 17:47 24.06.2022
1356 Rain 26 1005 58 10000 2.57 0 16:34 24.06.2022
1357 Clear 24 1006 77 10000 4.63 190 14:30 24.06.2022
1358 Drizzle 25 1006 74 10000 5.14 200 13:58 24.06.2022
1359 Rain 26 1006 56 10000 2.57 210 12:28 24.06.2022
1360 Clear 27 1006 50 10000 3.09 210 11:40 24.06.2022
1361 Clear 26 1006 44 10000 3.09 240 10:26 24.06.2022
1362 Clear 26 1007 44 10000 3.09 200 09:41 24.06.2022
1363 Clear 25 1006 48 10000 2.57 160 08:53 24.06.2022
1364 Clear 22 1006 54 10000 2.06 130 07:39 24.06.2022
1365 Clear 20 1006 63 10000 3.09 110 06:42 24.06.2022
1366 Clear 19 1006 64 10000 2.06 100 06:18 24.06.2022
1367 Clear 20 1007 59 10000 3.09 90 03:33 24.06.2022
1368 Clear 24 1010 38 10000 3.09 100 22:59 23.06.2022
1369 Clear 24 1010 38 10000 3.09 100 22:40 23.06.2022
1370 Clear 29 1010 26 10000 5.14 90 20:58 23.06.2022
1371 Clear 29 1010 28 10000 5.14 90 20:35 23.06.2022
1372 Clear 30 1011 29 10000 3.6 110 19:34 23.06.2022
1373 Clear 31 1010 30 10000 2.06 0 17:52 23.06.2022
1374 Clear 31 1010 29 10000 3.6 100 17:23 23.06.2022
1375 Clear 31 1011 30 10000 3.09 0 15:50 23.06.2022
1376 Clear 31 1011 31 10000 3.6 0 15:24 23.06.2022
1377 Clear 29 1012 33 10000 3.6 0 13:40 23.06.2022
1378 Clear 27 1013 44 10000 3.09 90 11:27 23.06.2022
1379 Clear 24 1014 51 10000 3.6 100 10:35 23.06.2022
1380 Clear 21 1014 63 10000 3.09 110 08:53 23.06.2022
1381 Clear 14 1013 89 10000 0.51 350 03:35 23.06.2022
1382 Clear 16 1013 78 10000 2.06 30 00:26 23.06.2022
1383 Clear 18 1013 52 10000 2.06 30 23:30 22.06.2022
1384 Clear 20 1013 49 10000 3.09 20 22:39 22.06.2022
1385 Clear 24 1012 33 10000 2.57 350 21:22 22.06.2022
1386 Clear 25 1012 27 10000 2.57 350 20:42 22.06.2022
1387 Clear 26 1012 22 10000 1.54 350 19:56 22.06.2022
1388 Clear 27 1011 24 10000 2.57 300 18:46 22.06.2022
1389 Clear 27 1011 25 10000 2.57 340 17:27 22.06.2022
1390 Clear 27 1011 26 10000 3.09 350 16:24 22.06.2022
1391 Clear 27 1012 28 10000 2.57 320 15:26 22.06.2022
1392 Clear 25 1013 32 10000 3.09 0 14:19 22.06.2022
1393 Clear 25 1013 32 10000 1.54 0 13:37 22.06.2022
1394 Clear 25 1013 35 10000 2.57 0 13:18 22.06.2022
1395 Clouds 23 1014 43 10000 2.57 280 11:49 22.06.2022
1396 Clear 22 1013 49 10000 2.06 70 10:55 22.06.2022
1397 Clear 21 1013 55 10000 2.06 60 09:59 22.06.2022
1398 Clear 18 1014 66 10000 0.51 0 08:27 22.06.2022
1399 Clear 12 1012 89 10000 0.48 21 03:50 22.06.2022
1400 Clear 14 1013 81 10000 2.57 30 01:23 22.06.2022
1401 Clear 14 1012 79 10000 0.51 0 00:24 22.06.2022
1402 Clear 18 1013 63 10000 0.51 0 22:18 21.06.2022
1403 Clear 22 1012 41 10000 1.03 0 19:55 21.06.2022
1404 Clear 23 1012 40 10000 2.06 290 18:35 21.06.2022
1405 Clear 23 1013 37 10000 1.03 0 17:31 21.06.2022
1406 Clear 22 1014 45 10000 2.57 0 13:45 21.06.2022
1407 Clear 19 1015 57 10000 3.09 290 11:37 21.06.2022
1408 Clouds 16 1016 67 10000 4.12 260 09:54 21.06.2022
1409 Clouds 14 1016 74 10000 3.09 280 08:47 21.06.2022
1410 Clear 11 1015 90 10000 1.03 0 06:36 21.06.2022
1411 Clear 11 1015 89 10000 2.57 280 01:31 21.06.2022
1412 Clear 13 1015 84 10000 3.6 300 23:24 20.06.2022
1413 Clear 15 1015 79 10000 5.14 300 21:54 20.06.2022
1414 Clear 17 1014 59 10000 6.69 310 20:50 20.06.2022
1415 Clear 18 1013 53 10000 5.66 310 19:40 20.06.2022
1416 Clear 19 1013 47 10000 7.2 310 18:46 20.06.2022
1417 Clear 19 1012 47 10000 6.69 310 17:59 20.06.2022
1418 Clear 20 1013 47 10000 6.17 290 17:32 20.06.2022
1419 Clouds 20 1012 48 10000 6.17 290 15:56 20.06.2022
1420 Clouds 18 1013 58 10000 4.12 280 12:56 20.06.2022
1421 Clouds 15 1012 77 10000 4.12 300 11:18 20.06.2022
1422 Clear 14 1012 86 10000 2.57 260 09:41 20.06.2022
1423 Clouds 13 1013 91 10000 2.06 300 08:44 20.06.2022
1424 Rain 12 1013 97 10000 3.09 270 06:19 20.06.2022
1425 Rain 13 1012 92 10000 2.57 310 02:56 20.06.2022
1426 Clouds 14 1012 90 10000 2.06 310 00:32 20.06.2022
1427 Clouds 15 1012 89 10000 3.09 320 23:18 19.06.2022
1428 Rain 16 1012 89 10000 2.06 320 21:58 19.06.2022
1429 Clouds 16 1012 84 10000 2.06 320 21:40 19.06.2022
1430 Clear 18 1011 75 10000 4.12 360 20:44 19.06.2022
1431 Clear 20 1011 54 10000 5.14 330 19:48 19.06.2022
1432 Clear 20 1011 52 10000 5.66 330 19:20 19.06.2022
1433 Clear 20 1011 52 10000 5.66 320 18:30 19.06.2022
1434 Clear 21 1011 59 10000 7.2 320 17:22 19.06.2022
1435 Clear 22 1010 54 10000 6.69 330 16:36 19.06.2022
1436 Clear 24 1009 49 10000 5.66 340 15:43 19.06.2022
1437 Clear 25 1008 50 10000 3.6 360 15:24 19.06.2022
1438 Clear 25 1008 49 10000 3.09 290 14:20 19.06.2022
1439 Clear 24 1008 49 10000 5.14 310 13:37 19.06.2022
1440 Clear 23 1008 53 10000 5.14 350 11:40 19.06.2022
1441 Clear 22 1007 56 10000 2.57 60 10:47 19.06.2022
1442 Clear 19 1007 60 10000 5.66 350 08:54 19.06.2022
1443 Clear 18 1008 67 10000 4.12 350 08:22 19.06.2022
1444 Clear 17 1008 77 10000 5.14 50 05:44 19.06.2022
1445 Clear 19 1010 72 10000 3.09 100 02:32 19.06.2022
1446 Clear 20 1013 73 10000 2.57 50 00:26 19.06.2022
1447 Clear 21 1013 68 10000 3.09 40 23:36 18.06.2022
1448 Clear 22 1013 68 10000 3.09 20 22:45 18.06.2022
1449 Clear 24 1013 64 10000 2.06 360 21:43 18.06.2022
1450 Clear 26 1013 57 10000 4.12 360 20:49 18.06.2022
1451 Clear 26 1013 57 10000 4.12 360 20:49 18.06.2022
1452 Clear 29 1014 50 10000 4.63 350 19:40 18.06.2022
1453 Clear 30 1013 48 10000 5.66 340 18:54 18.06.2022
1454 Clear 32 1013 41 10000 4.12 300 17:43 18.06.2022
1455 Clear 32 1013 41 10000 6.17 290 17:22 18.06.2022
1456 Clear 31 1015 39 10000 6.17 300 15:37 18.06.2022
1457 Clear 32 1014 39 10000 5.66 280 14:48 18.06.2022
1458 Clear 30 1015 39 10000 5.66 270 13:42 18.06.2022
1459 Clear 29 1016 46 10000 5.14 260 11:58 18.06.2022
1460 Clear 27 1016 48 10000 5.14 260 10:56 18.06.2022
1461 Clear 27 1016 48 10000 5.14 260 10:56 18.06.2022
1462 Clear 25 1016 49 10000 4.12 250 09:28 18.06.2022
1463 Clear 24 1016 51 10000 3.6 240 08:32 18.06.2022
1464 Clear 21 1016 60 10000 2.57 210 07:23 18.06.2022
1465 Clear 18 1016 69 10000 2.06 160 03:58 18.06.2022
1466 Clear 18 1018 71 10000 1.03 0 01:27 18.06.2022
1467 Clear 19 1018 72 10000 1.54 160 00:49 18.06.2022
1468 Clear 20 1019 72 10000 1.54 160 23:59 17.06.2022
1469 Clear 20 1019 72 10000 1.54 140 23:29 17.06.2022
1470 Clear 23 1020 61 10000 1.54 140 21:33 17.06.2022
1471 Clear 24 1020 53 10000 1.03 0 20:26 17.06.2022
1472 Clear 26 1021 43 10000 1.03 0 18:59 17.06.2022
1473 Clear 25 1021 44 10000 0.51 0 17:46 17.06.2022
1474 Clear 25 1022 45 10000 1.03 0 16:43 17.06.2022
1475 Clear 26 1022 41 10000 1.54 260 16:19 17.06.2022
1476 Clear 26 1022 42 10000 2.06 200 15:37 17.06.2022
1477 Clouds 25 1022 40 10000 2.55 237 14:22 17.06.2022
1478 Clear 25 1023 39 10000 2.06 250 13:51 17.06.2022
1479 Rain 25 1023 39 10000 3.09 260 13:31 17.06.2022
1480 Clear 23 1024 41 10000 2.06 0 11:59 17.06.2022
1481 Clear 23 1024 42 10000 2.06 0 11:39 17.06.2022
1482 Clear 23 1024 43 10000 1.54 0 11:21 17.06.2022
1483 Clear 17 1025 59 10000 1.03 0 08:38 17.06.2022
1484 Clear 16 1024 69 10000 0.51 0 07:53 17.06.2022
1485 Clear 13 1024 83 10000 0.51 0 06:34 17.06.2022
1486 Clear 11 1023 86 10000 1.03 0 03:24 17.06.2022
1487 Clear 14 1023 82 10000 1.03 0 00:46 17.06.2022
1488 Clear 16 1023 67 10000 2.06 310 23:30 16.06.2022
1489 Clear 16 1023 59 10000 2.57 340 22:38 16.06.2022
1490 Clear 16 1023 59 10000 2.57 340 22:38 16.06.2022
1491 Clear 20 1022 45 10000 4.12 330 21:19 16.06.2022
1492 Clear 20 1022 45 10000 4.12 320 20:50 16.06.2022
1493 Clear 22 1022 45 10000 5.66 310 19:59 16.06.2022
1494 Clear 22 1022 44 10000 4.63 340 18:48 16.06.2022
1495 Clear 24 1021 39 10000 5.66 360 17:49 16.06.2022
1496 Clear 24 1020 38 10000 4.63 320 17:27 16.06.2022
1497 Clear 24 1021 36 10000 5.66 350 16:19 16.06.2022
1498 Clear 23 1021 37 10000 4.63 360 15:21 16.06.2022
1499 Clear 23 1021 40 10000 4.12 310 14:22 16.06.2022
1500 Clouds 22 1021 44 10000 4.12 310 12:53 16.06.2022
1501 Clouds 22 1020 46 10000 4.12 310 12:34 16.06.2022
1502 Clouds 20 1020 52 10000 3.6 360 11:21 16.06.2022
1503 Clouds 20 1020 54 10000 4.12 350 10:35 16.06.2022
1504 Clear 18 1020 61 10000 4.12 340 09:39 16.06.2022
1505 Clear 17 1019 68 10000 3.6 330 08:56 16.06.2022
1506 Clear 14 1019 81 10000 3.09 330 07:38 16.06.2022
1507 Clear 13 1018 81 10000 1.54 350 05:51 16.06.2022
1508 Clear 13 1018 85 10000 2.57 300 03:56 16.06.2022
1509 Clear 15 1018 79 10000 3.09 330 01:52 16.06.2022
1510 Clear 14 1018 86 10000 2.06 320 01:22 16.06.2022
1511 Clear 16 1018 67 10000 4.12 360 23:58 15.06.2022
1512 Clear 18 1018 59 10000 4.12 350 22:53 15.06.2022
1513 Clear 21 1017 49 10000 4.12 360 21:37 15.06.2022
1514 Clear 23 1017 43 10000 4.63 350 20:59 15.06.2022
1515 Clear 23 1017 43 10000 4.63 350 20:36 15.06.2022
1516 Clear 24 1017 33 10000 2.06 340 19:57 15.06.2022
1517 Clear 26 1016 36 10000 2.57 240 18:37 15.06.2022
1518 Clear 26 1016 36 10000 2.57 280 17:46 15.06.2022
1519 Clear 27 1018 33 10000 2.57 0 16:23 15.06.2022
1520 Clear 25 1018 37 10000 1.54 0 14:57 15.06.2022
1521 Clear 25 1018 40 10000 2.57 0 13:22 15.06.2022
1522 Clear 24 1018 41 10000 2.06 0 12:40 15.06.2022
1523 Clear 22 1018 47 10000 3.09 90 11:24 15.06.2022
1524 Clouds 20 1019 54 10000 1.83 72 10:22 15.06.2022
1525 Clear 17 1019 61 10000 4.12 90 08:59 15.06.2022
1526 Clear 14 1019 76 10000 2.57 90 07:36 15.06.2022
1527 Clear 10 1019 91 10000 3.09 80 05:36 15.06.2022
1528 Clear 10 1020 91 10000 1.54 90 02:47 15.06.2022
1529 Clear 11 1020 88 10000 1.54 90 01:36 15.06.2022
1530 Clear 13 1020 84 10000 1.03 70 00:19 15.06.2022
1531 Clear 14 1021 71 10000 1.03 0 23:38 14.06.2022
1532 Clear 15 1021 67 10000 2.57 30 22:46 14.06.2022
1533 Clear 17 1020 55 10000 2.06 20 21:43 14.06.2022
1534 Clear 20 1020 45 10000 1.54 10 20:58 14.06.2022
1535 Clear 20 1020 48 10000 1.54 10 20:38 14.06.2022
1536 Clear 20 1019 49 10000 1.03 0 19:47 14.06.2022
1537 Clear 21 1020 48 10000 0.51 0 18:33 14.06.2022
1538 Clouds 21 1021 44 10000 1.03 0 16:53 14.06.2022
1539 Clouds 21 1021 45 10000 1.03 0 16:34 14.06.2022
1540 Clouds 21 1021 46 10000 2.06 270 15:36 14.06.2022
1541 Clouds 20 1022 47 10000 3.09 290 14:53 14.06.2022
1542 Clouds 19 1022 51 10000 3.6 250 13:57 14.06.2022
1543 Clouds 18 1022 52 10000 3.6 270 12:58 14.06.2022
1544 Clouds 17 1022 55 10000 3.6 270 11:56 14.06.2022
1545 Clouds 17 1022 60 10000 4.12 290 10:51 14.06.2022
1546 Clouds 15 1023 59 10000 3.09 260 10:25 14.06.2022
1547 Clouds 13 1023 73 10000 2.06 260 08:52 14.06.2022
1548 Clouds 12 1022 77 10000 1.03 0 08:24 14.06.2022
1549 Clouds 9 1023 88 10000 0.51 0 06:19 14.06.2022
1550 Clear 8 1022 94 10000 0 0 03:45 14.06.2022
1551 Clear 9 1022 91 10000 1.03 0 01:37 14.06.2022
1552 Clear 10 1022 90 10000 1.03 230 00:21 14.06.2022
1553 Clear 13 1022 76 10000 2.06 330 22:39 13.06.2022
1554 Clear 14 1022 86 10000 2.06 340 22:19 13.06.2022
1555 Clouds 16 1021 71 10000 4.12 330 21:24 13.06.2022
1556 Clouds 18 1020 58 10000 4.12 300 19:59 13.06.2022
1557 Clouds 18 1020 55 10000 7.2 290 18:54 13.06.2022
1558 Clouds 18 1020 62 10000 6.69 290 17:55 13.06.2022
1559 Rain 18 1020 56 10000 6.17 300 17:23 13.06.2022
1560 Clear 19 1019 54 10000 7.72 300 16:30 13.06.2022
1561 Clouds 17 1020 77 10000 5.66 280 14:49 13.06.2022
1562 Clouds 17 1020 80 10000 4.12 310 14:31 13.06.2022
1563 Rain 16 1019 70 10000 11.83 270 13:31 13.06.2022
1564 Clouds 16 1019 73 10000 6.69 270 12:22 13.06.2022
1565 Clouds 18 1019 57 10000 5.66 280 10:36 13.06.2022
1566 Clouds 17 1019 64 10000 4.63 280 09:43 13.06.2022
1567 Clouds 15 1018 74 10000 2.57 260 08:34 13.06.2022
1568 Rain 12 1018 90 10000 1.03 0 06:35 13.06.2022
1569 Clouds 12 1018 93 10000 2.02 258 04:35 13.06.2022
1570 Clouds 14 1019 82 10000 1.03 10 01:45 13.06.2022
1571 Clouds 15 1018 91 10000 1.54 10 01:18 13.06.2022
1572 Clouds 16 1018 84 10000 2.06 340 23:43 12.06.2022
1573 Clouds 17 1019 72 10000 2.06 340 22:36 12.06.2022
1574 Clear 19 1018 55 10000 3.09 320 21:46 12.06.2022
1575 Clear 21 1018 49 10000 4.12 310 20:49 12.06.2022
1576 Clear 22 1018 46 10000 3.6 280 19:49 12.06.2022
1577 Clear 23 1018 40 10000 5.14 280 18:54 12.06.2022
1578 Clear 24 1018 37 10000 4.12 280 17:24 12.06.2022
1579 Clear 24 1020 35 10000 4.63 260 15:44 12.06.2022
1580 Clear 24 1020 39 10000 5.14 280 14:50 12.06.2022
1581 Clear 23 1020 38 10000 4.63 260 14:18 12.06.2022
1582 Clear 23 1020 40 10000 5.14 280 13:44 12.06.2022
1583 Clouds 23 1021 43 10000 5.62 265 12:28 12.06.2022
1584 Clouds 21 1022 48 10000 5.14 290 10:46 12.06.2022
1585 Clear 20 1021 56 10000 4.12 290 09:42 12.06.2022
1586 Clear 19 1021 66 10000 2.06 240 08:50 12.06.2022
1587 Clear 17 1020 74 10000 1.03 0 07:52 12.06.2022
1588 Clouds 14 1021 86 10000 1.51 271 06:27 12.06.2022
1589 Clear 15 1021 85 10000 1.54 360 03:54 12.06.2022
1590 Clear 16 1021 85 10000 1.54 250 02:27 12.06.2022
1591 Clear 16 1021 87 10000 1.03 0 01:35 12.06.2022
1592 Clear 17 1021 85 10000 1.54 300 00:48 12.06.2022
1593 Clear 16 1021 77 10000 1.03 0 00:19 12.06.2022
1594 Clear 17 1021 72 10000 1.54 240 23:21 11.06.2022
1595 Clear 18 1021 68 10000 1.54 240 22:37 11.06.2022
1596 Clear 23 1021 49 10000 2.57 280 21:18 11.06.2022
1597 Clear 24 1021 46 10000 4.12 280 20:26 11.06.2022
1598 Clear 25 1021 48 10000 6.17 280 19:36 11.06.2022
1599 Clear 25 1021 46 10000 6.17 280 18:45 11.06.2022
1600 Clear 25 1020 47 10000 6.69 280 18:26 11.06.2022
1601 Clear 25 1020 47 10000 5.14 260 17:47 11.06.2022
1602 Clear 25 1020 46 10000 6.17 260 17:26 11.06.2022
1603 Clear 25 1021 46 10000 4.12 270 16:43 11.06.2022
1604 Clear 25 1021 47 10000 5.14 280 16:18 11.06.2022
1605 Clear 24 1021 46 10000 5.66 250 14:44 11.06.2022
1606 Clouds 24 1021 48 10000 6.69 270 13:52 11.06.2022
1607 Clouds 24 1021 48 10000 5.66 260 11:55 11.06.2022
1608 Drizzle 22 1021 55 10000 7.2 250 10:30 11.06.2022
1609 Clouds 21 1021 62 10000 5.14 250 09:41 11.06.2022
1610 Clouds 20 1021 63 10000 3.6 250 08:38 11.06.2022
1611 Clear 19 1020 73 10000 2.06 210 06:33 11.06.2022
1612 Clear 18 1020 80 10000 2.06 190 05:33 11.06.2022
1613 Clear 19 1020 68 10000 2.06 170 02:55 11.06.2022
1614 Clear 20 1021 68 10000 1.54 170 01:41 11.06.2022
1615 Clear 20 1021 64 10000 1.54 170 00:55 11.06.2022
1616 Clear 19 1021 68 10000 1.54 210 23:25 10.06.2022
1617 Clear 20 1021 68 10000 1.54 200 22:20 10.06.2022
1618 Clear 20 1020 79 10000 1.54 230 21:22 10.06.2022
1619 Clear 22 1020 66 10000 2.06 240 20:37 10.06.2022
1620 Clouds 22 1020 60 10000 2.06 240 20:19 10.06.2022
1621 Clouds 23 1020 55 10000 3.6 240 19:19 10.06.2022
1622 Clouds 23 1021 57 10000 3.6 260 18:29 10.06.2022
1623 Clouds 22 1021 56 10000 4.12 250 17:42 10.06.2022
1624 Clouds 22 1021 56 10000 5.14 260 16:59 10.06.2022
1625 Clouds 22 1021 53 10000 5.14 240 16:23 10.06.2022
1626 Clouds 21 1021 56 10000 5.14 270 15:37 10.06.2022
1627 Clouds 22 1021 52 10000 6.17 260 13:55 10.06.2022
1628 Clouds 22 1022 50 10000 5.14 250 12:48 10.06.2022
1629 Clouds 21 1022 52 10000 5.14 220 11:43 10.06.2022
1630 Clear 20 1022 56 10000 4.63 240 10:45 10.06.2022
1631 Clear 20 1022 61 10000 2.06 230 09:48 10.06.2022
1632 Clear 17 1021 74 10000 1.54 210 08:33 10.06.2022
1633 Clear 14 1021 88 10000 0.51 0 07:24 10.06.2022
1634 Clear 12 1021 91 10000 0 0 06:43 10.06.2022
1635 Clear 12 1021 93 10000 0 0 06:24 10.06.2022
1636 Clouds 11 1020 92 10000 0.51 330 03:52 10.06.2022
1637 Clear 12 1020 93 10000 1.03 0 01:41 10.06.2022
1638 Clear 14 1019 90 10000 1.03 0 00:28 10.06.2022
1639 Clear 15 1019 88 10000 2.06 260 23:29 09.06.2022
1640 Clouds 18 1017 68 10000 2.57 270 21:58 09.06.2022
1641 Clouds 18 1017 81 10000 2.57 270 21:32 09.06.2022
1642 Clouds 19 1016 63 10000 3.6 260 20:54 09.06.2022
1643 Clear 20 1015 62 10000 3.09 280 19:59 09.06.2022
1644 Clear 20 1015 56 10000 4.12 270 18:54 09.06.2022
1645 Clouds 21 1015 58 10000 5.14 270 18:21 09.06.2022
1646 Clouds 22 1014 53 10000 4.12 300 16:50 09.06.2022
1647 Clouds 22 1013 57 10000 5.14 310 15:48 09.06.2022
1648 Clouds 21 1012 66 10000 6.69 280 14:35 09.06.2022
1649 Clouds 20 1012 72 10000 5.14 270 13:48 09.06.2022
1650 Clouds 19 1012 73 10000 6.17 270 13:27 09.06.2022
1651 Clouds 18 1012 74 10000 5.66 260 11:54 09.06.2022
1652 Clouds 18 1010 79 10000 4.63 250 10:53 09.06.2022
1653 Clouds 17 1010 86 10000 4.63 250 09:43 09.06.2022
1654 Clouds 16 1010 86 10000 5.14 250 09:23 09.06.2022
1655 Clouds 16 1010 86 10000 5.14 250 09:23 09.06.2022
1656 Clouds 15 1009 91 10000 4.12 250 07:44 09.06.2022
1657 Clouds 14 1008 94 10000 3.6 240 05:48 09.06.2022
1658 Clouds 14 1007 96 10000 2.57 220 02:20 09.06.2022
1659 Clouds 15 1007 95 10000 1.54 150 23:34 08.06.2022
1660 Rain 15 1006 95 10000 1.54 110 22:56 08.06.2022
1661 Rain 15 1006 95 10000 1.54 100 22:26 08.06.2022
1662 Rain 15 1006 96 10000 1.03 60 21:52 08.06.2022
1663 Rain 16 1006 92 10000 2.57 260 20:57 08.06.2022
1664 Rain 17 1006 88 9000 3.6 200 19:55 08.06.2022
1665 Rain 19 1005 74 10000 4.12 230 19:18 08.06.2022
1666 Rain 20 1006 60 10000 1.03 0 18:42 08.06.2022
1667 Clouds 22 1006 63 10000 3.58 188 16:39 08.06.2022
1668 Clouds 23 1006 53 10000 2.06 280 15:27 08.06.2022
1669 Clouds 23 1007 52 10000 3.09 210 13:37 08.06.2022
1670 Clouds 21 1007 59 10000 2.57 180 11:51 08.06.2022
1671 Clouds 21 1007 61 10000 2.97 215 11:24 08.06.2022
1672 Clouds 19 1009 75 10000 2.57 230 09:48 08.06.2022
1673 Clouds 18 1009 79 10000 3.09 200 09:20 08.06.2022
1674 Clouds 17 1009 86 10000 1.54 220 08:18 08.06.2022
1675 Clouds 13 1009 95 10000 0.51 0 05:36 08.06.2022
1676 Clear 13 1010 91 10000 0.51 0 02:39 08.06.2022
1677 Clouds 15 1011 89 10000 1.54 220 00:28 08.06.2022
1678 Clouds 15 1011 89 10000 2.06 210 23:25 07.06.2022
1679 Clouds 16 1011 86 10000 1.54 230 22:42 07.06.2022
1680 Clouds 16 1011 87 10000 2.06 240 22:20 07.06.2022
1681 Clouds 18 1011 82 10000 1.54 230 21:28 07.06.2022
1682 Clouds 19 1011 63 10000 2.57 250 20:52 07.06.2022
1683 Clear 19 1011 64 10000 2.57 280 20:31 07.06.2022
1684 Clear 20 1011 61 10000 4.12 280 19:24 07.06.2022
1685 Clouds 21 1010 56 10000 5.66 250 17:57 07.06.2022
1686 Clear 21 1010 57 10000 5.66 250 17:19 07.06.2022
1687 Clear 20 1010 62 10000 4.12 270 16:39 07.06.2022
1688 Clear 20 1010 60 10000 4.12 280 15:42 07.06.2022
1689 Clouds 21 1010 58 10000 6.69 290 15:23 07.06.2022
1690 Clouds 21 1010 52 10000 6.69 260 14:46 07.06.2022
1691 Clouds 21 1011 53 10000 7.72 250 13:50 07.06.2022
1692 Clouds 20 1011 52 10000 6.17 250 13:29 07.06.2022
1693 Clouds 20 1012 51 10000 6.17 250 12:44 07.06.2022
1694 Clouds 18 1012 59 10000 6.17 230 11:22 07.06.2022
1695 Clear 19 1011 51 10000 7.2 230 10:19 07.06.2022
1696 Clear 17 1011 67 10000 5.14 230 08:36 07.06.2022
1697 Clouds 15 1011 77 10000 3.09 190 07:22 07.06.2022
1698 Clouds 14 1012 82 10000 2.57 180 05:56 07.06.2022
1699 Clear 13 1013 84 10000 2.06 200 02:48 07.06.2022
1700 Clouds 15 1014 81 10000 3.6 260 00:35 07.06.2022
1701 Clear 17 1013 76 10000 3.09 250 23:34 06.06.2022
1702 Clear 17 1013 69 10000 2.06 240 22:41 06.06.2022
1703 Clear 18 1012 67 10000 2.57 250 21:41 06.06.2022
1704 Clear 20 1012 58 10000 3.09 220 20:19 06.06.2022
1705 Clear 21 1012 54 10000 3.6 200 19:23 06.06.2022
1706 Clear 21 1012 55 10000 4.63 220 18:46 06.06.2022
1707 Clear 21 1012 56 10000 4.12 220 17:51 06.06.2022
1708 Rain 20 1013 59 10000 5.66 230 16:39 06.06.2022
1709 Clear 22 1013 41 10000 5.66 250 15:40 06.06.2022
1710 Clear 22 1013 42 10000 7.2 230 14:56 06.06.2022
1711 Clouds 22 1014 47 10000 6.69 250 13:31 06.06.2022
1712 Clouds 21 1013 48 10000 6.69 230 12:39 06.06.2022
1713 Clouds 22 1013 51 10000 7.2 230 12:20 06.06.2022
1714 Clouds 21 1013 58 10000 6.69 230 11:42 06.06.2022
1715 Clouds 19 1013 68 10000 5.66 220 09:41 06.06.2022
1716 Clouds 17 1013 89 10000 3.6 220 08:35 06.06.2022
1717 Clouds 17 1013 86 10000 4.12 250 07:40 06.06.2022
1718 Clouds 17 1012 86 10000 2.06 210 05:48 06.06.2022
1719 Clouds 17 1011 89 10000 3.6 220 03:47 06.06.2022
1720 Clear 18 1010 90 10000 3.6 200 01:30 06.06.2022
1721 Clear 18 1011 93 10000 3.09 200 00:43 06.06.2022
1722 Clear 18 1011 97 10000 1.54 170 00:19 06.06.2022
1723 Clouds 19 1011 96 8000 2.06 120 22:57 05.06.2022
1724 Rain 19 1011 93 10000 2.57 110 21:33 05.06.2022
1725 Rain 20 1011 79 10000 4.12 140 20:23 05.06.2022
1726 Rain 22 1011 77 10000 6.17 80 18:47 05.06.2022
1727 Rain 23 1012 72 10000 2.57 130 17:57 05.06.2022
1728 Rain 23 1012 71 10000 2.57 130 17:36 05.06.2022
1729 Rain 23 1012 73 10000 3.6 120 17:18 05.06.2022
1730 Rain 24 1013 69 10000 4.63 110 16:45 05.06.2022
1731 Clear 25 1014 49 10000 6.69 100 14:46 05.06.2022
1732 Clear 25 1015 50 10000 8.23 100 13:55 05.06.2022
1733 Clear 23 1016 54 10000 6.69 100 11:56 05.06.2022
1734 Clear 22 1017 59 10000 5.14 100 10:45 05.06.2022
1735 Clear 21 1017 61 10000 5.66 100 10:23 05.06.2022
1736 Clear 18 1018 67 10000 3.6 100 08:45 05.06.2022
1737 Clear 18 1018 65 10000 4.63 100 08:21 05.06.2022
1738 Clear 12 1019 88 10000 2.06 90 05:23 05.06.2022
1739 Clear 13 1019 87 10000 1.54 100 04:33 05.06.2022
1740 Clear 13 1021 71 10000 2.57 80 01:45 05.06.2022
1741 Clear 13 1021 71 10000 2.57 80 01:45 05.06.2022
1742 Clear 14 1020 77 10000 2.57 80 01:23 05.06.2022
1743 Clear 14 1020 77 10000 2.57 80 01:23 05.06.2022
1744 Clear 17 1021 55 10000 2.06 60 22:45 04.06.2022
1745 Clear 21 1020 55 10000 2.06 30 21:21 04.06.2022
1746 Clear 24 1019 45 10000 1.03 0 18:54 04.06.2022
1747 Clear 25 1020 42 10000 3.6 30 16:48 04.06.2022
1748 Clear 25 1020 42 10000 3.6 30 16:48 04.06.2022
1749 Clear 25 1020 42 10000 2.57 0 16:20 04.06.2022
1750 Clear 25 1020 42 10000 2.57 0 15:27 04.06.2022
1751 Clear 23 1021 44 10000 2.06 0 13:54 04.06.2022
1752 Clear 20 1021 49 10000 3.6 70 11:23 04.06.2022
1753 Clear 20 1021 48 10000 3.09 50 10:52 04.06.2022
1754 Clear 18 1021 51 10000 2.06 60 09:46 04.06.2022
1755 Clear 16 1019 59 10000 3.09 60 08:44 04.06.2022
1756 Clear 15 1019 61 10000 1.54 40 07:59 04.06.2022
1757 Clear 13 1019 70 10000 1.03 0 06:20 04.06.2022
1758 Clear 15 1018 74 10000 2.57 40 02:56 04.06.2022
1759 Clear 17 1018 63 10000 3.6 40 00:20 04.06.2022
1760 Clear 19 1018 61 10000 3.09 40 22:49 03.06.2022
1761 Clear 20 1017 54 10000 3.09 50 21:43 03.06.2022
1762 Clear 21 1017 49 10000 3.6 50 20:38 03.06.2022
1763 Clear 23 1016 45 10000 3.09 60 19:19 03.06.2022
1764 Clear 24 1017 43 10000 2.57 100 16:54 03.06.2022
1765 Clear 24 1017 42 10000 4.12 80 15:51 03.06.2022
1766 Clear 23 1018 43 10000 4.63 100 13:51 03.06.2022
1767 Clear 21 1019 47 10000 4.12 80 11:51 03.06.2022
1768 Clear 18 1020 58 10000 3.09 110 09:54 03.06.2022
1769 Clear 16 1021 63 10000 4.12 100 09:29 03.06.2022
1770 Clear 12 1020 87 10000 3.09 90 07:42 03.06.2022
1771 Clear 10 1021 89 10000 2.57 80 06:46 03.06.2022
1772 Clear 9 1021 88 10000 1.54 90 06:27 03.06.2022
1773 Clear 9 1021 90 10000 0.51 110 02:50 03.06.2022
1774 Clear 12 1021 84 10000 2.06 90 23:36 02.06.2022
1775 Clear 15 1021 80 10000 0.51 0 21:58 02.06.2022
1776 Clear 18 1021 50 10000 0.51 0 20:34 02.06.2022
1777 Clouds 18 1021 48 10000 0.51 0 19:54 02.06.2022
1778 Clouds 18 1021 48 10000 0.51 0 19:36 02.06.2022
1779 Clear 18 1021 52 10000 2.06 280 18:34 02.06.2022
1780 Clouds 18 1021 55 10000 2.57 300 16:28 02.06.2022
1781 Clouds 19 1021 53 10000 3.09 250 15:30 02.06.2022
1782 Clouds 17 1021 55 10000 4.12 280 13:30 02.06.2022
1783 Clouds 17 1021 54 10000 4.63 270 12:46 02.06.2022
1784 Clouds 14 1021 65 10000 4.12 280 10:32 02.06.2022
1785 Clouds 13 1020 75 10000 2.57 290 09:29 02.06.2022
1786 Mist 11 1020 87 3700 2.57 260 08:30 02.06.2022
1787 Mist 10 1020 90 2500 2.57 250 07:58 02.06.2022
1788 Fog 8 1019 95 3800 1.54 250 06:20 02.06.2022
1789 Clear 8 1018 95 10000 2.06 280 03:49 02.06.2022
1790 Clear 10 1017 90 10000 2.57 260 00:39 02.06.2022
1791 Clear 11 1016 86 10000 2.06 250 22:57 01.06.2022
1792 Clouds 12 1015 85 10000 4.12 290 21:45 01.06.2022
1793 Rain 13 1015 81 10000 4.12 270 21:22 01.06.2022
1794 Rain 13 1015 81 10000 4.12 270 21:22 01.06.2022
1795 Rain 13 1015 81 10000 3.6 270 20:38 01.06.2022
1796 Clear 14 1014 79 10000 4.63 260 19:50 01.06.2022
1797 Rain 14 1014 80 10000 4.63 220 18:24 01.06.2022
1798 Rain 15 1014 74 10000 6.69 260 16:48 01.06.2022
1799 Clouds 17 1013 59 10000 8.23 280 15:39 01.06.2022
1800 Clouds 16 1013 76 10000 4.63 270 14:35 01.06.2022
1801 Clouds 16 1013 62 10000 4.63 270 12:46 01.06.2022
1802 Clouds 15 1013 61 10000 4.12 280 10:42 01.06.2022
1803 Clear 14 1013 63 10000 4.63 260 09:27 01.06.2022
1804 Clear 12 1013 78 10000 2.57 260 07:57 01.06.2022
1805 Clear 11 1012 87 10000 2.57 250 06:49 01.06.2022
1806 Clear 10 1012 88 10000 1.03 150 01:44 01.06.2022
1807 Clear 11 1013 85 10000 1.54 190 23:47 31.05.2022
1808 Clear 12 1013 82 10000 1.54 180 22:38 31.05.2022
1809 Clear 12 1013 82 10000 1.54 180 22:38 31.05.2022
1810 Clear 12 1013 82 10000 1.54 190 22:18 31.05.2022
1811 Clear 14 1012 76 10000 1.03 0 20:57 31.05.2022
1812 Clear 15 1012 74 10000 1.03 0 20:33 31.05.2022
1813 Clear 17 1011 57 10000 2.06 60 18:57 31.05.2022
1814 Rain 17 1012 58 10000 2.06 310 18:19 31.05.2022
1815 Rain 16 1013 51 10000 5.66 290 17:35 31.05.2022
1816 Clouds 19 1012 38 10000 0.51 0 15:42 31.05.2022
1817 Clear 19 1012 38 10000 2.06 220 14:36 31.05.2022
1818 Clear 18 1013 40 10000 2.06 0 12:39 31.05.2022
1819 Clear 17 1014 39 10000 2.57 130 12:18 31.05.2022
1820 Clear 15 1014 59 10000 2.06 0 09:50 31.05.2022
1821 Clear 9 1014 86 10000 1.03 0 07:41 31.05.2022
1822 Clear 9 1014 86 10000 1.03 0 07:41 31.05.2022
1823 Clear 6 1015 89 10000 1.03 0 05:25 31.05.2022
1824 Clear 7 1015 90 10000 0.51 0 02:51 31.05.2022
1825 Clouds 8 1015 89 10000 0.51 80 23:29 30.05.2022
1826 Clouds 9 1015 87 10000 1.03 80 22:59 30.05.2022
1827 Clouds 9 1014 86 10000 1.03 80 22:31 30.05.2022
1828 Clear 11 1014 84 10000 1.03 80 21:35 30.05.2022
1829 Clouds 14 1014 61 10000 1.03 0 20:31 30.05.2022
1830 Clear 14 1013 60 10000 1.03 0 19:26 30.05.2022
1831 Clear 14 1013 60 10000 3.6 280 17:43 30.05.2022
1832 Clouds 14 1013 61 10000 3.6 250 16:54 30.05.2022
1833 Clouds 14 1013 60 10000 3.6 240 15:43 30.05.2022
1834 Clouds 12 1012 64 10000 4.63 270 12:44 30.05.2022
1835 Clouds 11 1012 67 10000 2.57 280 10:57 30.05.2022
1836 Clouds 11 1011 73 10000 3.09 300 09:39 30.05.2022
1837 Clouds 10 1012 87 10000 2.06 270 07:24 30.05.2022
1838 Clouds 9 1011 91 10000 1.54 280 05:51 30.05.2022
1839 Clouds 9 1011 91 10000 2.57 300 02:36 30.05.2022
1840 Clouds 10 1012 91 10000 2.06 280 23:28 29.05.2022
1841 Drizzle 10 1011 88 10000 2.06 270 22:39 29.05.2022
1842 Clouds 11 1011 85 10000 3.61 298 21:31 29.05.2022
1843 Clouds 12 1010 75 10000 4.12 300 19:48 29.05.2022
1844 Clouds 12 1011 80 10000 4.12 300 19:27 29.05.2022
1845 Drizzle 13 1011 76 10000 6.17 300 17:48 29.05.2022
1846 Clouds 14 1011 74 10000 6.17 300 15:50 29.05.2022
1847 Clouds 13 1010 73 10000 6.17 300 15:32 29.05.2022
1848 Clouds 13 1011 83 10000 6.17 290 14:31 29.05.2022
1849 Clouds 12 1011 80 10000 4.12 270 11:55 29.05.2022
1850 Drizzle 12 1011 80 10000 3.6 270 10:44 29.05.2022
1851 Clouds 11 1012 77 10000 4.12 260 09:52 29.05.2022
1852 Clouds 10 1012 88 10000 3.6 260 06:57 29.05.2022
1853 Clouds 9 1013 92 10000 4.12 270 04:50 29.05.2022
1854 Clouds 9 1013 89 10000 3.6 270 04:31 29.05.2022
1855 Clouds 10 1015 81 10000 5.14 280 00:35 29.05.2022
1856 Clouds 10 1016 76 10000 4.63 280 23:42 28.05.2022
1857 Clear 10 1016 91 10000 2.57 260 22:46 28.05.2022
1858 Clear 11 1016 84 10000 4.44 288 21:42 28.05.2022
1859 Clear 13 1016 60 10000 7.2 300 20:30 28.05.2022
1860 Clouds 15 1015 55 10000 6.69 300 19:18 28.05.2022
1861 Clear 15 1015 49 10000 9.26 300 17:48 28.05.2022
1862 Clouds 16 1015 48 10000 7.72 310 16:53 28.05.2022
1863 Clouds 16 1015 51 10000 8.23 300 15:44 28.05.2022
1864 Clouds 15 1015 56 10000 9.26 300 14:37 28.05.2022
1865 Clouds 14 1016 80 10000 5.66 290 13:26 28.05.2022
1866 Clouds 14 1017 77 10000 7.72 270 12:41 28.05.2022
1867 Clouds 13 1017 65 10000 8.23 280 11:27 28.05.2022
1868 Clouds 12 1016 72 10000 0.89 248 10:25 28.05.2022
1869 Clouds 11 1016 80 10000 6.69 280 09:30 28.05.2022
1870 Clouds 10 1016 83 10000 6.69 280 07:47 28.05.2022
1871 Clouds 10 1016 87 10000 6.69 280 06:32 28.05.2022
1872 Clouds 10 1015 86 7000 7.72 310 03:53 28.05.2022
1873 Clouds 11 1017 85 10000 5.66 270 00:33 28.05.2022
1874 Clouds 12 1017 77 10000 5.66 270 23:34 27.05.2022
1875 Clouds 13 1017 68 10000 9.26 280 22:24 27.05.2022
1876 Clouds 14 1017 61 10000 7.72 280 20:57 27.05.2022
1877 Clouds 14 1017 58 10000 7.2 280 20:26 27.05.2022
1878 Clouds 15 1017 56 10000 7.53 292 19:51 27.05.2022
1879 Clear 15 1017 50 10000 9.77 280 19:32 27.05.2022
1880 Clear 17 1016 48 10000 9.26 290 18:29 27.05.2022
1881 Clear 17 1016 47 10000 9.77 280 16:42 27.05.2022
1882 Clear 18 1016 46 10000 9.26 280 15:34 27.05.2022
1883 Clear 18 1015 46 10000 9.26 280 14:44 27.05.2022
1884 Clouds 17 1016 48 10000 8.23 270 13:23 27.05.2022
1885 Clouds 17 1016 56 10000 9.26 280 11:41 27.05.2022
1886 Clouds 16 1016 55 10000 8.75 290 11:23 27.05.2022
1887 Clouds 16 1016 65 10000 6.69 270 10:32 27.05.2022
1888 Clouds 15 1016 79 10000 0.89 248 09:37 27.05.2022
1889 Clouds 14 1015 86 10000 5.66 280 08:19 27.05.2022
1890 Drizzle 13 1015 94 10000 3.09 270 05:47 27.05.2022
1891 Rain 15 1015 88 10000 4.12 250 02:53 27.05.2022
1892 Clouds 15 1016 93 10000 4.63 250 00:37 27.05.2022
1893 Drizzle 16 1017 90 10000 7.72 280 22:47 26.05.2022
1894 Clouds 17 1016 80 10000 5.92 262 21:42 26.05.2022
1895 Clouds 18 1016 66 10000 6.17 270 20:59 26.05.2022
1896 Clouds 19 1017 61 10000 5.66 250 19:24 26.05.2022
1897 Clouds 19 1018 56 10000 6.69 250 18:18 26.05.2022
1898 Clouds 19 1018 58 10000 5.14 260 16:56 26.05.2022
1899 Clouds 20 1018 54 10000 6.17 260 15:46 26.05.2022
1900 Clouds 20 1018 54 10000 6.69 270 14:46 26.05.2022
1901 Clouds 19 1018 54 10000 8.23 280 13:23 26.05.2022
1902 Clouds 18 1018 58 10000 7.2 270 11:36 26.05.2022
1903 Clouds 17 1017 75 10000 6.69 260 10:24 26.05.2022
1904 Clouds 16 1016 75 10000 5.66 270 09:35 26.05.2022
1905 Clouds 16 1017 78 10000 6.69 250 08:37 26.05.2022
1906 Clouds 15 1015 79 10000 5.66 240 05:22 26.05.2022
1907 Clear 16 1014 62 10000 5.14 240 00:57 26.05.2022
1908 Clear 16 1014 60 10000 3.6 240 23:40 25.05.2022
1909 Clear 16 1015 59 10000 2.57 230 22:29 25.05.2022
1910 Clear 16 1014 55 10000 2.57 240 21:33 25.05.2022
1911 Clear 17 1014 51 10000 3.6 250 20:38 25.05.2022
1912 Clear 18 1014 45 10000 5.14 250 19:31 25.05.2022
1913 Clear 19 1014 49 10000 5.66 250 17:46 25.05.2022
1914 Clouds 20 1013 47 10000 6.15 250 16:40 25.05.2022
1915 Clear 20 1013 45 10000 6.17 260 15:57 25.05.2022
1916 Clouds 20 1014 48 10000 6.69 240 14:55 25.05.2022
1917 Clouds 20 1014 48 10000 6.69 240 14:33 25.05.2022
1918 Clouds 19 1014 49 10000 5.14 230 13:56 25.05.2022
1919 Clouds 18 1014 52 10000 4.12 250 12:39 25.05.2022
1920 Clouds 17 1014 60 10000 5.14 260 10:54 25.05.2022
1921 Clouds 16 1014 62 10000 5.14 260 10:18 25.05.2022
1922 Clear 15 1014 73 10000 4.54 248 08:41 25.05.2022
1923 Clouds 12 1014 79 10000 2.9 224 07:23 25.05.2022
1924 Clouds 10 1012 91 10000 1.54 240 04:23 25.05.2022
1925 Clear 11 1011 92 10000 0.51 0 00:23 25.05.2022
1926 Clear 11 1010 92 10000 1.03 0 23:47 24.05.2022
1927 Clear 12 1010 91 10000 1.54 260 22:33 24.05.2022
1928 Clear 13 1010 85 10000 2.57 270 21:41 24.05.2022
1929 Clear 14 1009 83 10000 2.57 280 21:21 24.05.2022
1930 Clear 15 1008 72 10000 1.03 0 20:23 24.05.2022
1931 Clouds 17 1007 67 10000 4.12 290 18:56 24.05.2022
1932 Clouds 17 1007 67 10000 4.12 290 18:56 24.05.2022
1933 Clouds 19 1006 56 10000 5.66 240 16:53 24.05.2022
1934 Clouds 19 1006 58 10000 0.45 158 16:23 24.05.2022
1935 Clouds 18 1006 61 10000 7.2 240 14:59 24.05.2022
1936 Clouds 18 1005 63 10000 7.2 250 14:21 24.05.2022
1937 Clouds 15 1004 86 10000 4.12 260 12:50 24.05.2022
1938 Rain 14 1004 90 10000 4.12 260 11:40 24.05.2022
1939 Clouds 16 1003 78 10000 4.12 230 09:46 24.05.2022
1940 Clear 16 1002 84 10000 4.12 220 08:50 24.05.2022
1941 Clouds 14 1001 87 10000 2.06 210 06:58 24.05.2022
1942 Clouds 14 1000 90 10000 5.66 260 04:30 24.05.2022
1943 Rain 16 999 97 10000 10.29 270 02:37 24.05.2022
1944 Clouds 17 997 95 10000 4.12 200 01:42 24.05.2022
1945 Clouds 17 997 87 10000 1.54 140 23:33 23.05.2022
1946 Clear 20 997 78 10000 4.12 120 21:57 23.05.2022
1947 Rain 21 997 56 10000 4.12 120 21:39 23.05.2022
1948 Clear 21 998 56 10000 3.6 120 20:42 23.05.2022
1949 Clear 22 998 64 10000 5.14 120 19:33 23.05.2022
1950 Clear 22 998 60 10000 4.63 130 18:59 23.05.2022
1951 Clear 23 998 56 10000 4.63 130 18:35 23.05.2022
1952 Clear 24 999 53 10000 4.12 140 17:38 23.05.2022
1953 Clear 24 1002 46 10000 5.14 120 15:37 23.05.2022
1954 Clear 22 1003 55 10000 4.63 120 13:32 23.05.2022
1955 Clear 18 1005 66 10000 3.09 120 11:34 23.05.2022
1956 Clear 17 1005 65 10000 3.6 110 10:42 23.05.2022
1957 Clear 15 1006 73 10000 2.57 120 09:39 23.05.2022
1958 Clear 15 1007 70 10000 4.12 110 08:38 23.05.2022
1959 Clear 13 1008 79 10000 3.6 100 06:47 23.05.2022
1960 Clear 12 1009 81 10000 3.6 90 06:23 23.05.2022
1961 Clear 11 1010 85 10000 3.09 90 02:35 23.05.2022
1962 Clear 11 1011 86 10000 2.06 100 01:46 23.05.2022
1963 Clear 12 1011 85 10000 2.06 100 00:44 23.05.2022
1964 Clear 13 1012 76 10000 1.03 90 22:43 22.05.2022
1965 Clear 14 1013 67 10000 0.51 0 21:56 22.05.2022
1966 Clear 15 1013 67 10000 0.51 0 21:36 22.05.2022
1967 Clear 17 1013 51 10000 1.54 40 20:37 22.05.2022
1968 Clear 19 1013 49 10000 1.54 10 20:18 22.05.2022
1969 Clear 19 1013 50 10000 1.54 320 18:57 22.05.2022
1970 Clear 20 1013 47 10000 1.03 0 18:28 22.05.2022
1971 Clear 20 1014 45 10000 1.54 240 17:39 22.05.2022
1972 Clear 20 1014 46 10000 0.51 0 16:50 22.05.2022
1973 Clouds 19 1016 46 10000 2.06 330 14:55 22.05.2022
1974 Clouds 19 1017 48 10000 2.57 0 13:57 22.05.2022
1975 Clouds 18 1017 50 10000 2.57 270 12:53 22.05.2022
1976 Clouds 17 1017 54 10000 3.6 240 11:52 22.05.2022
1977 Clouds 15 1018 63 10000 2.06 0 10:27 22.05.2022
1978 Clouds 14 1017 71 10000 1.03 0 09:19 22.05.2022
1979 Clouds 11 1018 87 10000 0.51 250 07:22 22.05.2022
1980 Clouds 10 1017 91 10000 0.51 50 06:40 22.05.2022
1981 Clouds 10 1018 94 10000 1.03 0 03:20 22.05.2022
1982 Clear 12 1019 76 10000 2.06 290 00:44 22.05.2022
1983 Clear 13 1019 76 10000 2.06 270 23:56 21.05.2022
1984 Clear 12 1019 76 10000 2.06 280 23:21 21.05.2022
1985 Clear 14 1019 67 10000 3.09 290 21:55 21.05.2022
1986 Clear 15 1019 72 10000 2.57 290 21:26 21.05.2022
1987 Clear 17 1018 66 10000 5.66 300 20:27 21.05.2022
1988 Clouds 17 1018 59 10000 6.17 300 19:43 21.05.2022
1989 Clouds 18 1018 59 10000 7.72 280 18:21 21.05.2022
1990 Clouds 18 1018 61 10000 4.12 270 16:55 21.05.2022
1991 Clouds 18 1018 73 10000 4.63 270 14:38 21.05.2022
1992 Rain 16 1017 72 8000 5.14 300 13:54 21.05.2022
1993 Clouds 17 1018 68 10000 6.69 260 12:57 21.05.2022
1994 Clouds 17 1017 67 10000 6.69 260 12:37 21.05.2022
1995 Clouds 14 1017 77 10000 7.72 260 10:53 21.05.2022
1996 Clouds 14 1017 76 10000 6.17 250 09:49 21.05.2022
1997 Clouds 14 1017 80 10000 7.2 250 08:58 21.05.2022
1998 Clouds 13 1017 83 10000 6.69 260 08:34 21.05.2022
1999 Clouds 12 1016 86 10000 5.18 257 05:28 21.05.2022
2000 Clouds 14 1014 86 10000 8.75 280 00:58 21.05.2022
2001 Clouds 15 1013 92 10000 10.29 260 23:29 20.05.2022
2002 Clouds 18 1011 89 10000 7.72 240 22:24 20.05.2022
2003 Clouds 19 1009 82 10000 6.69 230 21:49 20.05.2022
2004 Clouds 19 1009 94 10000 3.09 140 20:58 20.05.2022
2005 Clouds 19 1010 95 9000 2.57 140 20:29 20.05.2022
2006 Clouds 19 1011 92 6000 2.57 110 19:27 20.05.2022
2007 Rain 20 1012 90 5000 2.06 110 18:47 20.05.2022
2008 Rain 21 1012 81 10000 3.09 120 17:43 20.05.2022
2009 Clear 25 1014 54 10000 2.06 0 16:21 20.05.2022
2010 Clear 24 1014 55 10000 2.06 160 15:53 20.05.2022
2011 Clear 23 1017 52 10000 2.06 0 14:31 20.05.2022
2012 Clear 23 1017 54 10000 1.54 0 13:56 20.05.2022
2013 Clear 20 1019 59 10000 2.06 0 11:45 20.05.2022
2014 Clouds 17 1021 69 10000 3.6 300 10:23 20.05.2022
2015 Clouds 16 1022 76 10000 3.09 260 08:50 20.05.2022
2016 Clouds 15 1021 90 10000 2.57 240 07:25 20.05.2022
2017 Clouds 15 1020 90 10000 3.26 276 06:36 20.05.2022
2018 Clouds 15 1020 92 6000 3.09 270 05:22 20.05.2022
2019 Clouds 17 1019 94 10000 4.12 270 00:54 20.05.2022
2020 Clear 17 1018 95 10000 2.57 260 22:57 19.05.2022
2021 Clear 17 1018 95 10000 0.51 0 22:25 19.05.2022
2022 Clear 17 1017 95 10000 2.06 240 21:48 19.05.2022
2023 Clear 18 1017 94 10000 1.54 190 21:23 19.05.2022
2024 Clear 18 1017 95 10000 1.54 180 20:39 19.05.2022
2025 Clear 18 1017 95 10000 2.06 160 19:52 19.05.2022
2026 Thunderstorm 20 1018 77 10000 8.75 280 18:31 19.05.2022
2027 Clear 28 1015 46 10000 4.63 200 16:51 19.05.2022
2028 Clear 29 1015 42 10000 4.12 190 15:19 19.05.2022
2029 Clear 28 1017 36 10000 4.12 190 14:25 19.05.2022
2030 Clear 28 1016 39 10000 4.63 180 13:47 19.05.2022
2031 Clear 26 1018 46 10000 3.09 160 11:41 19.05.2022
2032 Clear 23 1019 58 10000 3.09 160 09:29 19.05.2022
2033 Clear 21 1019 71 10000 2.57 160 07:52 19.05.2022
2034 Clear 18 1019 78 10000 2.57 160 06:18 19.05.2022
2035 Clear 18 1019 78 10000 2.57 160 06:18 19.05.2022
2036 Clouds 19 1019 90 10000 2.9 173 02:23 19.05.2022
2037 Clear 20 1020 79 10000 1.03 0 00:40 19.05.2022
2038 Clear 21 1020 79 10000 1.03 120 22:50 18.05.2022
2039 Clear 22 1020 75 10000 1.03 0 22:24 18.05.2022
2040 Clouds 23 1020 76 10000 2.76 159 21:30 18.05.2022
2041 Clear 26 1020 47 10000 1.54 190 20:47 18.05.2022
2042 Clear 27 1020 47 10000 2.06 200 20:18 18.05.2022
2043 Clear 27 1020 47 10000 2.06 200 20:18 18.05.2022
2044 Clear 27 1020 44 10000 3.09 210 18:33 18.05.2022
2045 Clear 28 1020 42 10000 3.09 210 17:41 18.05.2022
2046 Clear 28 1021 42 10000 3.09 220 17:23 18.05.2022
2047 Clear 28 1021 42 10000 3.09 210 16:34 18.05.2022
2048 Clear 29 1020 43 10000 2.57 240 15:42 18.05.2022
2049 Clear 28 1021 43 10000 3.09 0 14:35 18.05.2022
2050 Clear 26 1021 50 10000 4.63 210 13:41 18.05.2022
2051 Clear 26 1021 52 10000 3.09 180 12:43 18.05.2022
2052 Clear 25 1021 58 10000 3.6 180 11:34 18.05.2022
2053 Clear 23 1022 60 10000 4.12 150 10:56 18.05.2022
2054 Clear 20 1022 78 10000 2.57 130 09:31 18.05.2022
2055 Clear 17 1021 84 10000 2.06 110 07:51 18.05.2022
2056 Clear 16 1022 89 10000 2.57 110 06:41 18.05.2022
2057 Clear 16 1021 90 10000 2.57 90 01:22 18.05.2022
2058 Clear 17 1021 88 10000 2.06 100 00:23 18.05.2022
2059 Clear 18 1020 89 10000 1.03 0 21:57 17.05.2022
2060 Clouds 19 1020 72 10000 2.57 10 21:20 17.05.2022
2061 Clouds 19 1020 72 10000 2.57 10 21:20 17.05.2022
2062 Clear 21 1020 68 10000 4.12 270 20:19 17.05.2022
2063 Clear 23 1019 56 10000 2.57 250 19:28 17.05.2022
2064 Clear 24 1019 48 10000 3.09 270 17:51 17.05.2022
2065 Clear 24 1019 47 10000 4.63 310 16:59 17.05.2022
2066 Clear 24 1020 46 10000 4.63 320 16:30 17.05.2022
2067 Clouds 23 1020 47 10000 4.12 300 15:32 17.05.2022
2068 Clouds 23 1020 52 10000 4.12 270 14:30 17.05.2022
2069 Clouds 22 1020 52 10000 4.63 270 13:35 17.05.2022
2070 Clouds 23 1020 52 10000 4.12 280 13:35 17.05.2022
2071 Clouds 21 1021 60 10000 3.6 280 11:46 17.05.2022
2072 Clouds 18 1020 76 10000 3.09 270 09:35 17.05.2022
2073 Clouds 18 1019 82 10000 3.6 280 08:33 17.05.2022
2074 Clouds 15 1019 97 7000 2.06 260 06:48 17.05.2022
2075 Mist 15 1019 97 3200 1.54 260 03:41 17.05.2022
2076 Rain 16 1018 93 10000 5.14 300 00:43 17.05.2022
2077 Rain 18 1017 91 10000 6.69 260 22:43 16.05.2022
2078 Clear 20 1016 68 10000 4.12 250 21:41 16.05.2022
2079 Clear 21 1015 60 10000 1.54 210 20:47 16.05.2022
2080 Clear 22 1015 60 10000 1.54 190 19:46 16.05.2022
2081 Clear 23 1015 61 10000 1.54 180 18:20 16.05.2022
2082 Rain 24 1014 50 10000 2.06 140 15:50 16.05.2022
2083 Clear 25 1015 46 10000 4.63 100 13:56 16.05.2022
2084 Clear 25 1015 44 10000 3.6 130 13:23 16.05.2022
2085 Clear 22 1015 47 10000 4.63 120 11:25 16.05.2022
2086 Clear 18 1016 56 10000 4.12 110 09:37 16.05.2022
2087 Clear 12 1016 72 10000 4.12 90 06:56 16.05.2022
2088 Clear 11 1017 79 10000 3.6 80 03:58 16.05.2022
2089 Clear 14 1018 62 10000 3.6 90 23:30 15.05.2022
2090 Clear 16 1018 55 10000 2.06 90 22:30 15.05.2022
2091 Clear 18 1018 51 10000 2.57 90 21:46 15.05.2022
2092 Clear 20 1018 45 10000 3.09 80 20:54 15.05.2022
2093 Clear 22 1018 35 10000 3.6 80 19:33 15.05.2022
2094 Clear 22 1018 37 10000 3.6 60 17:51 15.05.2022
2095 Clear 22 1020 40 10000 3.6 70 15:59 15.05.2022
2096 Clear 21 1021 43 10000 3.09 50 13:58 15.05.2022
2097 Clear 21 1021 45 10000 2.06 0 12:50 15.05.2022
2098 Clear 19 1021 51 10000 2.06 0 11:39 15.05.2022
2099 Clear 17 1021 59 10000 2.13 96 10:27 15.05.2022
2100 Clear 15 1022 70 10000 2.57 90 08:45 15.05.2022
2101 Clear 8 1021 87 10000 1.03 70 06:58 15.05.2022
2102 Clear 7 1021 93 10000 0.51 70 05:47 15.05.2022
2103 Clear 10 1021 90 10000 0.51 0 00:49 15.05.2022
2104 Clear 11 1022 82 10000 0.51 0 23:39 14.05.2022
2105 Clear 13 1021 85 10000 2.06 10 22:47 14.05.2022
2106 Clear 16 1021 59 10000 2.57 360 21:29 14.05.2022
2107 Clear 17 1020 59 10000 3.09 360 20:51 14.05.2022
2108 Clear 18 1020 52 10000 3.6 360 19:38 14.05.2022
2109 Clouds 20 1020 54 10000 4.37 336 19:19 14.05.2022
2110 Clear 19 1020 48 10000 4.12 330 18:41 14.05.2022
2111 Clear 21 1019 45 10000 5.14 320 16:38 14.05.2022
2112 Clear 20 1020 46 10000 6.17 280 15:23 14.05.2022
2113 Clear 20 1019 49 10000 5.14 290 14:33 14.05.2022
2114 Clouds 18 1020 57 10000 5.14 280 12:24 14.05.2022
2115 Clouds 18 1019 61 10000 5.14 290 10:59 14.05.2022
2116 Clear 16 1020 65 10000 4.63 260 10:21 14.05.2022
2117 Clear 16 1019 67 10000 5.14 280 09:53 14.05.2022
2118 Clear 14 1020 70 10000 4.12 270 08:49 14.05.2022
2119 Clear 11 1018 85 10000 3.6 240 05:47 14.05.2022
2120 Clouds 11 1019 88 10000 2.06 230 02:32 14.05.2022
2121 Clear 12 1018 86 10000 3.09 320 23:36 13.05.2022
2122 Clear 13 1018 81 10000 2.06 240 22:58 13.05.2022
2123 Clear 13 1018 81 10000 2.06 240 22:25 13.05.2022
2124 Clear 15 1018 69 10000 2.57 250 21:39 13.05.2022
2125 Clear 16 1018 59 10000 4.12 260 20:45 13.05.2022
2126 Clear 17 1018 58 10000 5.66 260 20:24 13.05.2022
2127 Clouds 18 1018 51 10000 6.17 260 19:25 13.05.2022
2128 Clouds 19 1018 48 10000 5.66 260 17:50 13.05.2022
2129 Clouds 19 1017 52 10000 6.69 270 17:27 13.05.2022
2130 Clouds 18 1017 53 10000 8.23 260 16:18 13.05.2022
2131 Clouds 18 1017 51 10000 7.72 270 15:20 13.05.2022
2132 Clouds 17 1017 52 10000 6.69 260 13:29 13.05.2022
2133 Clouds 17 1017 54 10000 6.69 250 12:25 13.05.2022
2134 Clouds 16 1017 60 10000 7.2 250 10:46 13.05.2022
2135 Clear 14 1017 63 10000 5.66 250 09:33 13.05.2022
2136 Clouds 13 1016 67 10000 2.57 220 08:23 13.05.2022
2137 Clouds 13 1016 73 10000 3.6 210 07:42 13.05.2022
2138 Clouds 9 1016 85 10000 0.51 0 05:59 13.05.2022
2139 Clouds 10 1016 86 10000 2.26 249 02:44 13.05.2022
2140 Clear 12 1016 76 10000 0.51 0 23:46 12.05.2022
2141 Clear 13 1016 76 10000 1.54 250 22:44 12.05.2022
2142 Clear 15 1016 67 10000 2.06 250 21:54 12.05.2022
2143 Clear 18 1016 46 10000 3.6 260 20:25 12.05.2022
2144 Clear 19 1016 43 10000 5.14 240 18:41 12.05.2022
2145 Clear 20 1017 42 10000 5.14 250 16:57 12.05.2022
2146 Clear 20 1016 45 10000 5.14 290 15:50 12.05.2022
2147 Clear 19 1018 47 10000 5.14 250 14:20 12.05.2022
2148 Clouds 18 1018 48 10000 5.14 250 13:24 12.05.2022
2149 Clouds 16 1017 63 10000 6.17 250 10:40 12.05.2022
2150 Clouds 14 1016 70 10000 6.17 260 09:19 12.05.2022
2151 Clouds 13 1016 71 10000 6.17 270 08:41 12.05.2022
2152 Clouds 12 1014 75 10000 4.63 260 07:37 12.05.2022
2153 Clouds 13 1012 77 10000 8.23 280 05:32 12.05.2022
2154 Rain 14 1009 89 10000 1.54 320 02:24 12.05.2022
2155 Clear 18 1007 63 10000 2.06 240 23:56 11.05.2022
2156 Clear 19 1008 63 10000 1.54 280 22:31 11.05.2022
2157 Clear 20 1007 56 10000 3.09 280 21:32 11.05.2022
2158 Clear 22 1007 49 10000 4.12 280 20:52 11.05.2022
2159 Clear 25 1007 41 10000 8.23 260 17:56 11.05.2022
2160 Clear 25 1008 41 10000 7.2 260 16:49 11.05.2022
2161 Clear 25 1009 43 10000 8.23 260 14:50 11.05.2022
2162 Clear 25 1009 43 10000 9.26 250 14:26 11.05.2022
2163 Clear 25 1009 42 10000 5.66 260 13:44 11.05.2022
2164 Clouds 23 1010 46 10000 4.63 250 11:51 11.05.2022
2165 Clear 20 1010 67 10000 3.09 220 09:54 11.05.2022
2166 Clear 17 1011 76 10000 2.57 190 07:53 11.05.2022
2167 Rain 16 1012 86 10000 3.09 210 04:44 11.05.2022
2168 Rain 16 1014 92 10000 2.06 150 00:41 11.05.2022
2169 Clouds 18 1014 80 10000 7.2 330 22:30 10.05.2022
2170 Clear 20 1014 60 10000 8.75 310 21:45 10.05.2022
2171 Clear 22 1013 53 10000 2.57 230 20:48 10.05.2022
2172 Clear 23 1013 46 10000 3.6 240 19:25 10.05.2022
2173 Rain 25 1014 40 10000 5.14 250 17:47 10.05.2022
2174 Clear 26 1014 39 10000 5.66 240 16:41 10.05.2022
2175 Clear 25 1017 43 10000 5.14 230 13:59 10.05.2022
2176 Clear 25 1017 44 10000 3.6 220 12:36 10.05.2022
2177 Clear 23 1017 49 10000 3.09 210 11:49 10.05.2022
2178 Clear 23 1017 51 10000 3.6 200 11:18 10.05.2022
2179 Clear 21 1018 53 10000 3.09 220 09:57 10.05.2022
2180 Clear 19 1019 56 10000 2.06 200 09:18 10.05.2022
2181 Clear 13 1019 76 10000 1.54 150 06:35 10.05.2022
2182 Clear 13 1020 79 10000 2.06 150 02:48 10.05.2022
2183 Clear 15 1021 70 10000 1.03 0 00:24 10.05.2022
2184 Clear 16 1022 67 10000 1.54 130 22:43 09.05.2022
2185 Clear 19 1023 45 10000 2.06 120 21:48 09.05.2022
2186 Clear 20 1022 45 10000 1.54 140 20:23 09.05.2022
2187 Clear 23 1023 35 10000 1.03 0 18:35 09.05.2022
2188 Clear 23 1023 38 10000 2.06 100 17:33 09.05.2022
2189 Clear 22 1024 39 10000 2.06 0 16:28 09.05.2022
2190 Clear 22 1025 37 10000 3.09 170 15:48 09.05.2022
2191 Clear 22 1025 38 10000 2.57 130 14:46 09.05.2022
2192 Clear 21 1025 38 10000 2.57 130 13:59 09.05.2022
2193 Clear 20 1027 36 10000 2.57 120 13:32 09.05.2022
2194 Clear 18 1027 41 10000 3.09 120 11:54 09.05.2022
2195 Clear 17 1027 50 10000 2.57 100 10:50 09.05.2022
2196 Clear 16 1027 52 10000 2.57 90 10:29 09.05.2022
2197 Clear 10 1027 68 10000 2.06 90 07:57 09.05.2022
2198 Clear 7 1027 73 10000 3.09 90 06:42 09.05.2022
2199 Clear 7 1027 84 10000 0.51 0 02:37 09.05.2022
2200 Clear 7 1027 84 10000 0.51 0 02:37 09.05.2022
2201 Clear 7 1027 84 10000 0.51 0 02:37 09.05.2022
2202 Clear 7 1027 84 10000 0.51 0 02:37 09.05.2022
2203 Clear 10 1027 64 10000 1.54 320 23:29 08.05.2022
2204 Clear 10 1027 62 10000 2.06 350 22:42 08.05.2022
2205 Clear 13 1027 54 10000 1.54 330 21:37 08.05.2022
2206 Clear 16 1026 44 10000 2.57 330 20:25 08.05.2022
2207 Clear 18 1026 36 10000 3.09 340 19:37 08.05.2022
2208 Clear 18 1026 36 10000 2.57 330 18:49 08.05.2022
2209 Clear 18 1025 37 10000 3.09 340 17:45 08.05.2022
2210 Clear 18 1026 34 10000 2.06 0 16:23 08.05.2022
2211 Clear 17 1027 38 10000 3.09 340 15:24 08.05.2022
2212 Clear 16 1027 43 10000 3.09 340 14:23 08.05.2022
2213 Clear 13 1028 56 10000 3.6 300 11:53 08.05.2022
2214 Clouds 12 1028 62 10000 2.57 350 10:27 08.05.2022
2215 Clouds 11 1028 68 10000 3.09 320 09:54 08.05.2022
2216 Clear 9 1027 78 10000 1.54 310 08:23 08.05.2022
2217 Clouds 7 1025 88 10000 2.5 347 06:21 08.05.2022
2218 Clouds 9 1026 86 10000 2.57 330 03:22 08.05.2022
2219 Clouds 11 1025 82 10000 3.6 330 01:19 08.05.2022
2220 Clouds 12 1024 87 10000 2.06 320 23:57 07.05.2022
2221 Clouds 12 1024 91 10000 2.06 320 23:34 07.05.2022
2222 Clear 13 1024 91 10000 1.54 340 22:46 07.05.2022
2223 Clear 14 1023 94 10000 1.03 0 21:56 07.05.2022
2224 Clear 15 1023 92 10000 1.03 350 21:28 07.05.2022
2225 Clouds 16 1022 81 10000 3.76 352 20:25 07.05.2022
2226 Rain 18 1022 74 10000 4.12 310 18:52 07.05.2022
2227 Rain 19 1021 63 10000 2.9 332 16:50 07.05.2022
2228 Clouds 21 1022 52 10000 3.09 350 14:54 07.05.2022
2229 Clouds 19 1023 60 10000 1.54 290 11:28 07.05.2022
2230 Clouds 16 1023 70 10000 2.06 250 09:55 07.05.2022
2231 Clouds 14 1022 73 10000 1.54 270 08:33 07.05.2022
2232 Clear 12 1022 81 10000 1.54 260 07:25 07.05.2022
2233 Clear 11 1022 83 10000 1.54 260 06:42 07.05.2022
2234 Clear 12 1021 81 10000 0.51 0 04:18 07.05.2022
2235 Clear 13 1022 73 10000 0.51 300 23:51 06.05.2022
2236 Clear 15 1022 71 10000 0 0 22:40 06.05.2022
2237 Clear 17 1022 61 10000 1.03 190 21:54 06.05.2022
2238 Clear 17 1022 57 10000 1.03 220 21:29 06.05.2022
2239 Clear 20 1022 45 10000 2.06 250 19:47 06.05.2022
2240 Clear 19 1023 48 10000 1.54 250 19:24 06.05.2022
2241 Clear 19 1023 45 10000 2.06 250 18:30 06.05.2022
2242 Clear 20 1023 45 10000 3.09 280 17:34 06.05.2022
2243 Clear 21 1023 39 10000 2.57 270 15:51 06.05.2022
2244 Clear 20 1024 39 10000 3.6 250 15:18 06.05.2022
2245 Clear 20 1024 38 10000 4.12 250 13:45 06.05.2022
2246 Clear 20 1025 43 10000 2.06 0 12:47 06.05.2022
2247 Clear 18 1025 44 10000 2.06 200 11:58 06.05.2022
2248 Clear 18 1024 52 10000 1.54 0 10:41 06.05.2022
2249 Clear 15 1025 63 10000 1.54 70 09:47 06.05.2022
2250 Clear 14 1025 66 10000 1.03 0 09:18 06.05.2022
2251 Clear 10 1024 79 10000 0.51 0 07:40 06.05.2022
2252 Clear 7 1024 87 10000 0.51 0 06:25 06.05.2022
2253 Clear 8 1024 88 10000 1.54 290 02:54 06.05.2022
2254 Clear 9 1024 84 10000 0.51 0 01:57 06.05.2022
2255 Clear 12 1023 71 10000 1.03 330 22:50 05.05.2022
2256 Clear 13 1023 54 10000 1.03 340 21:46 05.05.2022
2257 Clear 15 1022 51 10000 2.57 330 20:34 05.05.2022
2258 Clear 18 1022 45 10000 4.12 340 18:43 05.05.2022
2259 Clear 18 1022 42 10000 4.12 340 16:40 05.05.2022
2260 Clear 18 1022 38 10000 3.09 330 14:55 05.05.2022
2261 Clear 17 1022 40 10000 1.54 0 13:27 05.05.2022
2262 Clear 16 1022 40 10000 2.57 240 12:54 05.05.2022
2263 Clear 13 1022 53 10000 3.09 290 10:59 05.05.2022
2264 Clear 12 1021 62 10000 2.06 310 09:40 05.05.2022
2265 Clear 9 1021 70 10000 2.06 330 08:30 05.05.2022
2266 Clear 5 1019 91 10000 1.03 340 05:44 05.05.2022
2267 Clear 8 1019 84 10000 1.54 300 02:20 05.05.2022
2268 Clear 8 1019 86 10000 1.03 0 01:35 05.05.2022
2269 Clear 9 1018 76 10000 2.57 350 23:55 04.05.2022
2270 Clear 10 1018 81 10000 2.06 310 22:50 04.05.2022
2271 Clear 12 1018 71 10000 1.03 0 21:59 04.05.2022
2272 Clear 12 1017 66 10000 1.54 20 21:29 04.05.2022
2273 Clouds 15 1017 58 10000 2.06 340 20:42 04.05.2022
2274 Clouds 15 1017 58 10000 2.57 320 19:56 04.05.2022
2275 Clouds 16 1017 58 10000 3.6 320 19:31 04.05.2022
2276 Clouds 17 1017 51 10000 4.12 330 18:22 04.05.2022
2277 Clouds 17 1017 51 10000 4.12 330 17:59 04.05.2022
2278 Clouds 17 1017 51 10000 3.09 330 15:57 04.05.2022
2279 Clouds 17 1017 51 10000 3.09 290 15:30 04.05.2022
2280 Clouds 16 1018 54 10000 1.03 0 14:21 04.05.2022
2281 Clear 16 1018 52 10000 2.06 270 13:50 04.05.2022
2282 Clouds 16 1018 53 10000 1.03 0 12:34 04.05.2022
2283 Clear 13 1018 60 10000 1.03 0 10:43 04.05.2022
2284 Clear 11 1018 64 10000 1.54 80 09:44 04.05.2022
2285 Clear 9 1018 71 10000 0.51 0 08:48 04.05.2022
2286 Clear 6 1018 81 10000 0.51 0 07:33 04.05.2022
2287 Clear 5 1018 88 10000 1.03 300 02:59 04.05.2022
2288 Clear 6 1018 91 10000 0.51 0 01:24 04.05.2022
2289 Clear 9 1018 76 10000 1.03 0 22:50 03.05.2022
2290 Clear 10 1018 77 10000 1.54 340 21:47 03.05.2022
2291 Clear 12 1018 66 10000 3.6 340 20:56 03.05.2022
2292 Clear 13 1017 64 10000 4.12 340 20:31 03.05.2022
2293 Clear 14 1017 62 10000 6.17 340 18:54 03.05.2022
2294 Clear 14 1017 62 10000 6.17 340 18:54 03.05.2022
2295 Clear 15 1017 62 10000 6.17 340 18:34 03.05.2022
2296 Clouds 16 1017 59 10000 5.14 340 17:19 03.05.2022
2297 Clouds 17 1017 53 10000 4.12 330 15:43 03.05.2022
2298 Clouds 17 1017 53 10000 4.12 330 15:43 03.05.2022
2299 Clouds 17 1018 49 10000 3.09 320 13:32 03.05.2022
2300 Clouds 15 1018 48 10000 2.06 330 12:30 03.05.2022
2301 Clear 14 1019 51 10000 3.09 310 10:58 03.05.2022
2302 Clear 12 1019 49 10000 1.54 0 09:58 03.05.2022
2303 Clear 8 1018 68 10000 1.03 0 07:59 03.05.2022
2304 Clear 5 1017 79 10000 1.54 330 06:45 03.05.2022
2305 Clear 7 1018 73 10000 2.57 320 01:53 03.05.2022
2306 Clear 12 1017 62 10000 4.63 10 22:45 02.05.2022
2307 Clear 13 1017 61 10000 4.63 10 22:25 02.05.2022
2308 Clear 14 1017 60 10000 2.57 340 21:24 02.05.2022
2309 Clouds 18 1017 61 10000 3.44 337 18:57 02.05.2022
2310 Clear 18 1017 51 10000 3.6 360 18:25 02.05.2022
2311 Clear 18 1017 49 10000 3.09 350 17:37 02.05.2022
2312 Clear 18 1018 45 10000 1.54 220 16:24 02.05.2022
2313 Clear 19 1018 42 10000 2.06 290 15:38 02.05.2022
2314 Clouds 19 1018 45 10000 2.06 80 14:19 02.05.2022
2315 Clear 17 1019 45 10000 2.06 0 12:45 02.05.2022
2316 Clear 15 1020 58 10000 2.06 140 11:20 02.05.2022
2317 Clear 11 1019 73 10000 1.03 0 09:31 02.05.2022
2318 Clear 8 1020 80 10000 0.51 0 07:57 02.05.2022
2319 Clear 6 1020 76 10000 2.06 90 05:37 02.05.2022
2320 Clouds 10 1021 72 10000 1.35 334 00:26 02.05.2022
2321 Clear 10 1021 72 10000 1.03 70 23:52 01.05.2022
2322 Clear 11 1022 64 10000 1.54 10 22:45 01.05.2022
2323 Clear 12 1021 61 10000 1.54 350 21:41 01.05.2022
2324 Clear 13 1022 57 10000 2.57 360 20:23 01.05.2022
2325 Clear 15 1021 51 10000 2.57 350 19:18 01.05.2022
2326 Clear 14 1022 51 10000 2.57 10 18:50 01.05.2022
2327 Clear 15 1021 48 10000 2.06 360 17:47 01.05.2022
2328 Clear 15 1021 48 10000 3.6 330 16:24 01.05.2022
2329 Clear 16 1022 43 10000 2.06 0 15:45 01.05.2022
2330 Clear 16 1023 42 10000 2.06 0 14:41 01.05.2022
2331 Clouds 14 1023 57 10000 1.54 220 11:53 01.05.2022
2332 Clear 10 1023 76 10000 1.03 0 09:33 01.05.2022
2333 Clear 10 1024 81 10000 1.54 360 08:49 01.05.2022
2334 Clouds 9 1023 76 10000 1.54 300 05:31 01.05.2022
2335 Clear 10 1023 74 10000 2.06 350 01:32 01.05.2022
2336 Clear 11 1023 65 10000 3.6 350 21:59 30.04.2022
2337 Clear 12 1023 64 10000 3.6 340 21:30 30.04.2022
2338 Clear 12 1023 64 10000 3.6 340 21:30 30.04.2022
2339 Clear 12 1023 64 10000 3.6 340 21:30 30.04.2022
2340 Clear 13 1022 56 10000 2.06 330 19:48 30.04.2022
2341 Clouds 14 1023 54 10000 3.6 340 18:50 30.04.2022
2342 Clouds 14 1023 56 10000 2.06 330 17:20 30.04.2022
2343 Clouds 13 1024 60 10000 2.06 340 15:50 30.04.2022
2344 Clouds 13 1024 61 10000 2.06 300 14:54 30.04.2022
2345 Clouds 12 1024 66 10000 3.6 310 13:41 30.04.2022
2346 Clouds 10 1025 76 10000 2.57 330 11:39 30.04.2022
2347 Clouds 9 1025 83 10000 2.57 330 10:55 30.04.2022
2348 Rain 8 1025 84 10000 2.06 300 09:54 30.04.2022
2349 Clouds 7 1025 84 10000 1.54 300 07:35 30.04.2022
2350 Clouds 8 1026 84 10000 2.57 310 03:45 30.04.2022
2351 Clear 8 1026 85 10000 4.12 350 23:54 29.04.2022
2352 Clear 9 1026 79 10000 4.63 350 22:36 29.04.2022
2353 Clear 10 1026 72 10000 6.17 350 21:54 29.04.2022
2354 Clear 11 1026 69 10000 3.09 330 21:19 29.04.2022
2355 Clear 13 1026 58 10000 4.63 340 19:48 29.04.2022
2356 Clear 15 1026 55 10000 4.63 340 18:58 29.04.2022
2357 Clear 16 1026 51 10000 5.14 320 17:33 29.04.2022
2358 Clear 16 1026 51 10000 4.12 340 15:58 29.04.2022
2359 Clear 16 1027 50 10000 3.09 350 14:34 29.04.2022
2360 Clear 16 1028 48 10000 2.57 330 13:27 29.04.2022
2361 Clear 15 1028 55 10000 2.06 350 12:26 29.04.2022
2362 Clear 10 1028 76 10000 1.03 0 09:48 29.04.2022
2363 Clear 6 1029 83 10000 1.03 0 07:42 29.04.2022
2364 Clouds 6 1028 84 10000 0.98 6 07:23 29.04.2022
2365 Clear 5 1029 88 10000 1.03 290 05:55 29.04.2022
2366 Clear 7 1030 82 10000 1.54 330 00:47 29.04.2022
2367 Clear 8 1030 88 10000 1.54 340 23:49 28.04.2022
2368 Clear 9 1030 76 10000 2.57 340 22:45 28.04.2022
2369 Clear 11 1029 71 10000 3.6 320 21:55 28.04.2022
2370 Clear 12 1029 71 10000 3.09 320 21:29 28.04.2022
2371 Clear 13 1029 66 10000 3.09 310 20:37 28.04.2022
2372 Clear 15 1028 58 10000 3.09 320 19:46 28.04.2022
2373 Clear 16 1027 52 10000 3.6 320 19:23 28.04.2022
2374 Clouds 17 1027 50 10000 3.6 330 18:37 28.04.2022
2375 Clear 17 1028 46 10000 2.06 20 17:32 28.04.2022
2376 Clear 17 1029 44 10000 2.57 0 16:41 28.04.2022
2377 Clear 16 1029 45 10000 3.09 350 16:19 28.04.2022
2378 Clear 16 1029 47 10000 5.14 290 15:40 28.04.2022
2379 Clouds 14 1030 49 10000 3.6 280 14:38 28.04.2022
2380 Clouds 14 1030 54 10000 3.6 260 13:19 28.04.2022
2381 Clouds 13 1030 54 10000 3.09 320 12:28 28.04.2022
2382 Clear 11 1030 60 10000 2.06 0 10:47 28.04.2022
2383 Clear 11 1030 61 10000 2.06 360 10:26 28.04.2022
2384 Clear 8 1030 73 10000 1.54 290 08:59 28.04.2022
2385 Clear 5 1028 80 10000 0.51 250 07:37 28.04.2022
2386 Clear 4 1028 88 10000 1.03 270 06:37 28.04.2022
2387 Clear 3 1028 91 10000 1.54 290 05:39 28.04.2022
2388 Clear 4 1028 89 10000 1.03 300 04:41 28.04.2022
2389 Clear 7 1027 85 10000 1.03 0 00:36 28.04.2022
2390 Clear 9 1026 72 10000 2.06 340 22:49 27.04.2022
2391 Clear 10 1026 66 10000 1.54 330 21:57 27.04.2022
2392 Clear 11 1026 63 10000 2.57 340 21:27 27.04.2022
2393 Clear 12 1025 57 10000 3.09 340 20:43 27.04.2022
2394 Clear 14 1025 54 10000 4.63 350 19:39 27.04.2022
2395 Clear 14 1025 54 10000 4.63 350 19:39 27.04.2022
2396 Clear 14 1025 54 10000 4.63 350 19:39 27.04.2022
2397 Clouds 15 1025 52 10000 4.12 350 19:18 27.04.2022
2398 Clouds 15 1025 51 10000 4.12 320 18:35 27.04.2022
2399 Clouds 17 1024 51 10000 3.09 300 17:26 27.04.2022
2400 Clouds 17 1024 51 10000 3.09 300 17:26 27.04.2022
2401 Clear 16 1025 47 10000 4.63 260 15:43 27.04.2022
2402 Clear 14 1025 55 10000 3.09 270 12:31 27.04.2022
2403 Clouds 12 1025 61 10000 3.09 310 11:23 27.04.2022
2404 Clouds 10 1025 72 10000 1.54 290 09:59 27.04.2022
2405 Clouds 6 1023 84 10000 2.14 311 07:28 27.04.2022
2406 Clear 5 1023 87 10000 1.54 280 05:50 27.04.2022
2407 Clear 7 1021 84 10000 3.09 310 02:21 27.04.2022
2408 Clear 8 1021 81 10000 3.6 310 00:57 27.04.2022
2409 Clear 9 1021 88 10000 4.12 320 23:58 26.04.2022
2410 Clear 9 1020 88 10000 4.12 330 23:23 26.04.2022
2411 Clear 9 1020 88 10000 3.6 320 22:42 26.04.2022
2412 Clear 11 1019 86 10000 5.66 320 21:49 26.04.2022
2413 Clear 12 1018 88 10000 3.6 290 20:54 26.04.2022
2414 Clear 12 1018 88 10000 3.6 290 20:34 26.04.2022
2415 Clear 13 1017 71 10000 2.06 280 19:33 26.04.2022
2416 Clear 14 1017 62 10000 1.54 260 18:51 26.04.2022
2417 Clear 14 1016 58 10000 2.06 260 18:18 26.04.2022
2418 Clear 14 1016 58 10000 2.06 260 18:18 26.04.2022
2419 Clear 15 1016 55 10000 1.03 0 17:32 26.04.2022
2420 Clouds 15 1017 55 10000 1.54 130 14:46 26.04.2022
2421 Clouds 16 1015 51 10000 1.03 0 13:34 26.04.2022
2422 Clouds 15 1016 52 10000 2.06 300 12:25 26.04.2022
2423 Clear 13 1016 71 10000 1.03 0 10:46 26.04.2022
2424 Clear 11 1015 77 10000 1.03 0 09:41 26.04.2022
2425 Clear 6 1015 90 10000 0.51 0 07:59 26.04.2022
2426 Fog 6 1014 89 6000 0.51 0 04:33 26.04.2022
2427 Clouds 7 1014 87 7000 1.54 230 02:20 26.04.2022
2428 Clear 8 1014 88 10000 0.51 190 00:26 26.04.2022
2429 Clear 9 1014 86 10000 1.54 190 22:49 25.04.2022
2430 Clear 10 1014 85 10000 1.03 0 21:44 25.04.2022
2431 Clear 11 1013 82 10000 1.03 250 20:45 25.04.2022
2432 Clear 11 1013 82 10000 1.03 250 20:45 25.04.2022
2433 Clear 12 1013 82 10000 1.54 290 19:34 25.04.2022
2434 Clear 13 1013 68 10000 1.03 0 18:23 25.04.2022
2435 Clear 13 1012 68 10000 2.06 240 17:32 25.04.2022
2436 Clouds 11 1013 76 10000 1.54 90 15:30 25.04.2022
2437 Clouds 11 1013 78 10000 2.06 70 14:54 25.04.2022
2438 Clouds 10 1012 82 10000 2.06 70 13:41 25.04.2022
2439 Clouds 8 1012 89 10000 3.09 70 11:49 25.04.2022
2440 Rain 8 1011 88 10000 3.09 70 10:27 25.04.2022
2441 Clouds 7 1010 92 10000 3.6 60 08:47 25.04.2022
2442 Clouds 7 1009 90 10000 4.12 80 06:49 25.04.2022
2443 Clouds 7 1008 89 10000 3.09 60 05:23 25.04.2022
2444 Clear 9 1008 87 10000 4.63 40 00:58 25.04.2022
2445 Clear 10 1007 80 10000 5.14 30 23:52 24.04.2022
2446 Clear 10 1006 74 10000 4.63 30 22:49 24.04.2022
2447 Clear 11 1006 72 10000 4.63 30 22:29 24.04.2022
2448 Clouds 12 1005 67 10000 4.63 40 21:41 24.04.2022
2449 Clouds 12 1005 65 10000 5.66 40 21:18 24.04.2022
2450 Clouds 13 1005 62 10000 4.63 20 20:35 24.04.2022
2451 Rain 14 1005 51 10000 4.12 70 19:48 24.04.2022
2452 Clouds 15 1004 52 10000 5.66 80 18:20 24.04.2022
2453 Clouds 16 1004 51 10000 5.14 50 17:29 24.04.2022
2454 Clouds 16 1003 50 10000 7.2 30 16:59 24.04.2022
2455 Clouds 15 1003 53 10000 7.2 30 16:35 24.04.2022
2456 Clouds 15 1003 52 10000 7.2 30 15:55 24.04.2022
2457 Clear 16 1003 51 10000 6.17 40 15:31 24.04.2022
2458 Clear 16 1003 51 10000 6.17 40 15:31 24.04.2022
2459 Clear 16 1004 51 10000 6.69 60 13:57 24.04.2022
2460 Clear 15 1004 54 10000 5.14 60 13:25 24.04.2022
2461 Clear 14 1005 58 10000 5.66 60 12:30 24.04.2022
2462 Clear 12 1005 59 10000 5.14 60 11:28 24.04.2022
2463 Clear 11 1004 61 10000 4.63 60 10:25 24.04.2022
2464 Clear 10 1005 63 10000 5.14 60 09:23 24.04.2022
2465 Clear 6 1005 82 10000 3.09 70 06:34 24.04.2022
2466 Clear 8 1005 73 10000 5.14 70 03:43 24.04.2022
2467 Clear 10 1005 65 10000 6.69 70 01:38 24.04.2022
2468 Clear 11 1005 61 10000 7.2 70 00:22 24.04.2022
2469 Clear 12 1005 58 10000 5.14 70 23:26 23.04.2022
2470 Clear 12 1005 60 10000 3.6 70 22:55 23.04.2022
2471 Clear 13 1006 55 10000 3.09 70 21:51 23.04.2022
2472 Clear 13 1006 55 10000 3.09 70 21:32 23.04.2022
2473 Clear 14 1006 47 10000 5.14 90 20:36 23.04.2022
2474 Clear 16 1006 41 10000 7.2 100 19:46 23.04.2022
2475 Clear 17 1005 42 10000 8.23 80 19:19 23.04.2022
2476 Clear 17 1005 41 10000 7.72 90 18:46 23.04.2022
2477 Clear 17 1005 39 10000 8.23 100 17:48 23.04.2022
2478 Clear 18 1006 40 10000 6.17 120 16:50 23.04.2022
2479 Clear 18 1006 39 10000 7.2 100 16:21 23.04.2022
2480 Clear 17 1007 41 10000 8.75 100 14:47 23.04.2022
2481 Clear 15 1009 45 10000 6.69 100 12:22 23.04.2022
2482 Clear 12 1009 54 10000 10.8 90 10:40 23.04.2022
2483 Clear 12 1009 54 10000 10.8 90 10:40 23.04.2022
2484 Clear 10 1009 69 10000 6.17 90 08:42 23.04.2022
2485 Clear 8 1009 79 10000 6.69 70 05:45 23.04.2022
2486 Clear 10 1009 76 10000 4.63 80 03:54 23.04.2022
2487 Clear 12 1009 86 10000 6.69 90 00:46 23.04.2022
2488 Clouds 12 1009 86 10000 5.66 80 23:27 22.04.2022
2489 Clear 12 1008 86 10000 6.69 80 21:59 22.04.2022
2490 Clear 12 1008 86 10000 6.69 80 21:40 22.04.2022
2491 Clouds 13 1008 81 10000 5.14 70 20:44 22.04.2022
2492 Clouds 13 1008 74 10000 6.17 80 20:25 22.04.2022
2493 Clouds 14 1007 68 10000 7.2 80 19:18 22.04.2022
2494 Clouds 15 1007 65 10000 7.2 70 18:34 22.04.2022
2495 Clouds 15 1007 60 10000 9.77 90 17:34 22.04.2022
2496 Clouds 16 1007 57 10000 6.69 90 16:29 22.04.2022
2497 Clouds 16 1007 60 10000 6.17 100 15:32 22.04.2022
2498 Clouds 15 1008 67 10000 6.69 80 14:41 22.04.2022
2499 Clouds 14 1008 67 10000 6.17 90 13:42 22.04.2022
2500 Clear 13 1009 69 10000 7.72 80 12:55 22.04.2022
2501 Clouds 10 1009 76 10000 5.14 70 11:24 22.04.2022
2502 Clouds 10 1009 78 10000 4.12 60 10:58 22.04.2022
2503 Clouds 10 1009 74 10000 4.12 60 10:40 22.04.2022
2504 Clouds 9 1009 75 10000 4.12 50 10:20 22.04.2022
2505 Clouds 9 1009 77 10000 4.12 70 09:42 22.04.2022
2506 Clear 8 1010 82 10000 5.66 80 08:49 22.04.2022
2507 Clear 8 1010 83 10000 4.12 70 06:54 22.04.2022
2508 Clouds 9 1012 93 10000 2.06 60 01:41 22.04.2022
2509 Clouds 10 1012 92 10000 3.6 70 23:39 21.04.2022
2510 Clear 10 1012 91 10000 3.6 80 22:48 21.04.2022
2511 Clouds 10 1012 94 10000 4.63 70 21:49 21.04.2022
2512 Clouds 12 1012 82 10000 4.63 80 20:34 21.04.2022
2513 Clouds 12 1012 73 10000 5.14 100 19:36 21.04.2022
2514 Clouds 13 1012 67 10000 6.69 90 18:32 21.04.2022
2515 Clouds 14 1012 64 10000 4.12 90 17:46 21.04.2022
2516 Clouds 13 1012 67 10000 2.06 140 16:21 21.04.2022
2517 Clear 13 1013 69 10000 1.54 140 15:19 21.04.2022
2518 Clear 13 1013 65 10000 3.09 110 14:29 21.04.2022
2519 Clear 13 1013 65 10000 3.6 110 13:22 21.04.2022
2520 Clear 12 1013 64 10000 2.57 30 12:29 21.04.2022
2521 Clear 9 1014 72 10000 3.09 50 10:19 21.04.2022
2522 Clear 7 1014 76 10000 1.54 360 08:49 21.04.2022
2523 Clouds 5 1013 85 10000 1.98 33 06:46 21.04.2022
2524 Clear 6 1014 81 10000 2.57 20 04:21 21.04.2022
2525 Clear 7 1014 80 10000 2.57 30 03:22 21.04.2022
2526 Clear 7 1014 87 10000 3.09 40 02:44 21.04.2022
2527 Clear 7 1014 87 10000 3.09 40 02:44 21.04.2022
2528 Clear 9 1015 75 10000 4.12 50 00:35 21.04.2022
2529 Clear 9 1016 66 10000 3.09 40 23:40 20.04.2022
2530 Clear 10 1015 67 10000 3.6 40 23:18 20.04.2022
2531 Clear 11 1016 58 10000 3.6 40 22:41 20.04.2022
2532 Clear 11 1015 59 10000 2.57 30 21:47 20.04.2022
2533 Clear 13 1015 50 10000 2.06 70 20:50 20.04.2022
2534 Clear 14 1015 46 10000 3.09 80 20:21 20.04.2022
2535 Clear 14 1015 40 10000 3.6 60 19:46 20.04.2022
2536 Clear 16 1015 39 10000 5.14 70 18:48 20.04.2022
2537 Clear 16 1015 39 10000 5.66 80 17:52 20.04.2022
2538 Clear 16 1015 37 10000 5.66 100 16:39 20.04.2022
2539 Clear 16 1015 40 10000 5.66 80 15:33 20.04.2022
2540 Clear 14 1017 49 10000 5.14 80 12:46 20.04.2022
2541 Clear 12 1017 51 10000 4.12 80 11:42 20.04.2022
2542 Clear 10 1019 59 10000 2.06 70 10:44 20.04.2022
2543 Clear 8 1018 63 10000 2.06 30 09:31 20.04.2022
2544 Clear 6 1018 67 10000 1.03 90 08:40 20.04.2022
2545 Clear 5 1018 68 10000 1.54 50 08:18 20.04.2022
2546 Clear 4 1018 76 10000 0.51 0 06:23 20.04.2022
2547 Clear 6 1017 65 10000 3.09 50 02:34 20.04.2022
2548 Clear 8 1017 57 10000 3.09 60 00:22 20.04.2022
2549 Clear 9 1017 55 10000 3.09 80 22:59 19.04.2022
2550 Clear 9 1017 55 10000 3.09 80 22:59 19.04.2022
2551 Clear 10 1016 56 10000 3.09 80 22:23 19.04.2022
2552 Clear 11 1017 53 10000 3.09 70 21:53 19.04.2022
2553 Clear 12 1016 43 10000 4.63 90 20:59 19.04.2022
2554 Clear 13 1016 43 10000 4.63 90 20:37 19.04.2022
2555 Clear 14 1015 35 10000 4.63 90 19:41 19.04.2022
2556 Clear 16 1014 33 10000 6.17 90 18:31 19.04.2022
2557 Clear 16 1014 32 10000 5.14 90 16:55 19.04.2022
2558 Clear 16 1014 32 10000 5.14 90 16:33 19.04.2022
2559 Clear 16 1014 32 10000 6.17 90 15:59 19.04.2022
2560 Clear 16 1015 32 10000 6.17 80 14:46 19.04.2022
2561 Clear 13 1015 37 10000 5.14 90 12:58 19.04.2022
2562 Clear 14 1016 37 10000 5.14 90 12:36 19.04.2022
2563 Clear 12 1016 38 10000 4.63 60 11:35 19.04.2022
2564 Clear 9 1016 52 10000 3.09 90 09:51 19.04.2022
2565 Clear 6 1015 75 10000 2.57 80 07:49 19.04.2022
2566 Clear 6 1015 75 10000 2.57 80 04:26 19.04.2022
2567 Clear 6 1015 76 10000 2.57 80 02:39 19.04.2022
2568 Clear 8 1016 71 10000 0.51 0 23:51 18.04.2022
2569 Clear 10 1016 62 10000 1.03 70 22:53 18.04.2022
2570 Clear 12 1017 51 10000 1.54 70 21:26 18.04.2022
2571 Clear 14 1017 50 10000 3.09 80 20:39 18.04.2022
2572 Clear 14 1016 48 10000 3.09 90 20:19 18.04.2022
2573 Clear 15 1017 44 10000 3.6 90 19:40 18.04.2022
2574 Clear 16 1016 40 10000 3.6 90 18:49 18.04.2022
2575 Clear 17 1017 39 10000 2.06 110 17:49 18.04.2022
2576 Clear 17 1017 39 10000 2.06 110 17:49 18.04.2022
2577 Clear 17 1017 36 10000 2.06 80 17:19 18.04.2022
2578 Clear 17 1017 34 10000 2.57 80 16:40 18.04.2022
2579 Clear 17 1018 37 10000 3.6 80 15:41 18.04.2022
2580 Clear 16 1019 35 10000 3.09 0 14:27 18.04.2022
2581 Clear 16 1019 37 10000 3.6 70 13:24 18.04.2022
2582 Clear 15 1020 39 10000 3.09 70 12:27 18.04.2022
2583 Clear 13 1021 51 10000 2.06 100 10:59 18.04.2022
2584 Clear 11 1021 56 10000 2.57 100 10:18 18.04.2022
2585 Clear 10 1021 58 10000 2.57 80 09:30 18.04.2022
2586 Clear 4 1021 81 10000 2.57 100 07:29 18.04.2022
2587 Clear 5 1022 74 10000 0.51 150 03:51 18.04.2022
2588 Clear 7 1024 61 10000 2.06 80 23:30 17.04.2022
2589 Clear 9 1024 54 10000 1.03 100 22:37 17.04.2022
2590 Clear 10 1024 49 10000 1.54 110 21:39 17.04.2022
2591 Clear 11 1024 44 10000 2.06 110 21:19 17.04.2022
2592 Clear 12 1024 39 10000 2.57 120 20:25 17.04.2022
2593 Clear 14 1024 33 10000 3.09 110 19:20 17.04.2022
2594 Clear 16 1025 31 10000 4.12 140 17:34 17.04.2022
2595 Clear 15 1027 29 10000 5.14 110 15:37 17.04.2022
2596 Clear 15 1028 29 10000 4.12 110 14:53 17.04.2022
2597 Clear 14 1028 31 10000 4.63 120 13:41 17.04.2022
2598 Clear 14 1029 31 10000 3.6 120 12:52 17.04.2022
2599 Clear 11 1030 40 10000 3.6 110 11:22 17.04.2022
2600 Clear 10 1031 52 10000 3.6 100 10:30 17.04.2022
2601 Clear 9 1031 56 10000 3.6 100 09:57 17.04.2022
2602 Clear 7 1031 58 10000 3.09 100 09:21 17.04.2022
2603 Clear 6 1031 65 10000 3.09 90 08:41 17.04.2022
2604 Clear 2 1031 80 10000 2.06 100 06:32 17.04.2022
2605 Clear 4 1032 80 10000 2.57 70 02:56 17.04.2022
2606 Clear 5 1033 71 10000 0.51 90 00:43 17.04.2022
2607 Clear 6 1033 65 10000 1.54 90 23:41 16.04.2022
2608 Clear 9 1033 56 10000 1.03 100 21:54 16.04.2022
2609 Clear 10 1033 52 10000 1.54 60 21:19 16.04.2022
2610 Clear 13 1032 39 10000 4.12 100 19:30 16.04.2022
2611 Clear 13 1033 38 10000 3.6 100 18:45 16.04.2022
2612 Clear 14 1033 35 10000 4.63 80 17:21 16.04.2022
2613 Clear 14 1033 35 10000 3.09 0 16:30 16.04.2022
2614 Clear 13 1034 37 10000 5.66 90 15:23 16.04.2022
2615 Clear 12 1034 41 10000 4.63 90 14:43 16.04.2022
2616 Clear 12 1034 45 10000 5.14 90 13:55 16.04.2022
2617 Clear 11 1035 50 10000 6.17 80 13:24 16.04.2022
2618 Clear 10 1035 56 10000 5.14 100 11:58 16.04.2022
2619 Clouds 8 1034 63 10000 5.14 90 10:35 16.04.2022
2620 Clear 7 1034 71 10000 5.66 90 09:38 16.04.2022
2621 Clear 6 1034 80 10000 3.6 100 08:52 16.04.2022
2622 Clear 3 1034 90 10000 3.6 90 07:23 16.04.2022
2623 Clear 4 1033 89 10000 5.66 80 05:45 16.04.2022
2624 Clouds 8 1031 90 10000 5.14 70 01:52 16.04.2022
2625 Clouds 9 1030 89 10000 3.6 60 23:53 15.04.2022
2626 Clouds 10 1030 90 10000 2.57 50 22:51 15.04.2022
2627 Clouds 10 1030 90 10000 3.09 30 22:31 15.04.2022
2628 Clouds 10 1029 92 10000 3.09 40 21:34 15.04.2022
2629 Clouds 10 1029 89 10000 2.06 20 20:38 15.04.2022
2630 Clouds 11 1028 86 10000 2.57 350 19:49 15.04.2022
2631 Clouds 11 1028 85 10000 3.09 340 19:30 15.04.2022
2632 Clouds 11 1028 84 10000 4.12 340 18:45 15.04.2022
2633 Clouds 12 1028 77 10000 4.12 340 18:23 15.04.2022
2634 Clouds 12 1027 74 10000 4.12 320 17:28 15.04.2022
2635 Clouds 12 1027 72 10000 5.14 310 16:25 15.04.2022
2636 Clouds 12 1027 76 10000 4.12 320 15:52 15.04.2022
2637 Clouds 12 1027 75 10000 5.14 330 14:20 15.04.2022
2638 Clouds 11 1026 76 10000 5.14 320 12:53 15.04.2022
2639 Clouds 11 1026 75 10000 4.12 320 12:26 15.04.2022
2640 Clouds 11 1025 76 10000 4.63 320 11:52 15.04.2022
2641 Clouds 10 1025 78 10000 4.63 320 10:48 15.04.2022
2642 Clouds 10 1024 78 10000 5.14 300 10:21 15.04.2022
2643 Clouds 9 1024 79 10000 3.6 310 09:23 15.04.2022
2644 Clouds 9 1025 86 10000 3.6 300 08:57 15.04.2022
2645 Drizzle 8 1024 90 10000 3.09 290 06:52 15.04.2022
2646 Clouds 8 1023 89 10000 4.63 310 05:56 15.04.2022
2647 Clouds 8 1022 92 10000 3.09 310 01:27 15.04.2022
2648 Clouds 11 1022 91 10000 3.09 310 23:29 14.04.2022
2649 Clouds 11 1021 88 10000 3.09 310 22:46 14.04.2022
2650 Clear 11 1021 87 10000 1.54 290 22:27 14.04.2022
2651 Clear 11 1021 88 10000 2.06 300 21:53 14.04.2022
2652 Clouds 15 1020 67 10000 2.57 320 19:53 14.04.2022
2653 Clouds 16 1020 73 10000 4.12 290 19:22 14.04.2022
2654 Clouds 17 1019 65 10000 2.57 300 17:56 14.04.2022
2655 Clouds 17 1019 69 10000 6.69 280 17:27 14.04.2022
2656 Clouds 17 1019 69 10000 4.63 270 16:32 14.04.2022
2657 Clouds 18 1019 67 10000 4.63 250 13:55 14.04.2022
2658 Clouds 17 1019 70 10000 4.12 250 13:26 14.04.2022
2659 Clouds 16 1019 76 10000 3.6 250 12:38 14.04.2022
2660 Clouds 15 1019 78 10000 3.6 250 12:19 14.04.2022
2661 Clear 15 1019 84 10000 3.6 260 11:21 14.04.2022
2662 Clear 14 1019 88 10000 3.6 260 10:36 14.04.2022
2663 Clouds 13 1019 93 10000 2.06 270 09:52 14.04.2022
2664 Clouds 12 1019 97 10000 1.54 230 08:39 14.04.2022
2665 Drizzle 12 1019 97 8000 1.03 0 06:24 14.04.2022
2666 Clouds 13 1019 90 10000 2.06 300 01:49 14.04.2022
2667 Clouds 16 1017 89 10000 4.12 340 22:45 13.04.2022
2668 Clouds 17 1017 82 10000 4.63 320 21:44 13.04.2022
2669 Clear 18 1016 70 10000 1.54 320 20:48 13.04.2022
2670 Clear 19 1016 63 10000 2.57 300 20:18 13.04.2022
2671 Clear 20 1016 56 10000 3.6 300 18:50 13.04.2022
2672 Clear 22 1015 50 10000 3.6 280 17:54 13.04.2022
2673 Clear 23 1015 48 10000 4.12 280 17:23 13.04.2022
2674 Clear 23 1016 46 10000 3.6 270 16:24 13.04.2022
2675 Clear 22 1015 46 10000 2.06 280 15:31 13.04.2022
2676 Clear 23 1015 44 10000 1.54 0 14:46 13.04.2022
2677 Clear 22 1016 48 10000 2.06 270 13:57 13.04.2022
2678 Clear 21 1015 47 10000 1.54 0 12:58 13.04.2022
2679 Clear 20 1015 48 10000 2.06 260 12:19 13.04.2022
2680 Clear 18 1014 49 10000 1.03 0 10:44 13.04.2022
2681 Clear 12 1014 63 10000 1.03 90 08:50 13.04.2022
2682 Clear 11 1014 64 10000 1.54 100 08:28 13.04.2022
2683 Clear 9 1013 70 10000 2.06 110 06:50 13.04.2022
2684 Clear 9 1013 69 10000 2.57 90 06:25 13.04.2022
2685 Clear 11 1012 61 10000 2.57 100 02:37 13.04.2022
2686 Clear 12 1012 60 10000 3.6 120 00:20 13.04.2022
2687 Clear 13 1013 52 10000 4.12 130 22:45 12.04.2022
2688 Clear 14 1013 45 10000 4.12 130 21:56 12.04.2022
2689 Clear 16 1012 44 10000 4.12 120 20:49 12.04.2022
2690 Clear 16 1012 44 10000 4.12 120 20:49 12.04.2022
2691 Clear 15 1012 43 10000 4.12 110 20:22 12.04.2022
2692 Clear 17 1013 39 10000 3.6 110 19:41 12.04.2022
2693 Clear 17 1012 42 10000 4.63 110 19:19 12.04.2022
2694 Clear 18 1012 39 10000 5.66 120 17:50 12.04.2022
2695 Clear 19 1012 38 10000 6.17 110 16:50 12.04.2022
2696 Clear 19 1013 41 10000 6.17 110 15:39 12.04.2022
2697 Clear 19 1013 41 10000 5.66 130 15:20 12.04.2022
2698 Clear 17 1013 43 10000 5.66 120 13:53 12.04.2022
2699 Clear 17 1014 44 10000 4.63 120 13:27 12.04.2022
2700 Clear 17 1014 44 10000 4.63 120 13:27 12.04.2022
2701 Clear 15 1014 48 10000 5.14 110 12:31 12.04.2022
2702 Clear 14 1015 51 10000 4.12 110 11:40 12.04.2022
2703 Clear 10 1015 62 10000 3.09 100 10:29 12.04.2022
2704 Clear 7 1015 71 10000 4.63 100 08:54 12.04.2022
2705 Clear 5 1015 79 10000 4.12 90 07:47 12.04.2022
2706 Clear 4 1015 80 10000 4.63 90 05:47 12.04.2022
2707 Clear 5 1015 78 10000 4.12 80 02:53 12.04.2022
2708 Clear 7 1016 66 10000 2.57 90 23:25 11.04.2022
2709 Clear 8 1016 63 10000 2.57 90 22:44 11.04.2022
2710 Clear 9 1016 60 10000 2.06 70 21:36 11.04.2022
2711 Clear 10 1016 56 10000 3.09 80 20:49 11.04.2022
2712 Clear 11 1016 52 10000 3.6 90 20:28 11.04.2022
2713 Clear 13 1016 43 10000 2.06 90 19:29 11.04.2022
2714 Clear 13 1016 41 10000 2.57 70 18:59 11.04.2022
2715 Clear 13 1016 40 10000 2.57 70 18:33 11.04.2022
2716 Clear 14 1016 41 10000 0.51 0 17:43 11.04.2022
2717 Clear 14 1016 42 10000 1.54 0 16:36 11.04.2022
2718 Clear 14 1017 40 10000 2.57 260 15:21 11.04.2022
2719 Clear 12 1019 43 10000 3.6 230 13:44 11.04.2022
2720 Clear 12 1019 47 10000 3.09 250 12:41 11.04.2022
2721 Clear 11 1020 47 10000 3.09 280 12:22 11.04.2022
2722 Clear 9 1019 58 10000 2.57 260 10:47 11.04.2022
2723 Clear 8 1019 65 10000 1.03 0 09:58 11.04.2022
2724 Clear 4 1019 84 10000 0.51 0 08:22 11.04.2022
2725 Clear 2 1019 89 10000 1.03 0 04:56 11.04.2022
2726 Clouds 4 1020 92 10000 1.54 250 23:55 10.04.2022
2727 Clouds 5 1020 82 10000 1.54 260 22:27 10.04.2022
2728 Clouds 5 1020 85 10000 0.51 0 21:52 10.04.2022
2729 Clouds 6 1019 79 10000 1.54 230 20:52 10.04.2022
2730 Clear 7 1019 84 10000 1.54 270 19:58 10.04.2022
2731 Clouds 7 1018 85 10000 2.73 295 19:34 10.04.2022
2732 Clouds 8 1018 72 10000 0.89 225 18:48 10.04.2022
2733 Rain 8 1019 67 10000 6.69 270 18:25 10.04.2022
2734 Clouds 9 1018 66 10000 7.72 300 17:43 10.04.2022
2735 Clouds 9 1018 61 10000 9.26 320 16:52 10.04.2022
2736 Clouds 8 1018 70 10000 8.23 290 15:38 10.04.2022
2737 Clouds 8 1018 77 10000 8.23 300 14:41 10.04.2022
2738 Clouds 8 1017 63 10000 7.72 280 13:22 10.04.2022
2739 Clouds 8 1016 62 10000 7.2 280 12:26 10.04.2022
2740 Clouds 7 1017 70 10000 8.23 280 11:36 10.04.2022
2741 Clouds 7 1017 76 10000 7.72 280 10:58 10.04.2022
2742 Clouds 6 1016 74 10000 7.2 270 10:23 10.04.2022
2743 Clouds 5 1016 77 10000 7.2 270 09:41 10.04.2022
2744 Clouds 4 1015 85 10000 0.89 225 08:26 10.04.2022
2745 Clear 3 1015 84 10000 4.63 260 07:47 10.04.2022
2746 Clouds 3 1015 87 10000 4.63 260 06:43 10.04.2022
2747 Clouds 3 1014 87 10000 5.66 260 03:36 10.04.2022
2748 Clouds 3 1013 87 10000 5.14 250 01:29 10.04.2022
2749 Clear 3 1012 87 10000 4.63 260 23:52 09.04.2022
2750 Clear 3 1011 88 10000 4.63 260 22:52 09.04.2022
2751 Clouds 4 1011 87 10000 5.14 250 21:48 09.04.2022
2752 Clouds 4 1011 92 10000 3.09 250 20:57 09.04.2022
2753 Rain 4 1010 92 10000 3.6 260 20:26 09.04.2022
2754 Rain 5 1010 87 10000 8.23 280 19:42 09.04.2022
2755 Clouds 5 1009 87 10000 4.63 250 19:18 09.04.2022
2756 Rain 5 1010 84 10000 4.12 240 18:22 09.04.2022
2757 Rain 6 1009 73 10000 5.14 300 17:40 09.04.2022
2758 Rain 7 1008 81 10000 7.2 300 16:53 09.04.2022
2759 Rain 8 1007 77 10000 3.6 270 15:59 09.04.2022
2760 Clouds 7 1007 77 10000 3.6 270 15:41 09.04.2022
2761 Clouds 7 1007 82 10000 0.89 248 14:44 09.04.2022
2762 Clouds 7 1007 82 10000 0.89 248 14:44 09.04.2022
2763 Rain 7 1007 72 10000 4.12 330 14:23 09.04.2022
2764 Clouds 8 1006 77 10000 8.23 280 13:21 09.04.2022
2765 Clouds 8 1005 71 10000 8.75 270 12:51 09.04.2022
2766 Clouds 8 1005 65 10000 8.23 270 11:40 09.04.2022
2767 Clouds 7 1004 73 10000 8.23 270 10:21 09.04.2022
2768 Clouds 6 1004 76 10000 8.23 270 09:47 09.04.2022
2769 Clouds 5 1004 81 10000 6.69 260 08:56 09.04.2022
2770 Clouds 4 1002 87 10000 5.14 270 07:29 09.04.2022
2771 Clouds 4 997 82 10000 5.14 270 02:53 09.04.2022
2772 Clear 4 996 87 10000 2.57 270 23:53 08.04.2022
2773 Clear 4 996 86 10000 1.54 240 22:55 08.04.2022
2774 Clouds 5 996 85 10000 2.06 230 21:29 08.04.2022
2775 Clouds 6 996 82 10000 0.51 120 20:39 08.04.2022
2776 Clouds 7 995 66 10000 11.83 300 19:32 08.04.2022
2777 Clouds 9 995 56 10000 6.69 240 18:31 08.04.2022
2778 Clear 9 994 57 10000 4.63 250 17:52 08.04.2022
2779 Clear 9 994 56 10000 3.6 270 17:26 08.04.2022
2780 Clouds 9 994 56 10000 5.14 270 16:49 08.04.2022
2781 Clouds 9 994 56 10000 5.14 260 15:57 08.04.2022
2782 Clouds 9 995 57 10000 5.14 260 15:26 08.04.2022
2783 Clouds 9 995 62 10000 8.23 250 14:33 08.04.2022
2784 Clouds 9 996 65 10000 7.72 250 13:46 08.04.2022
2785 Clouds 8 995 68 10000 6.69 260 13:27 08.04.2022
2786 Clouds 7 996 77 10000 7.72 260 12:18 08.04.2022
2787 Clouds 7 996 78 10000 8.23 260 10:37 08.04.2022
2788 Clouds 5 996 82 10000 6.17 260 09:38 08.04.2022
2789 Clouds 5 996 86 10000 1.79 203 08:51 08.04.2022
2790 Clouds 5 994 87 10000 8.23 280 06:55 08.04.2022
2791 Clouds 6 992 84 10000 5.14 290 05:18 08.04.2022
2792 Clouds 7 987 79 10000 10.29 270 01:29 08.04.2022
2793 Clouds 7 985 80 10000 10.29 260 00:25 08.04.2022
2794 Clouds 7 984 81 10000 10.29 250 22:59 07.04.2022
2795 Clouds 7 984 78 10000 10.29 250 22:39 07.04.2022
2796 Clouds 7 984 80 10000 10.8 250 22:21 07.04.2022
2797 Clear 7 984 82 10000 8.75 250 21:53 07.04.2022
2798 Clouds 7 983 86 10000 7.2 250 21:19 07.04.2022
2799 Clouds 7 983 87 10000 9.77 260 20:37 07.04.2022
2800 Clouds 11 981 54 10000 11.83 250 18:35 07.04.2022
2801 Clouds 12 980 57 10000 11.32 260 17:27 07.04.2022
2802 Clouds 12 980 63 10000 11.32 280 16:44 07.04.2022
2803 Clouds 12 980 63 10000 8.75 250 16:22 07.04.2022
2804 Clouds 10 981 82 10000 7.2 250 14:50 07.04.2022
2805 Clouds 7 981 95 10000 3.6 270 13:43 07.04.2022
2806 Clouds 9 980 82 10000 6.17 200 12:50 07.04.2022
2807 Clouds 10 981 83 10000 7.72 220 11:40 07.04.2022
2808 Clouds 11 983 73 10000 8.23 220 09:42 07.04.2022
2809 Clouds 11 985 75 10000 8.23 220 08:38 07.04.2022
2810 Clouds 10 988 79 10000 7.72 230 06:43 07.04.2022
2811 Clouds 10 991 79 10000 5.66 220 02:54 07.04.2022
2812 Clouds 10 992 82 10000 6.17 230 02:25 07.04.2022
2813 Clouds 10 994 80 10000 6.17 230 00:27 07.04.2022
2814 Clear 10 994 71 10000 6.17 230 22:51 06.04.2022
2815 Clouds 10 995 77 10000 6.69 230 22:27 06.04.2022
2816 Clouds 10 995 76 10000 5.66 220 21:45 06.04.2022
2817 Clouds 11 996 73 10000 7.2 220 20:40 06.04.2022
2818 Clouds 11 996 75 10000 6.69 220 19:54 06.04.2022
2819 Clouds 11 997 77 10000 6.69 220 18:52 06.04.2022
2820 Clouds 11 996 77 10000 8.23 230 18:32 06.04.2022
2821 Clouds 11 997 78 10000 8.23 240 17:35 06.04.2022
2822 Clouds 11 998 74 10000 7.72 230 16:38 06.04.2022
2823 Clouds 11 998 72 10000 7.2 230 15:48 06.04.2022
2824 Clouds 11 999 72 10000 8.23 240 15:21 06.04.2022
2825 Clouds 11 999 76 10000 8.75 240 13:25 06.04.2022
2826 Clouds 10 1000 75 10000 9.26 240 12:27 06.04.2022
2827 Clouds 10 1000 77 10000 8.23 240 10:48 06.04.2022
2828 Clouds 10 1000 79 10000 7.72 250 10:29 06.04.2022
2829 Clouds 10 1000 82 10000 7.72 240 09:41 06.04.2022
2830 Clouds 9 1000 89 7000 5.66 240 08:34 06.04.2022
2831 Clouds 9 1000 85 10000 6.69 240 07:53 06.04.2022
2832 Clouds 10 1001 89 10000 5.14 250 04:30 06.04.2022
2833 Clouds 9 1001 92 10000 5.14 260 23:54 05.04.2022
2834 Clouds 10 1002 90 10000 6.69 270 22:58 05.04.2022
2835 Clouds 10 1002 93 10000 5.66 260 21:23 05.04.2022
2836 Clouds 10 1001 91 10000 7.2 270 20:26 05.04.2022
2837 Clouds 10 1001 91 10000 5.66 270 19:52 05.04.2022
2838 Clouds 10 1001 88 10000 5.66 270 18:18 05.04.2022
2839 Clouds 9 1001 97 10000 4.12 260 16:55 05.04.2022
2840 Clouds 9 1002 97 10000 4.12 260 16:35 05.04.2022
2841 Clouds 9 1002 89 10000 4.12 250 15:35 05.04.2022
2842 Mist 9 1002 87 3400 3.6 270 14:37 05.04.2022
2843 Clouds 8 1003 85 6000 4.12 280 13:37 05.04.2022
2844 Clouds 8 1003 82 10000 5.14 280 11:51 05.04.2022
2845 Clouds 8 1003 82 10000 5.14 280 11:51 05.04.2022
2846 Clouds 8 1003 82 10000 5.14 280 11:33 05.04.2022
2847 Clouds 8 1003 83 10000 5.14 280 10:41 05.04.2022
2848 Clouds 6 1003 88 10000 4.12 290 08:55 05.04.2022
2849 Clouds 6 1002 89 10000 5.14 300 07:24 05.04.2022
2850 Clouds 7 1000 94 8000 4.63 260 02:39 05.04.2022
2851 Clouds 6 1000 92 10000 6.69 260 22:48 04.04.2022
2852 Clouds 6 1000 91 10000 7.72 260 22:29 04.04.2022
2853 Drizzle 6 999 89 10000 8.23 260 21:22 04.04.2022
2854 Clouds 6 1000 90 10000 9.77 250 20:50 04.04.2022
2855 Clouds 6 999 90 10000 10.29 250 20:22 04.04.2022
2856 Drizzle 5 1000 88 10000 11.83 250 19:26 04.04.2022
2857 Clouds 5 999 88 10000 11.83 250 18:37 04.04.2022
2858 Clouds 5 1001 88 7000 11.83 250 16:37 04.04.2022
2859 Drizzle 5 1001 87 10000 9.77 240 15:58 04.04.2022
2860 Drizzle 5 1002 86 10000 9.77 240 15:33 04.04.2022
2861 Clouds 4 1002 87 10000 9.77 230 14:46 04.04.2022
2862 Clouds 5 1003 82 10000 12.35 240 13:33 04.04.2022
2863 Clouds 5 1005 78 10000 9.77 230 12:23 04.04.2022
2864 Clouds 5 1007 70 10000 9.26 240 11:29 04.04.2022
2865 Clear 4 1009 70 10000 7.2 230 09:20 04.04.2022
2866 Clear 3 1013 84 10000 5.14 250 05:27 04.04.2022
2867 Clear 2 1016 89 10000 4.12 250 02:41 04.04.2022
2868 Clouds 3 1017 91 10000 3.6 260 22:47 03.04.2022
2869 Clouds 3 1018 88 10000 3.09 260 21:48 03.04.2022
2870 Clouds 4 1018 83 10000 2.06 240 21:19 03.04.2022
2871 Clouds 5 1018 77 10000 3.09 270 19:52 03.04.2022
2872 Clouds 6 1017 75 10000 4.63 270 18:34 03.04.2022
2873 Clouds 6 1017 78 10000 3.6 250 17:49 03.04.2022
2874 Clouds 6 1018 79 10000 2.57 240 17:27 03.04.2022
2875 Clouds 5 1018 74 10000 5.55 285 16:48 03.04.2022
2876 Clouds 6 1019 78 10000 5.66 270 15:32 03.04.2022
2877 Clouds 7 1019 58 10000 5.66 270 13:58 03.04.2022
2878 Clouds 6 1020 60 10000 6.17 280 12:56 03.04.2022
2879 Clouds 5 1020 56 10000 6.69 280 11:33 03.04.2022
2880 Clear 2 1020 67 10000 3.6 260 09:40 03.04.2022
2881 Clear 1 1020 72 10000 2.57 260 08:52 03.04.2022
2882 Clear -3 1020 75 10000 0.51 200 05:44 03.04.2022
2883 Clear -2 1020 63 10000 1.03 290 02:55 03.04.2022
2884 Clear 1 1019 47 10000 1.54 40 23:22 02.04.2022
2885 Clear 1 1019 47 10000 1.54 40 23:22 02.04.2022
2886 Clear 1 1019 44 10000 2.57 40 22:41 02.04.2022
2887 Clear 2 1019 42 10000 1.54 10 21:54 02.04.2022
2888 Clear 3 1019 40 10000 2.57 30 21:19 02.04.2022
2889 Clear 4 1018 37 10000 3.6 30 20:35 02.04.2022
2890 Clear 6 1016 37 10000 5.66 20 18:45 02.04.2022
2891 Clouds 6 1016 40 10000 7.72 40 18:18 02.04.2022
2892 Clouds 6 1015 42 10000 5.66 30 16:39 02.04.2022
2893 Clouds 6 1016 45 10000 5.14 20 15:23 02.04.2022
2894 Clouds 7 1016 44 10000 6.17 20 14:52 02.04.2022
2895 Clouds 6 1016 47 10000 6.17 30 14:20 02.04.2022
2896 Clouds 5 1016 52 10000 6.17 50 13:29 02.04.2022
2897 Clouds 4 1016 57 10000 7.2 50 11:56 02.04.2022
2898 Clouds 2 1015 68 10000 5.66 20 09:57 02.04.2022
2899 Clear 0 1014 76 10000 3.6 10 07:33 02.04.2022
2900 Clear 1 1013 76 10000 4.12 20 04:25 02.04.2022
2901 Clear 3 1012 59 10000 6.17 60 00:27 02.04.2022
2902 Clouds 3 1011 56 10000 7.2 60 23:53 01.04.2022
2903 Clear 3 1011 60 10000 5.14 40 22:34 01.04.2022
2904 Clouds 4 1010 59 10000 6.69 30 20:54 01.04.2022
2905 Clouds 4 1010 56 10000 6.69 30 20:32 01.04.2022
2906 Clear 5 1009 53 10000 6.69 30 19:39 01.04.2022
2907 Clear 5 1008 54 10000 6.17 30 19:18 01.04.2022
2908 Clear 5 1008 56 10000 8.23 30 18:35 01.04.2022
2909 Clouds 5 1007 54 10000 6.69 30 17:36 01.04.2022
2910 Clouds 5 1007 58 10000 6.17 40 15:45 01.04.2022
2911 Clouds 5 1007 53 10000 7.2 40 14:47 01.04.2022
2912 Clouds 4 1007 58 10000 6.69 50 13:38 01.04.2022
2913 Clear 3 1007 69 10000 6.17 40 12:33 01.04.2022
2914 Clouds 3 1007 75 10000 6.17 40 11:45 01.04.2022
2915 Clouds 1 1007 80 10000 4.12 40 10:41 01.04.2022
2916 Clouds 0 1006 89 10000 5.66 70 09:34 01.04.2022
2917 Mist -1 1005 95 2700 4.12 40 07:19 01.04.2022
2918 Mist 0 1004 91 2400 4.63 50 04:57 01.04.2022
2919 Mist 0 1004 91 2400 4.63 50 04:39 01.04.2022
2920 Mist 1 1004 89 3900 6.69 60 02:32 01.04.2022
2921 Clouds 2 1003 78 10000 7.2 50 01:31 01.04.2022
2922 Clouds 5 1003 48 10000 8.23 80 22:24 31.03.2022
2923 Clouds 4 1002 50 10000 7.72 70 21:37 31.03.2022
2924 Clouds 4 1002 60 10000 10.8 80 20:50 31.03.2022
2925 Clouds 4 1002 62 10000 10.8 80 20:28 31.03.2022
2926 Clouds 5 1001 61 10000 9.77 70 19:18 31.03.2022
2927 Clouds 5 1001 60 10000 8.75 80 18:31 31.03.2022
2928 Clouds 6 1001 52 10000 9.26 90 16:46 31.03.2022
2929 Clouds 7 1000 53 10000 10.29 80 15:54 31.03.2022
2930 Clear 7 1000 51 10000 9.26 80 15:23 31.03.2022
2931 Clouds 7 1001 53 10000 9.26 90 14:44 31.03.2022
2932 Clouds 6 1001 65 10000 6.69 100 13:28 31.03.2022
2933 Clouds 5 1001 73 10000 8.23 90 11:30 31.03.2022
2934 Clouds 4 1001 75 10000 6.17 90 10:19 31.03.2022
2935 Clouds 4 1001 81 10000 4.63 110 09:19 31.03.2022
2936 Clouds 4 1001 88 10000 2.06 90 07:31 31.03.2022
2937 Clear 4 1002 83 10000 2.57 70 01:27 31.03.2022
2938 Clouds 5 1002 79 10000 3.6 90 23:23 30.03.2022
2939 Clouds 6 1002 71 10000 1.79 68 21:50 30.03.2022
2940 Clouds 6 1003 68 10000 2.06 70 21:27 30.03.2022
2941 Clouds 7 1003 62 10000 3.09 70 20:22 30.03.2022
2942 Clouds 7 1002 62 10000 3.09 70 19:43 30.03.2022
2943 Clouds 7 1002 60 10000 3.09 70 18:40 30.03.2022
2944 Clouds 8 1002 57 10000 3.6 40 17:49 30.03.2022
2945 Clouds 8 1003 56 10000 3.09 40 16:58 30.03.2022
2946 Clouds 8 1003 56 10000 3.09 40 16:38 30.03.2022
2947 Clouds 8 1004 54 10000 3.09 20 15:38 30.03.2022
2948 Clouds 9 1003 51 10000 3.09 40 14:18 30.03.2022
2949 Clouds 9 1004 54 10000 3.09 40 13:19 30.03.2022
2950 Clouds 7 1005 64 10000 2.06 90 11:41 30.03.2022
2951 Clear 5 1005 73 10000 2.06 70 10:37 30.03.2022
2952 Clear 4 1005 81 10000 1.03 0 09:28 30.03.2022
2953 Clouds 1 1005 90 10000 0.51 0 07:59 30.03.2022
2954 Clear 1 1006 88 10000 0.51 130 05:41 30.03.2022
2955 Clear 1 1007 87 10000 0.51 130 04:54 30.03.2022
2956 Clear 3 1008 86 10000 1.03 0 00:43 30.03.2022
2957 Clear 5 1009 80 10000 2.06 320 22:35 29.03.2022
2958 Clear 6 1009 77 10000 2.06 320 21:46 29.03.2022
2959 Clear 7 1009 74 10000 3.09 340 20:54 29.03.2022
2960 Clear 8 1009 72 10000 3.6 350 20:24 29.03.2022
2961 Clouds 10 1008 61 10000 5.66 340 18:57 29.03.2022
2962 Clouds 11 1008 60 10000 5.66 340 18:36 29.03.2022
2963 Clouds 12 1008 56 10000 4.12 320 17:37 29.03.2022
2964 Clouds 12 1009 52 10000 6.17 340 16:58 29.03.2022
2965 Clouds 12 1010 53 10000 4.12 290 15:58 29.03.2022
2966 Clouds 12 1011 57 10000 4.63 290 14:53 29.03.2022
2967 Clouds 11 1011 59 10000 4.63 290 14:22 29.03.2022
2968 Clouds 9 1012 69 10000 3.6 280 12:55 29.03.2022
2969 Clouds 8 1012 71 10000 3.6 290 11:44 29.03.2022
2970 Clouds 7 1013 78 10000 3.09 310 10:51 29.03.2022
2971 Clouds 7 1013 81 10000 3.09 290 09:49 29.03.2022
2972 Clouds 7 1013 81 10000 3.09 290 09:49 29.03.2022
2973 Clouds 6 1014 89 9000 2.57 300 07:35 29.03.2022
2974 Clouds 6 1015 89 10000 2.2 279 04:41 29.03.2022
2975 Clouds 6 1016 89 10000 2.06 280 00:36 29.03.2022
2976 Clouds 7 1017 86 10000 2.57 340 23:23 28.03.2022
2977 Clear 7 1017 86 10000 2.57 340 22:52 28.03.2022
2978 Clear 7 1017 84 10000 2.06 350 22:26 28.03.2022
2979 Clear 9 1017 82 10000 4.12 340 20:56 28.03.2022
2980 Clear 9 1017 80 10000 3.09 330 20:21 28.03.2022
2981 Clear 10 1017 74 10000 2.57 290 19:41 28.03.2022
2982 Clear 12 1018 71 10000 3.6 320 18:56 28.03.2022
2983 Clear 12 1018 69 10000 3.6 320 18:36 28.03.2022
2984 Clear 13 1018 65 10000 4.12 330 17:39 28.03.2022
2985 Clear 13 1019 64 10000 3.6 320 16:19 28.03.2022
2986 Clouds 12 1021 71 10000 3.09 300 14:27 28.03.2022
2987 Clouds 11 1021 76 10000 3.09 310 13:47 28.03.2022
2988 Clouds 10 1022 79 10000 2.06 320 12:20 28.03.2022
2989 Mist 6 1023 100 8000 1.54 310 11:23 28.03.2022
2990 Fog 3 1024 100 900 2.57 320 09:41 28.03.2022
2991 Fog 4 1024 92 450 1.54 320 09:19 28.03.2022
2992 Fog 3 1024 92 400 2.06 320 08:22 28.03.2022
2993 Fog 4 1024 91 450 2.06 320 07:27 28.03.2022
2994 Fog 5 1026 89 450 1.03 320 03:43 28.03.2022
2995 Clear 7 1028 84 10000 1.03 230 23:28 27.03.2022
2996 Clear 9 1028 82 10000 1.03 300 22:24 27.03.2022
2997 Clear 9 1028 83 10000 1.03 0 21:41 27.03.2022
2998 Clear 10 1028 74 10000 1.03 310 20:54 27.03.2022
2999 Clear 13 1028 66 10000 1.54 300 19:46 27.03.2022
3000 Clear 14 1028 63 10000 1.54 320 18:55 27.03.2022
3001 Clear 14 1028 63 10000 2.06 330 18:26 27.03.2022
3002 Clear 15 1028 60 10000 2.57 330 17:38 27.03.2022
3003 Clear 14 1029 57 10000 1.54 330 15:59 27.03.2022
3004 Clear 14 1030 62 10000 1.54 0 14:55 27.03.2022
3005 Clouds 12 1031 71 10000 1.54 350 13:54 27.03.2022
3006 Clouds 12 1031 71 10000 1.54 350 13:54 27.03.2022
3007 Clouds 9 1032 80 8000 1.54 0 11:52 27.03.2022
3008 Clouds 8 1032 87 6000 0.51 0 10:47 27.03.2022
3009 Mist 6 1031 93 2300 1.03 0 08:36 27.03.2022
3010 Clouds 6 1031 95 9000 1.54 330 05:45 27.03.2022
3011 Clouds 7 1031 91 10000 1.54 310 00:47 27.03.2022
3012 Clouds 8 1031 89 10000 2.57 10 23:30 26.03.2022
3013 Clouds 8 1031 89 10000 3.6 350 22:35 26.03.2022
3014 Clear 9 1030 92 10000 4.12 340 21:33 26.03.2022
3015 Clear 11 1030 88 10000 3.09 330 20:20 26.03.2022
3016 Clouds 13 1029 83 10000 5.14 340 18:59 26.03.2022
3017 Clouds 14 1029 72 10000 7.2 330 17:47 26.03.2022
3018 Clouds 16 1029 66 10000 6.17 310 17:28 26.03.2022
3019 Clouds 16 1029 61 10000 7.2 330 16:24 26.03.2022
3020 Clouds 17 1030 55 10000 7.2 320 14:50 26.03.2022
3021 Clear 17 1030 50 10000 5.66 310 13:52 26.03.2022
3022 Clear 16 1030 47 10000 7.72 300 12:44 26.03.2022
3023 Clear 14 1031 54 10000 3.6 270 11:28 26.03.2022
3024 Clear 10 1031 64 9000 3.09 270 09:23 26.03.2022
3025 Clear 8 1030 71 7000 2.06 250 08:27 26.03.2022
3026 Clouds 5 1030 82 8000 2.06 260 05:54 26.03.2022
3027 Clear 6 1030 79 10000 1.54 280 03:58 26.03.2022
3028 Clear 9 1030 75 10000 1.03 0 23:21 25.03.2022
3029 Clear 10 1029 62 10000 1.54 320 21:28 25.03.2022
3030 Clear 10 1029 60 10000 1.54 320 20:45 25.03.2022
3031 Clear 13 1029 49 10000 1.54 290 19:27 25.03.2022
3032 Clear 14 1028 47 10000 2.57 300 18:46 25.03.2022
3033 Clear 14 1028 47 10000 2.57 300 18:46 25.03.2022
3034 Clear 16 1029 41 10000 3.09 310 17:35 25.03.2022
3035 Clear 17 1028 38 10000 2.57 340 16:41 25.03.2022
3036 Clear 17 1029 38 10000 3.09 340 15:52 25.03.2022
3037 Clear 17 1030 36 10000 1.54 0 13:51 25.03.2022
3038 Clear 16 1031 38 10000 1.54 0 12:20 25.03.2022
3039 Clear 11 1031 50 10000 0.51 0 09:47 25.03.2022
3040 Clear 9 1030 53 10000 0.51 0 09:19 25.03.2022
3041 Clear 4 1029 74 10000 0.51 330 07:48 25.03.2022
3042 Clear 4 1029 67 10000 0.51 310 07:21 25.03.2022
3043 Clear 3 1028 67 10000 0.51 0 04:35 25.03.2022
3044 Clear 6 1029 52 10000 1.54 70 23:55 24.03.2022
3045 Clear 7 1028 55 10000 1.54 80 22:24 24.03.2022
3046 Clear 8 1028 48 10000 1.54 80 21:29 24.03.2022
3047 Clear 11 1028 41 10000 1.03 0 19:50 24.03.2022
3048 Clear 14 1028 35 10000 1.03 100 18:49 24.03.2022
3049 Clear 16 1027 30 10000 2.57 90 17:38 24.03.2022
3050 Clear 17 1027 29 10000 2.57 80 16:41 24.03.2022
3051 Clear 17 1029 30 10000 2.57 70 14:58 24.03.2022
3052 Clear 17 1029 31 10000 2.57 70 14:39 24.03.2022
3053 Clear 17 1028 35 10000 2.57 50 13:41 24.03.2022
3054 Clear 16 1029 37 10000 1.54 110 12:39 24.03.2022
3055 Clear 14 1029 42 10000 2.57 90 11:31 24.03.2022
3056 Clear 10 1029 54 10000 2.06 80 09:34 24.03.2022
3057 Clear 8 1029 66 10000 2.06 90 08:39 24.03.2022
3058 Clear 3 1029 79 10000 2.06 80 06:18 24.03.2022
3059 Clear 7 1029 59 10000 0.51 0 01:20 24.03.2022
3060 Clear 9 1029 46 10000 3.6 70 22:26 23.03.2022
3061 Clear 9 1029 48 10000 1.54 60 21:25 23.03.2022
3062 Clear 10 1029 45 10000 1.03 80 20:46 23.03.2022
3063 Clear 12 1029 35 10000 0.51 0 19:33 23.03.2022
3064 Clear 16 1028 28 10000 2.06 100 18:19 23.03.2022
3065 Clear 17 1028 24 10000 2.06 100 17:31 23.03.2022
3066 Clear 18 1029 23 10000 1.54 0 16:18 23.03.2022
3067 Clear 18 1029 23 10000 2.06 70 14:49 23.03.2022
3068 Clear 17 1031 24 10000 2.57 130 13:34 23.03.2022
3069 Clear 15 1032 32 10000 1.54 0 11:38 23.03.2022
3070 Clear 8 1031 59 10000 1.03 0 08:51 23.03.2022
3071 Clear 1 1031 64 10000 1.03 0 06:26 23.03.2022
3072 Clear 2 1031 60 10000 1.03 0 03:52 23.03.2022
3073 Clear 6 1031 60 10000 1.54 110 00:28 23.03.2022
3074 Clear 8 1031 52 10000 2.57 90 21:56 22.03.2022
3075 Clear 9 1031 49 10000 2.06 100 21:26 22.03.2022
3076 Clear 10 1031 42 10000 1.54 80 20:30 22.03.2022
3077 Clear 13 1030 36 10000 2.57 90 19:27 22.03.2022
3078 Clear 14 1030 33 10000 2.57 100 18:50 22.03.2022
3079 Clear 16 1030 30 10000 3.6 90 17:44 22.03.2022
3080 Clear 18 1030 30 10000 3.6 90 16:58 22.03.2022
3081 Clear 18 1030 26 10000 2.57 100 15:48 22.03.2022
3082 Clear 18 1032 29 10000 2.57 90 15:21 22.03.2022
3083 Clear 18 1031 28 10000 3.09 70 14:45 22.03.2022
3084 Clear 18 1031 30 10000 3.6 70 13:52 22.03.2022
3085 Clear 16 1032 33 10000 1.54 110 12:34 22.03.2022
3086 Clear 15 1032 38 10000 2.06 90 11:24 22.03.2022
3087 Clear 11 1033 48 10000 1.54 80 09:42 22.03.2022
3088 Clear 4 1032 63 10000 3.09 90 07:35 22.03.2022
3089 Clear 4 1031 66 10000 3.09 100 03:58 22.03.2022
3090 Clear 5 1032 60 10000 2.57 90 01:27 22.03.2022
3091 Clear 8 1032 50 10000 2.57 100 22:57 21.03.2022
3092 Clear 8 1032 50 10000 2.57 110 21:37 21.03.2022
3093 Clear 9 1032 48 10000 2.57 100 20:44 21.03.2022
3094 Clear 10 1032 48 10000 3.09 100 20:23 21.03.2022
3095 Clear 11 1032 47 10000 2.57 100 19:47 21.03.2022
3096 Clear 12 1031 42 10000 3.09 110 18:48 21.03.2022
3097 Clear 14 1031 40 10000 3.6 110 17:36 21.03.2022
3098 Clear 15 1031 38 10000 4.12 120 16:59 21.03.2022
3099 Clear 15 1031 38 10000 4.12 120 16:33 21.03.2022
3100 Clear 15 1031 37 10000 4.12 110 15:43 21.03.2022
3101 Clear 15 1031 37 10000 4.63 110 14:37 21.03.2022
3102 Clear 14 1032 38 10000 4.12 110 13:20 21.03.2022
3103 Clear 12 1032 41 10000 4.12 130 11:59 21.03.2022
3104 Clear 12 1032 42 10000 4.12 120 11:28 21.03.2022
3105 Clear 9 1033 48 10000 4.12 120 09:51 21.03.2022
3106 Clear 4 1032 59 10000 3.09 110 07:39 21.03.2022
3107 Clear 3 1032 60 10000 2.57 110 06:18 21.03.2022
3108 Clear 5 1031 52 10000 3.6 110 02:23 21.03.2022
3109 Clear 8 1031 43 10000 5.14 120 22:57 20.03.2022
3110 Clear 8 1031 41 10000 4.63 110 22:29 20.03.2022
3111 Clear 9 1031 38 10000 4.12 110 21:38 20.03.2022
3112 Clear 10 1031 38 10000 4.12 110 20:56 20.03.2022
3113 Clear 10 1031 37 10000 4.12 110 20:36 20.03.2022
3114 Clear 10 1031 37 10000 4.63 110 19:54 20.03.2022
3115 Clear 11 1030 37 10000 6.17 120 19:24 20.03.2022
3116 Clear 13 1029 33 10000 7.72 120 17:48 20.03.2022
3117 Clear 13 1030 32 10000 7.2 120 17:26 20.03.2022
3118 Clear 13 1030 31 10000 7.72 120 16:36 20.03.2022
3119 Clear 13 1030 33 10000 9.26 130 14:50 20.03.2022
3120 Clear 12 1031 32 10000 8.23 130 13:39 20.03.2022
3121 Clear 11 1032 37 10000 8.75 110 12:19 20.03.2022
3122 Clear 6 1033 47 10000 9.26 90 09:59 20.03.2022
3123 Clear 3 1033 54 10000 7.72 100 08:21 20.03.2022
3124 Clear 2 1034 64 10000 8.23 80 06:39 20.03.2022
3125 Clear 3 1036 70 10000 7.72 80 03:25 20.03.2022
3126 Clear 5 1037 78 10000 6.17 70 00:54 20.03.2022
3127 Clear 5 1037 78 10000 6.17 70 00:54 20.03.2022
3128 Clear 5 1037 79 10000 6.17 70 00:34 20.03.2022
3129 Clear 6 1038 70 10000 4.63 70 22:31 19.03.2022
3130 Clear 7 1039 62 10000 4.12 80 21:26 19.03.2022
3131 Clear 9 1039 54 10000 5.14 70 19:29 19.03.2022
3132 Clear 9 1039 51 10000 7.2 70 18:38 19.03.2022
3133 Clear 10 1039 49 10000 7.72 70 17:52 19.03.2022
3134 Clear 11 1039 46 10000 8.23 90 16:57 19.03.2022
3135 Clear 11 1040 47 10000 8.23 70 15:40 19.03.2022
3136 Clouds 11 1041 48 10000 9.26 90 14:19 19.03.2022
3137 Clouds 11 1042 49 10000 7.72 80 12:56 19.03.2022
3138 Clouds 11 1043 51 10000 7.72 80 12:36 19.03.2022
3139 Clouds 10 1044 56 10000 6.17 90 11:45 19.03.2022
3140 Clear 6 1045 76 10000 4.63 70 09:31 19.03.2022
3141 Clear 2 1045 88 10000 3.09 70 05:44 19.03.2022
3142 Clear 4 1046 84 10000 1.54 80 02:34 19.03.2022
3143 Clear 6 1045 81 10000 3.6 60 00:32 19.03.2022
3144 Clear 6 1045 83 10000 2.06 60 22:59 18.03.2022
3145 Clear 7 1045 82 10000 1.54 40 22:22 18.03.2022
3146 Clear 9 1044 74 10000 1.03 70 20:31 18.03.2022
3147 Clouds 11 1044 66 10000 2.06 50 19:25 18.03.2022
3148 Clouds 11 1044 68 10000 2.57 40 18:58 18.03.2022
3149 Clouds 13 1043 56 10000 2.57 360 16:56 18.03.2022
3150 Clouds 13 1043 56 10000 2.57 360 16:34 18.03.2022
3151 Clouds 13 1043 54 10000 2.57 100 14:29 18.03.2022
3152 Clouds 13 1043 57 10000 2.06 0 13:40 18.03.2022
3153 Clear 10 1043 67 10000 1.03 0 11:37 18.03.2022
3154 Clear 8 1043 77 10000 1.03 0 10:27 18.03.2022
3155 Clear 5 1042 90 7000 0.51 0 08:50 18.03.2022
3156 Fog 0 1041 92 350 0.51 0 07:26 18.03.2022
3157 Fog 0 1040 93 800 0.51 340 05:20 18.03.2022
3158 Fog 1 1038 96 10000 0.51 0 01:51 18.03.2022
3159 Clear 2 1037 92 10000 0.51 360 23:59 17.03.2022
3160 Clear 3 1036 90 10000 0.51 0 22:50 17.03.2022
3161 Clear 4 1036 90 10000 1.03 0 22:19 17.03.2022
3162 Clear 4 1035 89 10000 1.03 280 21:30 17.03.2022
3163 Clear 5 1035 89 10000 1.54 300 20:53 17.03.2022
3164 Clear 5 1034 86 10000 1.54 270 20:19 17.03.2022
3165 Clear 5 1034 90 10000 0.51 220 19:38 17.03.2022
3166 Clear 7 1033 81 10000 1.03 240 18:52 17.03.2022
3167 Clouds 8 1032 80 10000 3.6 300 17:29 17.03.2022
3168 Clouds 9 1031 82 10000 4.12 310 16:20 17.03.2022
3169 Clouds 8 1030 84 10000 4.12 300 15:43 17.03.2022
3170 Clouds 8 1029 89 10000 4.63 290 14:59 17.03.2022
3171 Clouds 8 1029 88 10000 4.63 280 13:45 17.03.2022
3172 Clouds 8 1028 89 10000 4.12 280 12:46 17.03.2022
3173 Clouds 8 1026 88 9000 3.09 240 11:33 17.03.2022
3174 Clouds 9 1025 80 10000 3.6 200 10:43 17.03.2022
3175 Clouds 10 1024 66 10000 4.12 170 09:36 17.03.2022
3176 Clear 9 1023 76 10000 2.57 120 08:19 17.03.2022
3177 Clear 7 1022 80 10000 4.12 110 05:49 17.03.2022
3178 Clear 7 1023 80 10000 4.63 110 04:30 17.03.2022
3179 Clear 8 1023 74 10000 5.14 120 00:25 17.03.2022
3180 Clear 9 1024 75 10000 4.12 120 22:52 16.03.2022
3181 Clear 9 1024 74 10000 4.12 120 22:34 16.03.2022
3182 Clear 9 1024 74 10000 3.09 120 21:56 16.03.2022
3183 Clear 9 1024 73 10000 3.09 120 20:40 16.03.2022
3184 Clear 10 1024 70 10000 4.63 100 19:23 16.03.2022
3185 Clear 11 1024 67 10000 4.63 110 18:42 16.03.2022
3186 Clear 12 1024 63 10000 4.12 110 17:46 16.03.2022
3187 Clear 12 1025 66 10000 4.63 110 17:28 16.03.2022
3188 Clear 14 1025 61 10000 3.6 110 15:56 16.03.2022
3189 Clouds 13 1026 60 10000 4.12 120 14:38 16.03.2022
3190 Clear 13 1026 60 10000 5.14 110 13:36 16.03.2022
3191 Clear 12 1027 65 10000 5.14 100 12:43 16.03.2022
3192 Clear 9 1027 87 10000 2.06 90 11:23 16.03.2022
3193 Clouds 7 1028 92 8000 1.54 260 10:30 16.03.2022
3194 Mist 6 1027 95 3500 1.03 0 09:56 16.03.2022
3195 Fog 2 1026 92 100 1.54 110 07:23 16.03.2022
3196 Fog 3 1025 93 600 0.51 60 02:44 16.03.2022
3197 Clouds 5 1024 93 8000 2.06 70 22:54 15.03.2022
3198 Clouds 5 1024 92 8000 2.06 70 22:35 15.03.2022
3199 Clouds 8 1023 84 10000 2.57 50 20:51 15.03.2022
3200 Clouds 10 1023 78 10000 1.03 360 19:34 15.03.2022
3201 Clear 11 1023 72 10000 1.54 80 17:42 15.03.2022
3202 Clouds 12 1022 69 10000 3.09 80 16:35 15.03.2022
3203 Clear 12 1023 68 10000 2.57 100 15:28 15.03.2022
3204 Clear 12 1023 69 10000 1.54 0 14:47 15.03.2022
3205 Clear 11 1024 73 10000 2.57 150 13:55 15.03.2022
3206 Clear 11 1024 73 10000 2.57 150 13:55 15.03.2022
3207 Clear 11 1024 75 10000 2.06 140 13:20 15.03.2022
3208 Clear 10 1026 81 10000 1.54 150 11:32 15.03.2022
3209 Clear 8 1027 86 10000 2.06 140 10:21 15.03.2022
3210 Clouds 5 1027 91 6000 1.03 130 08:50 15.03.2022
3211 Clouds 4 1027 92 6000 0.51 0 07:53 15.03.2022
3212 Clouds 4 1027 92 6000 0.51 0 07:35 15.03.2022
3213 Fog 3 1027 91 700 1.54 90 05:42 15.03.2022
3214 Mist 5 1028 91 4000 1.03 250 00:25 15.03.2022
3215 Clouds 6 1028 90 10000 1.54 240 23:26 14.03.2022
3216 Clouds 6 1028 91 10000 1.54 250 22:37 14.03.2022
3217 Clouds 7 1028 91 7000 1.03 240 21:49 14.03.2022
3218 Clouds 8 1027 90 10000 1.54 230 20:54 14.03.2022
3219 Clouds 8 1027 90 10000 1.03 210 20:23 14.03.2022
3220 Clouds 8 1027 89 10000 1.54 220 19:21 14.03.2022
3221 Clouds 9 1026 87 10000 1.54 280 17:55 14.03.2022
3222 Clouds 9 1025 88 10000 4.12 270 17:24 14.03.2022
3223 Clouds 9 1025 88 8000 4.63 260 16:26 14.03.2022
3224 Clouds 9 1024 89 10000 3.09 240 14:41 14.03.2022
3225 Clouds 9 1023 87 10000 2.57 240 12:54 14.03.2022
3226 Clouds 9 1022 79 10000 4.63 270 10:54 14.03.2022
3227 Clouds 8 1022 65 10000 5.14 260 09:55 14.03.2022
3228 Clouds 7 1022 68 10000 3.09 260 09:22 14.03.2022
3229 Clouds 6 1021 60 10000 2.06 280 08:56 14.03.2022
3230 Clear 4 1020 55 10000 0.51 270 07:34 14.03.2022
3231 Clear 2 1019 53 10000 2.06 100 05:46 14.03.2022
3232 Clear 4 1018 50 10000 3.09 100 01:58 14.03.2022
3233 Clear 4 1018 49 10000 3.09 110 01:29 14.03.2022
3234 Clear 7 1017 40 10000 3.09 110 22:52 13.03.2022
3235 Clear 8 1017 36 10000 3.09 110 21:31 13.03.2022
3236 Clear 8 1017 35 10000 3.6 110 20:56 13.03.2022
3237 Clear 8 1017 35 10000 3.6 120 20:31 13.03.2022
3238 Clear 9 1017 34 10000 4.12 110 19:59 13.03.2022
3239 Clear 9 1017 33 10000 4.12 110 19:37 13.03.2022
3240 Clear 10 1016 33 10000 6.17 100 19:18 13.03.2022
3241 Clear 10 1016 33 10000 6.17 100 19:18 13.03.2022
3242 Clear 10 1016 34 10000 6.17 100 18:38 13.03.2022
3243 Clear 12 1016 30 10000 5.66 110 17:47 13.03.2022
3244 Clear 13 1016 29 10000 5.66 110 17:20 13.03.2022
3245 Clear 14 1016 28 10000 5.14 110 16:30 13.03.2022
3246 Clear 14 1016 28 10000 4.63 110 15:47 13.03.2022
3247 Clear 14 1016 27 10000 3.6 110 14:56 13.03.2022
3248 Clear 13 1016 29 10000 4.12 110 13:45 13.03.2022
3249 Clear 12 1016 31 10000 4.12 130 12:55 13.03.2022
3250 Clear 10 1017 33 10000 3.6 110 11:53 13.03.2022
3251 Clear 9 1017 34 10000 3.6 110 11:32 13.03.2022
3252 Clear 8 1017 36 10000 3.6 120 10:47 13.03.2022
3253 Clear 7 1017 38 10000 3.6 110 10:24 13.03.2022
3254 Clear 6 1017 43 10000 4.12 120 09:41 13.03.2022
3255 Clear 3 1017 51 10000 3.6 100 08:46 13.03.2022
3256 Clear 1 1017 57 10000 3.09 110 07:42 13.03.2022
3257 Clear 0 1017 61 10000 4.12 90 05:41 13.03.2022
3258 Clear 1 1018 54 10000 2.06 100 02:43 13.03.2022
3259 Clear 4 1018 44 10000 3.09 100 23:56 12.03.2022
3260 Clear 5 1019 41 10000 3.09 110 22:27 12.03.2022
3261 Clear 7 1019 34 10000 2.57 100 20:34 12.03.2022
3262 Clear 8 1019 35 10000 4.12 100 19:47 12.03.2022
3263 Clear 8 1019 35 10000 3.6 100 19:27 12.03.2022
3264 Clear 10 1019 34 10000 3.09 100 18:23 12.03.2022
3265 Clear 12 1019 34 10000 3.09 110 17:31 12.03.2022
3266 Clear 14 1019 33 10000 3.09 110 16:23 12.03.2022
3267 Clear 14 1019 28 10000 4.12 130 15:22 12.03.2022
3268 Clear 13 1019 30 10000 4.12 130 14:28 12.03.2022
3269 Clear 11 1019 31 10000 4.63 110 12:56 12.03.2022
3270 Clear 10 1020 31 10000 4.12 110 11:56 12.03.2022
3271 Clear 9 1020 32 10000 4.12 110 11:35 12.03.2022
3272 Clear 8 1020 31 10000 4.63 130 10:52 12.03.2022
3273 Clear 5 1020 36 10000 3.09 120 09:45 12.03.2022
3274 Clear 3 1020 40 10000 3.6 110 08:55 12.03.2022
3275 Clear 1 1020 44 10000 2.57 90 07:19 12.03.2022
3276 Clear 2 1019 47 10000 4.63 120 02:34 12.03.2022
3277 Clear 4 1019 41 10000 5.66 110 23:52 11.03.2022
3278 Clear 5 1019 42 10000 5.66 120 22:52 11.03.2022
3279 Clear 5 1020 39 10000 5.14 120 21:35 11.03.2022
3280 Clear 5 1020 41 10000 6.17 120 20:54 11.03.2022
3281 Clear 6 1019 39 10000 6.69 120 20:28 11.03.2022
3282 Clear 6 1019 38 10000 7.72 110 19:42 11.03.2022
3283 Clear 7 1019 37 10000 5.66 110 18:51 11.03.2022
3284 Clear 9 1018 32 10000 7.2 110 17:28 11.03.2022
3285 Clear 10 1019 32 10000 8.75 120 16:27 11.03.2022
3286 Clear 10 1019 33 10000 7.72 120 15:53 11.03.2022
3287 Clear 9 1020 32 10000 8.75 110 14:19 11.03.2022
3288 Clear 8 1021 35 10000 7.2 120 12:43 11.03.2022
3289 Clear 7 1021 36 10000 6.69 120 12:20 11.03.2022
3290 Clear 6 1022 39 10000 7.72 120 11:43 11.03.2022
3291 Clear 3 1022 50 10000 5.66 120 09:39 11.03.2022
3292 Clear 2 1023 58 10000 5.66 120 08:40 11.03.2022
3293 Clear 0 1023 67 10000 3.6 110 07:49 11.03.2022
3294 Clear 0 1023 70 10000 3.6 110 06:59 11.03.2022
3295 Clear 1 1023 70 10000 4.63 110 05:20 11.03.2022
3296 Clear 2 1024 70 10000 4.12 90 02:45 11.03.2022
3297 Clear 5 1024 66 10000 5.14 120 22:51 10.03.2022
3298 Clear 6 1024 63 10000 5.66 120 22:27 10.03.2022
3299 Clear 7 1025 62 10000 6.17 120 21:26 10.03.2022
3300 Clear 8 1025 62 10000 5.66 120 20:39 10.03.2022
3301 Clear 9 1024 54 10000 5.66 110 19:22 10.03.2022
3302 Clear 11 1024 49 10000 5.66 110 18:19 10.03.2022
3303 Clear 12 1025 38 10000 6.69 100 16:53 10.03.2022
3304 Clear 13 1025 39 10000 4.63 130 15:34 10.03.2022
3305 Clear 13 1025 41 10000 4.12 120 14:19 10.03.2022
3306 Clear 12 1026 43 10000 4.12 100 12:43 10.03.2022
3307 Clear 11 1027 46 10000 3.6 120 11:33 10.03.2022
3308 Clear 7 1027 56 10000 2.06 110 09:54 10.03.2022
3309 Clear 4 1027 66 10000 2.57 110 08:39 10.03.2022
3310 Clear 0 1026 78 10000 2.57 90 05:33 10.03.2022
3311 Clear 2 1026 75 10000 2.06 100 02:39 10.03.2022
3312 Clear 3 1025 64 10000 1.03 90 23:37 09.03.2022
3313 Clear 5 1025 62 10000 2.06 110 22:28 09.03.2022
3314 Clear 5 1024 60 10000 3.09 90 21:47 09.03.2022
3315 Clear 6 1025 54 10000 3.09 100 20:44 09.03.2022
3316 Clear 9 1024 43 10000 2.57 100 18:50 09.03.2022
3317 Clouds 12 1023 38 10000 3.6 120 17:28 09.03.2022
3318 Clouds 12 1023 38 10000 3.6 120 16:45 09.03.2022
3319 Clouds 13 1023 36 10000 4.12 130 15:37 09.03.2022
3320 Clear 12 1025 33 10000 3.09 160 14:19 09.03.2022
3321 Clear 12 1024 36 10000 4.12 140 13:25 09.03.2022
3322 Clear 11 1024 36 10000 2.57 160 12:20 09.03.2022
3323 Clear 10 1025 37 10000 2.57 160 11:45 09.03.2022
3324 Clear 8 1024 48 10000 1.54 140 10:50 09.03.2022
3325 Clear 5 1024 60 10000 2.06 140 09:22 09.03.2022
3326 Clear 3 1024 69 10000 1.54 120 08:42 09.03.2022
3327 Clear -1 1024 75 10000 0.51 0 04:49 09.03.2022
3328 Clear 1 1023 65 10000 2.06 80 00:55 09.03.2022
3329 Clear 2 1023 61 10000 2.57 120 23:21 08.03.2022
3330 Clear 3 1023 60 10000 2.06 110 22:45 08.03.2022
3331 Clear 4 1023 59 10000 2.57 120 21:28 08.03.2022
3332 Clear 5 1023 56 10000 2.06 120 20:54 08.03.2022
3333 Clear 5 1023 52 10000 3.09 110 19:55 08.03.2022
3334 Clear 7 1023 49 10000 3.09 100 18:45 08.03.2022
3335 Clear 8 1022 44 10000 4.63 110 17:50 08.03.2022
3336 Clear 10 1022 41 10000 3.6 130 16:33 08.03.2022
3337 Clear 10 1023 39 10000 5.66 130 14:22 08.03.2022
3338 Clear 9 1024 45 10000 4.63 140 12:44 08.03.2022
3339 Clear 8 1024 50 10000 4.12 120 11:53 08.03.2022
3340 Clear 7 1025 55 10000 4.12 120 11:34 08.03.2022
3341 Clouds 5 1025 68 10000 2.06 110 10:22 08.03.2022
3342 Clear -1 1025 86 10000 3.6 90 07:34 08.03.2022
3343 Clear -2 1025 87 10000 3.09 90 05:44 08.03.2022
3344 Clear -1 1026 90 10000 0.51 0 23:58 07.03.2022
3345 Clear 0 1026 88 10000 0 0 22:23 07.03.2022
3346 Clear 1 1026 85 10000 1.03 0 21:34 07.03.2022
3347 Clear 1 1026 84 10000 0.51 0 20:49 07.03.2022
3348 Clear 2 1026 82 10000 0.51 0 20:20 07.03.2022
3349 Clear 3 1025 76 10000 0.51 60 19:34 07.03.2022
3350 Clear 5 1026 69 10000 0 0 18:46 07.03.2022
3351 Clear 6 1026 57 10000 0.51 0 17:52 07.03.2022
3352 Clouds 7 1025 58 10000 0.51 0 16:56 07.03.2022
3353 Clouds 8 1025 55 10000 1.54 0 15:59 07.03.2022
3354 Clouds 7 1027 68 10000 1.93 63 13:52 07.03.2022
3355 Clouds 7 1027 68 10000 1.93 63 13:52 07.03.2022
3356 Clear 6 1027 69 10000 1.21 44 12:28 07.03.2022
3357 Fog 3 1027 79 450 1.54 290 10:39 07.03.2022
3358 Fog 0 1028 80 10000 2.57 310 08:57 07.03.2022
3359 Clouds 0 1027 80 10000 1.54 280 04:51 07.03.2022
3360 Clouds 0 1027 79 10000 0.51 300 00:23 07.03.2022
3361 Clouds 0 1026 74 10000 0.51 0 23:35 06.03.2022
3362 Clouds 0 1027 78 10000 1.03 330 22:42 06.03.2022
3363 Clouds 0 1026 78 10000 0.51 0 21:58 06.03.2022
3364 Clouds 0 1026 77 10000 0.51 0 20:49 06.03.2022
3365 Clouds 0 1026 78 10000 0.51 0 20:22 06.03.2022
3366 Clouds 2 1026 65 10000 1.03 130 18:56 06.03.2022
3367 Clouds 2 1025 62 10000 1.54 100 18:23 06.03.2022
3368 Clouds 3 1025 56 10000 3.09 60 17:21 06.03.2022
3369 Clouds 3 1025 57 10000 3.6 40 16:41 06.03.2022
3370 Clouds 4 1025 54 10000 4.12 40 15:49 06.03.2022
3371 Clouds 4 1025 54 10000 4.63 20 14:49 06.03.2022
3372 Clouds 4 1025 55 10000 4.63 20 14:31 06.03.2022
3373 Clouds 3 1026 53 10000 3.09 40 13:18 06.03.2022
3374 Clouds 3 1026 57 10000 0.89 68 12:31 06.03.2022
3375 Clouds 2 1026 65 10000 3.09 50 10:53 06.03.2022
3376 Clouds 2 1026 72 10000 3.6 40 09:54 06.03.2022
3377 Clouds 1 1025 76 10000 1.54 70 08:29 06.03.2022
3378 Clouds 0 1025 82 10000 1.54 90 07:34 06.03.2022
3379 Clouds 0 1024 88 10000 3.09 70 04:46 06.03.2022
3380 Clear 1 1024 77 10000 2.57 70 00:44 06.03.2022
3381 Clear 1 1024 77 10000 3.09 80 00:25 06.03.2022
3382 Clear 1 1024 76 10000 2.06 90 23:20 05.03.2022
3383 Clear 2 1024 73 10000 2.06 90 22:43 05.03.2022
3384 Clouds 2 1023 70 10000 2.06 70 21:45 05.03.2022
3385 Clouds 2 1023 69 10000 2.06 60 21:19 05.03.2022
3386 Clouds 4 1023 63 10000 3.09 90 19:24 05.03.2022
3387 Clouds 4 1023 64 10000 3.6 90 18:50 05.03.2022
3388 Clouds 5 1022 56 10000 3.6 100 17:41 05.03.2022
3389 Clouds 6 1022 52 10000 4.12 90 16:20 05.03.2022
3390 Clouds 7 1022 52 10000 3.6 100 15:30 05.03.2022
3391 Clouds 7 1022 51 10000 3.09 110 14:42 05.03.2022
3392 Clouds 7 1022 51 10000 4.12 100 14:24 05.03.2022
3393 Clouds 6 1023 52 10000 3.09 130 12:59 05.03.2022
3394 Clouds 5 1023 64 10000 4.63 110 11:43 05.03.2022
3395 Clouds 4 1024 68 10000 4.63 110 11:18 05.03.2022
3396 Clear 2 1024 79 10000 3.09 100 09:58 05.03.2022
3397 Clear 0 1024 82 10000 2.57 90 08:49 05.03.2022
3398 Clear -2 1023 88 10000 1.54 120 07:23 05.03.2022
3399 Clear -2 1023 86 10000 3.6 80 05:42 05.03.2022
3400 Clouds 0 1023 80 10000 1.54 110 01:30 05.03.2022
3401 Clouds 1 1023 82 10000 2.06 100 23:35 04.03.2022
3402 Clouds 1 1023 85 10000 2.57 100 22:41 04.03.2022
3403 Clouds 2 1024 79 10000 2.06 130 21:47 04.03.2022
3404 Clouds 2 1024 75 10000 2.06 110 20:49 04.03.2022
3405 Clouds 2 1024 75 10000 2.06 130 20:18 04.03.2022
3406 Clouds 2 1023 73 10000 2.57 120 19:35 04.03.2022
3407 Clouds 3 1023 66 10000 4.63 100 18:36 04.03.2022
3408 Clouds 4 1023 65 10000 3.6 120 17:30 04.03.2022
3409 Clouds 4 1023 63 10000 4.12 100 16:36 04.03.2022
3410 Clouds 5 1023 65 10000 4.63 100 15:27 04.03.2022
3411 Clouds 4 1024 69 10000 6.69 80 13:53 04.03.2022
3412 Clouds 4 1024 74 10000 6.17 80 12:51 04.03.2022
3413 Clouds 3 1024 72 10000 5.66 90 11:38 04.03.2022
3414 Clouds 2 1024 76 10000 2.57 130 10:42 04.03.2022
3415 Clouds 1 1024 82 10000 3.6 110 09:28 04.03.2022
3416 Clouds 1 1023 84 10000 1.54 110 08:31 04.03.2022
3417 Clouds 0 1023 86 10000 3.09 110 06:59 04.03.2022
3418 Clouds 1 1022 88 10000 3.6 130 03:28 04.03.2022
3419 Clouds 0 1022 89 10000 5.14 90 00:19 04.03.2022
3420 Clouds 1 1022 90 10000 5.66 80 22:19 03.03.2022
3421 Clouds 1 1022 90 10000 5.14 100 21:37 03.03.2022
3422 Clouds 1 1022 88 10000 6.17 80 20:56 03.03.2022
3423 Clouds 2 1022 87 10000 5.14 80 19:48 03.03.2022
3424 Clear 2 1021 84 10000 5.14 90 18:49 03.03.2022
3425 Clear 5 1020 79 10000 5.66 80 17:46 03.03.2022
3426 Clear 6 1020 72 10000 6.17 70 17:26 03.03.2022
3427 Clear 9 1019 51 10000 3.6 100 15:47 03.03.2022
3428 Clear 9 1020 47 10000 4.12 90 14:52 03.03.2022
3429 Clear 9 1020 46 10000 4.12 90 14:32 03.03.2022
3430 Clear 8 1020 52 10000 3.6 70 12:52 03.03.2022
3431 Clear 6 1021 61 10000 2.57 70 11:39 03.03.2022
3432 Clear 4 1021 68 10000 2.06 90 10:40 03.03.2022
3433 Clear 0 1021 80 10000 1.03 80 08:45 03.03.2022
3434 Clear -2 1021 83 10000 3.09 90 06:58 03.03.2022
3435 Clear -2 1021 83 10000 3.09 90 06:33 03.03.2022
3436 Clear 0 1022 74 10000 1.54 80 01:21 03.03.2022
3437 Clear 1 1022 67 10000 2.06 80 23:28 02.03.2022
3438 Clear 1 1022 70 10000 2.06 100 22:49 02.03.2022
3439 Clear 2 1022 67 10000 1.54 60 21:25 02.03.2022
3440 Clear 3 1022 67 10000 0.51 50 20:40 02.03.2022
3441 Clear 4 1022 55 10000 1.54 70 19:56 02.03.2022
3442 Clear 4 1022 54 10000 1.54 70 19:33 02.03.2022
3443 Clear 6 1022 49 10000 2.06 90 18:44 02.03.2022
3444 Clear 7 1022 46 10000 3.09 90 17:50 02.03.2022
3445 Clear 9 1022 44 10000 3.09 80 16:59 02.03.2022
3446 Clear 9 1022 45 10000 3.09 80 16:59 02.03.2022
3447 Clear 9 1022 43 10000 3.09 80 16:41 02.03.2022
3448 Clear 9 1023 39 10000 2.57 100 14:43 02.03.2022
3449 Clear 8 1024 45 10000 2.06 100 13:24 02.03.2022
3450 Clear 8 1025 44 10000 2.57 80 12:42 02.03.2022
3451 Clear 6 1025 52 10000 2.57 100 11:40 02.03.2022
3452 Clear 6 1025 56 10000 2.06 70 11:21 02.03.2022
3453 Clear 3 1025 73 10000 2.06 90 09:41 02.03.2022
3454 Clear 2 1026 78 10000 0.51 70 08:52 02.03.2022
3455 Clear 1 1026 78 10000 2.06 100 07:28 02.03.2022
3456 Clear 1 1025 78 10000 3.09 90 06:40 02.03.2022
3457 Clear 3 1027 65 10000 1.54 80 00:58 02.03.2022
3458 Clear 3 1027 64 10000 1.54 80 23:47 01.03.2022
3459 Clear 3 1027 63 10000 2.06 100 22:45 01.03.2022
3460 Clear 4 1028 59 10000 1.54 90 21:57 01.03.2022
3461 Clear 4 1028 58 10000 1.03 120 21:23 01.03.2022
3462 Clear 5 1028 57 10000 1.54 130 20:29 01.03.2022
3463 Clear 5 1028 57 10000 2.06 130 19:24 01.03.2022
3464 Clear 6 1028 55 10000 1.03 0 18:49 01.03.2022
3465 Clear 6 1028 53 10000 1.54 120 18:19 01.03.2022
3466 Clear 8 1028 52 10000 1.03 0 17:19 01.03.2022
3467 Clear 9 1027 47 10000 1.54 140 16:30 01.03.2022
3468 Clear 9 1028 46 10000 1.03 0 15:32 01.03.2022
3469 Clear 9 1028 47 10000 1.54 180 14:34 01.03.2022
3470 Clear 8 1028 45 10000 3.09 170 13:45 01.03.2022
3471 Clear 8 1029 47 10000 3.09 170 13:22 01.03.2022
3472 Clear 7 1029 50 10000 4.12 160 12:27 01.03.2022
3473 Clear 4 1029 56 10000 3.09 160 10:33 01.03.2022
3474 Clear 1 1030 71 10000 3.09 150 08:41 01.03.2022
3475 Clear -1 1030 78 10000 2.57 140 07:44 01.03.2022
3476 Clear -1 1030 79 10000 2.06 120 05:49 01.03.2022
3477 Clear 0 1031 78 10000 2.06 100 01:48 01.03.2022
3478 Clear 1 1031 79 10000 3.09 110 00:24 01.03.2022
3479 Clear 1 1031 79 10000 3.09 110 23:19 28.02.2022
3480 Clear 1 1032 79 10000 4.12 120 21:59 28.02.2022
3481 Clear 1 1032 80 10000 3.6 110 21:24 28.02.2022
3482 Clear 2 1032 82 10000 4.63 110 19:53 28.02.2022
3483 Clear 2 1032 82 10000 4.12 110 19:27 28.02.2022
3484 Clear 3 1032 79 10000 4.12 110 18:38 28.02.2022
3485 Clear 5 1032 69 10000 4.12 120 17:24 28.02.2022
3486 Clear 6 1032 66 10000 5.14 130 16:33 28.02.2022
3487 Clear 7 1032 66 10000 4.63 100 15:23 28.02.2022
3488 Clear 7 1033 68 10000 5.14 100 14:31 28.02.2022
3489 Clear 6 1033 70 10000 5.66 90 13:47 28.02.2022
3490 Clear 5 1033 77 10000 5.14 90 12:41 28.02.2022
3491 Clear 5 1033 75 10000 4.12 100 11:55 28.02.2022
3492 Clear 4 1034 84 8000 3.09 110 10:48 28.02.2022
3493 Clear 3 1034 86 8000 3.6 110 10:20 28.02.2022
3494 Clear 1 1034 85 10000 3.6 110 09:32 28.02.2022
3495 Clear -1 1033 89 10000 2.57 100 08:29 28.02.2022
3496 Clear -2 1033 92 10000 2.06 110 07:28 28.02.2022
3497 Clear -1 1033 86 10000 1.54 110 04:44 28.02.2022
3498 Clear 0 1033 85 10000 3.09 110 04:23 28.02.2022
3499 Clear 2 1033 78 10000 3.09 120 23:27 27.02.2022
3500 Clear 2 1033 76 10000 2.57 120 22:33 27.02.2022
3501 Clear 3 1033 75 10000 2.57 120 21:51 27.02.2022
3502 Clear 3 1033 77 10000 3.09 130 20:59 27.02.2022
3503 Clear 4 1033 73 10000 3.6 110 20:27 27.02.2022
3504 Clear 4 1033 75 10000 3.6 120 19:57 27.02.2022
3505 Clear 4 1033 72 10000 3.09 120 19:26 27.02.2022
3506 Clear 5 1033 67 10000 1.34 90 18:47 27.02.2022
3507 Clear 6 1033 62 10000 5.14 120 17:55 27.02.2022
3508 Clouds 8 1033 61 10000 4.63 110 16:45 27.02.2022
3509 Clouds 8 1033 58 10000 4.63 110 16:21 27.02.2022
3510 Clouds 8 1034 62 10000 4.12 140 13:25 27.02.2022
3511 Clouds 7 1035 67 10000 4.12 120 12:32 27.02.2022
3512 Clear 5 1036 82 10000 2.06 140 10:56 27.02.2022
3513 Clear 4 1036 83 10000 1.54 120 10:18 27.02.2022
3514 Clear 3 1036 86 10000 2.06 90 09:44 27.02.2022
3515 Clear 1 1036 89 10000 2.57 80 09:19 27.02.2022
3516 Clear -1 1035 88 10000 2.57 90 07:37 27.02.2022
3517 Clear -1 1035 88 10000 3.6 80 05:38 27.02.2022
3518 Clear 0 1035 85 10000 2.06 80 01:53 27.02.2022
3519 Clear 1 1035 83 10000 2.57 90 23:22 26.02.2022
3520 Clear 2 1035 89 10000 1.54 90 21:49 26.02.2022
3521 Clear 2 1035 83 10000 1.54 60 20:58 26.02.2022
3522 Clear 3 1034 81 10000 1.03 70 20:19 26.02.2022
3523 Clear 3 1034 86 10000 0.51 40 19:46 26.02.2022
3524 Clear 4 1034 78 10000 0.51 330 19:22 26.02.2022
3525 Clouds 8 1033 71 10000 2.06 320 17:46 26.02.2022
3526 Clouds 9 1033 59 10000 2.57 340 16:51 26.02.2022
3527 Clouds 9 1033 58 10000 2.06 320 15:57 26.02.2022
3528 Clouds 9 1034 58 10000 2.57 300 15:23 26.02.2022
3529 Clouds 9 1034 60 10000 2.57 290 14:54 26.02.2022
3530 Clouds 9 1034 61 10000 2.57 290 14:33 26.02.2022
3531 Clouds 7 1035 72 10000 2.57 300 13:19 26.02.2022
3532 Clouds 7 1035 72 10000 2.57 310 12:23 26.02.2022
3533 Clouds 6 1034 81 10000 3.6 330 11:28 26.02.2022
3534 Clouds 5 1034 84 10000 3.6 310 10:49 26.02.2022
3535 Clouds 3 1032 88 10000 3.09 280 08:55 26.02.2022
3536 Clouds 2 1031 89 10000 3.6 270 06:51 26.02.2022
3537 Clouds 3 1028 90 10000 5.14 270 01:27 26.02.2022
3538 Clear 3 1026 91 10000 5.14 280 22:55 25.02.2022
3539 Clouds 3 1025 91 10000 4.12 270 21:43 25.02.2022
3540 Clouds 3 1024 91 10000 3.6 260 21:25 25.02.2022
3541 Clouds 3 1023 92 10000 3.09 260 20:33 25.02.2022
3542 Clouds 3 1022 94 10000 3.6 300 19:18 25.02.2022
3543 Clouds 5 1019 86 10000 7.72 260 17:29 25.02.2022
3544 Clouds 4 1018 90 10000 7.2 260 16:32 25.02.2022
3545 Clouds 4 1018 89 10000 6.17 260 15:47 25.02.2022
3546 Clouds 4 1017 85 10000 6.17 260 15:21 25.02.2022
3547 Clouds 5 1017 78 6000 9.77 270 14:42 25.02.2022
3548 Clouds 5 1017 78 6000 9.77 270 14:42 25.02.2022
3549 Clouds 6 1016 74 10000 8.23 250 13:36 25.02.2022
3550 Clouds 5 1017 75 10000 7.72 250 12:56 25.02.2022
3551 Clouds 5 1016 81 10000 8.23 240 11:28 25.02.2022
3552 Clouds 5 1015 77 10000 8.75 240 10:43 25.02.2022
3553 Clouds 5 1015 76 10000 7.72 240 10:22 25.02.2022
3554 Clouds 4 1015 73 10000 6.69 240 09:18 25.02.2022
3555 Clouds 3 1015 80 10000 6.17 240 07:41 25.02.2022
3556 Clouds 3 1014 82 10000 6.17 240 05:51 25.02.2022
3557 Clouds 3 1014 80 10000 5.66 240 04:41 25.02.2022
3558 Clouds 3 1011 87 10000 5.14 260 00:22 25.02.2022
3559 Clouds 4 1008 88 10000 7.72 260 21:58 24.02.2022
3560 Clouds 4 1008 88 10000 7.72 260 21:58 24.02.2022
3561 Clouds 4 1008 88 10000 7.72 260 21:39 24.02.2022
3562 Clouds 4 1007 89 10000 8.23 270 21:19 24.02.2022
3563 Clouds 4 1006 92 10000 7.72 270 19:42 24.02.2022
3564 Clouds 5 1004 91 5000 16.46 290 18:45 24.02.2022
3565 Clouds 9 1002 68 10000 5.66 220 18:19 24.02.2022
3566 Clouds 10 1001 65 10000 6.69 220 17:40 24.02.2022
3567 Clouds 10 1002 69 10000 8.75 230 16:50 24.02.2022
3568 Clouds 10 1003 69 10000 8.23 240 16:24 24.02.2022
3569 Clouds 11 1004 66 10000 8.75 230 14:56 24.02.2022
3570 Clouds 11 1004 63 10000 8.75 230 14:36 24.02.2022
3571 Clouds 11 1006 60 10000 9.26 220 13:40 24.02.2022
3572 Clouds 11 1007 61 10000 7.2 230 12:54 24.02.2022
3573 Clouds 8 1009 68 10000 3.6 200 10:41 24.02.2022
3574 Clouds 8 1011 72 10000 3.09 210 09:24 24.02.2022
3575 Clouds 8 1012 71 10000 3.09 230 08:41 24.02.2022
3576 Clouds 7 1013 71 10000 3.09 220 05:58 24.02.2022
3577 Clouds 6 1016 70 10000 4.63 190 01:58 24.02.2022
3578 Clear 5 1018 71 10000 4.12 210 23:40 23.02.2022
3579 Clear 6 1019 69 10000 1.54 0 21:43 23.02.2022
3580 Clear 6 1020 66 10000 1.54 160 20:31 23.02.2022
3581 Clear 7 1020 65 10000 2.57 180 19:48 23.02.2022
3582 Clear 8 1020 63 10000 3.09 210 18:42 23.02.2022
3583 Clear 9 1021 63 10000 3.09 230 17:45 23.02.2022
3584 Clear 11 1022 55 10000 1.79 225 15:26 23.02.2022
3585 Clouds 10 1023 62 10000 6.69 260 13:28 23.02.2022
3586 Clouds 9 1023 65 10000 6.69 260 12:24 23.02.2022
3587 Clouds 7 1023 74 10000 5.66 260 10:44 23.02.2022
3588 Clouds 5 1023 86 10000 4.63 260 09:00 23.02.2022
3589 Clouds 5 1022 86 10000 5.66 270 08:23 23.02.2022
3590 Clouds 5 1020 83 10000 5.66 270 06:53 23.02.2022
3591 Clouds 6 1016 88 10000 6.69 270 01:21 23.02.2022
3592 Clouds 6 1014 88 10000 7.72 280 23:39 22.02.2022
3593 Clouds 7 1012 88 10000 7.72 280 22:51 22.02.2022
3594 Clouds 7 1011 89 10000 11.32 300 21:50 22.02.2022
3595 Clouds 8 1010 89 6000 10.8 280 21:31 22.02.2022
3596 Clouds 8 1009 93 7000 8.75 250 20:59 22.02.2022
3597 Clouds 8 1009 94 8000 8.23 250 20:30 22.02.2022
3598 Clouds 8 1009 93 8000 7.72 240 19:47 22.02.2022
3599 Clouds 8 1009 91 8000 7.72 230 19:28 22.02.2022
3600 Clouds 7 1010 91 10000 7.2 230 18:21 22.02.2022
3601 Clouds 7 1011 90 10000 4.12 220 17:24 22.02.2022
3602 Clouds 7 1011 90 8000 4.63 220 16:41 22.02.2022
3603 Clouds 7 1012 82 10000 5.66 230 15:56 22.02.2022
3604 Clouds 8 1013 72 10000 5.14 240 14:48 22.02.2022
3605 Clouds 7 1015 69 10000 6.69 260 12:48 22.02.2022
3606 Clouds 6 1015 81 10000 6.17 280 10:53 22.02.2022
3607 Clouds 4 1014 86 10000 6.17 270 08:53 22.02.2022
3608 Clouds 3 1013 87 10000 6.17 280 07:27 22.02.2022
3609 Clouds 4 1013 86 10000 7.2 280 06:30 22.02.2022
3610 Clouds 5 1010 86 10000 6.69 290 02:45 22.02.2022
3611 Clouds 5 1005 88 10000 8.75 280 22:53 21.02.2022
3612 Clouds 5 1002 87 10000 7.2 270 21:46 21.02.2022
3613 Clouds 5 1001 85 10000 6.69 270 20:37 21.02.2022
3614 Clouds 5 998 85 10000 9.26 310 18:47 21.02.2022
3615 Clouds 5 995 91 10000 8.23 280 17:39 21.02.2022
3616 Clouds 5 992 86 10000 7.72 230 15:25 21.02.2022
3617 Clouds 4 992 86 10000 7.72 230 14:22 21.02.2022
3618 Clouds 4 993 83 10000 11.32 240 13:30 21.02.2022
3619 Clouds 6 994 72 10000 9.77 240 12:24 21.02.2022
3620 Clouds 5 994 73 10000 10.8 250 11:20 21.02.2022
3621 Clouds 5 994 78 10000 10.29 250 09:54 21.02.2022
3622 Clouds 5 992 84 10000 10.8 270 05:35 21.02.2022
3623 Clouds 10 988 85 10000 11.32 230 00:18 21.02.2022
3624 Clouds 10 991 88 10000 11.32 230 22:27 20.02.2022
3625 Clouds 9 992 89 10000 9.26 230 21:42 20.02.2022
3626 Clouds 9 994 91 10000 9.26 230 20:59 20.02.2022
3627 Clouds 9 994 90 10000 9.26 230 20:41 20.02.2022
3628 Clouds 9 996 90 10000 8.23 230 19:36 20.02.2022
3629 Clouds 9 997 89 10000 8.23 230 18:51 20.02.2022
3630 Clouds 9 997 89 10000 8.75 240 18:31 20.02.2022
3631 Clouds 9 997 89 10000 8.75 240 18:31 20.02.2022
3632 Clouds 10 998 85 10000 9.77 240 17:49 20.02.2022
3633 Clouds 9 1000 88 10000 9.26 240 15:41 20.02.2022
3634 Clouds 9 1001 89 9000 9.26 240 14:47 20.02.2022
3635 Clouds 8 1002 92 10000 6.69 240 13:23 20.02.2022
3636 Clouds 7 1003 92 10000 5.66 220 12:28 20.02.2022
3637 Clouds 5 1004 90 10000 4.63 180 10:47 20.02.2022
3638 Clouds 5 1005 88 10000 3.6 200 10:19 20.02.2022
3639 Clouds 4 1008 86 10000 3.09 240 08:50 20.02.2022
3640 Clouds 4 1003 89 10000 5.14 190 00:54 20.02.2022
3641 Clouds 4 1003 89 10000 5.14 190 00:54 20.02.2022
3642 Clouds 4 1004 89 10000 6.17 180 00:30 20.02.2022
3643 Clouds 4 1007 82 10000 7.2 210 22:47 19.02.2022
3644 Clouds 5 1007 83 10000 6.69 210 22:22 19.02.2022
3645 Clouds 6 1008 68 10000 7.2 230 20:51 19.02.2022
3646 Clouds 6 1009 59 10000 5.14 220 19:48 19.02.2022
3647 Clear 6 1009 59 10000 4.63 220 19:25 19.02.2022
3648 Clear 6 1010 60 10000 5.14 230 18:32 19.02.2022
3649 Clear 6 1010 57 10000 6.69 250 17:35 19.02.2022
3650 Clouds 7 1010 57 10000 9.26 250 16:22 19.02.2022
3651 Clouds 7 1010 58 10000 9.26 260 14:56 19.02.2022
3652 Clouds 7 1010 59 10000 9.26 260 14:37 19.02.2022
3653 Clouds 7 1009 61 10000 9.26 250 12:50 19.02.2022
3654 Clouds 6 1009 68 10000 10.29 260 11:36 19.02.2022
3655 Clouds 5 1007 68 10000 12.35 260 09:36 19.02.2022
3656 Clouds 4 1002 81 10000 2.24 225 06:54 19.02.2022
3657 Clouds 7 996 53 10000 16.46 250 02:52 19.02.2022
3658 Clouds 7 992 61 10000 11.32 260 23:28 18.02.2022
3659 Clouds 7 991 75 10000 16.46 250 21:49 18.02.2022
3660 Clouds 8 989 69 10000 12.35 250 20:39 18.02.2022
3661 Clouds 9 987 62 10000 15.95 240 19:52 18.02.2022
3662 Clouds 10 987 59 10000 11.83 250 18:50 18.02.2022
3663 Clouds 10 987 64 10000 11.83 240 18:20 18.02.2022
3664 Clouds 11 988 81 10000 6.69 210 17:25 18.02.2022
3665 Clouds 10 992 86 10000 7.2 200 14:48 18.02.2022
3666 Clouds 9 994 88 10000 5.66 190 13:54 18.02.2022
3667 Clouds 8 996 89 10000 0.89 90 12:51 18.02.2022
3668 Clouds 7 998 85 10000 4.63 170 11:58 18.02.2022
3669 Clouds 7 998 85 10000 4.63 170 11:58 18.02.2022
3670 Clouds 7 999 82 10000 4.63 160 11:21 18.02.2022
3671 Clouds 6 1003 87 10000 2.06 150 09:30 18.02.2022
3672 Clear 5 1006 86 10000 3.6 230 06:52 18.02.2022
3673 Clouds 5 1007 84 10000 4.12 250 05:38 18.02.2022
3674 Clouds 6 1007 64 10000 7.72 270 22:47 17.02.2022
3675 Clouds 7 1006 67 10000 7.72 270 21:43 17.02.2022
3676 Clouds 7 1006 68 10000 8.75 270 20:52 17.02.2022
3677 Clouds 7 1006 70 10000 8.75 270 20:34 17.02.2022
3678 Clouds 6 1004 74 10000 7.72 270 19:43 17.02.2022
3679 Clouds 6 1004 78 10000 9.77 270 18:38 17.02.2022
3680 Clouds 7 1002 72 10000 8.23 280 17:48 17.02.2022
3681 Clouds 9 1001 58 10000 11.32 270 16:20 17.02.2022
3682 Clouds 9 999 62 10000 10.29 280 14:57 17.02.2022
3683 Clouds 9 999 61 10000 17.49 270 14:19 17.02.2022
3684 Clouds 9 997 61 10000 13.89 270 12:24 17.02.2022
3685 Clouds 8 996 74 10000 3.13 225 11:21 17.02.2022
3686 Clouds 9 991 61 10000 14.4 280 08:38 17.02.2022
3687 Clouds 13 983 86 10000 11.83 250 00:29 17.02.2022
3688 Clouds 12 985 91 10000 10.8 240 22:39 16.02.2022
3689 Clouds 11 987 87 10000 8.23 230 20:46 16.02.2022
3690 Clouds 12 989 81 10000 9.77 240 19:42 16.02.2022
3691 Clouds 12 990 84 10000 2.24 225 18:36 16.02.2022
3692 -273 0 0 0 0 0 17:36 16.02.2022
3693 Clouds 12 991 86 10000 8.23 240 17:35 16.02.2022
3694 Clouds 11 993 92 5000 8.23 250 15:26 16.02.2022
3695 Clouds 11 992 91 5000 8.23 240 14:46 16.02.2022
3696 Clouds 10 993 90 10000 9.26 230 12:34 16.02.2022
3697 Clouds 9 993 91 9000 6.69 220 11:52 16.02.2022
3698 Clouds 8 994 90 10000 7.2 200 10:52 16.02.2022
3699 Clouds 8 995 90 10000 6.69 200 10:29 16.02.2022
3700 Clouds 7 998 89 10000 6.17 200 06:56 16.02.2022
3701 Clouds 7 1001 84 10000 6.69 220 03:46 16.02.2022
3702 Clouds 7 1005 75 10000 5.66 220 22:35 15.02.2022
3703 Clouds 7 1005 70 10000 7.72 210 21:59 15.02.2022
3704 Clouds 7 1005 70 10000 7.72 210 21:59 15.02.2022
3705 Clouds 7 1005 67 10000 7.72 210 21:39 15.02.2022
3706 Clouds 7 1005 63 10000 6.17 210 21:21 15.02.2022
3707 Clear 7 1006 65 10000 5.66 200 20:48 15.02.2022
3708 Clear 7 1007 67 10000 5.14 200 19:48 15.02.2022
3709 Clear 7 1007 74 10000 4.12 210 18:41 15.02.2022
3710 Clouds 7 1007 74 10000 5.14 210 18:18 15.02.2022
3711 Clouds 7 1008 76 10000 4.63 230 17:46 15.02.2022
3712 Clouds 9 1008 70 10000 5.66 230 16:20 15.02.2022
3713 Clouds 9 1009 68 10000 7.72 250 14:35 15.02.2022
3714 Clouds 9 1009 72 10000 5.14 240 13:26 15.02.2022
3715 Clouds 8 1009 76 10000 6.69 250 11:43 15.02.2022
3716 Clouds 8 1009 78 10000 6.17 250 10:39 15.02.2022
3717 Clouds 7 1009 81 10000 4.12 240 09:23 15.02.2022
3718 Clouds 7 1007 81 10000 4.12 240 06:47 15.02.2022
3719 Clear 7 1004 75 10000 3.6 190 00:26 15.02.2022
3720 Clear 8 1004 73 10000 3.09 210 21:59 14.02.2022
3721 Clear 8 1004 75 10000 2.57 210 21:19 14.02.2022
3722 Clear 9 1003 76 10000 3.09 200 20:19 14.02.2022
3723 Clouds 9 1003 78 10000 1.54 210 19:30 14.02.2022
3724 Clouds 9 1002 83 10000 4.12 220 18:24 14.02.2022
3725 Clouds 10 1002 80 10000 4.12 210 17:37 14.02.2022
3726 Clouds 11 1002 80 10000 5.14 200 17:18 14.02.2022
3727 Clouds 12 1001 81 10000 6.69 210 15:52 14.02.2022
3728 Clouds 12 1000 67 10000 6.17 200 13:36 14.02.2022
3729 Clear 12 1000 61 10000 5.66 200 12:59 14.02.2022
3730 Clear 12 1000 61 10000 5.66 200 12:32 14.02.2022
3731 Clear 11 1000 62 10000 6.17 210 11:39 14.02.2022
3732 Clear 10 1000 64 10000 5.66 170 10:22 14.02.2022
3733 Clear 8 1000 65 10000 5.14 170 08:26 14.02.2022
3734 Clear 7 1001 66 10000 7.72 180 07:26 14.02.2022
3735 Clear 7 1005 67 10000 6.69 190 23:19 13.02.2022
3736 Clear 7 1005 67 10000 6.17 180 22:41 13.02.2022
3737 Clear 7 1006 67 10000 6.69 200 22:22 13.02.2022
3738 Clear 7 1006 68 10000 7.2 200 21:24 13.02.2022
3739 Clear 7 1007 71 10000 4.63 180 20:28 13.02.2022
3740 Clear 7 1008 72 10000 3.09 170 19:23 13.02.2022
3741 Clear 7 1008 69 10000 0.89 135 18:41 13.02.2022
3742 Clear 7 1009 58 10000 3.09 170 17:32 13.02.2022
3743 Clear 9 1010 50 10000 4.63 180 15:53 13.02.2022
3744 Clear 9 1011 48 10000 4.12 180 14:50 13.02.2022
3745 Clear 8 1012 49 10000 3.6 190 13:39 13.02.2022
3746 Clear 7 1013 50 10000 4.63 190 12:44 13.02.2022
3747 Clear 5 1015 61 10000 4.63 190 10:46 13.02.2022
3748 Clear 4 1015 65 10000 4.12 190 10:27 13.02.2022
3749 Clear 1 1016 76 10000 2.57 190 08:57 13.02.2022
3750 Clear 2 1018 76 10000 2.57 190 02:50 13.02.2022
3751 Clear 2 1020 77 10000 3.6 210 00:33 13.02.2022
3752 Clear 2 1021 76 10000 3.09 190 22:56 12.02.2022
3753 Clear 2 1021 75 10000 3.09 190 22:32 12.02.2022
3754 Clear 2 1022 73 10000 3.6 180 21:18 12.02.2022
3755 Clear 3 1023 71 10000 1.03 0 20:25 12.02.2022
3756 Clear 3 1024 71 10000 1.54 150 18:54 12.02.2022
3757 Clear 3 1024 72 10000 1.54 150 18:36 12.02.2022
3758 Clear 4 1024 69 10000 2.57 180 17:55 12.02.2022
3759 Clear 5 1025 63 10000 4.12 210 16:54 12.02.2022
3760 Clear 6 1025 58 10000 5.14 210 16:18 12.02.2022
3761 Clear 6 1026 56 10000 5.14 210 15:23 12.02.2022
3762 Clouds 6 1027 59 10000 5.14 190 14:30 12.02.2022
3763 Clear 5 1029 68 10000 3.6 190 12:26 12.02.2022
3764 Clear 3 1031 79 10000 3.6 190 10:34 12.02.2022
3765 Clear 1 1031 84 10000 2.06 180 09:38 12.02.2022
3766 Clear -1 1031 86 10000 1.03 0 08:48 12.02.2022
3767 Clouds -1 1031 89 10000 1.03 0 07:47 12.02.2022
3768 Clear -1 1032 91 10000 1.03 160 05:31 12.02.2022
3769 Clear -1 1033 92 10000 0.51 0 02:20 12.02.2022
3770 Clear 0 1033 92 10000 1.03 0 00:31 12.02.2022
3771 Clear 1 1033 86 10000 2.06 260 22:24 11.02.2022
3772 Clear 1 1032 85 10000 2.06 260 21:43 11.02.2022
3773 Clear 2 1032 83 10000 2.06 290 20:37 11.02.2022
3774 Clouds 2 1031 78 10000 2.57 250 19:31 11.02.2022
3775 Clouds 3 1030 77 10000 2.57 280 18:58 11.02.2022
3776 Clouds 4 1029 82 10000 5.14 310 17:28 11.02.2022
3777 Clouds 4 1028 83 10000 6.17 310 16:58 11.02.2022
3778 Clouds 4 1026 90 10000 6.17 320 15:33 11.02.2022
3779 Clouds 5 1025 88 10000 6.69 320 14:38 11.02.2022
3780 Clouds 5 1024 90 10000 8.23 320 14:20 11.02.2022
3781 Clouds 5 1022 90 10000 9.26 320 13:47 11.02.2022
3782 Clouds 5 1021 91 10000 9.77 300 13:28 11.02.2022
3783 Rain 5 1019 91 7000 7.2 260 11:26 11.02.2022
3784 Clouds 4 1018 88 10000 7.72 250 09:38 11.02.2022
3785 Clouds 4 1017 88 10000 7.2 240 08:36 11.02.2022
3786 Clouds 3 1017 88 8000 5.66 230 07:47 11.02.2022
3787 Clouds 3 1017 89 10000 3.6 220 06:31 11.02.2022
3788 Clouds 4 1018 85 10000 3.09 240 02:24 11.02.2022
3789 Clouds 5 1019 90 10000 2.57 250 00:44 11.02.2022
3790 Clouds 5 1019 87 10000 3.09 260 22:39 10.02.2022
3791 Clouds 6 1019 84 10000 3.6 250 21:43 10.02.2022
3792 Rain 6 1019 83 10000 4.12 250 20:50 10.02.2022
3793 Clouds 6 1019 83 10000 4.63 250 20:24 10.02.2022
3794 Rain 6 1018 86 10000 4.63 230 19:24 10.02.2022
3795 Rain 6 1018 88 10000 4.63 240 18:33 10.02.2022
3796 Clouds 7 1018 84 10000 4.63 250 17:25 10.02.2022
3797 Clouds 7 1018 86 10000 4.63 270 16:47 10.02.2022
3798 Clouds 7 1018 85 10000 5.14 270 15:42 10.02.2022
3799 Clouds 7 1017 88 10000 5.66 260 15:24 10.02.2022
3800 Clouds 7 1017 87 10000 4.63 260 14:35 10.02.2022
3801 Clouds 7 1017 88 10000 2.57 240 13:59 10.02.2022
3802 Rain 7 1017 90 10000 3.6 290 13:19 10.02.2022
3803 Drizzle 7 1017 90 4500 3.6 270 11:57 10.02.2022
3804 Drizzle 8 1017 89 4500 3.6 270 11:32 10.02.2022
3805 Clouds 8 1016 83 10000 4.12 250 10:25 10.02.2022
3806 Clouds 8 1016 84 10000 3.09 240 09:46 10.02.2022
3807 Clouds 8 1017 84 10000 1.54 230 08:42 10.02.2022
3808 Clouds 8 1017 82 10000 2.06 200 06:33 10.02.2022
3809 Clouds 8 1019 83 10000 2.06 210 03:21 10.02.2022
3810 Clouds 9 1021 86 10000 3.6 240 00:56 10.02.2022
3811 Clouds 9 1021 86 10000 3.6 240 00:38 10.02.2022
3812 Clouds 9 1021 86 10000 3.6 250 00:20 10.02.2022
3813 Clouds 9 1022 85 10000 4.63 260 22:56 09.02.2022
3814 Clouds 9 1022 84 10000 4.63 260 22:33 09.02.2022
3815 Clouds 9 1022 83 10000 5.66 250 21:47 09.02.2022
3816 Clouds 9 1022 84 10000 4.63 250 21:27 09.02.2022
3817 Clouds 9 1022 83 10000 5.14 250 20:44 09.02.2022
3818 Clouds 9 1022 83 10000 5.14 250 20:44 09.02.2022
3819 Clouds 9 1022 83 10000 5.14 250 20:22 09.02.2022
3820 Clouds 9 1022 80 10000 5.14 250 19:42 09.02.2022
3821 Clouds 9 1021 80 10000 5.14 250 18:38 09.02.2022
3822 Clouds 9 1022 87 10000 6.69 260 16:57 09.02.2022
3823 Clouds 10 1022 83 10000 6.17 260 16:20 09.02.2022
3824 Clouds 10 1022 81 10000 7.2 260 15:23 09.02.2022
3825 Clouds 9 1022 86 10000 7.72 240 12:53 09.02.2022
3826 Clouds 9 1022 90 10000 6.17 240 11:29 09.02.2022
3827 Clouds 8 1022 91 10000 6.17 240 10:34 09.02.2022
3828 Clouds 9 1023 86 10000 6.69 250 09:50 09.02.2022
3829 Clouds 9 1023 82 10000 6.69 250 09:21 09.02.2022
3830 Clouds 9 1023 82 10000 7.2 250 08:44 09.02.2022
3831 Clouds 9 1023 80 10000 6.17 240 05:57 09.02.2022
3832 Clouds 9 1024 84 10000 7.2 240 03:51 09.02.2022
3833 Clouds 9 1024 84 10000 6.69 240 03:25 09.02.2022
3834 Mist 9 1024 94 4800 6.17 260 23:45 08.02.2022
3835 Drizzle 9 1024 94 4000 6.17 260 23:19 08.02.2022
3836 Drizzle 9 1024 95 3500 6.17 260 22:38 08.02.2022
3837 Clouds 9 1024 92 10000 5.66 260 22:19 08.02.2022
3838 Drizzle 9 1024 91 6000 6.69 260 21:22 08.02.2022
3839 Drizzle 9 1024 91 6000 6.69 260 21:22 08.02.2022
3840 Drizzle 9 1024 91 6000 6.17 260 20:57 08.02.2022
3841 Drizzle 9 1024 91 6000 6.17 260 20:34 08.02.2022
3842 Clouds 9 1023 91 10000 5.66 250 19:18 08.02.2022
3843 Clouds 9 1023 91 10000 6.69 260 17:57 08.02.2022
3844 Clouds 9 1022 90 10000 6.69 260 16:55 08.02.2022
3845 Mist 9 1022 90 5000 6.17 260 15:46 08.02.2022
3846 Clouds 10 1022 87 10000 7.72 260 14:58 08.02.2022
3847 Clouds 10 1022 85 10000 6.69 250 13:39 08.02.2022
3848 Clouds 9 1022 85 10000 8.23 250 12:21 08.02.2022
3849 Clouds 9 1022 88 10000 7.2 250 10:47 08.02.2022
3850 Clouds 7 1022 91 10000 6.69 250 09:47 08.02.2022
3851 Clouds 7 1022 92 10000 7.2 250 08:34 08.02.2022
3852 Clouds 5 1022 88 10000 6.69 250 05:46 08.02.2022
3853 Clouds 5 1022 85 10000 7.2 250 04:40 08.02.2022
3854 Clouds 5 1022 84 10000 7.2 250 04:22 08.02.2022
3855 Clouds 5 1022 81 10000 5.66 250 03:36 08.02.2022
3856 Clouds 5 1022 81 10000 5.66 250 03:18 08.02.2022
3857 Clouds 5 1022 81 10000 5.66 250 03:18 08.02.2022
3858 Clouds 5 1023 80 10000 5.14 250 02:59 08.02.2022
3859 Clouds 5 1023 80 10000 5.14 250 02:36 08.02.2022
3860 Clear 5 1023 80 10000 5.14 260 02:18 08.02.2022
3861 Clear 5 1023 79 10000 5.14 260 01:44 08.02.2022
3862 Clear 5 1024 80 10000 4.63 260 01:24 08.02.2022
3863 Clear 4 1024 81 10000 5.14 260 00:55 08.02.2022
3864 Clear 4 1024 83 10000 5.14 260 00:19 08.02.2022
3865 Clear 4 1024 83 10000 5.66 260 23:42 07.02.2022
3866 Clear 4 1024 83 10000 4.63 260 23:18 07.02.2022
3867 Clear 4 1024 84 10000 4.12 270 22:56 07.02.2022
3868 Clear 4 1024 84 10000 4.12 260 22:18 07.02.2022
3869 Clear 4 1024 84 10000 3.6 270 21:47 07.02.2022
3870 Clouds 4 1024 84 10000 4.12 270 21:26 07.02.2022
3871 Clouds 4 1023 84 10000 4.12 270 20:41 07.02.2022
3872 Clouds 4 1023 86 10000 3.09 270 20:18 07.02.2022
3873 Clouds 4 1023 86 10000 3.09 270 19:45 07.02.2022
3874 Rain 4 1022 82 10000 7.72 290 18:22 07.02.2022
3875 Clouds 4 1021 82 10000 9.26 280 16:53 07.02.2022
3876 Clouds 4 1020 82 10000 7.2 280 16:20 07.02.2022
3877 Clouds 5 1020 85 10000 5.14 270 15:48 07.02.2022
3878 Clouds 5 1018 86 10000 1.34 248 13:37 07.02.2022
3879 Rain 6 1017 78 10000 8.23 290 13:19 07.02.2022
3880 Clouds 6 1016 80 10000 3.13 225 11:58 07.02.2022
3881 Clouds 6 1016 80 10000 3.13 225 11:58 07.02.2022
3882 Clouds 6 1017 81 10000 9.26 290 11:37 07.02.2022
3883 Clouds 4 1015 89 10000 1.79 248 10:52 07.02.2022
3884 Clouds 4 1014 86 10000 1.34 225 10:32 07.02.2022
3885 Rain 4 1013 88 10000 1.79 248 09:53 07.02.2022
3886 Clouds 4 1012 89 10000 1.34 248 09:18 07.02.2022
3887 Clouds 4 1012 88 10000 0.89 248 08:43 07.02.2022
3888 Clouds 3 1009 88 10000 1.34 248 07:26 07.02.2022
3889 Clouds 3 1008 88 10000 2.24 248 06:34 07.02.2022
3890 Clouds 2 1003 88 10000 1.79 248 03:48 07.02.2022
3891 Clouds 3 998 86 10000 1.79 248 00:47 07.02.2022
3892 Rain 3 997 88 10000 2.24 225 23:49 06.02.2022
3893 Clouds 4 996 87 10000 1.79 248 22:55 06.02.2022
3894 Clouds 4 996 88 10000 1.79 225 22:34 06.02.2022
3895 Clouds 3 995 93 10000 0.89 225 21:36 06.02.2022
3896 Rain 4 995 91 10000 1.34 248 20:56 06.02.2022
3897 Rain 4 995 90 10000 1.34 225 20:36 06.02.2022
3898 Clouds 5 994 86 10000 1.79 225 19:45 06.02.2022
3899 Clouds 5 995 88 10000 6.69 250 18:48 06.02.2022
3900 Clouds 5 995 89 10000 1.34 225 17:58 06.02.2022
3901 Clouds 5 995 89 10000 1.34 225 17:21 06.02.2022
3902 Clouds 5 994 90 10000 1.79 225 16:48 06.02.2022
3903 Rain 5 994 88 7000 0.89 248 15:49 06.02.2022
3904 Rain 6 993 87 9000 3.13 225 15:27 06.02.2022
3905 Rain 6 993 90 10000 2.24 225 14:47 06.02.2022
3906 Rain 7 994 86 10000 2.24 203 13:28 06.02.2022
3907 Rain 7 995 86 10000 2.24 225 12:59 06.02.2022
3908 Rain 7 998 89 10000 1.34 203 11:38 06.02.2022
3909 Rain 7 1000 87 10000 9.77 240 10:31 06.02.2022
3910 Rain 7 1000 87 10000 9.77 240 10:31 06.02.2022
3911 Clouds 7 1001 89 10000 9.26 240 09:25 06.02.2022
3912 Rain 7 1001 88 10000 2.68 225 08:40 06.02.2022
3913 Rain 6 1004 89 10000 1.79 225 05:36 06.02.2022
3914 Clouds 6 1006 88 10000 8.23 240 03:18 06.02.2022
3915 Rain 6 1008 88 10000 1.79 225 02:24 06.02.2022
3916 Clouds 6 1010 80 10000 2.24 225 00:29 06.02.2022
3917 Clouds 6 1011 73 10000 1.79 225 22:36 05.02.2022
3918 Clouds 6 1012 72 10000 2.24 225 21:32 05.02.2022
3919 Clouds 6 1013 71 10000 7.2 240 20:25 05.02.2022
3920 Clouds 6 1014 71 10000 1.34 225 19:48 05.02.2022
3921 Clouds 6 1014 72 10000 2.24 203 19:18 05.02.2022
3922 Clouds 6 1015 70 10000 0.89 225 17:45 05.02.2022
3923 Clouds 6 1015 70 10000 1.79 225 17:27 05.02.2022
3924 Clouds 6 1016 69 10000 1.79 225 15:42 05.02.2022
3925 Clouds 6 1016 69 10000 2.24 225 15:21 05.02.2022
3926 Clouds 6 1016 70 10000 2.24 225 12:54 05.02.2022
3927 Clouds 6 1016 73 10000 2.68 248 12:31 05.02.2022
3928 Clouds 5 1016 83 10000 1.79 248 10:52 05.02.2022
3929 Clouds 5 1016 85 10000 0.89 225 10:22 05.02.2022
3930 Clouds 4 1016 85 10000 1.79 225 09:44 05.02.2022
3931 Clouds 4 1014 85 10000 1.34 248 07:54 05.02.2022
3932 Clouds 4 1013 83 10000 0.89 225 06:57 05.02.2022
3933 Clouds 4 1012 83 10000 1.79 225 04:30 05.02.2022
3934 Clouds 4 1010 86 10000 1.34 248 01:19 05.02.2022
3935 Clouds 4 1010 83 10000 1.34 248 00:53 05.02.2022
3936 Clouds 4 1009 88 10000 1.79 248 23:46 04.02.2022
3937 Clouds 4 1009 89 10000 1.34 225 23:28 04.02.2022
3938 Clouds 3 1007 94 10000 1.34 248 21:54 04.02.2022
3939 Clouds 3 1007 92 10000 2.24 248 21:36 04.02.2022
3940 Clouds 3 1006 94 10000 1.79 248 21:18 04.02.2022
3941 Rain 5 1003 90 10000 2.24 225 19:59 04.02.2022
3942 Rain 8 1002 78 10000 0.45 203 17:43 04.02.2022
3943 Rain 9 1004 79 10000 6.17 220 15:42 04.02.2022
3944 Clouds 9 1004 82 10000 6.17 220 14:55 04.02.2022
3945 Clouds 9 1005 83 10000 0.89 225 13:33 04.02.2022
3946 Clouds 9 1006 82 10000 0.45 270 12:43 04.02.2022
3947 Clouds 8 1007 83 10000 0.45 180 11:42 04.02.2022
3948 Clouds 7 1008 86 10000 0.45 203 10:36 04.02.2022
3949 Clouds 7 1009 86 10000 0.45 248 08:36 04.02.2022
3950 Clouds 7 1009 87 10000 4.12 210 06:47 04.02.2022
3951 Clouds 6 1010 89 10000 4.63 250 02:46 04.02.2022
3952 Clouds 6 1010 88 10000 5.14 250 01:52 04.02.2022
3953 Clouds 6 1011 89 10000 5.66 240 23:29 03.02.2022
3954 Clouds 6 1011 91 10000 4.63 250 22:33 03.02.2022
3955 Clouds 6 1011 88 10000 0.45 248 21:49 03.02.2022
3956 Clouds 6 1011 89 10000 0.45 225 20:38 03.02.2022
3957 Clouds 6 1011 89 10000 0.45 225 20:38 03.02.2022
3958 Clouds 6 1011 88 10000 4.12 240 20:18 03.02.2022
3959 Clouds 7 1011 87 10000 0.89 225 19:30 03.02.2022
3960 Clouds 7 1011 88 10000 0.89 225 18:35 03.02.2022
3961 Clouds 7 1011 88 10000 0.89 225 17:32 03.02.2022
3962 Clouds 7 1012 92 10000 0.89 248 16:25 03.02.2022
3963 Clouds 8 1013 92 10000 4.12 250 14:37 03.02.2022
3964 Clouds 8 1014 92 10000 7.2 260 12:52 03.02.2022
3965 Rain 7 1015 94 7000 2.06 220 10:58 03.02.2022
3966 Drizzle 6 1015 95 6000 2.57 220 08:36 03.02.2022
3967 Rain 4 1017 89 10000 1.54 160 04:27 03.02.2022
3968 Clear 2 1019 87 10000 2.06 200 00:31 03.02.2022
3969 Clear 2 1019 88 10000 1.54 210 23:36 02.02.2022
3970 Clear 2 1020 91 10000 2.06 240 21:55 02.02.2022
3971 Clear 3 1020 88 10000 2.06 250 21:31 02.02.2022
3972 Clouds 3 1020 87 10000 2.06 240 20:40 02.02.2022
3973 Clouds 3 1020 86 10000 2.06 250 19:58 02.02.2022
3974 Clouds 4 1019 85 10000 1.03 240 19:26 02.02.2022
3975 Clouds 4 1019 82 10000 2.06 250 18:39 02.02.2022
3976 Clouds 5 1018 79 10000 2.57 300 17:44 02.02.2022
3977 Clouds 5 1018 77 10000 0.89 248 17:19 02.02.2022
3978 Clouds 6 1017 72 10000 1.34 248 16:31 02.02.2022
3979 Clouds 7 1014 73 10000 1.34 248 12:55 02.02.2022
3980 Clouds 6 1014 76 10000 1.34 248 12:18 02.02.2022
3981 Clouds 6 1013 78 10000 9.26 290 11:32 02.02.2022
3982 Clouds 6 1012 83 10000 1.79 225 09:46 02.02.2022
3983 Clouds 5 1009 80 10000 1.34 248 07:32 02.02.2022
3984 Clouds 6 1004 83 10000 1.34 270 22:51 01.02.2022
3985 Clouds 7 1004 89 10000 1.79 270 21:40 01.02.2022
3986 Rain 6 1003 89 3800 1.79 248 19:58 01.02.2022
3987 Drizzle 7 1003 94 10000 1.34 248 17:41 01.02.2022
3988 Clouds 6 1003 95 10000 1.34 248 16:39 01.02.2022
3989 Clouds 5 1005 92 10000 9.77 250 13:56 01.02.2022
3990 Clouds 4 1007 92 4500 1.34 248 12:42 01.02.2022
3991 Clouds 4 1010 86 10000 8.23 250 11:20 01.02.2022
3992 Clouds 2 1014 94 10000 0.45 270 02:34 01.02.2022
3993 Clouds 2 1014 93 10000 0.45 270 23:41 31.01.2022
3994 Clouds 2 1014 94 10000 4.12 310 22:57 31.01.2022
3995 Clouds 2 1013 94 10000 4.12 310 21:39 31.01.2022
3996 Drizzle 3 1012 94 7000 3.09 320 20:50 31.01.2022
3997 Clouds 3 1011 94 10000 4.12 320 20:27 31.01.2022
3998 Clouds 2 1009 94 10000 3.6 360 19:29 31.01.2022
3999 Clouds 3 1008 96 10000 0.45 23 18:25 31.01.2022
4000 Clouds 3 922 96 10000 2.57 20 17:26 31.01.2022
4001 Clouds 4 1005 94 7000 3.09 10 16:29 31.01.2022
4002 Clouds 5 890 94 10000 4.12 290 14:54 31.01.2022
4003 Clouds 4 1002 93 10000 5.14 280 13:52 31.01.2022
4004 Clouds 4 1002 91 10000 0.45 248 12:38 31.01.2022
4005 Clouds 4 1001 92 10000 0.45 270 11:47 31.01.2022
4006 Clouds 4 918 95 10000 0.45 270 10:50 31.01.2022
4007 Clouds 3 917 97 9000 0.89 270 09:59 31.01.2022
4008 Snow 2 1001 96 6000 2.06 190 08:59 31.01.2022
4009 Snow 1 917 96 6000 2.06 190 08:39 31.01.2022
4010 Snow 1 917 96 3000 2.06 180 08:20 31.01.2022
4011 Snow 2 920 91 8000 0.45 225 06:18 31.01.2022
4012 Clouds 3 898 84 10000 3.09 240 00:46 31.01.2022
4013 Clouds 4 900 82 10000 4.12 270 22:40 30.01.2022
4014 Clouds 4 900 81 10000 3.6 270 22:22 30.01.2022
4015 Clouds 4 933 79 10000 0.45 270 21:38 30.01.2022
4016 Clouds 4 904 77 10000 5.66 270 21:18 30.01.2022
4017 Clouds 4 933 77 10000 0.89 270 20:45 30.01.2022
4018 Clouds 5 934 75 10000 0.45 248 20:27 30.01.2022
4019 Clouds 5 934 73 10000 0.89 270 19:24 30.01.2022
4020 Clouds 5 906 70 10000 1.34 225 18:36 30.01.2022
4021 Clouds 5 935 73 10000 1.34 248 17:54 30.01.2022
4022 Clouds 6 842 72 10000 8.23 300 17:21 30.01.2022
4023 Clouds 6 906 70 10000 1.34 270 16:39 30.01.2022
4024 Clouds 6 842 74 10000 1.79 0 16:21 30.01.2022
4025 Clouds 6 1023 62 10000 8.23 310 15:49 30.01.2022
4026 Clouds 6 1023 62 10000 8.75 300 15:31 30.01.2022
4027 Clouds 6 935 70 10000 1.34 248 14:46 30.01.2022
4028 Clouds 6 1022 67 10000 1.79 225 12:46 30.01.2022
4029 Clouds 6 1022 67 10000 1.79 248 11:53 30.01.2022
4030 Clouds 5 1021 69 10000 2.24 248 10:29 30.01.2022
4031 Clouds 5 1020 71 10000 1.34 225 09:50 30.01.2022
4032 Clouds 5 1019 76 10000 1.79 248 08:52 30.01.2022
4033 Clouds 5 903 83 10000 2.24 225 06:55 30.01.2022
4034 Rain 6 930 83 10000 1.79 225 01:55 30.01.2022
4035 Clouds 6 899 86 10000 11.32 280 00:19 30.01.2022
4036 Clouds 7 1015 75 10000 2.24 248 22:58 29.01.2022
4037 Clouds 8 1015 74 10000 1.79 248 21:47 29.01.2022
4038 Clouds 8 1015 80 10000 3.58 248 21:23 29.01.2022
4039 Clouds 8 1014 85 10000 1.79 248 20:22 29.01.2022
4040 Rain 9 901 86 10000 2.24 225 19:33 29.01.2022
4041 Rain 10 900 88 10000 4.02 248 18:51 29.01.2022
4042 Rain 10 897 92 10000 1.34 0 18:18 29.01.2022
4043 Clouds 9 897 95 10000 0.89 0 17:27 29.01.2022
4044 Drizzle 9 898 94 5000 0.45 0 15:44 29.01.2022
4045 Drizzle 9 930 93 10000 1.79 248 13:58 29.01.2022
4046 Drizzle 9 1015 88 10000 10.29 250 13:38 29.01.2022
4047 Drizzle 9 899 91 10000 9.26 250 13:20 29.01.2022
4048 Drizzle 8 900 92 6000 10.8 250 11:40 29.01.2022
4049 Drizzle 7 900 93 6000 1.34 0 10:46 29.01.2022
4050 Clouds 6 901 93 10000 9.26 260 08:42 29.01.2022
4051 Rain 6 935 91 9000 1.34 225 03:53 29.01.2022
4052 Rain 5 938 86 10000 0.89 248 00:34 29.01.2022
4053 Clouds 5 1028 82 10000 4.12 230 23:43 28.01.2022
4054 Clouds 4 939 83 10000 2.57 230 22:48 28.01.2022
4055 Clouds 4 1029 80 10000 3.09 220 22:20 28.01.2022
4056 Clouds 4 1030 79 10000 3.09 230 20:42 28.01.2022
4057 Clouds 4 1030 79 10000 3.09 240 20:23 28.01.2022
4058 Clouds 4 1030 75 10000 2.06 260 19:28 28.01.2022
4059 Clouds 4 1031 81 10000 2.57 260 18:38 28.01.2022
4060 Clouds 6 1031 74 10000 0.89 248 16:39 28.01.2022
4061 Clouds 7 1030 67 10000 0.89 270 14:59 28.01.2022
4062 Clouds 7 1030 67 10000 0.89 248 13:23 28.01.2022
4063 Clouds 5 1030 77 10000 6.69 300 11:52 28.01.2022
4064 Clouds 5 1029 82 10000 1.34 248 10:32 28.01.2022
4065 Clouds 4 1028 83 10000 7.2 290 09:47 28.01.2022
4066 Clouds 4 1026 88 10000 0.89 248 07:43 28.01.2022
4067 Clouds 4 1024 86 10000 1.34 248 06:30 28.01.2022
4068 Clouds 4 1022 84 10000 1.34 270 03:51 28.01.2022
4069 Clouds 4 1021 83 10000 0.89 248 02:28 28.01.2022
4070 Clouds 4 1021 84 10000 1.34 270 01:57 28.01.2022
4071 Clouds 4 1020 82 10000 1.34 248 01:29 28.01.2022
4072 Clouds 4 931 90 10000 1.79 270 22:39 27.01.2022
4073 Clouds 4 902 89 10000 0.89 225 21:40 27.01.2022
4074 Clouds 5 1018 88 10000 1.79 248 20:59 27.01.2022
4075 Clouds 5 902 88 10000 1.34 270 19:45 27.01.2022
4076 Clouds 6 930 91 10000 1.79 248 18:20 27.01.2022
4077 Clouds 7 930 93 5000 1.79 270 16:55 27.01.2022
4078 Clouds 6 899 94 9000 0.45 0 14:23 27.01.2022
4079 Clouds 5 899 94 6000 7.72 260 12:49 27.01.2022
4080 Clouds 5 899 94 6000 7.72 260 12:49 27.01.2022
4081 Clouds 5 899 94 6000 7.72 260 12:49 27.01.2022
4082 Clouds 5 1017 93 8000 7.2 260 11:54 27.01.2022
4083 Drizzle 4 899 91 4000 8.23 250 09:48 27.01.2022
4084 Clouds 3 899 91 4800 8.23 250 08:40 27.01.2022
4085 Clouds 4 900 88 10000 3.13 0 07:52 27.01.2022
4086 Clouds 4 902 90 10000 0.89 0 03:34 27.01.2022
4087 Drizzle 3 1024 93 4200 6.69 240 00:24 27.01.2022
4088 Drizzle 3 904 93 6000 0.45 0 22:28 26.01.2022
4089 Clouds 3 937 93 7000 1.34 248 21:44 26.01.2022
4090 Clouds 3 904 93 6000 5.66 260 20:50 26.01.2022
4091 Mist 3 904 93 4400 4.63 260 20:31 26.01.2022
4092 Mist 3 1027 92 4000 0.89 248 19:38 26.01.2022
4093 Drizzle 3 1027 92 3000 1.34 225 18:47 26.01.2022
4094 Drizzle 3 1027 91 2800 1.34 225 18:18 26.01.2022
4095 Drizzle 3 937 93 2500 0.89 225 17:33 26.01.2022
4096 Drizzle 2 938 93 2000 0.89 248 16:47 26.01.2022
4097 Drizzle 3 938 92 2300 0.45 225 15:56 26.01.2022
4098 Mist 2 1028 88 3800 5.66 260 14:32 26.01.2022
4099 Mist 2 1030 88 4500 0.89 270 12:18 26.01.2022
4100 Mist 2 1030 89 4300 1.34 248 10:50 26.01.2022
4101 Drizzle 2 1029 89 4500 1.34 248 09:52 26.01.2022
4102 Clouds 2 938 90 7000 0.89 248 08:46 26.01.2022
4103 Clouds 2 939 94 10000 0.45 248 06:28 26.01.2022
4104 Clouds 2 939 93 10000 0.45 270 06:28 26.01.2022
4105 Clouds 2 939 93 10000 0.45 270 06:28 26.01.2022
4106 Clouds 2 939 93 10000 0.45 270 06:28 26.01.2022
4107 Clouds 3 1031 90 8000 0.45 270 00:21 26.01.2022
4108 Clouds 3 1031 89 9000 0.45 270 23:37 25.01.2022
4109 Clouds 3 1031 91 8000 2.06 300 22:48 25.01.2022
4110 Clouds 3 1032 90 7000 2.06 260 22:18 25.01.2022
4111 Clouds 3 1031 92 6000 1.54 260 21:23 25.01.2022
4112 Mist 4 1032 93 5000 1.54 270 20:45 25.01.2022
4113 Mist 3 1032 93 5000 2.06 270 19:53 25.01.2022
4114 Mist 4 941 94 5000 1.54 260 18:50 25.01.2022
4115 Mist 4 1032 92 5000 2.06 280 17:47 25.01.2022
4116 Mist 4 1032 89 5000 2.06 280 17:18 25.01.2022
4117 Drizzle 4 1032 90 5000 0.45 270 16:34 25.01.2022
4118 Clouds 4 1032 89 8000 0.45 270 15:39 25.01.2022
4119 Clouds 5 941 91 9000 0.45 270 14:58 25.01.2022
4120 Clouds 5 942 91 9000 0.89 270 14:38 25.01.2022
4121 Drizzle 4 1033 86 8000 2.06 260 11:30 25.01.2022
4122 Clouds 4 1033 88 10000 1.03 0 09:21 25.01.2022
4123 Clouds 3 1033 88 10000 1.03 260 07:46 25.01.2022
4124 Clouds 3 1033 89 10000 2.57 330 06:54 25.01.2022
4125 Clouds 3 1033 93 10000 1.54 310 05:23 25.01.2022
4126 Clouds 4 1034 86 10000 1.54 280 00:20 25.01.2022
4127 Clouds 4 847 91 10000 1.54 270 23:36 24.01.2022
4128 Clouds 4 847 91 10000 1.54 260 23:18 24.01.2022
4129 Clouds 4 910 93 10000 2.06 280 22:42 24.01.2022
4130 Clouds 4 847 93 10000 1.54 290 21:57 24.01.2022
4131 Clouds 4 910 94 10000 1.54 290 21:57 24.01.2022
4132 Clouds 5 943 93 10000 1.54 290 21:32 24.01.2022
4133 Clouds 5 943 91 10000 1.54 280 20:33 24.01.2022
4134 Clouds 5 943 90 10000 2.06 310 19:57 24.01.2022
4135 Clouds 5 943 91 10000 2.06 310 19:35 24.01.2022
4136 Clouds 5 943 91 10000 1.54 290 18:35 24.01.2022
4137 Clouds 5 943 89 10000 2.06 250 17:24 24.01.2022
4138 Clouds 5 943 89 10000 2.57 250 16:55 24.01.2022
4139 Clouds 6 942 89 10000 1.54 250 16:21 24.01.2022
4140 Clouds 6 1033 89 10000 2.57 240 14:49 24.01.2022
4141 Clouds 6 943 89 10000 2.57 220 13:38 24.01.2022
4142 Clouds 6 943 91 10000 1.54 210 12:32 24.01.2022
4143 Clouds 6 943 95 10000 1.03 0 11:20 24.01.2022
4144 Clouds 5 943 97 10000 0.51 0 09:49 24.01.2022
4145 Clouds 5 911 98 10000 0.51 200 08:54 24.01.2022
4146 Clouds 5 943 96 10000 1.03 150 07:20 24.01.2022
4147 Clouds 5 943 96 10000 1.03 150 07:19 24.01.2022
4148 Clouds 5 943 96 10000 1.03 150 07:19 24.01.2022
4149 Clouds 6 944 96 6000 1.03 260 01:32 24.01.2022
4150 Clouds 6 944 96 7000 1.03 260 00:45 24.01.2022
4151 Clouds 6 944 96 6000 1.03 0 00:26 24.01.2022
4152 Clouds 6 944 98 7000 1.54 270 22:43 23.01.2022
4153 Clouds 6 944 96 8000 1.03 0 21:50 23.01.2022
4154 Drizzle 6 944 98 10000 2.06 290 21:26 23.01.2022
4155 Drizzle 6 944 98 9000 0.45 270 20:48 23.01.2022
4156 Drizzle 6 944 98 2300 0.45 270 19:54 23.01.2022
4157 Drizzle 6 944 96 5000 0.45 270 18:52 23.01.2022
4158 Drizzle 6 944 96 3800 0.45 248 17:52 23.01.2022
4159 Drizzle 6 943 96 3500 0.45 270 16:48 23.01.2022
4160 Drizzle 7 943 96 3000 0.45 248 15:18 23.01.2022
4161 Drizzle 7 943 96 4000 0.89 270 14:32 23.01.2022
4162 Drizzle 6 943 96 5000 0.45 248 13:27 23.01.2022
4163 Drizzle 6 944 95 4000 0.89 248 12:36 23.01.2022
4164 Drizzle 6 944 95 6000 0.89 248 12:18 23.01.2022
4165 Drizzle 6 943 96 5000 0.89 248 11:24 23.01.2022
4166 Drizzle 5 943 96 2500 0.89 248 10:43 23.01.2022
4167 Drizzle 5 943 96 5000 0.89 248 10:19 23.01.2022
4168 Drizzle 5 943 95 4500 0.45 270 09:19 23.01.2022
4169 Clouds 5 942 96 9000 0.45 270 05:58 23.01.2022
4170 Clouds 5 909 98 10000 3.09 290 01:54 23.01.2022
4171 Clouds 5 909 98 10000 3.09 290 01:34 23.01.2022
4172 Clouds 5 941 94 10000 3.09 280 00:31 23.01.2022
4173 Clouds 5 941 94 10000 0.45 270 23:57 22.01.2022
4174 Clouds 5 941 96 10000 0.45 293 22:47 22.01.2022
4175 Clouds 5 942 96 10000 3.09 270 21:38 22.01.2022
4176 Clouds 5 941 95 10000 0.45 270 20:24 22.01.2022
4177 Clouds 6 911 94 10000 0.45 270 19:27 22.01.2022
4178 Clouds 6 941 94 6000 0.45 248 18:29 22.01.2022
4179 Clouds 6 941 96 10000 1.34 248 17:41 22.01.2022
4180 Clouds 6 940 94 10000 0.89 248 16:57 22.01.2022
4181 Clouds 6 940 95 10000 1.34 248 15:55 22.01.2022
4182 Clouds 7 941 95 5000 0.89 248 15:37 22.01.2022
4183 Clouds 7 940 94 3500 1.34 225 13:59 22.01.2022
4184 Clouds 7 940 95 4000 0.89 248 12:58 22.01.2022
4185 Clouds 7 940 95 4500 0.89 248 12:30 22.01.2022
4186 Clouds 7 908 94 10000 5.14 300 11:57 22.01.2022
4187 Drizzle 6 939 96 7000 1.34 248 10:38 22.01.2022
4188 Drizzle 6 907 96 7000 4.63 290 10:19 22.01.2022
4189 Clouds 6 939 95 10000 0.89 270 08:54 22.01.2022
4190 Clouds 6 939 95 10000 0.45 270 08:27 22.01.2022
4191 Clouds 6 938 96 4200 1.34 248 05:20 22.01.2022
4192 Clouds 6 908 95 3800 1.79 248 01:58 22.01.2022
4193 Clouds 6 908 94 4500 2.24 248 23:49 21.01.2022
4194 Clouds 6 937 95 6000 1.34 248 22:44 21.01.2022
4195 Drizzle 5 905 96 2800 6.17 280 20:45 21.01.2022
4196 Clouds 4 904 93 6000 0.45 0 18:41 21.01.2022
4197 Clouds 4 937 91 10000 0.89 248 17:45 21.01.2022
4198 Clouds 4 938 92 10000 3.6 280 15:48 21.01.2022
4199 Clouds 4 939 92 10000 0.45 248 14:37 21.01.2022
4200 Clouds 3 1029 90 10000 6.24 298 12:42 21.01.2022
4201 Clouds 2 938 93 10000 0.89 248 11:29 21.01.2022
4202 Clouds 2 938 93 10000 0.89 248 10:27 21.01.2022
4203 Clouds 1 937 93 9000 0.45 248 08:50 21.01.2022
4204 Clouds 0 937 93 10000 0.89 270 07:26 21.01.2022
4205 Clear -1 936 91 10000 0.45 248 01:48 21.01.2022
4206 Clear 0 935 88 10000 0.45 270 22:46 20.01.2022
4207 Clear 0 935 88 10000 0.45 270 21:48 20.01.2022
4208 Clouds 0 935 90 10000 0.89 248 20:57 20.01.2022
4209 Clouds 1 934 88 10000 0.89 248 19:40 20.01.2022
4210 Clouds 1 1023 88 10000 0.89 248 19:18 20.01.2022
4211 Clouds 1 932 89 10000 0.89 248 17:32 20.01.2022
4212 Clouds 1 932 91 10000 0.45 270 15:46 20.01.2022
4213 Clouds 1 932 89 10000 1.79 225 15:26 20.01.2022
4214 Clouds 2 904 85 10000 1.34 248 13:54 20.01.2022
4215 Clouds 2 933 86 10000 0.89 270 13:54 20.01.2022
4216 Clouds 2 903 87 3400 0.89 293 12:43 20.01.2022
4217 Snow 2 903 85 9000 0.89 248 12:21 20.01.2022
4218 Clouds 2 932 87 10000 0.89 225 10:55 20.01.2022
4219 Clouds 1 900 88 10000 5.66 290 09:43 20.01.2022
4220 Clouds 1 931 88 10000 0.89 248 08:35 20.01.2022
4221 Clouds 3 930 92 10000 1.34 248 06:18 20.01.2022
4222 Clouds 4 930 90 10000 1.34 270 23:52 19.01.2022
4223 Clouds 5 898 93 10000 6.69 270 22:37 19.01.2022
4224 Drizzle 4 897 93 6000 7.2 260 21:24 19.01.2022
4225 Clouds 4 1015 91 7000 1.79 225 20:53 19.01.2022
4226 Clouds 4 898 93 4800 7.72 260 20:22 19.01.2022
4227 Drizzle 4 929 92 6000 1.34 248 18:48 19.01.2022
4228 Clouds 4 898 88 10000 5.66 240 17:50 19.01.2022
4229 Clouds 4 930 89 10000 0.89 248 16:59 19.01.2022
4230 Clouds 4 900 87 10000 5.14 240 14:43 19.01.2022
4231 Clouds 4 933 89 10000 1.34 248 12:53 19.01.2022
4232 Clouds 4 1023 88 10000 0.89 225 11:43 19.01.2022
4233 Clouds 3 1024 91 10000 0.45 248 10:38 19.01.2022
4234 Clouds 2 1024 92 10000 0.45 248 09:34 19.01.2022
4235 Clear 1 936 93 10000 2.06 190 07:18 19.01.2022
4236 Mist 1 937 92 4000 0.51 0 05:19 19.01.2022
4237 Clouds 5 943 92 10000 3.09 270 23:41 18.01.2022
4238 Clouds 5 913 88 10000 2.57 260 23:18 18.01.2022
4239 Clouds 6 944 91 10000 1.54 250 21:20 18.01.2022
4240 Clouds 6 944 93 10000 2.06 270 19:55 18.01.2022
4241 Clouds 6 944 92 10000 0.45 270 19:37 18.01.2022
4242 Clouds 6 945 91 10000 2.06 290 18:57 18.01.2022
4243 Clouds 7 945 89 10000 0.45 270 17:59 18.01.2022
4244 Clouds 7 945 89 10000 2.06 260 17:27 18.01.2022
4245 Clouds 7 945 89 10000 0.45 225 15:50 18.01.2022
4246 Clouds 7 1036 90 10000 3.09 290 15:23 18.01.2022
4247 Clouds 7 1036 92 10000 3.6 290 13:26 18.01.2022
4248 Clouds 6 946 96 7000 0.45 270 10:49 18.01.2022
4249 Drizzle 6 946 95 4200 0.45 248 09:39 18.01.2022
4250 Drizzle 5 912 95 4400 1.03 0 07:58 18.01.2022
4251 Drizzle 5 945 95 4400 1.54 310 07:21 18.01.2022
4252 Clouds 5 910 89 10000 3.6 270 00:21 18.01.2022
4253 Clouds 4 942 90 10000 2.57 290 22:30 17.01.2022
4254 Clouds 4 942 88 10000 3.09 280 21:36 17.01.2022
4255 Clouds 5 941 86 10000 0.45 248 20:29 17.01.2022
4256 Clouds 5 940 89 10000 4.12 330 18:31 17.01.2022
4257 Clouds 5 940 89 10000 0.45 248 17:51 17.01.2022
4258 Clouds 6 939 91 10000 0.89 248 16:45 17.01.2022
4259 Clouds 7 938 86 10000 1.79 270 15:23 17.01.2022
4260 Clouds 7 937 89 10000 0.89 248 14:57 17.01.2022
4261 Clouds 7 1025 93 8000 2.24 225 13:27 17.01.2022
4262 Drizzle 7 1024 94 3500 1.34 248 12:56 17.01.2022
4263 Clouds 6 936 94 10000 1.79 248 11:49 17.01.2022
4264 Clouds 5 936 92 10000 2.24 203 10:25 17.01.2022
4265 Clouds 5 1024 88 10000 1.79 248 09:35 17.01.2022
4266 Clouds 6 1023 84 10000 1.34 248 07:43 17.01.2022
4267 Clouds 6 1023 84 10000 1.34 225 07:18 17.01.2022
4268 Clouds 6 936 92 10000 2.24 248 00:56 17.01.2022
4269 Clouds 6 903 91 9000 6.17 270 22:30 16.01.2022
4270 Clouds 5 934 92 9000 1.34 270 20:36 16.01.2022
4271 Clouds 5 934 91 10000 0.89 248 18:52 16.01.2022
4272 Clouds 5 902 90 9000 0.45 0 17:59 16.01.2022
4273 Clouds 5 905 88 9000 0.89 270 17:23 16.01.2022
4274 Clouds 5 901 91 8000 0.45 0 16:38 16.01.2022
4275 Drizzle 4 901 93 4500 4.63 260 14:31 16.01.2022
4276 Mist 4 932 93 4500 0.45 293 13:49 16.01.2022
4277 Drizzle 3 900 94 3200 5.66 250 12:48 16.01.2022
4278 Drizzle 3 932 93 3000 1.34 248 11:43 16.01.2022
4279 Mist 3 900 94 4800 4.12 230 10:55 16.01.2022
4280 Mist 2 1020 93 4800 0.89 248 10:19 16.01.2022
4281 Mist 2 932 95 3800 4.63 240 09:51 16.01.2022
4282 Mist 2 900 96 4000 4.63 240 09:22 16.01.2022
4283 Mist 2 900 96 4000 4.63 240 09:22 16.01.2022
4284 Clouds 2 900 96 10000 6.69 260 07:33 16.01.2022
4285 Clouds 2 934 92 10000 0.45 225 00:42 16.01.2022
4286 Clouds 3 934 92 10000 0.45 90 23:49 15.01.2022
4287 Clouds 4 935 90 10000 0.45 158 21:37 15.01.2022
4288 Clouds 4 936 90 10000 2.57 170 21:19 15.01.2022
4289 Clouds 4 936 89 10000 2.06 160 20:39 15.01.2022
4290 Clouds 4 937 88 10000 0.45 90 19:29 15.01.2022
4291 Clouds 5 937 89 10000 0.45 90 18:37 15.01.2022
4292 Clouds 5 937 89 10000 0.45 135 16:57 15.01.2022
4293 Clouds 6 938 87 10000 0.45 0 15:39 15.01.2022
4294 Clouds 6 939 92 10000 0.89 0 13:39 15.01.2022
4295 Clouds 5 940 94 7000 1.03 0 11:46 15.01.2022
4296 Mist 5 940 96 2800 1.03 0 10:24 15.01.2022
4297 Fog 5 940 95 600 1.03 0 05:27 15.01.2022
4298 Drizzle 5 941 98 3000 0.45 270 23:44 14.01.2022
4299 Drizzle 5 942 97 3000 0.45 270 21:37 14.01.2022
4300 Drizzle 5 941 97 2000 0.45 270 20:37 14.01.2022
4301 Drizzle 5 941 97 2100 3.09 280 19:57 14.01.2022
4302 Drizzle 5 942 95 2400 0.45 270 18:44 14.01.2022
4303 Drizzle 5 941 95 2400 0.45 270 17:53 14.01.2022
4304 Drizzle 5 941 95 2400 1.34 270 16:47 14.01.2022
4305 Mist 5 942 93 4500 0.89 270 15:33 14.01.2022
4306 Clouds 6 942 92 7000 1.79 270 14:29 14.01.2022
4307 Clouds 5 942 92 7000 1.79 270 12:59 14.01.2022
4308 Clouds 5 942 91 7000 0.89 270 11:59 14.01.2022
4309 Clouds 5 942 92 7000 0.89 248 10:40 14.01.2022
4310 Clouds 4 909 93 6000 5.14 270 08:53 14.01.2022
4311 Mist 4 941 93 4800 1.34 248 07:35 14.01.2022
4312 Mist 3 942 93 4000 1.34 270 03:19 14.01.2022
4313 Clouds 3 1034 91 7000 1.34 270 00:35 14.01.2022
4314 Clouds 3 943 93 6000 1.34 270 21:55 13.01.2022
4315 Clouds 3 944 92 6000 1.34 248 21:30 13.01.2022
4316 Clouds 3 944 92 7000 1.34 270 20:27 13.01.2022
4317 Clouds 3 944 92 8000 0.89 248 19:30 13.01.2022
4318 Clouds 3 944 92 9000 1.34 248 18:49 13.01.2022
4319 Clouds 4 944 91 6000 0.89 270 16:57 13.01.2022
4320 Mist 5 944 89 5000 0.45 270 15:46 13.01.2022
4321 Mist 5 944 89 5000 0.45 270 15:26 13.01.2022
4322 Mist 5 848 90 5000 6.17 270 13:36 13.01.2022
4323 Mist 4 848 93 4500 6.17 270 11:38 13.01.2022
4324 Mist 3 911 94 3500 5.14 260 09:24 13.01.2022
4325 Mist 3 911 95 3500 5.66 260 08:30 13.01.2022
4326 Mist 3 945 95 3500 5.14 260 07:59 13.01.2022
4327 Mist 3 945 94 3500 0.89 248 07:20 13.01.2022
4328 Mist 3 945 93 4500 5.66 260 05:21 13.01.2022
4329 Mist 2 911 93 4500 5.66 260 04:55 13.01.2022
4330 Clouds 3 945 92 10000 0.45 270 01:39 13.01.2022
4331 Clear 3 946 93 10000 3.09 260 23:54 12.01.2022
4332 Clear 2 945 93 10000 3.09 260 23:34 12.01.2022
4333 Clouds 2 945 93 7000 2.57 260 22:32 12.01.2022
4334 Clouds 3 915 91 7000 3.09 260 21:43 12.01.2022
4335 Clouds 3 915 91 8000 3.6 250 21:19 12.01.2022
4336 Clouds 3 946 92 8000 3.6 250 20:47 12.01.2022
4337 Clouds 3 945 93 6000 2.06 260 19:22 12.01.2022
4338 Clouds 4 917 92 10000 0.45 270 18:25 12.01.2022
4339 Clouds 4 912 96 9000 3.09 300 16:57 12.01.2022
4340 Clouds 5 912 93 9000 3.09 280 15:38 12.01.2022
4341 Clouds 5 945 93 7000 0.45 293 14:39 12.01.2022
4342 Clouds 4 916 92 6000 0.45 270 12:57 12.01.2022
4343 Mist 3 944 94 4200 0.89 270 09:57 12.01.2022
4344 Clouds 3 943 91 10000 3.6 260 07:58 12.01.2022
4345 Clouds 3 1035 90 10000 0.45 270 07:33 12.01.2022
4346 Clear 2 943 93 10000 1.03 0 02:38 12.01.2022
4347 Clear 1 942 94 10000 0.51 0 23:27 11.01.2022
4348 Clear 1 942 94 10000 0.51 0 22:40 11.01.2022
4349 Clear 1 942 94 10000 1.54 160 22:18 11.01.2022
4350 Clouds 0 1034 93 9000 0.45 90 20:40 11.01.2022
4351 Clouds 1 911 93 7000 1.54 160 19:40 11.01.2022
4352 Mist 2 912 92 4000 1.54 130 17:55 11.01.2022
4353 Mist 2 912 91 5000 1.54 120 16:47 11.01.2022
4354 Clouds 3 912 92 9000 0.89 90 16:28 11.01.2022
4355 Clouds 4 912 92 9000 2.06 130 14:57 11.01.2022
4356 Clouds 4 912 92 9000 0.89 113 14:38 11.01.2022
4357 Clouds 4 913 93 6000 0.89 90 13:53 11.01.2022
4358 Mist 4 912 94 4500 0.45 90 13:28 11.01.2022
4359 Mist 3 846 94 2500 1.54 140 12:36 11.01.2022
4360 Fog 3 912 95 100 0.45 68 10:45 11.01.2022
4361 Fog 2 911 94 100 1.54 120 08:27 11.01.2022
4362 Fog 1 1032 93 250 1.03 100 04:30 11.01.2022
4363 Fog 1 1031 93 250 1.03 100 04:30 11.01.2022
4364 Fog 3 939 94 700 0.51 210 00:28 11.01.2022
4365 Mist 3 939 94 1200 0.51 0 23:40 10.01.2022
4366 Mist 3 939 94 4500 0.51 80 22:43 10.01.2022
4367 Clouds 4 939 94 7000 0 0 22:18 10.01.2022
4368 Clouds 4 939 93 9000 0 0 21:42 10.01.2022
4369 Clouds 4 965 93 9000 0.51 0 21:18 10.01.2022
4370 Clouds 5 938 92 9000 0 0 20:55 10.01.2022
4371 Clouds 5 938 92 10000 1.03 80 20:23 10.01.2022
4372 Clouds 5 938 92 10000 1.03 240 19:39 10.01.2022
4373 Clouds 5 938 92 10000 1.54 320 19:19 10.01.2022
4374 Clouds 5 937 91 10000 2.06 300 18:47 10.01.2022
4375 Clouds 5 904 92 10000 2.06 270 16:59 10.01.2022
4376 Clouds 5 852 92 10000 2.06 270 16:41 10.01.2022
4377 Clouds 6 935 90 10000 0.45 270 14:58 10.01.2022
4378 Clouds 6 934 91 10000 2.57 270 13:35 10.01.2022
4379 Clouds 5 933 93 9000 0.45 270 11:57 10.01.2022
4380 Clouds 5 932 92 9000 0.45 270 11:24 10.01.2022
4381 Clouds 4 931 93 10000 0.89 270 09:40 10.01.2022
4382 Clouds 3 895 93 10000 3.09 270 05:52 10.01.2022
4383 Clouds 3 894 93 10000 2.57 260 04:48 10.01.2022
4384 Clouds 4 923 92 10000 0.45 270 01:22 10.01.2022
4385 Clouds 4 923 91 10000 0.45 270 00:22 10.01.2022
4386 Clouds 4 894 89 10000 0.45 248 23:28 09.01.2022
4387 Clouds 4 894 89 10000 0.45 270 22:21 09.01.2022
4388 Clouds 4 921 92 10000 0.45 270 21:42 09.01.2022
4389 Clouds 4 921 92 10000 0.45 270 21:42 09.01.2022
4390 Clouds 4 893 91 10000 0.45 270 21:22 09.01.2022
4391 Clouds 4 892 91 10000 4.63 260 20:49 09.01.2022
4392 Clouds 4 892 91 10000 4.12 260 20:29 09.01.2022
4393 Clouds 5 892 88 10000 0.45 248 19:44 09.01.2022
4394 Clouds 5 892 88 10000 0.45 248 19:22 09.01.2022
4395 Clouds 5 918 90 10000 0.45 248 18:49 09.01.2022
4396 Clouds 5 888 90 10000 5.14 260 18:30 09.01.2022
4397 Clouds 5 887 91 10000 5.14 260 17:30 09.01.2022
4398 Clouds 5 887 91 10000 5.14 270 16:51 09.01.2022
4399 Clouds 5 886 93 10000 5.14 270 15:52 09.01.2022
4400 Clouds 5 886 92 10000 5.14 270 15:33 09.01.2022
4401 Clouds 5 885 93 10000 6.17 270 14:39 09.01.2022
4402 Clouds 5 915 93 10000 1.34 270 13:50 09.01.2022
4403 Rain 5 914 94 10000 1.34 270 12:31 09.01.2022
4404 Rain 4 913 95 10000 1.79 270 11:48 09.01.2022
4405 Rain 3 912 93 10000 4.12 250 09:59 09.01.2022
4406 Rain 2 911 93 10000 4.12 250 09:41 09.01.2022
4407 Drizzle 3 910 92 10000 0.45 225 08:30 09.01.2022
4408 Clouds 3 910 85 10000 0.45 68 02:31 09.01.2022
4409 Clouds 3 911 85 10000 1.34 68 01:20 09.01.2022
4410 Clouds 3 912 85 10000 1.34 90 23:38 08.01.2022
4411 Clouds 3 913 86 10000 0.89 135 22:59 08.01.2022
4412 Clouds 3 914 85 10000 1.34 90 21:33 08.01.2022
4413 Clouds 3 916 84 10000 1.34 158 20:45 08.01.2022
4414 Clouds 3 886 86 10000 1.34 0 20:24 08.01.2022
4415 Clouds 3 917 84 10000 1.79 135 19:58 08.01.2022
4416 Clear 3 919 83 10000 0.89 90 17:51 08.01.2022
4417 Clear 3 892 80 10000 0.45 90 17:21 08.01.2022
4418 Clouds 3 921 85 10000 2.24 0 15:47 08.01.2022
4419 Clouds 3 922 87 10000 0.45 203 14:40 08.01.2022
4420 Clear 4 924 87 10000 0.89 203 12:44 08.01.2022
4421 Clear 2 1009 89 10000 3.6 250 10:59 08.01.2022
4422 Clear 2 924 93 10000 0.45 0 10:25 08.01.2022
4423 Clear 1 924 92 10000 2.57 230 09:44 08.01.2022
4424 Clouds 1 1008 93 10000 2.57 250 07:18 08.01.2022
4425 Clouds 1 923 92 10000 4.12 240 02:39 08.01.2022
4426 Clouds 1 895 91 10000 3.09 210 00:41 08.01.2022
4427 Snow 2 895 91 10000 4.12 230 22:40 07.01.2022
4428 Clouds 3 924 90 10000 0.45 158 20:56 07.01.2022
4429 Clear 3 924 89 10000 0.45 135 19:56 07.01.2022
4430 Clear 3 924 89 10000 0.45 135 19:56 07.01.2022
4431 Clear 3 924 89 10000 0.45 135 19:56 07.01.2022
4432 Clouds 3 924 88 10000 0.89 68 18:54 07.01.2022
4433 Clouds 3 924 88 10000 0.45 68 18:34 07.01.2022
4434 Clouds 3 924 87 10000 0.89 68 17:25 07.01.2022
4435 Clouds 3 924 88 10000 0.89 68 16:23 07.01.2022
4436 Clouds 3 924 89 10000 4.12 230 13:53 07.01.2022
4437 Clouds 3 924 90 10000 0.45 90 13:19 07.01.2022
4438 Clouds 3 924 89 10000 0.45 180 12:48 07.01.2022
4439 Clouds 2 925 90 10000 0.89 135 09:21 07.01.2022
4440 Clear 1 927 87 10000 0.45 180 02:54 07.01.2022
4441 Clear 1 928 89 10000 0.45 0 01:53 07.01.2022
4442 Clear 1 928 89 10000 0.45 0 01:27 07.01.2022
4443 Clear 1 928 89 10000 0.45 0 00:57 07.01.2022
4444 Clear 1 929 90 10000 3.6 200 22:46 06.01.2022
4445 Clear 1 930 90 10000 3.09 200 21:23 06.01.2022
4446 Clear 1 930 90 10000 3.09 210 20:20 06.01.2022
4447 Clear 1 930 92 10000 2.57 200 19:41 06.01.2022
4448 Clouds 2 930 90 10000 2.06 220 17:54 06.01.2022
4449 Clouds 2 930 90 10000 2.06 220 17:34 06.01.2022
4450 Clouds 3 930 87 10000 3.09 240 16:42 06.01.2022
4451 Clouds 4 899 85 10000 3.09 260 15:46 06.01.2022
4452 Clouds 4 930 83 10000 3.09 260 15:25 06.01.2022
4453 Clouds 5 930 84 10000 0.45 203 14:43 06.01.2022
4454 Clouds 4 930 87 10000 0.45 225 14:18 06.01.2022
4455 Clouds 3 1017 85 10000 4.12 260 12:43 06.01.2022
4456 Clouds 2 1017 88 10000 3.6 260 11:42 06.01.2022
4457 Clouds 2 1017 88 10000 3.6 260 11:42 06.01.2022
4458 Clouds 2 1017 88 10000 3.09 270 11:22 06.01.2022
4459 Clouds 0 927 93 10000 3.09 260 08:51 06.01.2022
4460 Clouds 4 923 88 10000 1.79 248 00:52 06.01.2022
4461 Clouds 4 922 90 10000 1.34 248 23:37 05.01.2022
4462 Clouds 4 921 89 10000 1.79 225 22:56 05.01.2022
4463 Clouds 4 921 90 10000 1.34 225 22:31 05.01.2022
4464 Clouds 4 921 90 10000 0.89 248 21:47 05.01.2022
4465 Clouds 5 893 89 10000 1.34 225 20:56 05.01.2022
4466 Clouds 5 892 89 10000 0.89 248 20:18 05.01.2022
4467 Clouds 5 919 91 10000 1.34 225 18:42 05.01.2022
4468 Clouds 5 918 91 10000 1.34 270 17:23 05.01.2022
4469 Clouds 4 887 92 10000 6.17 280 16:38 05.01.2022
4470 Clouds 4 886 91 10000 6.69 260 15:26 05.01.2022
4471 Clouds 3 885 92 10000 0.89 0 13:51 05.01.2022
4472 Clouds 3 915 92 4000 1.34 248 12:59 05.01.2022
4473 Clouds 3 916 84 10000 1.79 225 10:32 05.01.2022
4474 Clear 2 914 85 10000 0.89 225 07:47 05.01.2022
4475 Clear 3 914 87 10000 0.89 248 06:24 05.01.2022
4476 Clear 4 915 91 10000 0.45 270 00:58 05.01.2022
4477 Clear 4 914 92 10000 3.09 260 23:27 04.01.2022
4478 Clear 4 914 90 10000 0.45 248 22:42 04.01.2022
4479 Clear 4 914 90 10000 2.57 250 21:21 04.01.2022
4480 Clouds 5 914 90 10000 0.45 270 19:20 04.01.2022
4481 Clouds 6 913 93 10000 4.12 290 17:51 04.01.2022
4482 Clouds 6 913 90 7000 0.45 248 16:43 04.01.2022
4483 Clouds 6 913 90 8000 0.45 270 16:23 04.01.2022
4484 Clouds 8 913 87 10000 0.89 248 14:54 04.01.2022
4485 Clouds 8 913 87 10000 0.89 248 14:34 04.01.2022
4486 Clouds 8 913 87 10000 0.89 248 13:27 04.01.2022
4487 Clouds 8 914 88 10000 3.09 220 10:41 04.01.2022
4488 Clouds 8 914 89 10000 0.45 0 09:20 04.01.2022
4489 Clouds 7 914 89 10000 3.6 230 08:30 04.01.2022
4490 Clouds 8 918 89 10000 2.57 210 02:31 04.01.2022
4491 Clouds 8 893 86 10000 0.45 0 00:41 04.01.2022
4492 Clouds 8 893 87 10000 4.12 230 23:19 03.01.2022
4493 Clouds 8 894 91 10000 0.45 0 21:52 03.01.2022
4494 Clouds 8 894 91 10000 3.6 230 21:32 03.01.2022
4495 Clouds 7 894 92 10000 0.89 0 19:56 03.01.2022
4496 Clouds 8 894 90 10000 4.63 250 18:48 03.01.2022
4497 Clouds 8 894 88 10000 6.69 240 18:27 03.01.2022
4498 Clouds 9 896 82 10000 0.89 248 16:58 03.01.2022
4499 Clouds 11 924 79 10000 1.79 248 14:56 03.01.2022
4500 Clouds 11 924 79 10000 1.34 225 14:30 03.01.2022
4501 Clouds 11 925 80 10000 1.34 225 12:39 03.01.2022
4502 Clouds 10 1007 80 10000 1.79 225 11:35 03.01.2022
4503 Clouds 10 925 85 10000 2.68 225 10:27 03.01.2022
4504 Clouds 10 897 85 10000 1.34 225 08:47 03.01.2022
4505 Clouds 9 925 88 10000 2.24 225 07:34 03.01.2022
4506 Clouds 11 1005 86 9000 1.79 248 23:55 02.01.2022
4507 Clouds 11 1005 85 10000 1.79 225 23:21 02.01.2022
4508 Clouds 11 1005 87 10000 0.45 225 22:53 02.01.2022
4509 Clouds 11 1008 86 10000 3.6 240 21:39 02.01.2022
4510 Clouds 11 1009 83 10000 5.14 250 20:33 02.01.2022
4511 Clouds 12 1009 82 10000 1.79 225 19:54 02.01.2022
4512 Clouds 12 1009 82 10000 1.79 248 19:29 02.01.2022
4513 Clouds 12 1009 83 10000 1.34 225 18:44 02.01.2022
4514 Clouds 12 1009 82 10000 1.34 225 17:43 02.01.2022
4515 Clouds 12 1008 82 10000 0.89 225 17:22 02.01.2022
4516 Clouds 13 1008 76 10000 1.34 225 16:59 02.01.2022
4517 Clouds 13 1008 81 10000 2.24 225 16:24 02.01.2022
4518 Clouds 13 1008 82 10000 1.79 225 14:21 02.01.2022
4519 Clear 13 1008 84 10000 0.45 203 12:39 02.01.2022
4520 Clear 12 1009 88 10000 1.34 158 11:57 02.01.2022
4521 Rain 12 1010 90 10000 0.89 203 11:23 02.01.2022
4522 Clouds 12 1011 89 10000 0.89 90 10:44 02.01.2022
4523 Clouds 12 1013 89 10000 0.45 180 08:42 02.01.2022
4524 Clear 11 1016 87 10000 0.45 180 03:25 02.01.2022
4525 Clear 10 1018 87 10000 1.34 90 23:58 01.01.2022
4526 Clear 10 1018 86 10000 0.89 158 23:39 01.01.2022
4527 Clear 11 1019 85 10000 1.34 135 22:55 01.01.2022
4528 Clear 11 1019 85 10000 0.89 135 22:19 01.01.2022
4529 Clear 11 1020 85 10000 1.34 135 21:43 01.01.2022
4530 Clear 11 1020 83 10000 0.45 68 20:53 01.01.2022
4531 Clear 12 1021 81 10000 1.34 90 19:55 01.01.2022
4532 Clouds 13 1021 83 10000 3.09 210 18:58 01.01.2022
4533 Clouds 13 1022 82 10000 2.57 210 17:58 01.01.2022
4534 Clouds 13 1022 83 10000 3.09 230 16:37 01.01.2022
4535 Clouds 13 1022 83 10000 3.09 230 16:19 01.01.2022
4536 Clouds 14 1022 82 10000 3.09 230 15:22 01.01.2022
4537 Clouds 14 1022 78 10000 4.12 250 13:42 01.01.2022
4538 Clouds 14 1023 81 10000 0.45 248 12:49 01.01.2022
4539 Clouds 13 1023 85 10000 4.12 250 11:51 01.01.2022
4540 Clouds 13 1023 85 10000 0.45 203 11:22 01.01.2022
4541 Clouds 13 1023 87 10000 4.12 260 10:26 01.01.2022
4542 Clouds 13 1023 88 10000 0.89 248 09:41 01.01.2022
4543 Clouds 12 1022 88 10000 0.45 270 08:25 01.01.2022
4544 Clouds 12 1022 88 10000 0.89 248 07:41 01.01.2022
4545 Clouds 12 1021 88 10000 0.89 225 06:46 01.01.2022
4546 Clouds 12 1021 88 10000 0.45 248 05:26 01.01.2022
4547 Clouds 12 1021 88 10000 0.89 225 04:37 01.01.2022
4548 Clouds 13 1020 90 10000 2.24 225 00:53 01.01.2022
4549 Clouds 13 1019 90 10000 1.34 225 23:22 31.12.2021
4550 Clouds 13 1018 90 10000 1.34 225 21:52 31.12.2021
4551 Clouds 13 1017 90 10000 1.79 248 20:33 31.12.2021
4552 Clouds 13 1016 85 10000 1.79 248 19:30 31.12.2021
4553 Clouds 13 1015 82 10000 6.69 270 18:32 31.12.2021
4554 Clouds 13 1014 85 10000 1.34 248 17:38 31.12.2021
4555 Clouds 13 1014 84 10000 1.79 248 17:18 31.12.2021
4556 Clouds 14 1014 82 10000 2.24 225 16:21 31.12.2021
4557 Clouds 14 1013 79 10000 2.24 225 15:53 31.12.2021
4558 Clouds 14 1013 79 10000 1.34 225 15:28 31.12.2021
4559 Clouds 14 1013 80 10000 1.79 225 14:47 31.12.2021
4560 Clouds 14 1013 79 10000 1.79 225 14:28 31.12.2021
4561 Clouds 14 1014 80 10000 1.34 225 13:36 31.12.2021
4562 Clouds 14 1014 80 10000 2.68 225 12:45 31.12.2021
4563 Clouds 14 1015 81 10000 1.34 225 11:43 31.12.2021
4564 Clouds 14 1015 81 10000 1.79 225 11:24 31.12.2021
4565 Clouds 14 1015 81 10000 1.79 225 10:34 31.12.2021
4566 Clouds 14 1015 82 10000 1.79 225 09:52 31.12.2021
4567 Clouds 14 1014 82 10000 1.79 225 09:32 31.12.2021
4568 Clouds 13 1015 83 10000 6.69 250 08:25 31.12.2021
4569 Clouds 13 1015 87 10000 1.79 225 07:30 31.12.2021
4570 Drizzle 13 1015 94 5000 1.34 225 23:23 30.12.2021
4571 Clouds 13 1014 93 8000 1.79 248 22:33 30.12.2021
4572 Drizzle 13 1014 94 3800 1.34 225 21:54 30.12.2021
4573 Mist 13 1014 94 3800 1.34 225 21:36 30.12.2021
4574 Drizzle 13 1014 94 3200 2.24 225 20:45 30.12.2021
4575 Clouds 13 1014 95 3000 1.34 248 20:24 30.12.2021
4576 Clouds 13 1014 95 3200 0.89 248 19:44 30.12.2021
4577 Clouds 13 1013 95 10000 0.45 225 18:29 30.12.2021
4578 Drizzle 13 1013 94 3500 0.89 248 17:52 30.12.2021
4579 Clouds 13 1012 93 3500 1.34 270 16:19 30.12.2021
4580 Clouds 13 1012 92 3000 1.34 248 15:42 30.12.2021
4581 Clouds 13 1011 93 2500 1.79 225 14:38 30.12.2021
4582 Clouds 13 1011 94 10000 1.79 248 13:49 30.12.2021
4583 Clouds 13 1011 95 3800 1.79 225 12:40 30.12.2021
4584 Clouds 12 1011 94 10000 0.45 248 10:58 30.12.2021
4585 Clouds 12 1011 93 10000 0.45 225 09:56 30.12.2021
4586 Clouds 11 1011 93 10000 4.63 250 08:56 30.12.2021
4587 Clouds 10 1010 91 10000 0.45 158 06:52 30.12.2021
4588 Clouds 10 1009 94 10000 1.34 225 03:42 30.12.2021
4589 Clouds 10 1008 95 10000 0.89 248 02:42 30.12.2021
4590 Drizzle 8 1006 96 4000 2.06 180 23:42 29.12.2021
4591 Drizzle 7 1005 96 3200 2.57 170 23:22 29.12.2021
4592 Clouds 7 1005 95 10000 2.57 160 22:19 29.12.2021
4593 Clouds 7 1005 95 4800 0.45 90 21:33 29.12.2021
4594 Rain 7 1005 95 9000 0.45 90 20:38 29.12.2021
4595 Clouds 7 1006 95 10000 1.54 170 19:48 29.12.2021
4596 Clouds 7 1005 95 10000 1.54 150 18:52 29.12.2021
4597 Clouds 8 1006 94 10000 2.06 190 17:56 29.12.2021
4598 Clouds 8 1006 94 10000 1.54 200 17:27 29.12.2021
4599 Clouds 8 1006 94 10000 1.03 230 16:24 29.12.2021
4600 Clouds 8 1006 95 10000 1.03 240 15:48 29.12.2021
4601 Drizzle 8 1006 94 7000 0.45 248 14:19 29.12.2021
4602 Clouds 8 1005 95 8000 0.89 248 12:39 29.12.2021
4603 Mist 8 1005 96 2600 0.45 270 11:43 29.12.2021
4604 Mist 7 1004 95 2200 0.45 270 09:59 29.12.2021
4605 Drizzle 6 1002 96 3200 0.45 270 07:52 29.12.2021
4606 Drizzle 6 1001 95 3000 0.89 248 06:39 29.12.2021
4607 Drizzle 6 1000 95 2500 0.45 270 06:18 29.12.2021
4608 Mist 6 1000 95 5000 2.06 240 05:39 29.12.2021
4609 Clouds 6 998 92 10000 2.06 250 02:46 29.12.2021
4610 Clouds 6 995 92 10000 3.09 240 00:23 29.12.2021
4611 Clouds 6 995 91 10000 2.57 240 23:35 28.12.2021
4612 Clouds 6 994 91 10000 2.57 210 22:42 28.12.2021
4613 Clouds 6 994 93 10000 2.06 230 22:24 28.12.2021
4614 Clouds 6 993 93 10000 2.57 240 21:38 28.12.2021
4615 Clouds 6 993 95 10000 2.06 170 20:40 28.12.2021
4616 Clouds 6 992 95 10000 2.06 170 19:25 28.12.2021
4617 Clouds 6 991 95 10000 3.09 170 18:39 28.12.2021
4618 Clouds 6 991 94 10000 3.09 160 17:59 28.12.2021
4619 Clouds 6 991 90 10000 0.45 68 16:34 28.12.2021
4620 Clouds 6 991 89 10000 0.89 68 15:50 28.12.2021
4621 Clouds 7 991 88 10000 0.45 90 15:21 28.12.2021
4622 Clouds 7 992 88 10000 1.34 90 14:48 28.12.2021
4623 Clouds 7 992 88 10000 1.34 90 14:21 28.12.2021
4624 Clouds 7 993 88 10000 0.89 113 13:42 28.12.2021
4625 Clouds 7 993 89 10000 0.89 68 13:24 28.12.2021
4626 Clouds 7 993 89 10000 0.89 68 13:24 28.12.2021
4627 Clouds 7 993 90 10000 1.79 90 12:49 28.12.2021
4628 Clouds 6 994 91 10000 1.79 90 11:46 28.12.2021
4629 Clouds 3 996 94 10000 3.09 100 08:35 28.12.2021
4630 Clouds 3 996 93 10000 3.09 100 06:42 28.12.2021
4631 Clear 2 1000 92 10000 3.6 120 23:44 27.12.2021
4632 Clear 2 999 92 10000 0.45 90 23:23 27.12.2021
4633 Clear 2 1000 92 10000 0.89 68 21:42 27.12.2021
4634 Clouds 2 1000 92 10000 3.6 110 21:21 27.12.2021
4635 Clouds 2 1000 92 10000 0.89 90 20:23 27.12.2021
4636 Clouds 2 1001 92 10000 0.89 90 19:41 27.12.2021
4637 Clouds 2 1001 92 10000 0.45 68 18:34 27.12.2021
4638 Clouds 2 1001 92 9000 0.45 68 17:48 27.12.2021
4639 Clouds 2 1001 91 10000 2.06 110 16:40 27.12.2021
4640 Clouds 1 1001 91 10000 4.12 100 15:52 27.12.2021
4641 Rain 2 1001 89 10000 0.45 68 14:33 27.12.2021
4642 Rain 1 1002 90 10000 0.45 68 13:39 27.12.2021
4643 Clouds 1 1002 89 10000 0.45 68 12:36 27.12.2021
4644 Clouds -1 1003 89 10000 0.89 68 10:31 27.12.2021
4645 Clouds -1 1002 88 10000 0.89 68 09:47 27.12.2021
4646 Clouds -2 1003 88 10000 1.34 68 07:50 27.12.2021
4647 Clouds -2 1003 88 10000 0.45 68 07:29 27.12.2021
4648 Snow -3 1005 86 10000 1.34 68 02:19 27.12.2021
4649 Clouds -4 1007 85 10000 0.89 68 23:58 26.12.2021
4650 Clouds -4 1007 85 10000 1.34 68 23:36 26.12.2021
4651 Clouds -4 1007 81 10000 0.45 68 22:23 26.12.2021
4652 Clouds -4 1008 80 10000 1.34 68 20:59 26.12.2021
4653 Clear -4 1008 79 10000 1.79 45 19:47 26.12.2021
4654 Clear -4 1009 82 10000 1.79 68 18:24 26.12.2021
4655 Clear -4 1009 82 10000 0.89 90 16:55 26.12.2021
4656 Clear -2 1010 80 10000 0.89 68 14:29 26.12.2021
4657 Clear -3 1010 77 10000 1.34 68 13:40 26.12.2021
4658 Clear -3 1010 78 10000 1.79 68 13:20 26.12.2021
4659 Clear -4 1010 78 10000 1.34 90 12:33 26.12.2021
4660 Clear -7 1011 84 10000 1.34 90 10:42 26.12.2021
4661 Clear -9 1011 85 10000 0.45 68 09:25 26.12.2021
4662 Clear -9 1011 85 10000 2.57 100 08:44 26.12.2021
4663 Clear -9 1011 84 10000 3.09 100 07:58 26.12.2021
4664 Clear -8 1012 85 10000 2.57 80 01:29 26.12.2021
4665 Clear -7 1012 84 10000 0.45 68 23:56 25.12.2021
4666 Clear -7 1012 85 10000 1.54 100 23:27 25.12.2021
4667 Clear -7 1013 84 10000 2.57 90 22:26 25.12.2021
4668 Clear -6 1013 83 10000 2.06 110 21:00 25.12.2021
4669 Clear -6 1013 82 10000 2.06 110 19:27 25.12.2021
4670 Clear -6 1014 83 10000 0.45 68 18:56 25.12.2021
4671 Clear -5 1013 81 10000 3.09 80 17:38 25.12.2021
4672 Clear -4 1013 77 10000 0.89 45 16:41 25.12.2021
4673 Clear -3 1013 72 10000 1.79 68 15:24 25.12.2021
4674 Clear -2 1012 72 10000 1.79 90 13:31 25.12.2021
4675 Clear -4 1013 84 10000 4.12 90 11:53 25.12.2021
4676 Clear -5 1012 86 10000 0.89 68 09:57 25.12.2021
4677 Clear -5 1012 87 10000 0.89 113 09:37 25.12.2021
4678 Clear -4 1010 87 10000 0.89 45 04:34 25.12.2021
4679 Clouds -2 1009 85 10000 2.24 45 01:27 25.12.2021
4680 Clouds -1 1008 88 10000 2.68 68 23:47 24.12.2021
4681 Snow 1 1005 97 4500 0.45 68 19:50 24.12.2021
4682 Rain 1 1005 97 5000 1.54 350 19:24 24.12.2021
4683 Snow 2 1003 95 4800 1.54 300 16:59 24.12.2021
4684 Clouds 2 1002 93 7000 2.06 310 16:22 24.12.2021
4685 Snow 3 1002 92 8000 2.06 320 15:48 24.12.2021
4686 Clouds 3 1001 95 6000 0.45 248 15:19 24.12.2021
4687 Clouds 4 1000 94 8000 4.12 350 14:31 24.12.2021
4688 Clouds 5 999 96 5000 7.2 350 13:42 24.12.2021
4689 Clouds 7 999 96 3500 7.2 10 12:49 24.12.2021
4690 Clouds 9 998 90 10000 2.24 248 12:21 24.12.2021
4691 Clouds 9 998 92 9000 2.24 248 11:40 24.12.2021
4692 Clouds 9 998 93 10000 2.24 225 11:18 24.12.2021
4693 Clouds 9 998 93 5000 1.79 225 10:33 24.12.2021
4694 Drizzle 8 997 95 7000 1.79 248 08:36 24.12.2021
4695 Mist 8 997 96 4800 1.34 225 07:58 24.12.2021
4696 Clouds 7 996 96 4500 0.89 248 06:18 24.12.2021
4697 Clouds 5 999 96 3500 0.89 248 00:20 24.12.2021
4698 Clouds 4 999 94 3500 5.14 260 23:33 23.12.2021
4699 Clouds 4 999 94 5000 0.89 225 22:44 23.12.2021
4700 Clouds 4 999 94 8000 0.45 248 22:21 23.12.2021
4701 Clouds 4 1000 93 9000 4.63 240 21:38 23.12.2021
4702 Clouds 3 1001 93 5000 0.89 270 20:21 23.12.2021
4703 Rain 2 1002 91 9000 2.57 210 19:27 23.12.2021
4704 Snow 1 1003 90 10000 1.03 0 17:58 23.12.2021
4705 Snow 1 1003 90 10000 1.54 170 17:18 23.12.2021
4706 Snow 1 1005 89 10000 0.51 0 16:26 23.12.2021
4707 Snow 1 1004 89 10000 1.54 190 15:32 23.12.2021
4708 Rain 1 1005 87 10000 2.57 190 14:56 23.12.2021
4709 Snow 1 1005 85 10000 0.45 135 14:38 23.12.2021
4710 Clear 1 1006 83 10000 0.45 0 13:23 23.12.2021
4711 Clouds 0 1009 84 10000 0.45 203 10:54 23.12.2021
4712 Clouds 0 1010 86 10000 0.45 0 09:52 23.12.2021
4713 Clear 0 1010 86 10000 0.45 158 09:31 23.12.2021
4714 Snow 0 1010 86 10000 0.45 90 08:25 23.12.2021
4715 Clear -1 1013 88 10000 0.89 68 04:39 23.12.2021
4716 Clear -2 1018 91 10000 0.89 90 23:43 22.12.2021
4717 Clear -2 1018 91 10000 0.45 90 22:49 22.12.2021
4718 Clear -2 1019 91 10000 0.45 158 21:57 22.12.2021
4719 Clear -2 1021 91 10000 0.45 0 21:30 22.12.2021
4720 Clear -3 1020 91 10000 0.45 0 20:52 22.12.2021
4721 Clear -2 1020 93 10000 0.45 113 20:33 22.12.2021
4722 Clear -3 1020 92 10000 0.45 90 19:37 22.12.2021
4723 Clouds -2 1023 93 9000 0.45 68 18:19 22.12.2021
4724 Clear -2 1023 91 10000 0.45 90 17:37 22.12.2021
4725 Clear -1 1024 91 10000 1.54 160 15:49 22.12.2021
4726 Clouds -1 1024 90 10000 1.03 0 13:46 22.12.2021
4727 Clear -1 1025 90 10000 1.03 0 12:44 22.12.2021
4728 Clear -3 1025 91 10000 0.45 68 10:48 22.12.2021
4729 Clouds -3 1026 92 7000 0.45 68 09:40 22.12.2021
4730 Mist -4 1026 93 1800 0.45 113 07:48 22.12.2021
4731 Fog -4 1026 92 300 0.89 68 05:51 22.12.2021
4732 Fog -4 1026 92 400 1.03 0 05:28 22.12.2021
4733 Fog -3 1026 92 400 0.45 90 04:54 22.12.2021
4734 Fog -3 1026 92 300 0.89 90 04:31 22.12.2021
4735 Fog -3 1025 94 150 1.54 180 03:34 22.12.2021
4736 Fog -3 1025 93 200 0.45 68 01:37 22.12.2021
4737 Fog -3 1026 91 200 0.45 90 23:33 21.12.2021
4738 Fog -3 1025 94 150 0.45 90 22:29 21.12.2021
4739 Fog -3 1026 93 150 0.45 90 21:51 21.12.2021
4740 Fog -3 1025 93 150 1.03 0 21:24 21.12.2021
4741 Fog -2 1025 94 150 1.54 170 20:23 21.12.2021
4742 Fog -2 1025 93 100 1.03 0 19:52 21.12.2021
4743 Fog -2 1025 94 100 1.03 0 19:26 21.12.2021
4744 Fog -2 1025 94 150 0.51 0 18:22 21.12.2021
4745 Fog -2 1025 94 100 0.51 0 17:51 21.12.2021
4746 Fog -2 1025 95 100 0.51 0 16:39 21.12.2021
4747 Clouds -1 1025 91 10000 0.27 120 15:29 21.12.2021
4748 Fog -1 1027 89 150 1.03 0 13:51 21.12.2021
4749 Fog -1 1026 92 150 1.03 0 13:31 21.12.2021
4750 Fog -1 1024 92 150 1.03 0 11:57 21.12.2021
4751 Clouds -2 1026 91 10000 0.38 229 10:25 21.12.2021
4752 Fog -3 1027 92 150 1.03 0 09:33 21.12.2021
4753 Fog -3 1024 93 150 1.03 0 08:28 21.12.2021
4754 Fog -3 1026 91 150 1.03 0 07:32 21.12.2021
4755 Fog -3 1026 91 300 1.03 0 06:50 21.12.2021
4756 Fog -3 1027 91 600 0.51 290 03:20 21.12.2021
4757 Fog -2 1027 92 900 1.03 290 00:46 21.12.2021
4758 Fog -2 1026 93 500 1.03 250 23:34 20.12.2021
4759 Fog -1 1026 93 900 1.03 0 22:33 20.12.2021
4760 Fog -1 1026 92 700 1.03 0 21:48 20.12.2021
4761 Fog -1 1026 93 800 1.03 260 21:24 20.12.2021
4762 Fog -1 1026 93 800 1.03 250 20:48 20.12.2021
4763 Fog -1 1026 93 2800 1.03 0 19:55 20.12.2021
4764 Fog -1 1026 93 2800 1.03 0 19:31 20.12.2021
4765 Clear 0 1027 95 10000 1.03 0 18:54 20.12.2021
4766 Clear 0 1027 93 10000 1.54 290 17:55 20.12.2021
4767 Clear 1 1027 88 10000 2.06 270 17:25 20.12.2021
4768 Clear 2 1027 86 10000 2.57 270 16:42 20.12.2021
4769 Clear 3 1027 85 10000 2.06 290 15:51 20.12.2021
4770 Clear 4 1027 82 10000 0.45 248 14:53 20.12.2021
4771 Clear 3 1027 85 10000 0.45 248 13:18 20.12.2021
4772 Clear 1 1028 91 10000 2.06 270 11:23 20.12.2021
4773 Clear -1 1027 93 9000 1.54 280 09:51 20.12.2021
4774 Fog -1 1027 93 5000 1.03 0 09:31 20.12.2021
4775 Fog -1 1027 92 800 1.54 290 08:42 20.12.2021
4776 Fog -1 1027 93 700 1.54 270 07:50 20.12.2021
4777 Fog -1 1027 93 700 1.54 270 07:50 20.12.2021
4778 Fog -1 1026 93 500 1.54 270 07:30 20.12.2021
4779 Fog 0 1026 93 300 1.54 280 04:36 20.12.2021
4780 Clear 4 1025 90 10000 2.06 330 23:59 19.12.2021
4781 Clouds 4 1025 88 10000 2.57 320 22:51 19.12.2021
4782 Clear 5 1024 87 10000 0.45 248 21:50 19.12.2021
4783 Clouds 5 1024 84 10000 0.45 248 21:30 19.12.2021
4784 Clouds 6 1024 83 10000 0.45 248 20:32 19.12.2021
4785 Clouds 7 1024 82 10000 0.45 248 19:51 19.12.2021
4786 Clouds 7 1024 81 10000 5.66 340 19:22 19.12.2021
4787 Clouds 7 1023 87 10000 0.89 225 18:29 19.12.2021
4788 Clouds 7 1023 87 10000 0.89 225 18:29 19.12.2021
4789 Clouds 7 1023 88 10000 1.34 248 17:52 19.12.2021
4790 Clouds 7 1022 86 10000 1.34 248 17:19 19.12.2021
4791 Clouds 7 1023 90 10000 1.34 225 16:26 19.12.2021
4792 Drizzle 7 1024 92 10000 1.34 248 15:42 19.12.2021
4793 Drizzle 7 1024 92 10000 1.34 248 15:20 19.12.2021
4794 Clouds 7 1024 92 9000 1.79 248 14:41 19.12.2021
4795 Clouds 7 1025 92 10000 1.34 248 13:22 19.12.2021
4796 Clouds 7 1026 92 4000 2.24 225 12:36 19.12.2021
4797 Clouds 7 1026 92 4000 1.79 225 12:18 19.12.2021
4798 Clouds 7 1027 92 8000 1.34 225 11:18 19.12.2021
4799 Drizzle 7 1027 90 10000 2.24 248 10:25 19.12.2021
4800 Clouds 7 1027 89 10000 1.79 248 09:37 19.12.2021
4801 Clouds 7 1028 89 10000 1.79 248 07:50 19.12.2021
4802 Clouds 7 1029 90 10000 1.34 248 04:45 19.12.2021
4803 Clouds 7 1031 87 10000 1.79 248 01:19 19.12.2021
4804 Clouds 7 1031 90 10000 1.34 248 00:52 19.12.2021
4805 Clouds 8 1033 92 10000 0.89 248 22:36 18.12.2021
4806 Clouds 8 1033 93 10000 1.34 248 21:57 18.12.2021
4807 Clouds 8 1033 93 10000 0.89 248 21:35 18.12.2021
4808 Clouds 8 1033 95 10000 0.45 248 20:44 18.12.2021
4809 Clouds 8 1034 95 10000 0.89 248 19:59 18.12.2021
4810 Clouds 8 1034 95 10000 1.34 248 19:20 18.12.2021
4811 Clouds 8 1035 95 10000 0.89 203 18:21 18.12.2021
4812 Clouds 7 1035 95 10000 0.89 248 17:48 18.12.2021
4813 Drizzle 7 1035 96 10000 0.89 225 16:26 18.12.2021
4814 Drizzle 7 1035 98 10000 0.89 248 15:26 18.12.2021
4815 Drizzle 7 1035 98 6000 0.89 248 14:32 18.12.2021
4816 Drizzle 7 1036 95 2700 0.89 248 13:20 18.12.2021
4817 Drizzle 7 1037 98 1800 0.89 248 11:21 18.12.2021
4818 Drizzle 6 1037 98 2000 0.89 248 09:39 18.12.2021
4819 Mist 6 1037 97 3000 0.45 248 08:46 18.12.2021
4820 Mist 6 1037 98 3500 0.45 248 08:19 18.12.2021
4821 Drizzle 7 1038 97 5000 2.06 300 02:20 18.12.2021
4822 Clouds 7 1038 95 6000 0.45 270 00:27 18.12.2021
4823 Mist 7 1038 95 3000 3.6 310 23:39 17.12.2021
4824 Drizzle 7 1039 98 2200 2.06 280 21:56 17.12.2021
4825 Mist 7 1038 96 5000 2.57 280 20:58 17.12.2021
4826 Mist 7 1038 96 5000 0.45 248 20:38 17.12.2021
4827 Clouds 7 1038 93 6000 2.06 270 19:18 17.12.2021
4828 Clouds 7 1038 92 10000 0.45 270 18:38 17.12.2021
4829 Clouds 7 1039 91 10000 3.6 300 17:26 17.12.2021
4830 Clouds 8 1038 89 10000 0.89 248 16:44 17.12.2021
4831 Clouds 8 1038 91 10000 0.45 248 16:21 17.12.2021
4832 Clouds 8 1038 90 10000 0.89 225 15:20 17.12.2021
4833 Clouds 8 1038 91 10000 3.09 310 14:38 17.12.2021
4834 Drizzle 8 1039 91 8000 0.45 248 12:46 17.12.2021
4835 Clouds 7 1039 91 10000 3.6 310 11:27 17.12.2021
4836 Drizzle 7 1038 92 9000 4.12 310 09:59 17.12.2021
4837 Clouds 7 1038 95 10000 3.6 310 08:58 17.12.2021
4838 Drizzle 7 1038 97 7000 2.06 310 08:29 17.12.2021
4839 Drizzle 7 1038 100 6000 2.57 300 05:41 17.12.2021
4840 Mist 7 1038 95 4500 2.06 300 02:52 17.12.2021
4841 Clouds 8 1039 87 10000 1.54 300 23:20 16.12.2021
4842 Clouds 8 1038 87 10000 2.06 350 22:24 16.12.2021
4843 Clouds 8 1038 87 10000 2.06 350 22:24 16.12.2021
4844 Clouds 8 1038 90 10000 3.6 330 21:47 16.12.2021
4845 Clouds 8 1038 90 10000 2.57 330 21:20 16.12.2021
4846 Clouds 8 1038 89 10000 2.06 290 20:28 16.12.2021
4847 Clouds 8 1038 89 10000 2.06 320 19:36 16.12.2021
4848 Clouds 8 1038 93 10000 2.06 300 18:38 16.12.2021
4849 Clouds 9 1037 92 10000 3.09 310 17:49 16.12.2021
4850 Clouds 9 1037 93 10000 0.45 293 17:19 16.12.2021
4851 Clouds 9 1036 93 9000 2.57 300 16:20 16.12.2021
4852 Clouds 9 1036 92 7000 2.57 280 14:50 16.12.2021
4853 Drizzle 9 1036 94 3200 0.45 248 12:57 16.12.2021
4854 Drizzle 9 1035 95 1800 0.45 270 11:20 16.12.2021
4855 Mist 9 1035 94 3000 0.45 248 10:48 16.12.2021
4856 Mist 9 1035 94 3200 0.89 248 09:59 16.12.2021
4857 Mist 8 1033 100 3200 4.12 270 07:21 16.12.2021
4858 Drizzle 8 1032 97 1800 4.63 270 06:19 16.12.2021
4859 Clouds 8 1031 90 9000 0.45 248 00:53 16.12.2021
4860 Clouds 8 1031 87 10000 2.06 260 23:21 15.12.2021
4861 Clouds 8 1030 83 10000 2.57 260 22:29 15.12.2021
4862 Clouds 9 1031 88 10000 0.45 248 21:49 15.12.2021
4863 Clouds 9 1031 88 10000 0.45 248 21:26 15.12.2021
4864 Clouds 9 1030 90 10000 3.6 260 19:55 15.12.2021
4865 Clouds 9 1030 88 10000 3.6 250 19:35 15.12.2021
4866 Clouds 9 1030 88 10000 0.45 248 18:36 15.12.2021
4867 Clouds 9 1029 90 10000 0.45 225 17:49 15.12.2021
4868 Clouds 9 1029 90 10000 0.45 203 17:27 15.12.2021
4869 Clouds 9 1029 89 10000 4.12 250 16:26 15.12.2021
4870 Clouds 9 1029 89 10000 4.12 260 15:45 15.12.2021
4871 Clouds 10 1029 89 10000 0.89 225 15:27 15.12.2021
4872 Clouds 10 1029 90 10000 4.63 240 13:59 15.12.2021
4873 Drizzle 9 1029 92 8000 0.45 248 12:24 15.12.2021
4874 Clouds 9 1029 94 7000 4.12 250 10:24 15.12.2021
4875 Drizzle 9 1029 93 4000 3.09 240 08:48 15.12.2021
4876 Clouds 9 1027 93 9000 0.45 225 05:59 15.12.2021
4877 Clouds 8 1027 95 6000 2.06 230 00:47 15.12.2021
4878 Drizzle 8 1027 93 3500 2.57 230 23:41 14.12.2021
4879 Mist 8 1027 93 4500 2.06 240 22:47 14.12.2021
4880 Drizzle 8 1027 93 3200 2.57 240 21:48 14.12.2021
4881 Drizzle 8 1027 92 4500 3.09 250 20:26 14.12.2021
4882 Drizzle 8 1027 92 3800 3.09 250 19:40 14.12.2021
4883 Mist 8 1026 92 4500 2.57 240 18:42 14.12.2021
4884 Drizzle 8 1026 91 5000 2.57 240 17:58 14.12.2021
4885 Drizzle 8 1026 93 9000 3.6 250 16:58 14.12.2021
4886 Drizzle 8 1026 93 9000 3.6 250 16:35 14.12.2021
4887 Clouds 9 1025 89 8000 3.6 260 14:52 14.12.2021
4888 Clouds 9 1025 85 10000 0.45 225 13:24 14.12.2021
4889 Clouds 9 1025 82 10000 4.63 260 11:56 14.12.2021
4890 Clouds 8 1025 87 10000 4.12 260 11:22 14.12.2021
4891 Clouds 8 1025 87 10000 3.6 250 09:55 14.12.2021
4892 Clouds 8 1025 87 10000 0.45 225 09:34 14.12.2021
4893 Clouds 8 1025 85 10000 3.09 260 08:23 14.12.2021
4894 Clouds 8 1024 85 10000 3.09 240 07:42 14.12.2021
4895 Clouds 8 1026 87 10000 2.57 210 01:46 14.12.2021
4896 Clouds 9 1026 86 10000 3.09 220 22:49 13.12.2021
4897 Clouds 9 1026 87 10000 3.09 220 21:52 13.12.2021
4898 Clouds 9 1026 87 10000 2.57 240 20:59 13.12.2021
4899 Clouds 9 1027 87 10000 2.57 230 20:31 13.12.2021
4900 Clouds 9 1027 89 10000 2.57 240 19:52 13.12.2021
4901 Clouds 9 1027 89 10000 1.54 240 17:56 13.12.2021
4902 Clouds 9 1026 89 10000 2.06 230 17:23 13.12.2021
4903 Clouds 9 1026 89 10000 2.06 230 17:23 13.12.2021
4904 Clouds 9 1026 88 10000 3.09 250 15:49 13.12.2021
4905 Clouds 10 1026 88 10000 2.57 250 15:18 13.12.2021
4906 Clouds 10 1026 90 10000 3.09 240 13:38 13.12.2021
4907 Clouds 10 1026 90 10000 0.45 225 12:42 13.12.2021
4908 Clouds 10 1026 91 10000 3.09 250 11:54 13.12.2021
4909 Clouds 10 1026 91 10000 3.09 250 11:35 13.12.2021
4910 Clouds 10 1026 93 10000 2.57 250 10:41 13.12.2021
4911 Clouds 9 1025 94 7000 0.45 203 08:52 13.12.2021
4912 Clouds 9 1025 94 6000 4.12 260 07:37 13.12.2021
4913 Mist 9 1024 96 4500 3.6 260 05:23 13.12.2021
4914 Drizzle 8 1023 96 6000 4.63 260 00:43 13.12.2021
4915 Drizzle 7 1022 95 2500 4.12 260 21:59 12.12.2021
4916 Drizzle 7 1022 95 2500 4.12 260 21:33 12.12.2021
4917 Drizzle 7 1021 94 4500 4.12 240 19:38 12.12.2021
4918 Drizzle 7 1021 95 3500 3.6 250 18:35 12.12.2021
4919 Drizzle 6 1020 94 3300 4.12 240 16:58 12.12.2021
4920 Mist 6 1020 95 3500 4.63 240 16:27 12.12.2021
4921 Mist 6 1020 94 2200 0.45 203 15:41 12.12.2021
4922 Drizzle 6 1020 94 4500 4.12 240 15:21 12.12.2021
4923 Drizzle 5 1020 92 10000 0.89 248 14:28 12.12.2021
4924 Clouds 5 1020 90 10000 0.89 225 12:55 12.12.2021
4925 Clouds 5 1020 90 10000 0.45 180 12:24 12.12.2021
4926 Clouds 4 1020 91 6000 0.45 113 11:43 12.12.2021
4927 Clouds 4 1020 90 10000 0.45 135 10:45 12.12.2021
4928 Clouds 3 1020 91 10000 0.89 68 10:21 12.12.2021
4929 Clouds 3 1020 90 10000 0.45 90 08:50 12.12.2021
4930 Clouds 3 1021 86 10000 0.45 113 07:31 12.12.2021
4931 Clear 3 1021 88 10000 2.06 200 05:56 12.12.2021
4932 Clouds 3 1021 90 10000 2.57 170 04:55 12.12.2021
4933 Clouds 2 1021 92 6000 2.06 230 02:52 12.12.2021
4934 Clouds 1 1021 91 10000 1.03 200 23:28 11.12.2021
4935 Clouds 1 1020 91 9000 2.06 200 22:21 11.12.2021
4936 Clouds 1 1020 91 9000 1.54 180 21:47 11.12.2021
4937 Clouds 1 1019 88 8000 2.57 260 20:21 11.12.2021
4938 Clear 1 1018 87 10000 2.06 250 19:21 11.12.2021
4939 Clear 1 1018 87 10000 2.06 250 19:21 11.12.2021
4940 Clear 1 1018 90 10000 3.6 230 18:49 11.12.2021
4941 Clear 1 1018 86 10000 3.09 240 17:56 11.12.2021
4942 Clear 2 1017 86 10000 2.57 240 16:39 11.12.2021
4943 Clear 3 1016 85 10000 2.06 260 15:46 11.12.2021
4944 Clear 4 1015 77 10000 3.6 250 14:46 11.12.2021
4945 Clear 3 1014 85 10000 3.09 260 12:41 11.12.2021
4946 Clouds 1 1013 92 10000 2.57 260 11:18 11.12.2021
4947 Clouds 0 1012 94 7000 1.03 260 09:45 11.12.2021
4948 Fog 0 1008 94 900 2.06 260 05:36 11.12.2021
4949 Mist 0 1002 92 2600 1.03 0 00:50 11.12.2021
4950 Mist 0 1002 93 2400 0.45 45 23:44 10.12.2021
4951 Mist 0 1001 92 2200 1.03 90 23:18 10.12.2021
4952 Fog 0 1000 93 600 0.89 45 21:51 10.12.2021
4953 Clouds 0 999 96 6000 0.45 45 20:35 10.12.2021
4954 Clouds 0 998 95 8000 0.89 45 19:19 10.12.2021
4955 Clouds 1 997 92 10000 0.45 45 17:54 10.12.2021
4956 Clouds 3 996 85 10000 0.45 45 16:41 10.12.2021
4957 Clouds 4 995 83 10000 0.45 90 15:47 10.12.2021
4958 Clouds 4 995 79 10000 0.89 45 15:28 10.12.2021
4959 Clouds 5 995 76 10000 0.89 68 14:56 10.12.2021
4960 Clouds 5 995 77 10000 0.89 68 13:50 10.12.2021
4961 Clouds 5 995 79 10000 0.89 90 13:18 10.12.2021
4962 Clouds 4 995 83 10000 0.45 68 11:43 10.12.2021
4963 Clouds 4 995 84 10000 0.89 68 11:19 10.12.2021
4964 Clouds 3 996 86 10000 2.57 120 09:53 10.12.2021
4965 Clouds 3 996 86 10000 0.89 68 08:23 10.12.2021
4966 Clouds 3 997 87 10000 0.89 68 05:46 10.12.2021
4967 Clouds 3 999 87 10000 0.45 68 02:47 10.12.2021
4968 Clouds 3 1002 84 10000 0.89 90 23:43 09.12.2021
4969 Clouds 3 1002 84 10000 4.12 170 22:44 09.12.2021
4970 Clouds 3 1003 84 10000 3.6 190 22:23 09.12.2021
4971 Clouds 3 1003 87 10000 1.54 150 21:40 09.12.2021
4972 Clouds 3 1003 89 10000 1.54 290 20:38 09.12.2021
4973 Clouds 3 1004 88 10000 1.54 200 19:46 09.12.2021
4974 Clouds 3 1004 88 10000 1.54 200 19:46 09.12.2021
4975 Clouds 3 1004 89 10000 1.54 200 19:20 09.12.2021
4976 Clouds 4 1004 88 10000 1.03 0 18:24 09.12.2021
4977 Clouds 4 1004 87 10000 0.51 210 17:48 09.12.2021
4978 Clouds 4 1004 86 10000 1.03 0 17:24 09.12.2021
4979 Clouds 4 1004 86 10000 1.54 210 16:41 09.12.2021
4980 Clouds 4 1004 86 10000 1.54 120 15:31 09.12.2021
4981 Clouds 4 1003 86 10000 1.54 130 14:43 09.12.2021
4982 Clouds 3 1004 89 6000 1.54 130 12:49 09.12.2021
4983 Mist 3 1004 90 5000 1.54 120 12:24 09.12.2021
4984 Mist 2 1004 92 3500 0.45 68 10:47 09.12.2021
4985 Mist 1 1004 92 2600 0.45 45 08:19 09.12.2021
4986 Mist 2 1003 93 4000 0.45 68 03:59 09.12.2021
4987 Clouds 2 1002 91 10000 2.06 100 01:43 09.12.2021
4988 Clouds 2 1002 91 10000 3.6 90 23:38 08.12.2021
4989 Clouds 2 1002 91 10000 2.57 80 22:59 08.12.2021
4990 Clouds 2 1002 90 10000 2.57 80 22:37 08.12.2021
4991 Clear 2 1002 90 10000 1.54 110 21:39 08.12.2021
4992 Clouds 3 1002 89 10000 2.57 120 20:58 08.12.2021
4993 Clear 3 1001 89 10000 2.57 110 19:57 08.12.2021
4994 Clear 3 1001 89 10000 2.57 100 19:29 08.12.2021
4995 Clear 3 1001 88 10000 0.45 68 18:22 08.12.2021
4996 Clear 4 1000 87 10000 2.57 80 16:55 08.12.2021
4997 Clear 4 999 84 10000 0.45 158 15:45 08.12.2021
4998 Clear 5 999 84 10000 1.34 68 15:23 08.12.2021
4999 Clouds 5 999 83 10000 0.45 68 13:27 08.12.2021
5000 Clouds 4 999 84 10000 0.89 203 10:45 08.12.2021
5001 Clouds 4 999 84 10000 0.89 203 10:45 08.12.2021
5002 Clouds 4 999 84 10000 1.34 68 10:23 08.12.2021
5003 Clouds 3 999 85 10000 1.34 113 08:54 08.12.2021
5004 Clouds 2 998 85 10000 2.24 68 06:36 08.12.2021
5005 Clear 2 1000 86 10000 1.79 90 01:20 08.12.2021
5006 Clear 2 1002 88 10000 1.34 68 23:23 07.12.2021
5007 Clear 2 1004 95 10000 3.6 120 21:26 07.12.2021
5008 Clouds 2 1005 93 8000 1.34 90 20:26 07.12.2021
5009 Clouds 2 1006 95 9000 2.57 130 19:21 07.12.2021
5010 Clouds 3 1007 92 9000 2.57 140 18:32 07.12.2021
5011 Clouds 3 1008 94 10000 0.45 68 17:27 07.12.2021
5012 Clouds 4 1008 94 10000 0.45 45 16:56 07.12.2021
5013 Clouds 4 1008 94 10000 0.89 68 16:26 07.12.2021
5014 Clouds 4 1009 91 10000 2.57 200 14:38 07.12.2021
5015 Clouds 4 1009 91 10000 2.06 180 13:41 07.12.2021
5016 Clouds 3 1008 93 10000 2.06 190 12:22 07.12.2021
5017 Clouds 3 1009 92 10000 1.54 220 11:19 07.12.2021
5018 Clouds 2 1008 94 10000 2.06 180 09:36 07.12.2021
5019 Snow 2 1007 94 7000 0.45 68 07:35 07.12.2021
5020 Snow 1 1006 94 3500 2.06 110 05:51 07.12.2021
5021 Snow 1 1006 94 2800 2.57 120 05:26 07.12.2021
5022 Clear 1 1008 88 10000 1.34 68 23:36 06.12.2021
5023 Clear 1 1009 88 10000 0.89 68 22:41 06.12.2021
5024 Clouds 1 1010 89 9000 2.57 130 21:59 06.12.2021
5025 Clouds 1 1010 89 9000 0.45 90 21:31 06.12.2021
5026 Clouds 1 1011 89 10000 0.89 68 20:32 06.12.2021
5027 Clouds 1 1011 89 10000 2.57 120 19:24 06.12.2021
5028 Clouds 1 1012 88 10000 0.89 68 18:42 06.12.2021
5029 Clouds 2 1012 88 10000 1.34 68 17:54 06.12.2021
5030 Clouds 2 1012 88 10000 0.89 68 17:33 06.12.2021
5031 Clouds 2 1013 87 10000 0.89 68 15:52 06.12.2021
5032 Clouds 2 1013 87 10000 1.34 68 14:40 06.12.2021
5033 Clouds 2 1014 88 9000 1.34 90 13:28 06.12.2021
5034 Clouds 2 1014 88 9000 1.34 68 12:37 06.12.2021
5035 Clouds 2 1015 93 9000 0.45 68 10:23 06.12.2021
5036 Snow 2 1014 94 5000 0.45 68 07:40 06.12.2021
5037 Clouds 2 1012 95 6000 0.45 45 02:28 06.12.2021
5038 Clouds 3 1010 92 6000 0.45 45 22:26 05.12.2021
5039 Mist 3 1009 94 4800 0.45 45 21:25 05.12.2021
5040 Clouds 3 1008 93 6000 2.57 60 20:52 05.12.2021
5041 Clouds 3 1008 92 6000 0.89 45 20:18 05.12.2021
5042 Clouds 3 1007 92 10000 4.12 60 19:24 05.12.2021
5043 Clouds 3 1007 90 10000 1.54 50 18:29 05.12.2021
5044 Clouds 3 1006 89 10000 0.51 0 17:49 05.12.2021
5045 Clouds 3 1006 91 10000 1.03 90 17:20 05.12.2021
5046 Clouds 5 1005 86 10000 1.03 40 16:28 05.12.2021
5047 Clouds 6 1005 85 10000 1.03 270 15:59 05.12.2021
5048 Clouds 6 1003 79 10000 1.03 0 14:48 05.12.2021
5049 Clouds 6 1003 78 10000 1.54 200 14:29 05.12.2021
5050 Clouds 6 1003 80 10000 2.57 210 13:35 05.12.2021
5051 Clouds 6 1003 85 10000 0.45 113 12:45 05.12.2021
5052 Clouds 6 1003 85 10000 2.57 190 12:26 05.12.2021
5053 Clouds 5 1003 90 10000 0.45 158 11:44 05.12.2021
5054 Clouds 4 1002 92 10000 1.54 150 10:25 05.12.2021
5055 Clouds 4 1000 89 10000 0.51 0 09:41 05.12.2021
5056 Clouds 4 997 90 10000 3.6 240 05:30 05.12.2021
5057 Clouds 3 995 91 8000 2.06 190 01:24 05.12.2021
5058 Clouds 3 995 91 8000 2.06 190 01:24 05.12.2021
5059 Snow 1 994 91 9000 0.45 68 22:45 04.12.2021
5060 Snow 1 993 92 6000 1.54 140 21:38 04.12.2021
5061 Rain 2 993 90 8000 0.45 68 20:47 04.12.2021
5062 Clouds 3 993 88 10000 2.06 140 19:54 04.12.2021
5063 Clouds 3 993 88 10000 3.09 130 19:24 04.12.2021
5064 Clouds 4 993 91 10000 1.79 90 17:52 04.12.2021
5065 Clouds 4 993 91 10000 0.89 68 17:32 04.12.2021
5066 Clouds 4 993 93 10000 0.45 68 16:47 04.12.2021
5067 Clouds 4 993 91 10000 0.45 90 16:27 04.12.2021
5068 Clouds 5 995 87 10000 0.89 68 12:57 04.12.2021
5069 Clouds 4 996 89 10000 0.89 68 11:40 04.12.2021
5070 Clouds 4 996 89 10000 1.34 68 11:18 04.12.2021
5071 Clouds 3 997 87 10000 0.45 68 09:44 04.12.2021
5072 Clouds 3 997 92 10000 0.45 68 08:35 04.12.2021
5073 Clouds 3 997 91 10000 0.45 113 05:18 04.12.2021
5074 Clouds 3 997 88 10000 0.45 135 04:39 04.12.2021
5075 Clouds 4 1000 87 10000 0.45 203 23:48 03.12.2021
5076 Clouds 3 1000 87 10000 0.45 225 22:54 03.12.2021
5077 Clouds 3 1000 88 10000 0.89 225 21:58 03.12.2021
5078 Clouds 3 1000 88 10000 0.89 225 21:24 03.12.2021
5079 Clouds 3 1000 86 10000 0.45 225 20:42 03.12.2021
5080 Clouds 3 1001 85 10000 1.34 225 19:29 03.12.2021
5081 Clouds 3 1001 84 10000 0.89 180 18:24 03.12.2021
5082 Rain 3 1002 82 10000 0.89 225 17:33 03.12.2021
5083 Clouds 3 1004 87 10000 1.34 225 13:45 03.12.2021
5084 Clouds 3 1005 88 10000 0.89 225 12:49 03.12.2021
5085 Clouds 2 1006 91 10000 5.66 230 11:24 03.12.2021
5086 Clouds 1 1006 90 10000 4.12 230 09:44 03.12.2021
5087 Clouds 1 1006 90 10000 3.09 240 08:21 03.12.2021
5088 Clear 0 1006 89 10000 0.45 0 07:23 03.12.2021
5089 Clear -1 1006 87 10000 3.6 250 01:43 03.12.2021
5090 Clouds -1 1006 88 10000 4.12 250 00:34 03.12.2021
5091 Clouds -1 1005 90 10000 4.63 270 23:40 02.12.2021
5092 Clear -1 1004 91 10000 3.6 240 21:42 02.12.2021
5093 Clear -1 1004 90 10000 2.06 250 20:56 02.12.2021
5094 Clear -1 1004 90 10000 2.06 250 20:35 02.12.2021
5095 Clear -1 1005 88 10000 2.06 280 19:24 02.12.2021
5096 Clear 1 1001 86 10000 3.09 320 17:36 02.12.2021
5097 Clouds 3 999 85 10000 4.12 320 15:42 02.12.2021
5098 Clouds 3 998 88 10000 0.45 248 14:57 02.12.2021
5099 Clouds 4 998 86 10000 0.45 0 13:54 02.12.2021
5100 Clouds 4 997 86 10000 0.45 248 12:52 02.12.2021
5101 Clouds 3 998 90 10000 0.45 248 11:55 02.12.2021
5102 Clouds 3 996 88 10000 1.54 340 09:29 02.12.2021
5103 Clouds 3 995 87 10000 2.57 330 08:27 02.12.2021
5104 Clouds 4 992 86 10000 1.34 225 03:33 02.12.2021
5105 Clouds 5 990 83 10000 2.24 248 00:51 02.12.2021
5106 Clouds 5 988 85 10000 0.89 225 22:41 01.12.2021
5107 Clouds 5 988 84 10000 2.68 225 22:23 01.12.2021
5108 Clouds 7 986 83 10000 2.68 225 20:36 01.12.2021
5109 Clouds 7 985 83 10000 1.79 225 19:51 01.12.2021
5110 Clouds 7 984 82 10000 3.13 225 19:21 01.12.2021
5111 Clouds 8 983 84 10000 0.45 0 17:42 01.12.2021
5112 Clouds 8 982 81 10000 2.24 225 16:38 01.12.2021
5113 Clouds 9 984 89 10000 2.68 225 14:50 01.12.2021
5114 Clouds 9 984 85 10000 0.45 0 13:44 01.12.2021
5115 Clouds 8 986 87 10000 1.34 113 11:42 01.12.2021
5116 Clouds 8 988 89 10000 1.79 135 10:42 01.12.2021
5117 Clouds 8 989 85 10000 1.79 225 08:58 01.12.2021
5118 Clouds 8 990 87 10000 1.79 225 08:26 01.12.2021
5119 Clouds 8 991 88 10000 1.79 180 07:33 01.12.2021
5120 Rain 7 995 92 10000 4.92 0 04:22 01.12.2021
5121 Rain 6 996 91 8000 0.45 68 03:39 01.12.2021
5122 Rain 6 1000 89 10000 2.57 220 00:51 01.12.2021
5123 Clouds 6 1001 89 10000 2.57 240 23:37 30.11.2021
5124 Clouds 6 1002 88 10000 3.6 260 22:48 30.11.2021
5125 Clouds 6 1002 87 10000 0.45 248 20:59 30.11.2021
5126 Clouds 6 1002 87 10000 5.66 260 20:34 30.11.2021
5127 Clouds 6 1002 87 10000 1.34 248 19:53 30.11.2021
5128 Clouds 6 1001 86 10000 0.89 248 19:30 30.11.2021
5129 Clouds 6 1002 86 10000 0.45 225 19:30 30.11.2021
5130 Clouds 6 1001 86 10000 1.34 248 18:33 30.11.2021
5131 Clouds 6 999 85 10000 0.45 0 16:34 30.11.2021
5132 Clouds 7 998 84 10000 1.79 225 14:58 30.11.2021
5133 Clouds 7 998 83 10000 1.79 225 14:19 30.11.2021
5134 Clouds 8 997 86 10000 1.79 248 13:25 30.11.2021
5135 Clouds 8 997 87 10000 2.68 248 12:45 30.11.2021
5136 Drizzle 7 998 94 7000 1.34 225 11:27 30.11.2021
5137 Drizzle 6 999 94 3500 6.17 270 10:53 30.11.2021
5138 Drizzle 5 997 92 4000 1.79 248 10:30 30.11.2021
5139 Drizzle 4 997 88 7000 1.79 0 08:51 30.11.2021
5140 Drizzle 3 997 89 9000 0.45 0 08:20 30.11.2021
5141 Drizzle 3 997 89 10000 10.29 250 07:40 30.11.2021
5142 Rain 3 1005 88 10000 4.12 240 01:58 30.11.2021
5143 Rain 3 1005 88 10000 2.68 0 01:38 30.11.2021
5144 Clear 2 1006 91 10000 3.09 240 23:57 29.11.2021
5145 Clouds 2 1007 91 10000 0.45 0 23:22 29.11.2021
5146 Clouds 2 1007 91 10000 3.09 250 22:47 29.11.2021
5147 Clouds 2 1007 90 10000 3.09 240 22:29 29.11.2021
5148 Clouds 3 1007 87 10000 3.09 255 21:22 29.11.2021
5149 Clouds 3 1009 93 10000 0.45 248 20:56 29.11.2021
5150 Clouds 3 1007 91 10000 3.09 270 20:22 29.11.2021
5151 Clouds 3 1007 91 10000 0.45 248 19:50 29.11.2021
5152 Clouds 3 1007 91 10000 0.89 248 19:27 29.11.2021
5153 Clouds 2 1008 95 10000 2.39 266 18:48 29.11.2021
5154 Clouds 3 1008 89 10000 3.32 285 17:22 29.11.2021
5155 Clouds 3 1008 89 10000 3.32 285 16:57 29.11.2021
5156 Clouds 3 1007 90 10000 3.43 291 16:28 29.11.2021
5157 Clouds 3 1006 85 10000 3.54 294 15:27 29.11.2021
5158 Clouds 3 1006 85 10000 3.54 294 14:42 29.11.2021
5159 Clouds 3 1005 83 10000 3.47 285 13:28 29.11.2021
5160 Clouds 3 1005 83 10000 3.02 292 12:22 29.11.2021
5161 Clouds 3 1005 83 10000 3.02 292 11:34 29.11.2021
5162 Clouds 2 1005 88 10000 2.29 295 10:32 29.11.2021
5163 Clouds 2 1002 100 10000 2.06 280 08:45 29.11.2021
5164 Clouds 2 1000 93 10000 3.6 280 05:58 29.11.2021
5165 Clouds 3 998 87 10000 2.57 280 01:35 29.11.2021
5166 Clouds 3 998 87 10000 4.12 280 00:38 29.11.2021
5167 Clouds 3 998 93 10000 2.06 280 23:43 28.11.2021
5168 Clouds 3 998 93 10000 3.09 250 22:42 28.11.2021
5169 Clouds 3 998 87 10000 3.09 250 21:41 28.11.2021
5170 Clouds 3 997 87 10000 3.6 250 20:58 28.11.2021
5171 Clouds 3 997 87 10000 2.57 260 19:55 28.11.2021
5172 Clouds 3 997 87 10000 2.57 250 18:45 28.11.2021
5173 Clouds 3 997 93 10000 2.06 260 18:26 28.11.2021
5174 Clouds 3 997 87 10000 2.06 250 17:49 28.11.2021
5175 Clouds 3 997 93 10000 2.06 250 17:30 28.11.2021
5176 Clouds 3 996 93 10000 1.54 260 16:28 28.11.2021
5177 Clouds 3 996 93 10000 2.06 260 15:52 28.11.2021
5178 Clouds 3 996 93 10000 3.6 290 14:56 28.11.2021
5179 Clouds 3 996 93 10000 2.57 280 14:30 28.11.2021
5180 Clouds 2 996 93 10000 3.09 270 12:58 28.11.2021
5181 Drizzle 2 996 93 10000 3.6 280 11:57 28.11.2021
5182 Rain 2 996 87 10000 2.57 270 10:37 28.11.2021
5183 Rain 1 996 87 10000 1.54 240 10:19 28.11.2021
5184 Rain 1 996 86 10000 2.06 260 09:36 28.11.2021
5185 Clouds 0 994 86 10000 1.03 230 05:50 28.11.2021
5186 Clear 2 994 80 10000 1.54 230 23:23 27.11.2021
5187 Clouds 3 993 87 10000 1.54 240 20:33 27.11.2021
5188 Clouds 4 992 81 10000 3.6 250 18:47 27.11.2021
5189 Clouds 4 991 87 10000 1.03 0 16:31 27.11.2021
5190 Clouds 4 990 87 10000 1.54 250 15:32 27.11.2021
5191 Clouds 5 989 81 10000 3.6 230 13:46 27.11.2021
5192 Clouds 4 989 87 10000 3.6 190 12:29 27.11.2021
5193 Rain 4 988 87 10000 2.06 150 10:31 27.11.2021
5194 Rain 3 988 87 10000 1.54 130 09:41 27.11.2021
5195 Rain 3 987 87 10000 2.57 160 07:44 27.11.2021
5196 Clouds 3 986 87 10000 3.09 130 04:55 27.11.2021
5197 Clouds 4 987 81 10000 4.12 130 00:55 27.11.2021
5198 Clouds 4 987 81 10000 5.66 170 23:29 26.11.2021
5199 Rain 4 988 81 10000 4.63 160 22:25 26.11.2021
5200 Rain 3 988 87 10000 4.63 160 21:34 26.11.2021
5201 Rain 3 989 87 10000 5.14 160 20:45 26.11.2021
5202 Rain 4 989 81 10000 4.12 150 19:56 26.11.2021
5203 Rain 4 990 81 10000 4.12 160 19:28 26.11.2021
5204 Rain 4 991 81 10000 4.12 170 17:55 26.11.2021
5205 Clear 4 991 81 10000 4.12 180 17:21 26.11.2021
5206 Clouds 4 992 87 10000 3.6 180 15:46 26.11.2021
5207 Clouds 4 994 88 10000 0.89 0 13:35 26.11.2021
5208 Rain 4 995 88 10000 0.45 0 11:58 26.11.2021
5209 Rain 4 996 91 10000 0.89 0 10:37 26.11.2021
5210 Clouds 4 997 89 8000 0.45 203 08:57 26.11.2021
5211 Clouds 4 997 89 10000 0.45 180 08:21 26.11.2021
5212 Clouds 4 998 87 8000 0.45 0 07:25 26.11.2021
5213 Clouds 4 999 88 10000 3.09 230 06:26 26.11.2021
5214 Clouds 3 1001 86 6000 2.57 250 03:56 26.11.2021
5215 Clouds 3 1003 88 7000 0.45 225 01:53 26.11.2021
5216 Clouds 4 1005 88 6000 4.12 250 22:48 25.11.2021
5217 Clouds 4 1005 85 7000 4.12 260 21:26 25.11.2021
5218 Clouds 4 1005 88 8000 0.45 225 20:27 25.11.2021
5219 Clouds 5 1006 90 8000 0.89 248 18:46 25.11.2021
5220 Clouds 5 1005 90 8000 0.45 248 17:47 25.11.2021
5221 Clouds 5 1006 89 8000 0.89 248 17:25 25.11.2021
5222 Clouds 5 1005 89 8000 4.63 260 16:32 25.11.2021
5223 Clouds 5 1007 84 10000 1.34 248 14:59 25.11.2021
5224 Clouds 6 1008 76 10000 0.45 248 13:37 25.11.2021
5225 Clouds 6 1008 76 10000 0.45 270 12:25 25.11.2021
5226 Clouds 6 1007 79 10000 0.89 203 11:49 25.11.2021
5227 Clouds 5 1009 87 10000 2.57 250 09:26 25.11.2021
5228 Clouds 4 1008 87 10000 1.03 240 05:48 25.11.2021
5229 Clouds 5 1011 89 10000 0.51 0 02:48 25.11.2021
5230 Clouds 5 1014 89 10000 0.51 0 22:57 24.11.2021
5231 Clouds 5 1014 87 10000 1.03 0 22:24 24.11.2021
5232 Clouds 6 1014 82 10000 1.54 200 21:32 24.11.2021
5233 Clouds 6 1015 87 10000 1.54 170 20:50 24.11.2021
5234 Clouds 6 1015 87 10000 0.45 0 20:19 24.11.2021
5235 Clouds 7 1016 83 10000 1.34 0 18:30 24.11.2021
5236 Clouds 6 1017 85 10000 1.03 0 17:57 24.11.2021
5237 Clouds 7 1018 83 10000 2.06 270 15:39 24.11.2021
5238 Clouds 7 1019 86 10000 1.54 230 14:47 24.11.2021
5239 Clouds 8 1019 85 10000 1.54 250 14:20 24.11.2021
5240 Clouds 8 1021 85 10000 3.6 280 12:34 24.11.2021
5241 Clouds 7 1021 87 9000 3.09 270 11:21 24.11.2021
5242 Clouds 7 1022 89 8000 3.09 260 10:48 24.11.2021
5243 Clouds 7 1022 89 8000 3.09 250 10:22 24.11.2021
5244 Mist 6 1022 91 4500 1.54 270 07:54 24.11.2021
5245 Drizzle 6 1023 92 4000 2.06 260 06:55 24.11.2021
5246 Mist 7 1024 91 3800 2.06 260 03:51 24.11.2021
5247 Drizzle 7 1025 91 3500 0.45 248 00:52 24.11.2021
5248 Mist 7 1025 91 3800 2.57 270 22:40 23.11.2021
5249 Mist 7 1025 91 3800 0.45 248 22:20 23.11.2021
5250 Mist 7 1026 91 4000 3.09 280 21:44 23.11.2021
5251 Drizzle 6 1025 92 3500 3.6 260 19:43 23.11.2021
5252 Drizzle 7 1025 92 4200 3.09 280 18:42 23.11.2021
5253 Clouds 7 1025 91 8000 3.09 250 18:20 23.11.2021
5254 Drizzle 7 1025 90 9000 3.6 250 16:58 23.11.2021
5255 Drizzle 7 1025 91 7000 4.12 250 16:20 23.11.2021
5256 Clouds 7 1026 90 10000 0.45 248 15:22 23.11.2021
5257 Clouds 7 1026 91 10000 0.89 225 14:22 23.11.2021
5258 Drizzle 7 1026 91 4000 0.89 225 11:42 23.11.2021
5259 Drizzle 6 1026 91 500 0.89 248 09:59 23.11.2021
5260 Drizzle 6 1026 91 650 0.89 248 09:18 23.11.2021
5261 Clouds 5 1025 90 9000 0.45 248 06:41 23.11.2021
5262 Clouds 5 1025 85 10000 3.09 250 03:51 23.11.2021
5263 Clouds 4 1026 85 10000 2.57 250 00:58 23.11.2021
5264 Clouds 4 1026 85 10000 2.57 270 23:21 22.11.2021
5265 Clouds 3 1026 85 10000 2.57 260 22:47 22.11.2021
5266 Clouds 3 1026 86 10000 3.09 260 22:25 22.11.2021
5267 Clouds 2 1026 86 10000 2.57 260 21:41 22.11.2021
5268 Clouds 2 1025 86 10000 2.06 260 20:52 22.11.2021
5269 Clear 2 1025 88 10000 2.06 260 19:55 22.11.2021
5270 Clouds 3 1025 86 10000 1.54 260 19:19 22.11.2021
5271 Clouds 3 1025 85 10000 2.06 280 18:39 22.11.2021
5272 Clouds 4 1025 86 10000 2.06 290 17:20 22.11.2021
5273 Clear 5 1024 83 10000 2.57 290 16:18 22.11.2021
5274 Clouds 7 1026 74 10000 2.57 320 13:58 22.11.2021
5275 Clear 5 1026 80 10000 1.54 330 11:59 22.11.2021
5276 Clear 3 1025 90 10000 2.06 340 10:41 22.11.2021
5277 Clear 3 1023 89 10000 1.54 330 09:26 22.11.2021
5278 Clear 2 1022 89 10000 1.03 330 08:40 22.11.2021
5279 Clouds 4 1018 88 10000 3.6 360 04:36 22.11.2021
5280 Clouds 4 1014 91 10000 2.06 320 23:26 21.11.2021
5281 Clouds 4 1013 90 10000 2.06 310 22:48 21.11.2021
5282 Clouds 5 1012 89 10000 2.06 290 21:51 21.11.2021
5283 Clouds 4 1011 88 10000 1.54 280 20:42 21.11.2021
5284 Clouds 5 1011 88 10000 2.06 300 19:46 21.11.2021
5285 Clouds 6 1009 88 10000 2.57 280 18:18 21.11.2021
5286 Clouds 7 1009 87 10000 2.57 270 17:38 21.11.2021
5287 Clouds 9 1008 83 10000 0.45 248 15:28 21.11.2021
5288 Clouds 10 1008 84 10000 0.45 225 14:45 21.11.2021
5289 Clouds 9 1009 88 10000 0.45 270 13:40 21.11.2021
5290 Clouds 9 1008 89 10000 0.45 0 12:35 21.11.2021
5291 Clouds 9 1008 91 10000 0.45 248 11:42 21.11.2021
5292 Clouds 8 1009 96 10000 0.45 248 10:55 21.11.2021
5293 Drizzle 8 1007 90 4000 4.12 270 10:18 21.11.2021
5294 Clouds 8 1007 90 7000 4.12 260 08:40 21.11.2021
5295 Drizzle 8 1007 90 4000 0.45 225 08:20 21.11.2021
5296 Drizzle 8 1007 90 4000 4.63 250 07:41 21.11.2021
5297 Drizzle 8 1008 89 5000 0.89 225 05:48 21.11.2021
5298 Drizzle 8 1008 88 4500 0.89 225 04:37 21.11.2021
5299 Drizzle 8 1009 87 8000 0.89 225 03:18 21.11.2021
5300 Drizzle 8 1010 87 9000 0.89 248 02:48 21.11.2021
5301 Clouds 9 1011 86 9000 0.45 225 00:54 21.11.2021
5302 Clouds 9 1012 88 8000 1.34 0 23:41 20.11.2021
5303 Drizzle 9 1014 89 4500 0.45 248 21:39 20.11.2021
5304 Clouds 9 1014 89 6000 5.14 240 20:50 20.11.2021
5305 Clouds 10 1015 84 10000 0.45 225 18:46 20.11.2021
5306 Clouds 10 1016 84 10000 0.45 203 18:26 20.11.2021
5307 Clouds 10 1016 84 10000 0.45 225 17:22 20.11.2021
5308 Clouds 10 1016 84 10000 0.45 248 17:22 20.11.2021
5309 Clouds 10 1017 83 10000 0.45 203 16:41 20.11.2021
5310 Clouds 11 1019 80 10000 0.89 225 14:40 20.11.2021
5311 Clouds 11 1019 78 10000 0.89 225 14:21 20.11.2021
5312 Clouds 11 1021 83 10000 0.89 225 11:56 20.11.2021
5313 Clouds 11 1022 88 10000 4.63 250 10:29 20.11.2021
5314 Clouds 11 1022 87 10000 0.45 0 08:57 20.11.2021
5315 Clouds 11 1023 86 10000 3.6 260 07:20 20.11.2021
5316 Clouds 11 1023 86 10000 4.12 270 05:25 20.11.2021
5317 Clouds 11 1023 87 10000 0.45 248 04:50 20.11.2021
5318 Clouds 11 1024 86 10000 1.34 248 01:41 20.11.2021
5319 Clouds 11 1024 87 10000 5.66 270 00:38 20.11.2021
5320 Clouds 11 1024 86 10000 5.14 270 22:55 19.11.2021
5321 Clouds 11 1024 85 10000 4.63 260 21:57 19.11.2021
5322 Clouds 11 1024 86 10000 3.6 260 20:54 19.11.2021
5323 Clouds 11 1024 86 10000 0.45 0 20:36 19.11.2021
5324 Clouds 11 1024 85 10000 0.89 248 19:49 19.11.2021
5325 Clouds 11 1023 86 10000 4.63 260 18:51 19.11.2021
5326 Clouds 11 1023 85 10000 4.63 260 18:22 19.11.2021
5327 Clouds 12 1023 84 10000 5.66 260 16:47 19.11.2021
5328 Clouds 12 1024 86 10000 0.89 248 15:31 19.11.2021
5329 Clouds 12 1024 86 10000 0.45 248 13:24 19.11.2021
5330 Clouds 11 1024 90 6000 5.66 260 10:27 19.11.2021
5331 Clouds 11 1023 90 6000 0.89 0 09:33 19.11.2021
5332 Drizzle 10 1023 92 3800 5.14 260 07:34 19.11.2021
5333 Drizzle 10 1022 90 3200 6.17 250 04:28 19.11.2021
5334 Drizzle 10 1022 88 3000 5.66 260 01:32 19.11.2021
5335 Drizzle 9 1023 91 2700 5.66 250 23:50 18.11.2021
5336 Clouds 9 1022 84 10000 7.2 250 21:48 18.11.2021
5337 Clouds 10 1022 85 10000 0.89 0 20:48 18.11.2021
5338 Clouds 10 1022 83 10000 1.34 225 20:29 18.11.2021
5339 Clouds 10 1022 83 10000 0.89 248 19:43 18.11.2021
5340 Clouds 10 1022 81 10000 7.2 260 18:41 18.11.2021
5341 Clouds 10 1022 81 10000 7.72 260 18:20 18.11.2021
5342 Clouds 10 1022 80 10000 0.45 0 17:44 18.11.2021
5343 Clouds 10 1022 79 10000 0.45 0 16:44 18.11.2021
5344 Clear 10 1022 78 10000 1.79 225 15:25 18.11.2021
5345 Clouds 11 1023 78 10000 1.34 225 13:29 18.11.2021
5346 Clear 10 1023 83 10000 0.89 248 12:33 18.11.2021
5347 Clouds 10 1024 86 10000 0.45 248 11:41 18.11.2021
5348 Clouds 10 1024 86 10000 0.89 203 11:23 18.11.2021
5349 Clouds 8 1023 87 10000 0.89 225 09:33 18.11.2021
5350 Clear 7 1023 89 10000 5.14 250 07:34 18.11.2021
5351 Clouds 7 1022 87 10000 4.63 260 05:47 18.11.2021
5352 Clear 7 1022 88 10000 4.12 260 04:31 18.11.2021
5353 Clear 6 1021 89 10000 3.6 250 01:22 18.11.2021
5354 Clouds 7 1021 88 10000 0.45 248 22:48 17.11.2021
5355 Clear 7 1021 88 10000 4.12 250 22:20 17.11.2021
5356 Clear 7 1020 89 10000 3.6 250 21:38 17.11.2021
5357 Clear 6 1020 89 10000 4.12 250 20:50 17.11.2021
5358 Clouds 7 1017 86 10000 0.45 0 17:53 17.11.2021
5359 Clouds 7 1017 86 10000 4.63 260 17:25 17.11.2021
5360 Drizzle 7 1017 89 8000 0.45 0 14:47 17.11.2021
5361 Drizzle 7 1016 87 7000 3.6 240 12:40 17.11.2021
5362 Clouds 7 1016 87 10000 0.45 135 11:42 17.11.2021
5363 Clouds 6 1015 84 10000 4.12 240 10:28 17.11.2021
5364 Clouds 5 1018 92 10000 3.09 190 09:24 17.11.2021
5365 Clouds 5 1017 89 10000 3.6 250 07:43 17.11.2021
5366 Drizzle 5 1017 90 5000 1.54 250 03:43 17.11.2021
5367 Drizzle 4 1017 91 6000 1.54 250 01:21 17.11.2021
5368 Drizzle 4 1018 90 8000 2.57 250 23:18 16.11.2021
5369 Drizzle 4 1018 88 6000 1.03 0 21:23 16.11.2021
5370 Drizzle 4 1019 89 9000 1.54 250 20:18 16.11.2021
5371 Clouds 4 1019 89 10000 1.54 220 18:53 16.11.2021
5372 Clouds 4 1019 88 10000 1.54 220 18:34 16.11.2021
5373 Clouds 5 1019 88 10000 1.34 0 17:38 16.11.2021
5374 Clouds 5 1019 87 10000 1.54 220 16:37 16.11.2021
5375 Clouds 5 1019 87 10000 1.54 220 15:50 16.11.2021
5376 Clouds 5 1019 88 7000 1.54 210 15:27 16.11.2021
5377 Drizzle 5 1021 89 4500 1.03 0 11:50 16.11.2021
5378 Drizzle 5 1022 89 5000 2.06 70 09:49 16.11.2021
5379 Drizzle 4 1021 80 5000 1.03 0 08:45 16.11.2021
5380 Clouds 4 1022 87 6000 2.06 90 07:32 16.11.2021
5381 Clouds 5 1023 77 10000 4.12 90 02:20 16.11.2021
5382 Clouds 5 1023 81 9000 3.6 100 23:22 15.11.2021
5383 Clouds 5 1023 81 9000 3.6 110 22:33 15.11.2021
5384 Clouds 5 1024 79 9000 4.12 100 21:53 15.11.2021
5385 Clouds 5 1024 81 9000 1.34 68 21:28 15.11.2021
5386 Clouds 5 1024 82 9000 1.79 45 19:49 15.11.2021
5387 Clouds 6 1024 81 9000 1.34 45 18:47 15.11.2021
5388 Clouds 6 1024 81 10000 0.89 45 16:54 15.11.2021
5389 Clouds 6 1025 80 10000 2.24 68 15:42 15.11.2021
5390 Clouds 6 1025 80 10000 2.24 45 15:24 15.11.2021
5391 Clouds 6 1025 80 10000 1.79 68 13:32 15.11.2021
5392 Clouds 6 1026 84 10000 0.89 68 11:21 15.11.2021
5393 Clouds 5 1026 86 10000 3.13 0 09:28 15.11.2021
5394 Clouds 5 1028 87 8000 5.14 110 07:52 15.11.2021
5395 Clouds 5 1026 85 7000 1.79 0 05:21 15.11.2021
5396 Drizzle 6 1026 87 6000 0.89 68 23:54 14.11.2021
5397 Drizzle 6 1026 89 9000 0.89 23 22:35 14.11.2021
5398 Clouds 7 1025 89 10000 0.45 23 19:57 14.11.2021
5399 Clouds 7 1025 89 10000 0.89 45 19:18 14.11.2021
5400 Clouds 7 1025 89 10000 0.45 45 18:54 14.11.2021
5401 Clouds 7 1025 89 10000 1.79 45 18:36 14.11.2021
5402 Drizzle 8 1025 88 10000 1.34 45 18:18 14.11.2021
5403 Drizzle 8 1025 87 7000 0.89 45 17:56 14.11.2021
5404 Drizzle 8 1025 88 7000 0.89 45 17:38 14.11.2021
5405 Drizzle 8 1024 89 6000 0.45 45 17:20 14.11.2021
5406 Drizzle 8 1024 87 6000 0.89 45 16:47 14.11.2021
5407 Clouds 8 1024 89 7000 1.34 45 16:20 14.11.2021
5408 Drizzle 8 1023 85 9000 1.34 68 15:23 14.11.2021
5409 Drizzle 8 1023 85 9000 0.89 45 14:49 14.11.2021
5410 Clouds 8 1023 85 10000 0.45 68 14:29 14.11.2021
5411 Clouds 9 1023 84 10000 0.89 45 13:54 14.11.2021
5412 Clouds 9 1023 85 10000 0.89 45 13:35 14.11.2021
5413 Clouds 8 1022 87 7000 1.34 45 12:27 14.11.2021
5414 Mist 8 1022 88 5000 0.89 68 11:41 14.11.2021
5415 Mist 8 1022 89 4300 0.45 45 10:42 14.11.2021
5416 Mist 8 1021 91 3800 0.45 45 09:48 14.11.2021
5417 Mist 7 1021 91 3200 0.45 45 08:54 14.11.2021
5418 Drizzle 7 1019 91 2600 2.57 80 07:23 14.11.2021
5419 Clouds 7 1015 87 10000 1.03 90 00:26 14.11.2021
5420 Clouds 7 1015 86 10000 1.03 340 22:26 13.11.2021
5421 Clouds 8 1014 86 10000 1.03 310 21:56 13.11.2021
5422 Clouds 8 1014 83 10000 0.51 0 21:23 13.11.2021
5423 Clouds 7 1013 86 10000 1.03 0 19:47 13.11.2021
5424 Clouds 7 1013 87 10000 0.45 68 18:33 13.11.2021
5425 Clouds 8 1013 86 10000 0.45 0 17:55 13.11.2021
5426 Clouds 8 1012 85 10000 1.03 0 16:37 13.11.2021
5427 Clouds 8 1011 85 10000 2.06 180 15:29 13.11.2021
5428 Clouds 7 1011 86 10000 0.45 90 14:20 13.11.2021
5429 Clouds 7 1011 86 10000 2.68 0 13:32 13.11.2021
5430 Clouds 7 1011 85 10000 2.57 180 12:24 13.11.2021
5431 Clouds 7 1011 86 10000 0.45 158 11:34 13.11.2021
5432 Clouds 6 1010 86 10000 0.89 135 10:45 13.11.2021
5433 Clouds 6 1010 87 10000 0.45 68 10:20 13.11.2021
5434 Clouds 5 1010 87 10000 0.45 158 09:37 13.11.2021
5435 Rain 5 1010 87 10000 0.89 90 08:56 13.11.2021
5436 Rain 5 1009 84 10000 0.89 68 08:23 13.11.2021
5437 Clouds 5 1009 84 10000 0.89 90 04:47 13.11.2021
5438 Clouds 5 1009 84 10000 2.24 0 04:28 13.11.2021
5439 Clear 5 1010 85 10000 0.89 68 01:35 13.11.2021
5440 Clear 4 1011 85 10000 1.79 68 22:58 12.11.2021
5441 Clear 4 1011 86 10000 1.34 68 21:45 12.11.2021
5442 Clear 5 1012 87 10000 1.34 68 19:54 12.11.2021
5443 Clear 5 1012 84 10000 0.45 0 19:27 12.11.2021
5444 Clear 6 1013 84 10000 0.45 90 18:29 12.11.2021
5445 Clear 8 1013 81 10000 2.57 140 16:34 12.11.2021
5446 Clear 9 1014 81 10000 0.45 90 15:32 12.11.2021
5447 Clouds 9 1016 83 10000 0.89 90 11:54 12.11.2021
5448 Clouds 8 1017 85 10000 1.34 68 10:51 12.11.2021
5449 Clouds 8 1017 88 9000 0.89 90 09:44 12.11.2021
5450 Clouds 7 1018 86 9000 2.06 120 08:38 12.11.2021
5451 Mist 8 1021 87 4500 0.51 0 02:32 12.11.2021
5452 Mist 8 1021 87 5000 1.03 300 23:41 11.11.2021
5453 Drizzle 8 1022 86 4500 1.54 270 22:31 11.11.2021
5454 Clouds 8 1022 86 10000 1.03 0 21:27 11.11.2021
5455 Clouds 8 1022 86 10000 1.03 0 20:42 11.11.2021
5456 Clouds 8 1022 87 9000 2.06 240 19:20 11.11.2021
5457 Drizzle 9 1021 80 9000 2.06 260 17:43 11.11.2021
5458 Clouds 9 1021 83 10000 2.06 260 16:54 11.11.2021
5459 Clouds 10 1021 76 10000 3.09 250 14:51 11.11.2021
5460 Clouds 10 1021 76 10000 2.57 250 14:28 11.11.2021
5461 Clouds 10 1021 75 10000 0.89 0 13:39 11.11.2021
5462 Clouds 10 1022 80 10000 2.57 230 12:48 11.11.2021
5463 Clouds 8 1024 90 10000 2.57 220 10:40 11.11.2021
5464 Clouds 7 1022 87 10000 2.06 250 09:36 11.11.2021
5465 Clouds 5 1022 87 10000 1.03 240 07:59 11.11.2021
5466 Clouds 4 1021 87 10000 0.51 0 04:45 11.11.2021
5467 Clouds 3 1022 86 8000 0.51 0 23:35 10.11.2021
5468 Clouds 4 1024 89 7000 0.51 0 22:22 10.11.2021
5469 Clear 4 1024 89 10000 0.51 0 21:21 10.11.2021
5470 Clear 5 1022 84 10000 1.03 0 20:46 10.11.2021
5471 Clear 6 1022 84 10000 0.51 0 19:47 10.11.2021
5472 Clear 5 1022 84 10000 0.51 0 19:47 10.11.2021
5473 Clear 5 1022 84 10000 0.51 0 19:47 10.11.2021
5474 Clear 6 1022 83 10000 0.51 300 19:24 10.11.2021
5475 Clear 8 1022 77 10000 0.51 250 16:34 10.11.2021
5476 Clear 9 1022 72 10000 1.54 270 15:28 10.11.2021
5477 Clear 10 1022 76 10000 2.06 230 13:43 10.11.2021
5478 Clear 9 1024 75 10000 0.45 68 12:50 10.11.2021
5479 Clear 6 1024 86 10000 0.51 0 10:48 10.11.2021
5480 Clear 3 1023 85 10000 0.51 0 08:45 10.11.2021
5481 Clear 2 1022 84 10000 0.51 0 07:44 10.11.2021
5482 Fog 3 1024 89 10000 0.51 0 06:26 10.11.2021
5483 Fog 3 1024 89 10000 0.51 60 05:51 10.11.2021
5484 Clear 5 1024 84 10000 1.54 140 23:53 09.11.2021
5485 Clear 6 1024 81 10000 1.54 130 21:50 09.11.2021
5486 Clear 6 1024 81 10000 1.54 130 21:50 09.11.2021
5487 Clear 7 1025 80 10000 1.54 150 20:32 09.11.2021
5488 Clear 8 1025 78 10000 1.54 170 19:25 09.11.2021
5489 Clear 10 1024 74 10000 2.57 180 17:37 09.11.2021
5490 Clouds 12 1024 66 10000 0.45 113 15:45 09.11.2021
5491 Clouds 13 1025 66 10000 0.45 248 14:43 09.11.2021
5492 Clouds 12 1027 66 10000 0.45 135 12:53 09.11.2021
5493 Clear 11 1028 71 10000 4.12 200 11:56 09.11.2021
5494 Clouds 10 1027 84 10000 2.57 200 10:45 09.11.2021
5495 Clouds 9 1026 87 10000 1.54 210 09:28 09.11.2021
5496 Clouds 8 1025 88 10000 1.03 0 08:26 09.11.2021
5497 Clouds 8 1024 89 10000 1.54 220 05:52 09.11.2021
5498 Clouds 8 1023 89 10000 1.54 280 02:23 09.11.2021
5499 Clouds 8 1023 89 10000 2.57 250 01:45 09.11.2021
5500 Clouds 8 1023 88 10000 1.54 260 23:58 08.11.2021
5501 Clouds 8 1022 89 10000 2.06 250 22:50 08.11.2021
5502 Clouds 8 1022 88 10000 1.54 260 21:59 08.11.2021
5503 Clouds 9 1022 89 10000 0.45 248 20:55 08.11.2021
5504 Clouds 9 1021 89 10000 2.06 250 19:51 08.11.2021
5505 Clouds 9 1020 87 10000 3.09 280 18:30 08.11.2021
5506 Clouds 10 1019 81 10000 0.89 248 16:22 08.11.2021
5507 Clouds 11 1019 71 10000 0.89 248 14:58 08.11.2021
5508 Clouds 11 1018 70 10000 0.89 248 14:38 08.11.2021
5509 Clouds 11 1020 73 10000 0.89 248 13:33 08.11.2021
5510 Clouds 10 1018 73 10000 0.45 225 11:56 08.11.2021
5511 Clouds 9 1018 79 10000 4.63 250 10:52 08.11.2021
5512 Clouds 8 1018 81 10000 0.45 0 09:44 08.11.2021
5513 Clouds 7 1018 83 10000 0.45 0 08:54 08.11.2021
5514 Clouds 7 1017 85 10000 0.45 248 07:35 08.11.2021
5515 Clouds 8 1015 83 10000 0.89 248 03:56 08.11.2021
5516 Clouds 8 1014 82 10000 0.89 225 03:28 08.11.2021
5517 Clouds 8 1013 81 10000 0.89 248 23:46 07.11.2021
5518 Clouds 8 1012 82 10000 0.89 225 21:48 07.11.2021
5519 Clouds 8 1011 78 10000 1.34 248 20:54 07.11.2021
5520 Clouds 8 1011 82 10000 0.89 225 19:30 07.11.2021
5521 Clouds 8 1010 82 10000 4.63 270 18:22 07.11.2021
5522 Clouds 9 1009 74 10000 5.14 270 16:54 07.11.2021
5523 Clouds 10 1009 71 10000 0.45 248 15:48 07.11.2021
5524 Clouds 11 1009 69 10000 1.34 225 14:29 07.11.2021
5525 Clouds 11 1009 69 10000 1.79 225 13:26 07.11.2021
5526 Clouds 11 1010 78 10000 1.34 225 11:42 07.11.2021
5527 Clouds 10 1009 85 10000 0.45 0 09:49 07.11.2021
5528 Clouds 10 1009 86 10000 1.34 225 07:20 07.11.2021
5529 Clouds 10 1012 82 10000 0.89 225 02:38 07.11.2021
5530 Clouds 10 1015 80 10000 0.45 90 23:37 06.11.2021
5531 Clouds 10 1016 81 10000 4.47 0 22:47 06.11.2021
5532 Clouds 10 1017 79 10000 0.45 225 21:33 06.11.2021
5533 Clouds 10 1018 77 10000 7.2 230 20:50 06.11.2021
5534 Clouds 10 1019 75 10000 0.45 0 18:56 06.11.2021
5535 Clouds 10 1020 78 10000 1.34 0 16:46 06.11.2021
5536 Clouds 10 1020 78 10000 1.34 0 16:46 06.11.2021
5537 Clouds 10 1020 78 10000 1.34 0 16:46 06.11.2021
5538 Clouds 10 1022 80 10000 0.45 225 14:38 06.11.2021
5539 Clouds 9 1023 81 10000 0.45 248 13:38 06.11.2021
5540 Clouds 9 1024 84 10000 0.45 203 11:46 06.11.2021
5541 Clouds 8 1024 84 10000 0.89 225 09:23 06.11.2021
5542 Clear 7 1023 86 10000 3.6 240 04:57 06.11.2021
5543 Clouds 7 1023 88 10000 4.12 240 01:27 06.11.2021
5544 Clouds 7 1023 90 10000 3.6 250 23:34 05.11.2021
5545 Clouds 7 1023 91 10000 3.09 250 22:34 05.11.2021
5546 Clouds 8 1022 88 10000 3.09 240 20:51 05.11.2021
5547 Clouds 9 1021 86 7000 3.09 250 20:20 05.11.2021
5548 Clouds 9 1022 89 7000 3.6 240 19:37 05.11.2021
5549 Clouds 9 1021 85 10000 4.63 250 18:39 05.11.2021
5550 Clouds 9 1020 85 10000 3.6 240 17:26 05.11.2021
5551 Clouds 10 1019 85 10000 0.45 248 15:34 05.11.2021
5552 Clouds 10 1019 87 10000 1.34 248 13:35 05.11.2021
5553 Clouds 9 1017 91 8000 1.34 248 10:37 05.11.2021
5554 Drizzle 7 1015 90 5000 4.12 270 08:39 05.11.2021
5555 Clouds 7 1014 91 6000 3.09 260 07:21 05.11.2021
5556 Clouds 7 1011 89 6000 0.45 248 04:43 05.11.2021
5557 Clouds 7 1008 89 8000 4.63 280 02:24 05.11.2021
5558 Clouds 8 1009 92 9000 0.89 248 00:31 05.11.2021
5559 Drizzle 8 1007 92 10000 0.45 248 22:59 04.11.2021
5560 Clouds 8 1007 92 10000 0.89 248 22:18 04.11.2021
5561 Rain 8 1006 92 10000 0.45 225 21:31 04.11.2021
5562 Clouds 8 1005 92 10000 0.89 248 20:40 04.11.2021
5563 Clouds 7 1005 92 10000 0.45 248 20:19 04.11.2021
5564 Clouds 7 1005 92 7000 0.89 248 19:40 04.11.2021
5565 Clouds 7 1004 91 7000 0.89 270 18:44 04.11.2021
5566 Rain 7 1003 88 9000 0.89 248 17:37 04.11.2021
5567 Rain 7 1002 90 8000 0.89 248 16:29 04.11.2021
5568 Drizzle 8 1001 91 7000 0.45 270 14:20 04.11.2021
5569 Drizzle 8 1000 91 7000 0.45 248 11:43 04.11.2021
5570 Drizzle 8 1000 90 7000 3.09 360 09:29 04.11.2021
5571 Rain 7 1000 87 6000 3.09 10 08:29 04.11.2021
5572 Rain 7 1000 87 6000 2.06 10 07:34 04.11.2021
5573 Rain 8 1000 89 6000 2.57 80 23:52 03.11.2021
5574 Rain 8 1000 89 6000 3.09 70 22:49 03.11.2021
5575 Rain 8 1000 89 6000 2.57 80 21:47 03.11.2021
5576 Rain 8 1000 89 6000 3.09 80 21:19 03.11.2021
5577 Rain 8 1000 86 7000 0.45 45 20:33 03.11.2021
5578 Rain 8 1000 85 7000 3.09 60 19:40 03.11.2021
5579 Rain 8 1000 85 10000 2.57 70 18:47 03.11.2021
5580 Rain 8 999 85 10000 0.89 0 17:58 03.11.2021
5581 Rain 8 999 87 10000 0.45 45 16:53 03.11.2021
5582 Rain 9 1000 85 10000 0.45 45 15:56 03.11.2021
5583 Rain 9 1000 81 10000 0.45 45 15:38 03.11.2021
5584 Clouds 10 1000 83 10000 2.57 90 13:46 03.11.2021
5585 Clouds 8 1000 87 10000 1.03 0 11:38 03.11.2021
5586 Clouds 7 1000 86 9000 1.54 130 10:52 03.11.2021
5587 Clouds 7 1000 88 9000 1.54 140 10:18 03.11.2021
5588 Clouds 6 1000 87 10000 1.37 193 09:27 03.11.2021
5589 Fog 4 1000 89 2000 1.03 0 08:20 03.11.2021
5590 Fog 4 1000 89 1600 1.54 150 07:38 03.11.2021
5591 Fog 6 999 87 10000 1.03 0 04:24 03.11.2021
5592 Clouds 7 999 87 10000 2.06 160 01:42 03.11.2021
5593 Clouds 8 999 85 10000 1.03 0 23:32 02.11.2021
5594 Clouds 8 999 86 10000 0.45 0 22:21 02.11.2021
5595 Clouds 7 998 86 10000 1.03 80 20:48 02.11.2021
5596 Clouds 7 998 86 10000 1.03 90 20:23 02.11.2021
5597 Clear 7 998 85 10000 1.54 90 19:40 02.11.2021
5598 Clear 7 998 85 10000 1.03 90 18:36 02.11.2021
5599 Clouds 8 998 83 10000 1.03 130 17:56 02.11.2021
5600 Clouds 9 998 81 10000 0.51 70 17:31 02.11.2021
5601 Clouds 11 998 78 10000 1.03 0 16:26 02.11.2021
5602 Clouds 11 997 72 10000 2.06 230 14:57 02.11.2021
5603 Clouds 11 998 75 10000 1.54 230 13:32 02.11.2021
5604 Clouds 11 998 77 10000 2.57 220 12:59 02.11.2021
5605 Clouds 11 998 77 10000 1.54 180 12:20 02.11.2021
5606 Clouds 10 998 80 10000 2.68 0 11:27 02.11.2021
5607 Clear 10 998 83 10000 2.06 190 10:45 02.11.2021
5608 Clear 9 998 85 10000 0.45 113 10:22 02.11.2021
5609 Clouds 6 998 88 10000 0.45 0 08:22 02.11.2021
5610 Clear 6 998 87 10000 2.06 160 06:29 02.11.2021
5611 Clear 7 998 86 10000 2.57 200 03:30 02.11.2021
5612 Clear 8 998 85 10000 0.45 135 00:25 02.11.2021
5613 Clear 9 999 84 10000 2.57 170 22:19 01.11.2021
5614 Clear 9 999 82 10000 3.09 180 20:46 01.11.2021
5615 Clear 10 999 81 10000 2.57 180 20:26 01.11.2021
5616 Clouds 10 999 80 10000 2.06 170 19:42 01.11.2021
5617 Clouds 10 999 76 10000 1.54 220 18:50 01.11.2021
5618 Clear 12 999 72 10000 2.06 200 17:49 01.11.2021
5619 Clouds 13 998 63 10000 1.54 210 16:57 01.11.2021
5620 Clouds 13 998 61 10000 3.09 230 16:25 01.11.2021
5621 Clouds 14 998 63 10000 1.34 0 15:37 01.11.2021
5622 Clouds 14 998 62 10000 4.12 230 15:18 01.11.2021
5623 Clouds 14 998 62 10000 4.63 210 14:37 01.11.2021
5624 Clouds 14 998 63 10000 0.45 68 14:18 01.11.2021
5625 Clouds 14 998 66 10000 0.45 248 12:38 01.11.2021
5626 Clouds 13 998 69 10000 4.63 200 11:34 01.11.2021
5627 Clouds 12 1000 78 10000 4.63 210 10:20 01.11.2021
5628 Clear 11 998 80 10000 3.09 200 08:19 01.11.2021
5629 Clear 11 998 80 10000 3.6 210 07:46 01.11.2021
5630 Clear 13 997 80 10000 2.06 190 03:53 01.11.2021
5631 Clouds 14 997 78 10000 4.63 230 01:44 01.11.2021
5632 Clear 16 995 66 10000 2.68 0 23:18 31.10.2021
5633 Clear 15 996 75 10000 0.45 68 20:51 31.10.2021
5634 Clear 15 998 81 10000 3.6 90 19:24 31.10.2021
5635 Clear 15 998 82 10000 0.45 68 18:42 31.10.2021
5636 Clouds 15 999 80 10000 2.57 120 17:59 31.10.2021
5637 Clouds 16 1000 76 10000 0.89 68 16:25 31.10.2021
5638 Clouds 17 1002 76 10000 0.45 68 14:39 31.10.2021
5639 Clouds 16 1005 76 10000 0.45 68 12:54 31.10.2021
5640 Clouds 15 1005 76 10000 0.45 68 11:42 31.10.2021
5641 Clouds 14 1005 82 10000 0.89 68 10:48 31.10.2021
5642 Clear 12 1006 86 10000 0.45 90 09:23 31.10.2021
5643 Clear 11 1006 88 10000 0.45 0 08:41 31.10.2021
5644 Clouds 12 1004 82 10000 0.45 113 02:19 31.10.2021
5645 Clouds 12 1003 82 10000 0.89 90 23:41 30.10.2021
5646 Clouds 12 1002 78 10000 0.45 90 21:36 30.10.2021
5647 Clouds 12 1002 77 10000 6.17 200 20:52 30.10.2021
5648 Clear 12 1001 75 10000 0.89 113 19:19 30.10.2021
5649 Clouds 12 1003 79 10000 0.45 90 17:27 30.10.2021
5650 Rain 14 1001 62 10000 0.45 135 15:26 30.10.2021
5651 Clear 13 1003 68 10000 2.06 100 13:40 30.10.2021
5652 Clear 13 1003 68 10000 0.89 0 13:21 30.10.2021
5653 Clear 13 1003 66 10000 0.45 68 12:51 30.10.2021
5654 Clear 12 1005 70 10000 2.06 120 11:44 30.10.2021
5655 Clear 12 1005 69 10000 0.45 135 10:32 30.10.2021
5656 Clear 9 1005 77 10000 3.6 150 08:53 30.10.2021
5657 Clear 9 1005 79 10000 0.89 0 07:29 30.10.2021
5658 Clouds 9 1006 82 10000 0.89 0 05:39 30.10.2021
5659 Clear 11 1007 78 10000 3.09 160 00:56 30.10.2021
5660 Clear 12 1007 77 10000 0.45 158 22:50 29.10.2021
5661 Clear 12 1007 77 10000 0.45 113 22:30 29.10.2021
5662 Clear 12 1006 74 10000 2.06 0 20:46 29.10.2021
5663 Clear 13 1007 75 10000 0.45 113 20:18 29.10.2021
5664 Clear 13 1006 78 10000 3.6 140 18:33 29.10.2021
5665 Clear 15 1007 73 10000 0.45 68 16:54 29.10.2021
5666 Clear 16 1008 66 10000 0.89 68 14:38 29.10.2021
5667 Clear 13 1011 78 10000 0.89 68 11:56 29.10.2021
5668 Clear 11 1010 80 10000 1.34 90 10:44 29.10.2021
5669 Clear 8 1010 86 10000 1.34 68 08:38 29.10.2021
5670 Clear 8 1012 83 10000 0.45 90 00:37 29.10.2021
5671 Clear 9 1012 82 10000 0.45 90 23:25 28.10.2021
5672 Clear 11 1012 79 10000 0.45 68 22:18 28.10.2021
5673 Clear 11 1012 77 10000 0.89 0 20:54 28.10.2021
5674 Clear 12 1013 78 10000 2.06 140 19:50 28.10.2021
5675 Clear 14 1013 76 10000 0.45 0 18:25 28.10.2021
5676 Clear 16 1014 66 10000 1.34 0 17:18 28.10.2021
5677 Clear 17 1015 64 10000 0.89 90 15:48 28.10.2021
5678 Clear 16 1017 68 10000 0.89 68 14:23 28.10.2021
5679 Clear 16 1018 70 10000 0.89 68 13:24 28.10.2021
5680 Clear 15 1018 77 10000 0.89 90 12:41 28.10.2021
5681 Clear 12 1018 84 10000 3.6 170 10:57 28.10.2021
5682 Clear 9 1018 86 10000 0.45 90 09:39 28.10.2021
5683 Clear 8 1018 88 10000 2.06 150 08:59 28.10.2021
5684 Clear 8 1018 88 10000 2.06 150 08:34 28.10.2021
5685 Clear 8 1018 88 10000 0.45 0 07:20 28.10.2021
5686 Clear 10 1019 87 10000 1.54 150 23:59 27.10.2021
5687 Clear 11 1020 87 10000 2.57 180 22:31 27.10.2021
5688 Clear 12 1020 86 10000 2.57 190 21:33 27.10.2021
5689 Clouds 12 1020 85 10000 2.57 180 20:53 27.10.2021
5690 Clouds 13 1020 84 10000 2.57 190 20:33 27.10.2021
5691 Clouds 14 1020 81 10000 2.57 190 19:40 27.10.2021
5692 Clouds 14 1020 81 10000 1.79 0 18:52 27.10.2021
5693 Clouds 16 1021 72 10000 4.63 240 16:27 27.10.2021
5694 Clouds 16 1020 70 10000 6.69 250 15:32 27.10.2021
5695 Clouds 16 1020 71 10000 0.45 225 14:40 27.10.2021
5696 Clouds 15 1021 79 10000 6.69 240 12:33 27.10.2021
5697 Clouds 14 1022 86 10000 5.14 230 10:58 27.10.2021
5698 Drizzle 13 1020 84 10000 1.79 0 09:51 27.10.2021
5699 Drizzle 13 1020 83 10000 2.24 0 08:35 27.10.2021
5700 Clouds 13 1019 84 10000 0.45 0 07:22 27.10.2021
5701 Clouds 13 1019 78 10000 4.63 240 02:24 27.10.2021
5702 Clouds 13 1019 77 10000 4.12 240 00:56 27.10.2021
5703 Clouds 13 1019 78 10000 4.12 240 00:28 27.10.2021
5704 Clouds 13 1019 78 10000 4.12 240 00:28 27.10.2021
5705 Clouds 13 1019 78 10000 0.89 0 23:41 26.10.2021
5706 Clear 13 1019 78 10000 4.12 230 22:38 26.10.2021
5707 Clouds 13 1018 78 10000 4.12 240 21:59 26.10.2021
5708 Clear 13 1018 77 10000 3.6 220 20:36 26.10.2021
5709 Clouds 13 1018 77 10000 0.89 0 19:26 26.10.2021
5710 Clouds 13 1018 78 10000 3.09 220 18:40 26.10.2021
5711 Clouds 14 1017 72 10000 0.45 203 16:22 26.10.2021
5712 Clouds 14 1019 69 10000 7.2 240 14:30 26.10.2021
5713 Clouds 13 1019 83 10000 5.14 250 11:34 26.10.2021
5714 Clouds 12 1019 87 10000 3.6 230 10:20 26.10.2021
5715 Clouds 11 1016 83 10000 2.24 0 07:25 26.10.2021
5716 Clouds 11 1015 84 10000 0.45 0 03:39 26.10.2021
5717 Clouds 11 1015 84 10000 0.45 0 03:39 26.10.2021
5718 Clouds 10 1015 81 10000 3.09 250 23:50 25.10.2021
5719 Clouds 11 1015 78 10000 2.06 210 22:39 25.10.2021
5720 Clouds 11 1015 78 10000 1.54 170 22:18 25.10.2021
5721 Clouds 11 1015 77 10000 0.45 0 21:26 25.10.2021
5722 Clouds 11 1015 77 10000 2.06 170 19:45 25.10.2021
5723 Clouds 11 1015 75 10000 2.06 170 19:25 25.10.2021
5724 Clouds 11 1015 73 10000 1.79 0 18:53 25.10.2021
5725 Clouds 12 1015 69 10000 1.03 0 17:48 25.10.2021
5726 Clouds 14 1016 64 10000 4.02 0 15:41 25.10.2021
5727 Clouds 13 1018 70 10000 3.6 200 13:56 25.10.2021
5728 Clouds 11 1018 74 10000 0.89 90 12:22 25.10.2021
5729 Clear 7 1017 80 10000 0.89 135 10:18 25.10.2021
5730 Clear 4 1017 81 10000 2.57 180 07:47 25.10.2021
5731 Clear 5 1018 79 10000 3.09 180 05:58 25.10.2021
5732 Clear 7 1017 72 10000 1.54 0 00:53 25.10.2021
5733 Clear 7 1017 71 10000 0.45 0 00:35 25.10.2021
5734 Clear 7 1018 72 10000 3.6 150 23:45 24.10.2021
5735 Clear 7 1019 74 10000 1.79 0 22:42 24.10.2021
5736 Clear 7 1019 76 10000 0.45 68 22:21 24.10.2021
5737 Clear 7 1019 77 10000 0.89 68 21:37 24.10.2021
5738 Clear 7 1019 77 10000 0.89 68 21:37 24.10.2021
5739 Clear 7 1020 78 10000 1.54 130 20:42 24.10.2021
5740 Clear 8 1020 77 10000 1.54 110 19:49 24.10.2021
5741 Clear 9 1020 73 10000 2.06 130 18:47 24.10.2021
5742 Clear 11 1021 65 10000 2.57 120 17:48 24.10.2021
5743 Clear 13 1022 58 10000 0.89 68 16:32 24.10.2021
5744 Clear 13 1022 57 10000 0.89 68 15:20 24.10.2021
5745 Clear 11 1025 63 10000 0.89 90 13:23 24.10.2021
5746 Clear 10 1026 73 10000 0.89 68 12:26 24.10.2021
5747 Clear 9 1026 79 10000 0.89 113 11:36 24.10.2021
5748 Clear 7 1025 82 10000 0.89 68 10:40 24.10.2021
5749 Clear 3 1026 86 10000 1.54 140 08:43 24.10.2021
5750 Clear 4 1027 85 10000 2.57 160 02:58 24.10.2021
5751 Clouds 5 1027 85 10000 0.51 0 23:51 23.10.2021
5752 Clouds 6 1027 83 10000 1.03 0 22:40 23.10.2021
5753 Clouds 7 1027 82 10000 2.06 200 20:59 23.10.2021
5754 Clouds 7 1027 81 10000 0.51 200 19:36 23.10.2021
5755 Clouds 9 1026 77 10000 1.03 220 18:43 23.10.2021
5756 Clouds 11 1026 73 10000 2.06 240 17:44 23.10.2021
5757 Clouds 11 1026 68 10000 3.09 270 16:53 23.10.2021
5758 Clouds 11 1027 70 10000 4.63 290 15:20 23.10.2021
5759 Clouds 11 1024 68 10000 5.66 270 13:18 23.10.2021
5760 Clear 6 1018 81 10000 0.45 248 00:36 23.10.2021
5761 Clouds 6 1017 80 10000 0.45 248 23:28 22.10.2021
5762 Clear 7 1015 81 10000 0.45 270 21:27 22.10.2021
5763 Clouds 8 1012 83 10000 0.89 248 19:24 22.10.2021
5764 Rain 8 1011 83 10000 0.89 248 18:20 22.10.2021
5765 Clouds 9 1009 84 10000 0.89 248 16:18 22.10.2021
5766 Rain 9 1007 83 10000 0.89 270 14:31 22.10.2021
5767 Clouds 10 1007 71 10000 1.34 225 12:41 22.10.2021
5768 Clouds 10 1007 71 10000 0.89 225 12:41 22.10.2021
5769 Clouds 9 1008 79 10000 9.77 250 10:52 22.10.2021
5770 Clouds 8 1008 83 10000 0.45 225 09:57 22.10.2021
5771 Clouds 8 1007 76 10000 0.45 225 09:32 22.10.2021
5772 Clouds 8 1007 76 10000 0.45 225 09:32 22.10.2021
5773 Clear 7 1008 79 10000 0.45 248 07:29 22.10.2021
5774 Clear 6 1008 80 10000 0.45 248 06:19 22.10.2021
5775 Clear 6 1007 80 10000 0.89 225 00:37 22.10.2021
5776 Clear 7 1007 80 10000 0.45 225 23:48 21.10.2021
5777 Clouds 7 1006 80 10000 0.89 248 22:22 21.10.2021
5778 Clouds 7 1005 81 10000 0.89 248 21:19 21.10.2021
5779 Clouds 8 1005 83 10000 0.89 248 20:21 21.10.2021
5780 Clouds 8 1002 81 10000 0.89 248 19:30 21.10.2021
5781 Clouds 8 1001 81 10000 0.45 248 18:52 21.10.2021
5782 Clouds 8 1001 85 10000 0.89 225 18:27 21.10.2021
5783 Rain 8 1000 86 10000 0.89 248 17:42 21.10.2021
5784 Rain 9 999 86 9000 0.89 225 16:26 21.10.2021
5785 Rain 11 997 75 10000 0.89 248 15:21 21.10.2021
5786 Clouds 11 997 72 10000 1.34 225 14:50 21.10.2021
5787 Clouds 12 997 87 10000 0.89 248 13:27 21.10.2021
5788 Rain 10 991 84 10000 1.79 225 11:35 21.10.2021
5789 Rain 13 985 77 10000 0.45 225 09:24 21.10.2021
5790 Clouds 13 985 75 10000 9.26 250 07:32 21.10.2021
5791 Rain 14 984 83 10000 1.34 135 05:33 21.10.2021
5792 Clouds 17 996 73 10000 3.13 0 23:56 20.10.2021
5793 Clouds 17 997 74 10000 1.34 0 22:21 20.10.2021
5794 Clouds 17 997 74 10000 7.72 220 21:45 20.10.2021
5795 Clouds 17 997 73 10000 8.49 0 20:57 20.10.2021
5796 Clouds 17 998 73 10000 3.58 0 20:36 20.10.2021
5797 Clouds 17 998 74 10000 2.24 0 19:59 20.10.2021
5798 Clouds 17 999 74 10000 0.45 0 18:59 20.10.2021
5799 Clouds 17 999 73 10000 6.17 230 17:54 20.10.2021
5800 Clouds 18 1001 71 10000 5.36 0 15:47 20.10.2021
5801 Clear 18 1002 65 10000 0.89 135 12:33 20.10.2021
5802 Clear 15 1005 75 10000 0.45 90 09:30 20.10.2021
5803 Clear 14 1007 79 10000 4.92 0 05:24 20.10.2021
5804 Clear 15 1010 84 10000 0.89 0 00:53 20.10.2021
5805 Clouds 15 1011 83 10000 0.89 68 00:26 20.10.2021
5806 Drizzle 15 1012 85 10000 1.79 0 21:47 19.10.2021
5807 Clouds 15 1012 85 10000 0.45 135 21:27 19.10.2021
5808 Clouds 15 1013 83 10000 3.58 0 20:25 19.10.2021
5809 Clouds 15 1013 83 10000 0.45 0 19:45 19.10.2021
5810 Clouds 15 1013 83 10000 0.45 0 19:21 19.10.2021
5811 Drizzle 15 1013 82 10000 3.13 0 17:59 19.10.2021
5812 Clouds 15 1014 81 10000 0.45 203 15:57 19.10.2021
5813 Clouds 15 1014 82 10000 8.05 0 15:20 19.10.2021
5814 Rain 14 1015 81 10000 0.45 68 14:27 19.10.2021
5815 Rain 14 1015 81 10000 0.45 68 14:27 19.10.2021
5816 Clouds 15 1015 79 10000 0.45 0 13:36 19.10.2021
5817 Clouds 14 1016 78 10000 0.45 135 11:37 19.10.2021
5818 Clouds 13 1016 78 10000 0.45 203 10:39 19.10.2021
5819 Clouds 12 1017 80 10000 1.34 0 08:59 19.10.2021
5820 Clouds 11 1016 77 10000 0.45 113 07:50 19.10.2021
5821 Clear 10 1019 79 10000 3.09 180 00:27 19.10.2021
5822 Clear 10 1019 80 10000 0.45 225 23:56 18.10.2021
5823 Clear 10 1019 78 10000 0.45 158 23:20 18.10.2021
5824 Clear 10 1020 78 10000 0.45 0 22:54 18.10.2021
5825 Clear 11 1020 77 10000 1.54 160 21:54 18.10.2021
5826 Clear 11 1019 75 10000 1.54 170 20:42 18.10.2021
5827 Clear 12 1019 75 10000 1.54 140 20:19 18.10.2021
5828 Clear 12 1020 75 10000 0.45 0 19:30 18.10.2021
5829 Clear 12 1019 72 10000 1.54 150 18:58 18.10.2021
5830 Clear 15 1020 61 10000 0.45 113 15:56 18.10.2021
5831 Clear 15 1021 58 10000 0.89 135 14:28 18.10.2021
5832 Clear 12 1024 70 10000 2.57 170 10:55 18.10.2021
5833 Clear 10 1022 76 10000 0.45 113 09:37 18.10.2021
5834 Clear 9 1020 78 10000 1.54 200 05:32 18.10.2021
5835 Clouds 10 1020 77 10000 1.03 230 23:45 17.10.2021
5836 Clear 10 1019 77 10000 1.03 0 21:58 17.10.2021
5837 Clear 10 1019 75 10000 1.03 0 21:40 17.10.2021
5838 Clear 10 1019 76 10000 0.51 230 20:40 17.10.2021
5839 Clear 11 1019 73 10000 1.54 220 19:43 17.10.2021
5840 Clear 11 1019 72 10000 1.54 200 19:24 17.10.2021
5841 Clear 12 1018 70 10000 1.54 230 17:47 17.10.2021
5842 Clear 12 1018 64 10000 3.6 240 15:54 17.10.2021
5843 Clear 13 1018 63 10000 4.12 250 14:32 17.10.2021
5844 Clear 12 1018 64 10000 2.57 240 13:56 17.10.2021
5845 Clouds 11 1018 66 10000 3.09 240 12:35 17.10.2021
5846 Clouds 10 1018 72 10000 3.09 240 10:44 17.10.2021
5847 Clouds 9 1018 73 10000 2.06 250 09:43 17.10.2021
5848 Clear 8 1017 76 10000 2.57 260 07:39 17.10.2021
5849 Clear 6 1020 85 10000 2.06 200 00:56 17.10.2021
5850 Clear 7 1020 84 10000 2.06 200 00:24 17.10.2021
5851 Clouds 8 1019 74 10000 1.54 220 22:31 16.10.2021
5852 Clouds 9 1019 73 10000 1.54 230 20:35 16.10.2021
5853 Clouds 10 1019 75 10000 1.54 220 19:55 16.10.2021
5854 Clouds 10 1019 75 10000 1.54 220 19:37 16.10.2021
5855 Clouds 10 1019 74 10000 1.54 230 19:18 16.10.2021
5856 Clouds 10 1019 74 10000 1.54 220 18:42 16.10.2021
5857 Clouds 10 1019 74 10000 2.06 220 18:18 16.10.2021
5858 Clouds 11 1019 71 10000 2.06 270 17:27 16.10.2021
5859 Clouds 12 1020 68 10000 4.12 260 15:33 16.10.2021
5860 Clouds 11 1021 79 10000 3.23 264 12:30 16.10.2021
5861 Clouds 9 1022 91 10000 2.57 260 10:48 16.10.2021
5862 Clouds 6 1019 86 10000 3.09 260 08:32 16.10.2021
5863 Clear 6 1018 85 10000 1.54 290 01:26 16.10.2021
5864 Clear 6 1018 84 10000 2.06 270 23:57 15.10.2021
5865 Clear 7 1018 84 10000 2.06 250 23:24 15.10.2021
5866 Clear 7 1017 82 10000 2.06 250 22:19 15.10.2021
5867 Clear 8 1017 82 10000 2.57 270 21:29 15.10.2021
5868 Clear 8 1017 82 10000 2.57 270 21:29 15.10.2021
5869 Clear 8 1017 82 10000 2.06 280 20:49 15.10.2021
5870 Clear 9 1016 78 10000 2.06 280 19:38 15.10.2021
5871 Clouds 10 1016 78 10000 3.09 280 18:41 15.10.2021
5872 Clouds 12 1014 75 10000 5.26 298 16:43 15.10.2021
5873 Clouds 13 1013 73 10000 3.6 300 15:36 15.10.2021
5874 Clouds 11 1015 92 10000 0.89 270 13:34 15.10.2021
5875 Clouds 11 1011 84 10000 0.45 270 11:40 15.10.2021
5876 Rain 12 1010 82 8000 0.89 248 10:58 15.10.2021
5877 Clouds 12 1009 77 10000 0.45 270 09:59 15.10.2021
5878 Clouds 12 1011 80 10000 4.63 240 05:44 15.10.2021
5879 Clouds 13 1014 80 10000 4.63 230 01:48 15.10.2021
5880 Clouds 13 1015 80 10000 5.14 230 00:22 15.10.2021
5881 Clouds 13 1016 82 10000 0.45 0 22:52 14.10.2021
5882 Clouds 12 1016 83 10000 1.34 0 21:45 14.10.2021
5883 Clouds 12 1017 85 10000 4.12 250 20:50 14.10.2021
5884 Clouds 12 1017 85 10000 4.12 250 20:50 14.10.2021
5885 Clouds 12 1017 83 10000 4.12 250 20:19 14.10.2021
5886 Clouds 12 1017 80 10000 4.12 250 19:38 14.10.2021
5887 Clouds 13 1017 83 10000 5.14 260 17:37 14.10.2021
5888 Clouds 13 1018 83 10000 4.12 250 16:51 14.10.2021
5889 Clouds 13 1018 83 10000 5.14 260 16:21 14.10.2021
5890 Clouds 13 1018 83 10000 5.66 250 14:43 14.10.2021
5891 Clouds 13 1019 83 10000 0.45 0 14:22 14.10.2021
5892 Clouds 12 1020 84 10000 5.14 250 11:44 14.10.2021
5893 Clouds 11 1019 84 8000 5.14 260 09:57 14.10.2021
5894 Clouds 10 1020 85 10000 0.45 270 07:32 14.10.2021
5895 Clouds 10 1020 94 10000 0.89 0 01:29 14.10.2021
5896 Clouds 10 1021 97 10000 0.45 270 00:28 14.10.2021
5897 Clouds 10 1022 94 10000 3.09 260 21:58 13.10.2021
5898 Clouds 10 1022 94 10000 2.57 260 21:32 13.10.2021
5899 Clouds 10 1022 94 10000 2.06 260 20:22 13.10.2021
5900 Clouds 10 1021 92 10000 3.09 270 18:57 13.10.2021
5901 Clouds 10 1021 93 10000 3.09 270 18:35 13.10.2021
5902 Clouds 13 1021 77 10000 4.63 290 15:32 13.10.2021
5903 Clouds 13 1022 74 10000 0.45 270 14:45 13.10.2021
5904 Clouds 12 1021 74 10000 0.89 0 14:21 13.10.2021
5905 Clouds 11 1022 85 10000 3.6 280 12:22 13.10.2021
5906 Clouds 9 1023 88 10000 4.12 280 11:35 13.10.2021
5907 Fog 6 1021 96 400 2.57 270 08:42 13.10.2021
5908 Fog 6 1021 97 300 2.06 260 06:51 13.10.2021
5909 Fog 6 1018 94 4700 2.06 280 02:28 13.10.2021
5910 Fog 6 1018 94 10000 1.54 270 01:45 13.10.2021
5911 Clouds 7 1017 91 10000 2.57 280 23:30 12.10.2021
5912 Clouds 7 1017 93 10000 2.57 270 22:47 12.10.2021
5913 Clouds 8 1016 93 10000 0.45 293 21:52 12.10.2021
5914 Clouds 8 1016 91 10000 0.45 293 20:41 12.10.2021
5915 Clear 8 1015 91 10000 3.09 290 20:18 12.10.2021
5916 Clouds 9 1014 89 10000 3.09 300 18:36 12.10.2021
5917 Clouds 11 1014 83 10000 0.89 270 17:57 12.10.2021
5918 Clouds 12 1014 74 10000 0.45 270 16:39 12.10.2021
5919 Clouds 13 1014 66 10000 0.45 293 15:58 12.10.2021
5920 Clouds 13 1015 72 10000 3.6 330 14:45 12.10.2021
5921 Clouds 12 1014 77 10000 4.12 330 13:43 12.10.2021
5922 Clouds 12 1015 84 10000 0.45 68 12:35 12.10.2021
5923 Rain 9 1016 93 10000 1.54 360 09:46 12.10.2021
5924 Clouds 9 1016 93 10000 1.03 0 08:43 12.10.2021
5925 Rain 9 1017 94 10000 0.89 270 07:25 12.10.2021
5926 Clouds 9 1018 90 10000 4.12 250 05:29 12.10.2021
5927 Clouds 9 1019 91 10000 4.63 250 04:32 12.10.2021
5928 Clouds 9 1020 94 10000 3.09 270 00:28 12.10.2021
5929 Clouds 9 1020 93 10000 0.45 270 23:40 11.10.2021
5930 Clouds 9 1020 92 10000 0.45 270 22:57 11.10.2021
5931 Clouds 10 1020 94 10000 3.09 260 21:46 11.10.2021
5932 Clouds 10 1020 91 10000 0.45 293 20:39 11.10.2021
5933 Clouds 11 1020 93 10000 2.57 280 19:44 11.10.2021
5934 Clouds 12 1020 90 10000 0.45 270 18:37 11.10.2021
5935 Clouds 13 1020 84 10000 0.45 270 17:46 11.10.2021
5936 Clouds 14 1020 78 10000 0.45 270 16:31 11.10.2021
5937 Clouds 14 1022 84 10000 4.12 270 15:47 11.10.2021
5938 Clouds 13 1021 85 10000 0.45 270 14:54 11.10.2021
5939 Rain 15 1021 78 10000 1.34 270 14:22 11.10.2021
5940 Clouds 15 1021 71 10000 0.45 270 13:36 11.10.2021
5941 Clouds 13 1021 87 10000 0.45 270 11:38 11.10.2021
5942 Mist 11 1023 93 5000 0.45 293 10:31 11.10.2021
5943 Mist 10 1021 94 2000 3.09 260 08:42 11.10.2021
5944 Clouds 8 1021 93 10000 3.09 260 04:54 11.10.2021
5945 Clear 6 1022 91 10000 0.51 280 01:37 11.10.2021
5946 Clouds 6 1022 90 10000 0.51 0 00:45 11.10.2021
5947 Clear 6 1023 89 10000 1.03 0 23:57 10.10.2021
5948 Clear 7 1023 85 10000 0 0 21:51 10.10.2021
5949 Clear 7 1024 81 10000 0.51 0 21:29 10.10.2021
5950 Clear 7 1023 84 10000 0.51 200 20:42 10.10.2021
5951 Clear 8 1023 82 10000 1.54 190 20:20 10.10.2021
5952 Clear 9 1023 80 10000 1.03 0 19:53 10.10.2021
5953 Clear 10 1023 75 10000 1.54 200 19:34 10.10.2021
5954 Clear 13 1023 59 10000 1.54 200 18:32 10.10.2021
5955 Clear 15 1024 45 10000 1.34 0 15:59 10.10.2021
5956 Clear 16 1025 48 10000 1.03 0 15:40 10.10.2021
5957 Clear 14 1026 55 10000 0.45 90 13:42 10.10.2021
5958 Clear 13 1027 55 10000 1.54 0 12:48 10.10.2021
5959 Clear 13 1027 58 10000 1.54 0 12:30 10.10.2021
5960 Clear 9 1026 71 10000 0.89 113 10:42 10.10.2021
5961 Clear 5 1026 90 10000 0.45 90 09:29 10.10.2021
5962 Clear 4 1025 96 10000 0.45 0 08:52 10.10.2021
5963 Clear 2 1026 93 10000 2.57 90 06:54 10.10.2021
5964 Clear 5 1029 85 10000 2.06 100 02:29 10.10.2021
5965 Clear 6 1028 86 10000 2.06 90 00:55 10.10.2021
5966 Clear 6 1028 86 10000 2.06 90 00:55 10.10.2021
5967 Clear 6 1028 85 10000 1.54 90 23:52 09.10.2021
5968 Clear 7 1028 83 10000 2.06 100 22:39 09.10.2021
5969 Clear 8 1028 78 10000 2.06 90 21:31 09.10.2021
5970 Clear 9 1029 77 10000 1.54 90 20:59 09.10.2021
5971 Clear 10 1028 70 10000 1.03 0 19:43 09.10.2021
5972 Clear 12 1028 64 10000 2.57 90 18:57 09.10.2021
5973 Clear 13 1028 54 10000 3.09 90 18:32 09.10.2021
5974 Clear 15 1028 46 10000 1.34 0 16:28 09.10.2021
5975 Clear 15 1029 46 10000 3.58 0 16:28 09.10.2021
5976 Clear 15 1028 46 10000 1.34 0 16:28 09.10.2021
5977 Clear 15 1030 49 10000 4.63 100 14:57 09.10.2021
5978 Clear 14 1031 59 10000 4.63 90 13:41 09.10.2021
5979 Clear 12 1031 76 10000 4.12 100 12:38 09.10.2021
5980 Clear 10 1031 81 10000 4.12 100 11:43 09.10.2021
5981 Clear 8 1031 87 10000 3.6 90 10:38 09.10.2021
5982 Clear 7 1031 90 10000 4.12 90 09:35 09.10.2021
5983 Clear 5 1031 90 10000 2.57 80 08:28 09.10.2021
5984 Clear 5 1031 92 10000 3.09 70 07:37 09.10.2021
5985 Clear 6 1030 92 10000 3.09 90 05:28 09.10.2021
5986 Clear 8 1031 92 6000 3.09 90 02:49 09.10.2021
5987 Clear 9 1030 92 6000 2.06 90 00:58 09.10.2021
5988 Clear 10 1029 93 7000 0.45 0 23:36 08.10.2021
5989 Clear 10 1030 91 10000 2.06 60 22:53 08.10.2021
5990 Clear 11 1030 92 10000 2.06 60 21:48 08.10.2021
5991 Clear 12 1030 87 10000 0.89 0 20:36 08.10.2021
5992 Clouds 14 1029 85 10000 1.34 90 18:50 08.10.2021
5993 Clouds 16 1029 73 10000 0.89 68 17:27 08.10.2021
5994 Clouds 17 1029 72 10000 0.45 135 16:48 08.10.2021
5995 Clouds 17 1029 74 10000 1.34 68 16:22 08.10.2021
5996 Clouds 16 1032 80 10000 1.34 68 13:50 08.10.2021
5997 Clouds 15 1032 83 10000 2.06 90 12:41 08.10.2021
5998 Clear 11 1030 92 10000 1.54 100 10:59 08.10.2021
5999 Clear 10 1031 95 10000 1.54 80 10:25 08.10.2021
6000 Fog 6 1029 95 6000 2.06 90 06:53 08.10.2021
6001 Clear 9 1029 93 10000 1.03 100 23:31 07.10.2021
6002 Clear 9 1029 96 10000 0.51 0 22:57 07.10.2021
6003 Clouds 10 1028 92 10000 0.51 330 21:33 07.10.2021
6004 Clouds 11 1028 91 10000 0.51 0 20:49 07.10.2021
6005 Clouds 12 1028 86 10000 1.03 0 19:39 07.10.2021
6006 Clouds 14 1027 82 10000 0.51 0 18:59 07.10.2021
6007 Clouds 16 1027 69 10000 0.51 0 17:38 07.10.2021
6008 Clouds 17 1027 64 10000 2.06 230 16:42 07.10.2021
6009 Clouds 17 1026 64 10000 1.54 150 14:57 07.10.2021
6010 Clouds 16 1026 70 10000 2.57 180 13:44 07.10.2021
6011 Clouds 16 1026 69 10000 0.45 90 13:20 07.10.2021
6012 Clouds 15 1027 76 10000 1.03 0 11:48 07.10.2021
6013 Clouds 14 1027 82 10000 1.54 110 10:48 07.10.2021
6014 Clouds 14 1027 82 10000 1.54 110 10:48 07.10.2021
6015 Clouds 12 1025 89 10000 1.54 70 09:51 07.10.2021
6016 Clouds 10 1025 91 10000 1.03 100 08:55 07.10.2021
6017 Clouds 10 1024 91 10000 1.03 0 08:20 07.10.2021
6018 Clouds 10 1023 92 10000 1.54 110 07:39 07.10.2021
6019 Clouds 10 1023 92 10000 2.06 90 06:47 07.10.2021
6020 Clouds 11 1019 90 10000 1.79 0 00:55 07.10.2021
6021 Clouds 12 1018 87 10000 2.57 170 23:25 06.10.2021
6022 Clouds 12 1018 87 10000 1.79 0 22:40 06.10.2021
6023 Clouds 12 1017 83 10000 4.47 0 21:40 06.10.2021
6024 Clouds 13 1017 78 10000 2.06 170 20:33 06.10.2021
6025 Clouds 13 1016 76 10000 0.45 0 19:23 06.10.2021
6026 Clouds 14 1015 70 10000 1.34 0 17:41 06.10.2021
6027 Clouds 15 1012 65 10000 1.34 0 15:44 06.10.2021
6028 Clouds 15 1013 73 10000 3.13 0 14:53 06.10.2021
6029 Rain 14 1013 72 10000 0.45 225 13:25 06.10.2021
6030 Clouds 15 1012 65 10000 2.24 0 12:47 06.10.2021
6031 Clouds 15 1011 67 10000 4.02 0 12:26 06.10.2021
6032 Clouds 14 1010 67 10000 0.89 0 11:35 06.10.2021
6033 Clouds 14 1010 67 10000 0.89 0 11:35 06.10.2021
6034 Clear 12 1009 78 10000 2.24 0 09:40 06.10.2021
6035 Clouds 12 1008 83 10000 9.39 0 08:59 06.10.2021
6036 Clouds 11 1009 85 10000 2.24 0 08:31 06.10.2021
6037 Clouds 11 1008 89 10000 5.81 0 06:18 06.10.2021
6038 Clouds 13 1006 88 10000 2.57 230 02:19 06.10.2021
6039 Clouds 13 1005 89 10000 4.12 230 00:24 06.10.2021
6040 Rain 14 1005 89 10000 4.63 220 23:51 05.10.2021
6041 Rain 14 1004 89 10000 1.79 0 23:30 05.10.2021
6042 Clear 14 1004 88 10000 0.89 0 22:31 05.10.2021
6043 Clear 14 1004 88 10000 0.45 90 21:57 05.10.2021
6044 Clear 14 1004 88 10000 0.45 90 21:57 05.10.2021
6045 Clear 13 1004 86 10000 0.45 90 21:20 05.10.2021
6046 Clear 13 1004 85 10000 0.45 158 20:26 05.10.2021
6047 Clear 14 1005 83 10000 0.45 90 19:51 05.10.2021
6048 Clear 14 1005 82 10000 0.45 113 19:24 05.10.2021
6049 Clouds 15 1004 79 10000 4.02 0 18:21 05.10.2021
6050 Clouds 15 1005 85 10000 2.57 130 15:33 05.10.2021
6051 Clouds 14 1008 88 10000 0.45 90 13:49 05.10.2021
6052 Clouds 13 1007 90 10000 0.45 90 13:22 05.10.2021
6053 Clouds 13 1007 92 10000 0.45 113 12:33 05.10.2021
6054 Rain 12 1008 91 10000 2.06 120 11:41 05.10.2021
6055 Rain 12 1008 90 10000 0.45 90 10:34 05.10.2021
6056 Clear 11 1010 90 10000 0.45 90 07:38 05.10.2021
6057 Clear 11 1014 87 10000 2.06 180 01:28 05.10.2021
6058 Clear 12 1015 86 10000 2.06 160 22:53 04.10.2021
6059 Clear 13 1015 82 10000 0.45 158 21:23 04.10.2021
6060 Clear 16 1015 69 10000 2.24 0 18:48 04.10.2021
6061 Clear 17 1015 63 10000 0.45 90 17:26 04.10.2021
6062 Clear 17 1015 64 10000 7.6 0 15:32 04.10.2021
6063 Clear 17 1015 65 10000 0.45 135 14:45 04.10.2021
6064 Clear 16 1015 68 10000 0.89 113 13:59 04.10.2021
6065 Clear 16 1015 69 10000 0.45 113 13:31 04.10.2021
6066 Rain 15 1015 70 10000 0.45 158 12:50 04.10.2021
6067 Rain 15 1015 75 10000 2.68 0 11:33 04.10.2021
6068 Rain 14 1015 75 10000 3.09 200 10:45 04.10.2021
6069 Rain 13 1015 78 10000 4.02 0 09:35 04.10.2021
6070 Clear 13 1013 81 10000 2.57 210 07:53 04.10.2021
6071 Clear 12 1013 84 10000 2.57 210 06:42 04.10.2021
6072 Rain 15 1008 86 10000 0.89 270 22:48 03.10.2021
6073 Clouds 18 1006 81 10000 0.45 270 21:54 03.10.2021
6074 Rain 19 1005 74 10000 0.45 0 21:29 03.10.2021
6075 Clouds 20 1005 66 10000 0.45 68 20:44 03.10.2021
6076 Rain 21 1002 61 10000 1.34 158 19:46 03.10.2021
6077 Clear 22 1000 55 10000 0.89 135 18:29 03.10.2021
6078 Clear 22 1000 52 10000 1.34 90 17:36 03.10.2021
6079 Clear 21 999 58 10000 0.89 158 14:50 03.10.2021
6080 Rain 21 999 58 10000 1.34 158 14:29 03.10.2021
6081 Rain 21 999 59 10000 0.45 135 13:35 03.10.2021
6082 Rain 20 999 63 10000 0.89 203 12:45 03.10.2021
6083 Rain 20 999 63 10000 1.34 90 11:19 03.10.2021
6084 Rain 19 999 66 10000 0.45 113 09:57 03.10.2021
6085 Clouds 19 998 65 10000 0.89 135 05:25 03.10.2021
6086 Clear 16 1002 73 10000 0.45 0 22:52 02.10.2021
6087 Clear 16 1003 76 10000 0.45 0 21:49 02.10.2021
6088 Clear 16 1004 81 10000 0.45 113 20:18 02.10.2021
6089 Clouds 16 1006 79 10000 2.57 160 18:56 02.10.2021
6090 Clouds 16 1006 79 10000 0.45 0 18:56 02.10.2021
6091 Clouds 16 1006 79 10000 2.57 160 18:56 02.10.2021
6092 Clear 17 1006 76 10000 0.45 0 18:20 02.10.2021
6093 Clouds 17 1008 76 10000 0.45 90 17:37 02.10.2021
6094 Clouds 17 1007 74 10000 0.45 0 16:28 02.10.2021
6095 Clouds 12 1011 90 10000 0.45 0 06:47 02.10.2021
6096 Clouds 16 1021 55 10000 6.69 250 15:37 30.09.2021
6097 Clouds 15 1024 59 10000 6.69 260 13:54 30.09.2021
6098 Clouds 13 1024 71 10000 6.69 250 11:53 30.09.2021
6099 Clear 12 1023 76 10000 7.72 240 10:52 30.09.2021
6100 Clear 12 1020 75 10000 1.34 0 10:20 30.09.2021
6101 Clear 10 1020 85 10000 5.66 250 08:30 30.09.2021
6102 Clear 9 1020 90 10000 1.79 0 07:35 30.09.2021
6103 Clouds 10 1019 89 10000 6.17 250 05:23 30.09.2021
6104 Clouds 10 1018 89 10000 7.72 240 01:41 30.09.2021
6105 Clouds 10 1016 86 10000 0.45 248 00:29 30.09.2021
6106 Clouds 10 1016 89 10000 6.17 250 22:38 29.09.2021
6107 Clouds 11 1016 87 10000 0.45 248 21:27 29.09.2021
6108 Clouds 11 1015 87 10000 7.72 240 20:28 29.09.2021
6109 Clouds 11 1015 88 10000 0.45 248 19:54 29.09.2021
6110 Clouds 12 1014 88 10000 5.14 240 18:52 29.09.2021
6111 Rain 13 1014 90 10000 0.45 225 17:52 29.09.2021
6112 Rain 13 1013 93 10000 4.63 240 16:51 29.09.2021
6113 Rain 14 1012 91 10000 4.12 210 15:58 29.09.2021
6114 Clouds 16 1013 74 10000 2.57 220 14:39 29.09.2021
6115 Clouds 17 1012 68 10000 0.45 0 13:58 29.09.2021
6116 Clouds 18 1012 62 10000 0.89 113 13:18 29.09.2021
6117 Clouds 16 1015 73 10000 3.09 180 12:35 29.09.2021
6118 Clouds 14 1013 87 10000 0.45 113 10:49 29.09.2021
6119 Clouds 13 1015 90 10000 2.06 120 09:51 29.09.2021
6120 Clouds 12 1014 92 10000 2.24 0 09:24 29.09.2021
6121 Clouds 11 1015 92 10000 2.06 130 07:32 29.09.2021
6122 Clouds 11 1016 92 10000 1.03 0 04:19 29.09.2021
6123 Clear 12 1019 91 10000 2.06 100 23:27 28.09.2021
6124 Clear 12 1019 89 10000 2.06 90 22:23 28.09.2021
6125 Clear 13 1019 90 10000 1.54 100 21:44 28.09.2021
6126 Clear 14 1019 87 10000 1.54 80 20:38 28.09.2021
6127 Clouds 15 1019 82 10000 0.51 0 19:46 28.09.2021
6128 Clouds 17 1019 73 10000 1.03 0 18:46 28.09.2021
6129 Clouds 18 1020 70 10000 1.54 200 17:59 28.09.2021
6130 Clouds 18 1020 67 10000 1.03 0 16:23 28.09.2021
6131 Clouds 18 1022 69 10000 2.57 260 13:49 28.09.2021
6132 Clouds 17 1021 73 10000 0.45 0 12:48 28.09.2021
6133 Clouds 16 1023 75 10000 2.57 280 12:19 28.09.2021
6134 Clouds 16 1023 78 10000 3.09 260 11:45 28.09.2021
6135 Clouds 16 1023 82 10000 3.09 240 11:19 28.09.2021
6136 Clouds 14 1022 92 10000 2.57 240 10:19 28.09.2021
6137 Clear 13 1021 94 10000 0.51 230 08:59 28.09.2021
6138 Clear 12 1021 94 10000 0.51 230 08:38 28.09.2021
6139 Clear 12 1021 96 10000 1.54 260 07:47 28.09.2021
6140 Clouds 12 1019 95 10000 1.54 250 05:28 28.09.2021
6141 Clouds 14 1018 95 10000 0.45 270 01:23 28.09.2021
6142 Clouds 15 1017 92 10000 0.45 270 00:25 28.09.2021
6143 Rain 15 1017 92 10000 3.09 280 23:41 27.09.2021
6144 Rain 17 1016 89 10000 0.89 270 22:55 27.09.2021
6145 Rain 19 1014 88 10000 0.45 0 21:54 27.09.2021
6146 Clear 19 1013 85 10000 2.57 190 20:44 27.09.2021
6147 Clear 19 1013 82 10000 0.89 0 19:55 27.09.2021
6148 Rain 20 1013 80 10000 3.6 190 19:27 27.09.2021
6149 Clear 20 1013 77 10000 1.79 0 18:49 27.09.2021
6150 Clouds 21 1012 72 10000 0.89 0 17:29 27.09.2021
6151 Clouds 22 1012 70 10000 2.24 0 16:49 27.09.2021
6152 Clouds 22 1012 67 10000 0.89 113 15:44 27.09.2021
6153 Clouds 22 1012 68 10000 2.68 0 15:18 27.09.2021
6154 Clouds 21 1013 74 10000 0.89 135 13:32 27.09.2021
6155 Clouds 20 1013 86 10000 2.68 0 11:31 27.09.2021
6156 Clouds 19 1013 92 10000 0.45 90 10:32 27.09.2021
6157 Clouds 17 1013 96 6000 1.54 150 08:48 27.09.2021
6158 Mist 17 1014 95 5000 1.54 140 05:22 27.09.2021
6159 Rain 18 1014 97 6000 1.34 0 03:18 27.09.2021
6160 Rain 20 1015 87 10000 1.03 0 22:33 26.09.2021
6161 Clouds 20 1015 89 10000 1.03 150 21:50 26.09.2021
6162 Rain 20 1015 88 10000 0.51 0 20:58 26.09.2021
6163 Rain 20 1015 92 10000 1.03 80 20:21 26.09.2021
6164 Clouds 21 1014 89 10000 1.03 0 19:48 26.09.2021
6165 Clouds 23 1014 75 10000 0.51 330 18:45 26.09.2021
6166 Clouds 24 1014 70 10000 1.54 250 17:56 26.09.2021
6167 Clouds 25 1014 61 10000 2.57 240 17:22 26.09.2021
6168 Clouds 25 1014 60 10000 2.57 230 16:40 26.09.2021
6169 Clear 25 1014 57 10000 3.09 220 15:59 26.09.2021
6170 Clear 24 1015 55 10000 1.54 160 14:54 26.09.2021
6171 Clear 24 1014 61 10000 0.45 45 13:55 26.09.2021
6172 Clear 23 1014 63 10000 0.45 225 12:59 26.09.2021
6173 Clear 22 1015 66 10000 0.89 113 12:20 26.09.2021
6174 Clear 21 1015 69 10000 3.09 140 11:37 26.09.2021
6175 Clouds 17 1015 88 10000 0.45 113 10:23 26.09.2021
6176 Clouds 14 1012 87 10000 2.54 143 08:56 26.09.2021
6177 Clear 12 1015 93 10000 1.54 100 06:32 26.09.2021
6178 Clear 15 1016 87 10000 1.03 90 00:22 26.09.2021
6179 Clear 16 1016 83 10000 1.03 0 23:24 25.09.2021
6180 Clear 16 1016 84 10000 1.54 160 22:38 25.09.2021
6181 Clear 17 1016 85 10000 1.03 0 21:55 25.09.2021
6182 Clear 17 1016 83 10000 1.03 0 21:31 25.09.2021
6183 Clear 18 1016 82 10000 1.03 150 20:45 25.09.2021
6184 Clouds 20 1015 84 10000 1.54 320 18:55 25.09.2021
6185 Clouds 21 1016 68 10000 2.06 250 17:55 25.09.2021
6186 Clouds 21 1015 71 10000 2.57 260 15:48 25.09.2021
6187 Clouds 20 1016 68 10000 4.63 240 13:57 25.09.2021
6188 Clouds 20 1016 71 10000 4.12 240 13:30 25.09.2021
6189 Clouds 19 1015 74 10000 4.12 250 12:25 25.09.2021
6190 Clouds 18 1015 79 10000 4.12 250 10:34 25.09.2021
6191 Clouds 17 1015 86 10000 3.09 240 09:26 25.09.2021
6192 Clouds 16 1014 91 10000 3.6 250 07:55 25.09.2021
6193 Clouds 16 1014 90 10000 4.63 250 05:46 25.09.2021
6194 Clear 17 1013 86 10000 4.12 250 23:50 24.09.2021
6195 Clouds 17 1014 81 10000 5.14 250 21:42 24.09.2021
6196 Clouds 18 1013 80 10000 4.63 250 20:33 24.09.2021
6197 Clouds 18 1013 82 10000 4.63 250 19:47 24.09.2021
6198 Clouds 18 1013 82 10000 4.63 250 18:32 24.09.2021
6199 Clouds 18 1013 82 10000 0.45 270 17:54 24.09.2021
6200 Clouds 18 1013 82 10000 0.45 270 17:35 24.09.2021
6201 Clouds 18 1013 81 10000 5.66 250 16:55 24.09.2021
6202 Clouds 18 1014 69 10000 5.66 260 13:57 24.09.2021
6203 Clouds 18 1013 76 10000 5.66 250 12:45 24.09.2021
6204 Clouds 17 1013 77 10000 0.45 270 12:27 24.09.2021
6205 Clouds 17 1014 79 10000 4.12 260 11:59 24.09.2021
6206 Clouds 15 1014 89 10000 4.12 250 10:25 24.09.2021
6207 Clouds 13 1014 91 10000 3.09 260 08:29 24.09.2021
6208 Clouds 13 1013 93 10000 4.12 260 07:33 24.09.2021
6209 Clouds 13 1013 93 10000 0.45 270 06:44 24.09.2021
6210 Clouds 12 1014 94 10000 3.09 260 04:54 24.09.2021
6211 Clouds 14 1013 91 10000 0.45 270 23:57 23.09.2021
6212 Clouds 14 1013 92 10000 0.45 270 22:20 23.09.2021
6213 Clouds 15 1012 93 3500 0.45 270 21:47 23.09.2021
6214 Drizzle 16 1011 87 9000 0.89 270 20:33 23.09.2021
6215 Clouds 17 1011 78 10000 0.89 270 19:28 23.09.2021
6216 Clouds 18 1011 76 10000 0.89 270 17:45 23.09.2021
6217 Clouds 19 1012 67 10000 0.89 270 15:21 23.09.2021
6218 Clouds 19 1012 66 10000 1.34 270 14:59 23.09.2021
6219 Clouds 19 1014 70 10000 7.72 270 13:45 23.09.2021
6220 Clouds 18 1014 66 10000 8.23 260 13:19 23.09.2021
6221 Clouds 18 1014 68 10000 8.75 260 12:48 23.09.2021
6222 Clouds 18 1015 67 10000 7.72 250 12:22 23.09.2021
6223 Clear 16 1015 67 10000 8.23 250 11:23 23.09.2021
6224 Clear 15 1015 74 10000 6.17 240 10:20 23.09.2021
6225 Clear 14 1016 80 10000 6.17 250 09:49 23.09.2021
6226 Clear 11 1018 93 10000 1.54 220 06:49 23.09.2021
6227 Clear 12 1021 89 10000 2.06 260 01:43 23.09.2021
6228 Clear 12 1023 92 10000 0.51 0 22:58 22.09.2021
6229 Clear 12 1023 91 10000 0.51 0 22:24 22.09.2021
6230 Clear 13 1023 90 10000 0.51 0 21:51 22.09.2021
6231 Clear 13 1023 87 10000 1.03 220 21:32 22.09.2021
6232 Clear 14 1023 84 10000 1.54 210 20:39 22.09.2021
6233 Clear 16 1024 78 10000 2.06 240 19:28 22.09.2021
6234 Clear 18 1024 75 10000 2.57 250 18:36 22.09.2021
6235 Clear 18 1024 71 10000 0.45 270 17:39 22.09.2021
6236 Clear 18 1025 70 10000 0.89 270 16:36 22.09.2021
6237 Clouds 18 1026 71 10000 0.45 270 14:37 22.09.2021
6238 Clouds 17 1028 71 10000 4.12 270 13:25 22.09.2021
6239 Clouds 16 1027 87 10000 3.09 280 11:34 22.09.2021
6240 Clouds 14 1027 91 10000 0.45 270 10:18 22.09.2021
6241 Clouds 13 1027 94 6000 0.45 270 08:52 22.09.2021
6242 Clouds 12 1027 96 6000 2.06 260 07:49 22.09.2021
6243 Clouds 12 1027 93 8000 1.54 250 06:56 22.09.2021
6244 Clouds 12 1027 92 10000 1.54 280 05:51 22.09.2021
6245 Clouds 12 1028 93 10000 2.06 300 05:23 22.09.2021
6246 Clouds 13 1027 88 10000 3.09 280 03:34 22.09.2021
6247 Clouds 14 1028 77 10000 3.09 280 00:19 22.09.2021
6248 Clouds 15 1027 69 10000 0.89 270 22:43 21.09.2021
6249 Clouds 15 1027 70 10000 3.6 260 21:31 21.09.2021
6250 Clouds 15 1027 70 10000 3.94 264 19:38 21.09.2021
6251 Clouds 15 1027 69 10000 0.45 293 19:20 21.09.2021
6252 Clear 16 1027 63 10000 0.45 270 16:59 21.09.2021
6253 Clear 16 1027 64 10000 0.89 270 16:27 21.09.2021
6254 Clouds 16 1028 64 10000 3.6 260 15:25 21.09.2021
6255 Clouds 16 1028 66 10000 4.63 260 14:49 21.09.2021
6256 Clouds 15 1028 67 10000 2.57 280 13:40 21.09.2021
6257 Clouds 15 1028 68 10000 0.45 270 12:58 21.09.2021
6258 Clouds 13 1029 66 10000 2.45 284 11:19 21.09.2021
6259 Clear 10 1028 87 10000 1.54 270 09:54 21.09.2021
6260 Clear 8 1028 93 10000 1.54 280 07:47 21.09.2021
6261 Fog 7 1027 93 10000 0.51 0 06:18 21.09.2021
6262 Clear 11 1026 87 10000 0.51 0 23:58 20.09.2021
6263 Clouds 12 1025 82 10000 2.06 30 21:53 20.09.2021
6264 Clouds 12 1025 82 10000 2.06 30 21:32 20.09.2021
6265 Clouds 13 1023 78 10000 1.03 350 20:26 20.09.2021
6266 Clouds 14 1023 76 10000 1.03 10 19:20 20.09.2021
6267 Clouds 15 1022 68 10000 2.06 40 17:31 20.09.2021
6268 Clouds 15 1022 62 10000 2.57 50 16:26 20.09.2021
6269 Clouds 15 1022 63 10000 0.45 68 15:47 20.09.2021
6270 Clouds 15 1021 63 10000 0.89 68 14:59 20.09.2021
6271 Clouds 15 1021 62 10000 0.45 45 13:36 20.09.2021
6272 Clear 14 1022 64 10000 2.06 50 12:34 20.09.2021
6273 Clouds 13 1021 78 10000 3.09 70 10:57 20.09.2021
6274 Clouds 12 1021 79 10000 3.09 70 09:52 20.09.2021
6275 Clouds 12 1020 79 10000 0.45 68 09:33 20.09.2021
6276 Clear 11 1020 81 10000 1.54 70 08:55 20.09.2021
6277 Clear 11 1020 82 10000 3.09 80 06:34 20.09.2021
6278 Clouds 12 1018 83 10000 1.54 80 23:30 19.09.2021
6279 Clouds 13 1018 84 10000 1.54 70 21:53 19.09.2021
6280 Clouds 13 1017 81 10000 1.03 60 21:21 19.09.2021
6281 Clouds 13 1017 79 10000 0.51 50 20:32 19.09.2021
6282 Clouds 14 1017 71 10000 2.57 70 18:57 19.09.2021
6283 Clouds 15 1017 67 10000 4.12 90 17:57 19.09.2021
6284 Clouds 14 1017 68 10000 0.45 90 17:21 19.09.2021
6285 Clouds 15 1017 66 10000 0.89 90 15:44 19.09.2021
6286 Clouds 14 1017 67 10000 0.45 135 14:49 19.09.2021
6287 Clouds 15 1017 69 10000 0.89 90 14:24 19.09.2021
6288 Clouds 14 1017 71 10000 1.34 68 12:56 19.09.2021
6289 Clouds 14 1018 74 10000 1.34 113 12:30 19.09.2021
6290 Clouds 14 1017 81 10000 0.89 68 11:25 19.09.2021
6291 Clouds 13 1017 86 10000 1.79 113 09:58 19.09.2021
6292 Clouds 13 1017 88 10000 0.45 68 09:26 19.09.2021
6293 Clouds 12 1018 87 10000 4.63 90 06:49 19.09.2021
6294 Clouds 14 1018 88 10000 3.09 70 01:39 19.09.2021
6295 Clouds 14 1017 93 10000 0.45 68 23:25 18.09.2021
6296 Clouds 15 1017 93 10000 1.03 70 21:58 18.09.2021
6297 Clouds 15 1017 92 10000 2.57 120 20:48 18.09.2021
6298 Clouds 16 1017 88 10000 0.45 113 19:58 18.09.2021
6299 Clouds 16 1017 87 10000 0.45 90 19:37 18.09.2021
6300 Clouds 16 1017 88 10000 2.57 90 19:19 18.09.2021
6301 Clouds 17 1016 82 10000 0.45 90 18:30 18.09.2021
6302 Clouds 18 1016 78 10000 1.03 0 16:35 18.09.2021
6303 Clouds 18 1017 78 10000 1.54 330 14:32 18.09.2021
6304 Clouds 17 1018 80 10000 1.54 0 13:45 18.09.2021
6305 Clouds 17 1018 82 10000 2.06 310 13:21 18.09.2021
6306 Clouds 16 1017 88 10000 2.06 300 12:18 18.09.2021
6307 Clouds 15 1017 91 10000 0.45 293 11:30 18.09.2021
6308 Clouds 13 1016 92 10000 1.54 270 10:31 18.09.2021
6309 Clouds 12 1016 93 10000 2.06 270 09:24 18.09.2021
6310 Clouds 11 1016 97 10000 1.54 280 08:28 18.09.2021
6311 Clear 12 1015 90 10000 2.11 295 00:53 18.09.2021
6312 Clear 12 1015 90 10000 2.09 296 23:56 17.09.2021
6313 Clear 13 1015 87 10000 1.98 303 22:54 17.09.2021
6314 Clear 14 1014 85 10000 1.94 314 22:25 17.09.2021
6315 Clouds 13 1015 87 10000 1.54 330 21:45 17.09.2021
6316 Clouds 16 1014 81 10000 2.06 290 19:52 17.09.2021
6317 Clouds 17 1013 75 10000 3.6 300 18:42 17.09.2021
6318 Clouds 18 1014 76 10000 0.45 270 16:42 17.09.2021
6319 Clouds 18 1014 73 10000 3.6 320 15:25 17.09.2021
6320 Clouds 17 1015 77 10000 4.63 290 11:53 17.09.2021
6321 Clouds 16 1015 83 10000 4.12 280 10:23 17.09.2021
6322 Clouds 14 1014 94 10000 0.45 270 07:48 17.09.2021
6323 Clouds 14 1014 93 10000 0.45 270 05:45 17.09.2021
6324 Clouds 15 1015 84 10000 0.89 270 00:32 17.09.2021
6325 Clouds 16 1015 87 10000 2.57 270 22:42 16.09.2021
6326 Clouds 16 1014 86 10000 0.45 270 22:23 16.09.2021
6327 Clouds 16 1014 90 10000 2.57 250 21:35 16.09.2021
6328 Clouds 16 1014 89 10000 2.57 270 20:30 16.09.2021
6329 Clouds 17 1013 85 10000 0.89 270 18:52 16.09.2021
6330 Clouds 17 1013 89 10000 4.12 270 18:18 16.09.2021
6331 Rain 18 1013 83 10000 3.6 250 16:47 16.09.2021
6332 Clouds 18 1014 79 10000 0.45 270 14:49 16.09.2021
6333 Clouds 17 1014 79 10000 6.17 270 13:34 16.09.2021
6334 Clouds 17 1014 77 10000 5.66 260 12:45 16.09.2021
6335 Clouds 16 1013 88 10000 0.89 270 11:50 16.09.2021
6336 Clouds 16 1013 89 10000 5.14 250 10:56 16.09.2021
6337 Drizzle 15 1013 88 8000 4.63 260 10:22 16.09.2021
6338 Clouds 16 1013 83 10000 5.14 250 09:20 16.09.2021
6339 Clouds 15 1012 84 10000 3.6 250 07:48 16.09.2021
6340 Clouds 15 1012 84 10000 3.09 260 06:56 16.09.2021
6341 Clouds 15 1012 84 10000 3.09 260 06:37 16.09.2021
6342 Clouds 16 1011 92 10000 3.6 270 03:22 16.09.2021
6343 Clouds 17 1011 95 10000 0.45 270 00:49 16.09.2021
6344 Clouds 18 1010 95 8000 2.57 270 23:24 15.09.2021
6345 Clouds 18 1010 95 8000 3.6 260 22:26 15.09.2021
6346 Mist 19 1009 97 4500 2.06 260 21:31 15.09.2021
6347 Clouds 19 1009 95 6000 2.57 270 20:34 15.09.2021
6348 Clouds 20 1008 95 10000 4.12 270 19:31 15.09.2021
6349 Rain 20 1008 96 4000 0.45 270 18:37 15.09.2021
6350 Clouds 20 1009 97 10000 2.57 320 17:33 15.09.2021
6351 Thunderstorm 21 1009 83 10000 2.57 200 16:28 15.09.2021
6352 Clouds 22 1009 83 10000 2.06 180 14:53 15.09.2021
6353 Clouds 22 1009 83 10000 2.06 180 14:33 15.09.2021
6354 Clouds 21 1010 83 10000 3.6 170 13:42 15.09.2021
6355 Clouds 21 1010 78 10000 2.06 180 13:23 15.09.2021
6356 Rain 21 1010 83 10000 2.06 170 12:29 15.09.2021
6357 Rain 20 1010 91 10000 1.03 0 11:49 15.09.2021
6358 Rain 19 1010 95 10000 1.54 110 10:57 15.09.2021
6359 Rain 19 1010 95 10000 1.54 110 10:57 15.09.2021
6360 Rain 18 1010 92 10000 1.03 0 09:44 15.09.2021
6361 Clear 18 1010 90 10000 1.03 0 08:46 15.09.2021
6362 Clear 17 1010 93 10000 2.06 100 06:28 15.09.2021
6363 Clear 18 1012 82 10000 3.6 90 00:37 15.09.2021
6364 Clear 19 1013 80 10000 3.09 90 21:59 14.09.2021
6365 Clear 19 1013 80 10000 2.57 100 21:19 14.09.2021
6366 Clear 21 1013 74 10000 2.06 70 19:58 14.09.2021
6367 Clear 23 1013 66 10000 0.45 90 18:40 14.09.2021
6368 Clear 24 1014 61 10000 0.45 90 17:29 14.09.2021
6369 Clear 25 1014 59 10000 0.89 113 15:58 14.09.2021
6370 Clear 24 1014 60 10000 3.09 110 14:32 14.09.2021
6371 Clear 23 1015 66 10000 1.79 90 13:26 14.09.2021
6372 Clear 17 1017 82 10000 3.09 90 10:57 14.09.2021
6373 Clear 15 1016 88 10000 2.57 100 09:51 14.09.2021
6374 Clear 13 1016 95 10000 2.06 110 09:18 14.09.2021
6375 Fog 10 1016 95 10000 3.09 90 07:25 14.09.2021
6376 Clear 12 1018 96 10000 0.51 360 00:53 14.09.2021
6377 Clear 13 1018 93 10000 0.51 90 22:58 13.09.2021
6378 Clear 13 1018 92 10000 1.03 100 22:26 13.09.2021
6379 Clear 14 1018 92 10000 1.03 20 21:53 13.09.2021
6380 Clear 15 1017 88 10000 1.03 60 20:58 13.09.2021
6381 Clouds 18 1017 78 10000 1.54 50 19:29 13.09.2021
6382 Clouds 19 1017 76 10000 1.54 20 18:43 13.09.2021
6383 Clouds 20 1018 69 10000 1.54 40 16:58 13.09.2021
6384 Clouds 19 1018 69 10000 0.45 293 15:39 13.09.2021
6385 Clouds 18 1019 82 10000 3.09 260 13:36 13.09.2021
6386 Clouds 16 1019 91 10000 0.45 270 11:20 13.09.2021
6387 Clouds 15 1018 94 10000 2.57 270 09:42 13.09.2021
6388 Clouds 13 1017 95 10000 2.57 260 07:28 13.09.2021
6389 Clouds 15 1016 86 10000 2.57 250 23:44 12.09.2021
6390 Clear 15 1016 84 10000 2.06 260 22:26 12.09.2021
6391 Clouds 16 1016 80 10000 1.54 260 21:43 12.09.2021
6392 Clouds 17 1015 75 10000 2.57 250 20:40 12.09.2021
6393 Clouds 19 1015 69 10000 3.09 250 19:54 12.09.2021
6394 Clouds 19 1015 68 10000 3.09 260 19:28 12.09.2021
6395 Clouds 21 1015 64 10000 0.45 270 18:31 12.09.2021
6396 Clouds 22 1015 66 10000 0.45 248 16:33 12.09.2021
6397 Clouds 22 1016 66 10000 0.45 270 14:59 12.09.2021
6398 Clouds 21 1016 71 10000 4.63 280 13:49 12.09.2021
6399 Clouds 18 1016 90 10000 4.12 250 11:47 12.09.2021
6400 Clouds 18 1016 97 4500 3.09 240 09:41 12.09.2021
6401 Drizzle 18 1016 94 7000 2.57 260 08:38 12.09.2021
6402 Clouds 17 1016 90 10000 2.57 260 02:39 12.09.2021
6403 Clear 17 1016 89 10000 1.03 0 23:38 11.09.2021
6404 Clear 17 1015 86 10000 1.03 230 21:56 11.09.2021
6405 Clear 18 1015 86 10000 1.03 230 21:36 11.09.2021
6406 Clouds 20 1015 76 10000 2.06 260 19:25 11.09.2021
6407 Clouds 22 1015 70 10000 0.45 270 17:38 11.09.2021
6408 Clouds 21 1015 72 10000 4.12 270 15:51 11.09.2021
6409 Clouds 21 1016 69 10000 5.14 260 13:52 11.09.2021
6410 Clouds 21 1016 68 10000 5.66 250 13:18 11.09.2021
6411 Clouds 20 1016 79 10000 4.63 250 11:19 11.09.2021
6412 Clouds 19 1014 91 10000 4.12 250 09:38 11.09.2021
6413 Mist 17 1014 95 6000 1.54 210 07:45 11.09.2021
6414 Fog 17 1014 97 4500 1.03 0 06:50 11.09.2021
6415 Clouds 19 1013 89 10000 2.06 260 23:37 10.09.2021
6416 Rain 20 1013 86 10000 3.09 240 22:25 10.09.2021
6417 Clouds 20 1013 84 10000 3.6 240 21:54 10.09.2021
6418 Rain 21 1012 84 10000 1.54 230 20:24 10.09.2021
6419 Clouds 23 1012 72 10000 2.57 180 18:27 10.09.2021
6420 Clouds 24 1011 74 10000 0.45 113 16:52 10.09.2021
6421 Clouds 24 1012 73 10000 3.09 230 14:49 10.09.2021
6422 Clouds 23 1013 81 10000 4.12 250 12:22 10.09.2021
6423 Clouds 19 1012 97 7000 1.03 0 08:48 10.09.2021
6424 Clouds 19 1011 95 7000 1.03 50 07:50 10.09.2021
6425 Clear 20 1010 80 10000 2.57 260 02:27 10.09.2021
6426 Clear 20 1010 84 10000 1.03 100 22:31 09.09.2021
6427 Clear 21 1009 81 10000 1.03 80 21:45 09.09.2021
6428 Clear 21 1009 81 10000 1.03 80 21:45 09.09.2021
6429 Clear 22 1009 75 10000 0.51 50 20:46 09.09.2021
6430 Clear 25 1009 66 10000 0 0 19:33 09.09.2021
6431 Clear 27 1009 53 10000 1.54 280 18:26 09.09.2021
6432 Clear 28 1009 49 10000 2.57 160 16:40 09.09.2021
6433 Clear 29 1009 47 10000 0.45 135 15:36 09.09.2021
6434 Clear 25 1011 50 10000 2.57 130 12:48 09.09.2021
6435 Clear 24 1011 57 10000 2.57 130 11:41 09.09.2021
6436 Clear 19 1011 76 10000 2.06 110 09:50 09.09.2021
6437 Clear 16 1011 91 10000 2.57 90 08:47 09.09.2021
6438 Clear 12 1012 94 10000 3.09 90 06:25 09.09.2021
6439 Clear 15 1013 89 10000 2.06 90 02:18 09.09.2021
6440 Clear 18 1014 77 10000 2.57 100 22:40 08.09.2021
6441 Clear 19 1014 72 10000 1.54 70 21:23 08.09.2021
6442 Clear 22 1015 60 10000 2.57 80 19:56 08.09.2021
6443 Clear 24 1015 49 10000 0.45 68 18:55 08.09.2021
6444 Clear 25 1015 48 10000 1.34 68 18:28 08.09.2021
6445 Clouds 25 1015 48 10000 0.45 90 17:55 08.09.2021
6446 Clouds 26 1016 44 10000 0.45 113 16:28 08.09.2021
6447 Clear 25 1019 49 10000 2.57 0 14:23 08.09.2021
6448 Clear 23 1020 56 10000 3.6 100 12:43 08.09.2021
6449 Clear 23 1020 57 10000 2.06 110 12:25 08.09.2021
6450 Clear 22 1020 64 10000 1.54 110 11:29 08.09.2021
6451 Clear 20 1021 68 10000 1.54 90 10:33 08.09.2021
6452 Clear 18 1020 74 10000 2.06 110 09:59 08.09.2021
6453 Clear 12 1020 97 10000 2.57 90 07:55 08.09.2021
6454 Clear 12 1020 97 10000 2.57 90 07:32 08.09.2021
6455 Clear 13 1021 93 10000 1.03 0 03:41 08.09.2021
6456 Clear 16 1022 84 10000 1.54 80 22:35 07.09.2021
6457 Clear 17 1022 81 10000 1.54 90 21:46 07.09.2021
6458 Clear 21 1022 68 10000 1.03 0 19:47 07.09.2021
6459 Clear 23 1022 55 10000 1.03 0 18:39 07.09.2021
6460 Clear 23 1022 53 10000 1.03 40 17:43 07.09.2021
6461 Clear 23 1024 52 10000 1.03 0 15:59 07.09.2021
6462 Clear 24 1023 52 10000 1.54 40 15:35 07.09.2021
6463 Clear 23 1024 53 10000 1.54 100 14:38 07.09.2021
6464 Clear 21 1025 60 10000 1.03 0 12:28 07.09.2021
6465 Clear 20 1025 69 10000 1.03 0 11:26 07.09.2021
6466 Clear 19 1025 70 10000 1.03 0 10:40 07.09.2021
6467 Clear 13 1024 94 10000 1.03 240 08:18 07.09.2021
6468 Clear 13 1023 93 10000 1.03 0 06:43 07.09.2021
6469 Clear 14 1023 92 10000 0.51 230 02:43 07.09.2021
6470 Clear 14 1024 89 10000 0.51 310 02:25 07.09.2021
6471 Clear 16 1024 84 10000 1.03 0 00:23 07.09.2021
6472 Clear 16 1023 79 10000 0.51 0 23:31 06.09.2021
6473 Clear 17 1025 76 10000 1.54 10 22:53 06.09.2021
6474 Clear 17 1024 75 10000 2.57 350 22:28 06.09.2021
6475 Clear 18 1023 73 10000 1.03 300 20:37 06.09.2021
6476 Clear 20 1023 64 10000 1.54 310 19:22 06.09.2021
6477 Clear 21 1023 60 10000 1.54 330 18:37 06.09.2021
6478 Clear 21 1023 57 10000 2.57 320 17:58 06.09.2021
6479 Clear 22 1023 54 10000 2.57 340 17:24 06.09.2021
6480 Clear 22 1023 55 10000 0.45 293 15:37 06.09.2021
6481 Clear 21 1024 61 10000 1.54 0 13:46 06.09.2021
6482 Clear 20 1025 67 10000 0.51 0 12:45 06.09.2021
6483 Fog 13 1024 94 500 1.54 60 10:40 06.09.2021
6484 Fog 8 1024 100 200 1.03 80 07:54 06.09.2021
6485 Fog 9 1023 100 200 1.03 0 04:38 06.09.2021
6486 Fog 12 1023 96 7000 0.51 0 23:24 05.09.2021
6487 Clear 13 1024 92 10000 1.03 80 22:33 05.09.2021
6488 Clear 13 1023 88 10000 1.54 100 21:56 05.09.2021
6489 Clear 14 1023 88 10000 2.57 90 21:21 05.09.2021
6490 Clouds 17 1023 79 10000 3.09 80 19:47 05.09.2021
6491 Clouds 20 1023 69 10000 4.12 90 17:53 05.09.2021
6492 Clouds 20 1023 72 10000 2.57 80 16:53 05.09.2021
6493 Clouds 19 1023 88 10000 3.6 60 15:21 05.09.2021
6494 Clouds 16 1023 94 10000 2.06 70 12:45 05.09.2021
6495 Clouds 15 1023 100 8000 2.06 100 11:44 05.09.2021
6496 Mist 14 1023 100 3200 2.06 60 10:42 05.09.2021
6497 Fog 12 1023 100 900 3.09 60 09:42 05.09.2021
6498 Fog 11 1022 99 250 3.09 90 08:35 05.09.2021
6499 Clear 9 1021 98 10000 2.57 70 06:33 05.09.2021
6500 Clear 11 1021 89 10000 0.51 60 00:41 05.09.2021
6501 Clear 11 1021 92 10000 1.03 70 23:59 04.09.2021
6502 Clear 12 1020 88 10000 0.51 80 23:25 04.09.2021
6503 Clear 13 1020 86 10000 1.03 90 22:35 04.09.2021
6504 Clear 15 1020 78 10000 1.54 80 21:18 04.09.2021
6505 Clouds 18 1019 67 10000 2.06 20 19:33 04.09.2021
6506 Clouds 20 1019 59 10000 3.09 340 17:25 04.09.2021
6507 Clouds 19 1019 63 10000 1.54 0 14:37 04.09.2021
6508 Clouds 16 1020 73 10000 1.03 0 11:37 04.09.2021
6509 Clouds 15 1020 78 10000 1.03 0 10:55 04.09.2021
6510 Clouds 13 1019 83 10000 1.54 40 08:18 04.09.2021
6511 Clear 13 1020 92 10000 1.78 326 00:50 04.09.2021
6512 Clear 13 1020 92 10000 1.78 326 00:50 04.09.2021
6513 Clear 13 1020 93 10000 2.06 320 00:19 04.09.2021
6514 Clear 14 1019 89 10000 2.06 320 23:21 03.09.2021
6515 Clear 16 1019 87 10000 1.54 340 21:43 03.09.2021
6516 Clear 17 1019 82 10000 2.06 330 20:58 03.09.2021
6517 Clear 18 1019 78 10000 2.06 320 20:28 03.09.2021
6518 Clear 20 1019 72 10000 3.6 340 19:35 03.09.2021
6519 Clear 22 1018 64 10000 3.6 320 18:27 03.09.2021
6520 Clear 23 1019 60 10000 0.45 270 16:50 03.09.2021
6521 Clear 24 1019 60 10000 3.09 270 15:42 03.09.2021
6522 Clear 23 1020 61 10000 0.45 293 14:28 03.09.2021
6523 Clear 23 1020 61 10000 0.45 270 14:28 03.09.2021
6524 Clouds 17 1022 86 10000 2.06 290 11:21 03.09.2021
6525 Fog 16 1021 89 400 1.54 310 09:55 03.09.2021
6526 Fog 11 1021 97 300 1.03 0 08:18 03.09.2021
6527 Fog 10 1022 97 600 1.03 0 06:49 03.09.2021
6528 Fog 14 1024 92 10000 1.03 0 23:56 02.09.2021
6529 Clear 15 1024 90 10000 0 0 22:21 02.09.2021
6530 Clear 17 1024 80 10000 2.06 30 20:46 02.09.2021
6531 Clouds 22 1025 63 10000 1.03 0 18:27 02.09.2021
6532 Clouds 22 1026 64 10000 1.03 0 16:39 02.09.2021
6533 Clouds 21 1026 63 10000 1.03 0 15:30 02.09.2021
6534 Clouds 20 1027 69 10000 0.45 270 13:33 02.09.2021
6535 Clouds 18 1027 74 10000 1.54 0 11:43 02.09.2021
6536 Clouds 17 1028 79 10000 1.54 300 10:53 02.09.2021
6537 Mist 14 1028 97 4000 1.03 0 08:57 02.09.2021
6538 Fog 12 1027 97 700 0.51 0 07:28 02.09.2021
6539 Clouds 12 1026 95 6000 0.51 0 05:32 02.09.2021
6540 Clear 13 1026 94 10000 1.54 280 02:37 02.09.2021
6541 Clear 14 1026 93 10000 1.54 250 01:49 02.09.2021
6542 Clear 15 1026 87 10000 1.54 280 23:41 01.09.2021
6543 Clear 16 1026 85 10000 2.06 280 22:44 01.09.2021
6544 Clear 16 1026 85 10000 2.06 280 22:44 01.09.2021
6545 Clear 16 1026 85 10000 1.03 0 21:58 01.09.2021
6546 Clear 17 1026 82 10000 1.54 260 21:29 01.09.2021
6547 Clouds 20 1025 71 10000 2.57 280 19:33 01.09.2021
6548 Clouds 21 1025 65 10000 0.45 270 17:51 01.09.2021
6549 Clouds 21 1026 65 10000 0.45 270 16:58 01.09.2021
6550 Clouds 21 1026 65 10000 3.6 300 16:35 01.09.2021
6551 Clouds 19 1027 72 10000 3.6 260 13:57 01.09.2021
6552 Clouds 17 1027 77 10000 0.89 270 11:47 01.09.2021
6553 Clouds 16 1026 86 10000 0.45 293 09:41 01.09.2021
6554 Clouds 14 1026 89 10000 2.57 280 08:19 01.09.2021
6555 Clouds 14 1026 91 10000 3.09 260 06:42 01.09.2021
6556 Clear 16 1024 88 10000 4.12 330 23:29 31.08.2021
6557 Clear 17 1023 84 10000 4.63 320 21:45 31.08.2021
6558 Clouds 20 1022 68 10000 0.45 270 19:49 31.08.2021
6559 Clouds 21 1021 59 10000 1.34 293 18:56 31.08.2021
6560 Clouds 22 1021 55 10000 0.45 270 17:39 31.08.2021
6561 Clouds 22 1021 56 10000 0.45 270 17:21 31.08.2021
6562 Clouds 23 1021 51 10000 1.34 293 16:28 31.08.2021
6563 Clouds 22 1023 60 10000 4.63 330 14:57 31.08.2021
6564 Clouds 19 1022 73 10000 1.34 270 11:41 31.08.2021
6565 Clouds 18 1022 81 10000 4.12 270 11:18 31.08.2021
6566 Clouds 16 1021 80 10000 0.89 270 10:22 31.08.2021
6567 Clouds 16 1021 86 10000 0.45 293 09:40 31.08.2021
6568 Clear 13 1021 96 10000 0.45 293 07:39 31.08.2021
6569 Clouds 14 1021 95 10000 2.57 300 05:55 31.08.2021
6570 Clear 15 1019 92 10000 1.54 330 23:36 30.08.2021
6571 Clear 15 1019 91 10000 1.03 330 22:30 30.08.2021
6572 Clouds 16 1019 88 10000 2.8 1 21:35 30.08.2021
6573 Clear 17 1018 84 10000 2.57 360 20:35 30.08.2021
6574 Clouds 18 1018 81 10000 0.45 23 19:32 30.08.2021
6575 Clouds 19 1018 77 10000 5.14 360 18:57 30.08.2021
6576 Clouds 19 1017 77 10000 0.45 90 17:48 30.08.2021
6577 Clouds 19 1017 79 10000 5.66 20 16:26 30.08.2021
6578 Clouds 19 1017 78 10000 0.45 270 15:40 30.08.2021
6579 Clouds 18 1017 82 10000 6.17 360 13:51 30.08.2021
6580 Clouds 18 1017 83 10000 0.45 113 12:49 30.08.2021
6581 Clouds 17 1017 90 10000 0.45 270 10:41 30.08.2021
6582 Clouds 16 1016 97 10000 0.45 293 02:37 30.08.2021
6583 Clouds 16 1016 95 10000 0.45 45 21:33 29.08.2021
6584 Clouds 16 1015 94 10000 0.45 90 20:35 29.08.2021
6585 Clouds 17 1015 92 10000 0.89 135 19:20 29.08.2021
6586 Clouds 17 1014 97 10000 0.45 45 17:58 29.08.2021
6587 Clouds 17 1015 93 10000 0.45 293 15:50 29.08.2021
6588 Clouds 17 1015 94 10000 0.45 270 14:25 29.08.2021
6589 Clouds 16 1015 94 9000 0.45 293 13:44 29.08.2021
6590 Clouds 15 1015 96 10000 3.09 340 12:41 29.08.2021
6591 Clouds 15 1015 96 10000 3.09 350 11:51 29.08.2021
6592 Clouds 15 1015 98 10000 0.45 270 11:27 29.08.2021
6593 Clouds 15 1015 98 8000 3.09 350 10:46 29.08.2021
6594 Drizzle 14 1015 98 3200 3.09 340 10:26 29.08.2021
6595 Clouds 14 1015 96 10000 0.45 270 08:58 29.08.2021
6596 Drizzle 15 1016 98 8000 0.45 293 00:37 29.08.2021
6597 Clouds 15 1017 96 5000 3.09 10 21:58 28.08.2021
6598 Rain 16 1016 95 8000 4.63 360 20:29 28.08.2021
6599 Rain 16 1016 95 10000 4.63 350 18:43 28.08.2021
6600 Rain 16 1016 94 10000 3.6 360 18:20 28.08.2021
6601 Rain 16 1016 94 10000 2.06 310 17:20 28.08.2021
6602 Clouds 17 1016 89 10000 2.06 340 15:46 28.08.2021
6603 Rain 17 1017 84 10000 1.54 0 14:26 28.08.2021
6604 Clouds 17 1017 90 10000 2.06 320 13:45 28.08.2021
6605 Clouds 16 1016 92 10000 2.57 310 12:44 28.08.2021
6606 Clouds 16 1016 90 10000 0.45 270 11:54 28.08.2021
6607 Clouds 15 1016 95 10000 0.45 293 10:41 28.08.2021
6608 Mist 13 1016 98 3200 1.03 0 08:40 28.08.2021
6609 Fog 13 1015 98 700 0.51 0 07:24 28.08.2021
6610 Clear 13 1015 94 10000 1.54 330 22:30 27.08.2021
6611 Clouds 14 1014 90 10000 2.06 330 20:59 27.08.2021
6612 Clouds 15 1014 90 10000 2.06 330 20:30 27.08.2021
6613 Clouds 16 1013 86 10000 3.6 360 18:58 27.08.2021
6614 Clouds 16 1013 85 10000 3.6 360 18:37 27.08.2021
6615 Clouds 16 1013 85 10000 3.6 360 18:37 27.08.2021
6616 Rain 17 1012 87 10000 0.45 315 17:18 27.08.2021
6617 Clouds 17 1012 89 10000 0.45 293 15:46 27.08.2021
6618 Clouds 17 1012 83 10000 0.89 270 14:43 27.08.2021
6619 Rain 14 1012 95 10000 0.89 270 12:30 27.08.2021
6620 Clouds 14 1011 97 6000 0.45 270 11:25 27.08.2021
6621 Mist 14 1011 94 4500 0.89 270 10:43 27.08.2021
6622 Rain 14 1011 89 10000 1.34 270 09:30 27.08.2021
6623 Clouds 13 1011 89 10000 0.89 293 08:44 27.08.2021
6624 Clouds 13 1012 86 10000 0.45 270 05:54 27.08.2021
6625 Clouds 13 1013 82 10000 4.12 310 02:48 27.08.2021
6626 Clouds 13 1013 88 10000 3.6 320 00:32 27.08.2021
6627 Clear 15 1012 77 10000 3.09 280 22:29 26.08.2021
6628 Clouds 15 1012 76 10000 0.45 270 21:57 26.08.2021
6629 Clouds 16 1011 69 10000 0.45 293 20:31 26.08.2021
6630 Clouds 17 1011 64 10000 0.45 270 18:49 26.08.2021
6631 Clouds 17 1011 61 10000 0.89 293 17:44 26.08.2021
6632 Clouds 19 1010 58 10000 0.89 270 16:32 26.08.2021
6633 Clouds 19 1010 58 10000 1.34 270 15:53 26.08.2021
6634 Clouds 17 1010 85 10000 5.14 320 13:33 26.08.2021
6635 Rain 17 1011 84 10000 0.89 270 12:49 26.08.2021
6636 Clouds 17 1011 82 10000 4.12 310 11:56 26.08.2021
6637 Clouds 15 1011 90 10000 4.63 280 09:43 26.08.2021
6638 Clouds 15 1010 93 10000 0.89 270 08:33 26.08.2021
6639 Clouds 15 1011 94 10000 0.45 270 01:30 26.08.2021
6640 Drizzle 15 1012 94 4000 0.45 293 22:47 25.08.2021
6641 Drizzle 16 1013 93 4000 1.34 270 22:28 25.08.2021
6642 Clouds 17 1014 78 10000 0.89 270 20:58 25.08.2021
6643 Clouds 18 1014 75 10000 0.89 270 20:31 25.08.2021
6644 Clouds 18 1014 71 10000 1.34 270 19:55 25.08.2021
6645 Clouds 20 1015 65 10000 1.34 270 18:18 25.08.2021
6646 Clouds 21 1017 63 10000 1.79 270 16:31 25.08.2021
6647 Rain 20 1017 63 10000 0.89 270 15:41 25.08.2021
6648 Clouds 21 1019 64 10000 6.69 290 14:47 25.08.2021
6649 Clouds 21 1020 63 10000 6.17 270 13:58 25.08.2021
6650 Clouds 20 1021 64 10000 5.14 270 12:40 25.08.2021
6651 Clear 18 1022 73 10000 3.6 280 11:25 25.08.2021
6652 Clear 16 1022 79 10000 0.89 293 10:26 25.08.2021
6653 Clear 14 1022 86 10000 1.54 280 09:42 25.08.2021
6654 Clear 12 1022 94 10000 2.06 250 08:39 25.08.2021
6655 Clear 11 1023 96 10000 1.03 0 07:32 25.08.2021
6656 Clear 12 1027 87 10000 1.03 90 01:26 25.08.2021
6657 Clear 13 1026 80 10000 2.57 30 23:40 24.08.2021
6658 Clear 15 1026 78 10000 1.03 0 21:41 24.08.2021
6659 Clear 18 1026 66 10000 1.54 30 20:23 24.08.2021
6660 Clear 19 1026 59 10000 2.57 50 19:44 24.08.2021
6661 Clear 21 1026 49 10000 0.45 113 17:56 24.08.2021
6662 Clear 21 1027 48 10000 0.89 90 17:22 24.08.2021
6663